<?xml version="1.0" encoding="UTF-8" standalone="no" ?>
<gpx xmlns="http://www.topografix.com/GPX/1/1" xmlns:xsi="http://www.w3.org/2001/XMLSchema-instance" xsi:schemaLocation="http://www.topografix.com/GPX/1/1 http://www.topografix.com/GPX/1/1/gpx.xsd" version="1.1" creator="VisuGPX - https://www.visugpx.com">
  <metadata>
    <name>Roc du Blanchon (Vanoise)</name>
    <desc><![CDATA[Au départ des [b]Prioux[/b], suivre la direction du  jusqu'à un carrefour à 1755m. Prendre à gauche direction [b]Montaimont[/b]. Suivre le sentier qui passe à gauche de la cabane du même nom en direction du [b]Vallonet[/b] (cabane). Suivre le sentier pas toujours bien marqué jusqu'au [b]Col du Vallonet[/b] puis plein ouest le sommet du Roc du Blanchon. Commencer la descente en suivant les crêtes.
Vers 2500, plein Ouest par le Chalet Clou et le lac pour rejoindre le sentier qui monte aux chalets des Nants. Un peu avant les chalets, prendre le raccourci qui nous ramène aux Prioux.
.
photos là: [url]https://goo.gl/photos/HhjtbJ9PnbgGEwhH9[/url]
.
Autres sorties en Vanoise: [url]https://www.visugpx.com/membres/87/vanoise/[/url]]]></desc>
  </metadata>
  <wpt lat="45.35021" lon="6.69976">
    <ele>296.209717</ele>
    <name><![CDATA[001]]></name>
    <desc><![CDATA[07-OCT-10]]></desc>
    <cmt><![CDATA[07-OCT-10]]></cmt>
  </wpt>
  <wpt lat="45.32877" lon="6.69419">
    <ele>1910.491455</ele>
    <name><![CDATA[002]]></name>
    <desc><![CDATA[07-OCT-10]]></desc>
    <cmt><![CDATA[07-OCT-10]]></cmt>
  </wpt>
  <wpt lat="45.32312" lon="6.71111">
    <ele>2426.475098</ele>
    <name><![CDATA[003]]></name>
    <desc><![CDATA[07-OCT-10]]></desc>
    <cmt><![CDATA[07-OCT-10]]></cmt>
  </wpt>
  <wpt lat="45.3276" lon="6.71792">
    <ele>2659.592773</ele>
    <name><![CDATA[004]]></name>
    <desc><![CDATA[07-OCT-10]]></desc>
    <cmt><![CDATA[07-OCT-10]]></cmt>
  </wpt>
  <wpt lat="45.32928" lon="6.71513">
    <ele>2746.351074</ele>
    <name><![CDATA[005]]></name>
    <desc><![CDATA[07-OCT-10]]></desc>
    <cmt><![CDATA[07-OCT-10]]></cmt>
  </wpt>
  <wpt lat="45.33114" lon="6.71341">
    <ele>2644.211914</ele>
    <name><![CDATA[006]]></name>
    <desc><![CDATA[07-OCT-10]]></desc>
    <cmt><![CDATA[07-OCT-10]]></cmt>
  </wpt>
  <wpt lat="45.33356" lon="6.71194">
    <ele>2528.133545</ele>
    <name><![CDATA[007]]></name>
    <desc><![CDATA[07-OCT-10]]></desc>
    <cmt><![CDATA[07-OCT-10]]></cmt>
  </wpt>
  <wpt lat="45.33821" lon="6.70673">
    <ele>2166.921143</ele>
    <name><![CDATA[008]]></name>
    <desc><![CDATA[07-OCT-10]]></desc>
    <cmt><![CDATA[07-OCT-10]]></cmt>
  </wpt>
  <trk>
    <name><![CDATA[1]]></name>
    <trkseg>
      <trkpt lat="45.3351" lon="6.69342">
        <ele>1802.128418</ele>
        <time>2010-10-07T07:39:41Z</time>
      </trkpt>
      <trkpt lat="45.33507" lon="6.69336">
        <ele>1807.896729</ele>
        <time>2010-10-07T07:39:45Z</time>
      </trkpt>
      <trkpt lat="45.33514" lon="6.69332">
        <ele>1823.277832</ele>
        <time>2010-10-07T07:39:50Z</time>
      </trkpt>
      <trkpt lat="45.33509" lon="6.69326">
        <ele>1824.719727</ele>
        <time>2010-10-07T07:39:57Z</time>
      </trkpt>
      <trkpt lat="45.33502" lon="6.69319">
        <ele>1826.161621</ele>
        <time>2010-10-07T07:40:05Z</time>
      </trkpt>
      <trkpt lat="45.33496" lon="6.69312">
        <ele>1824.239014</ele>
        <time>2010-10-07T07:40:11Z</time>
      </trkpt>
      <trkpt lat="45.33493" lon="6.69305">
        <ele>1824.719727</ele>
        <time>2010-10-07T07:40:16Z</time>
      </trkpt>
      <trkpt lat="45.33491" lon="6.69297">
        <ele>1827.123047</ele>
        <time>2010-10-07T07:40:22Z</time>
      </trkpt>
      <trkpt lat="45.33487" lon="6.6929">
        <ele>1828.084229</ele>
        <time>2010-10-07T07:40:28Z</time>
      </trkpt>
      <trkpt lat="45.33481" lon="6.69282">
        <ele>1827.603516</ele>
        <time>2010-10-07T07:40:35Z</time>
      </trkpt>
      <trkpt lat="45.3348" lon="6.69275">
        <ele>1834.813477</ele>
        <time>2010-10-07T07:40:42Z</time>
      </trkpt>
      <trkpt lat="45.33474" lon="6.69271">
        <ele>1835.293945</ele>
        <time>2010-10-07T07:40:46Z</time>
      </trkpt>
      <trkpt lat="45.3346" lon="6.69263">
        <ele>1830.006836</ele>
        <time>2010-10-07T07:40:55Z</time>
      </trkpt>
      <trkpt lat="45.33452" lon="6.69255">
        <ele>1830.968262</ele>
        <time>2010-10-07T07:41:03Z</time>
      </trkpt>
      <trkpt lat="45.33446" lon="6.69249">
        <ele>1831.929443</ele>
        <time>2010-10-07T07:41:09Z</time>
      </trkpt>
      <trkpt lat="45.33438" lon="6.69241">
        <ele>1831.929443</ele>
        <time>2010-10-07T07:41:16Z</time>
      </trkpt>
      <trkpt lat="45.33434" lon="6.69239">
        <ele>1833.371338</ele>
        <time>2010-10-07T07:41:20Z</time>
      </trkpt>
      <trkpt lat="45.33431" lon="6.69236">
        <ele>1833.371338</ele>
        <time>2010-10-07T07:41:23Z</time>
      </trkpt>
      <trkpt lat="45.33425" lon="6.6923">
        <ele>1833.852051</ele>
        <time>2010-10-07T07:41:30Z</time>
      </trkpt>
      <trkpt lat="45.33422" lon="6.69227">
        <ele>1834.332764</ele>
        <time>2010-10-07T07:41:33Z</time>
      </trkpt>
      <trkpt lat="45.33414" lon="6.69217">
        <ele>1835.293945</ele>
        <time>2010-10-07T07:41:41Z</time>
      </trkpt>
      <trkpt lat="45.3341" lon="6.6921">
        <ele>1835.774658</ele>
        <time>2010-10-07T07:41:46Z</time>
      </trkpt>
      <trkpt lat="45.33407" lon="6.69204">
        <ele>1835.774658</ele>
        <time>2010-10-07T07:41:50Z</time>
      </trkpt>
      <trkpt lat="45.33403" lon="6.69196">
        <ele>1835.774658</ele>
        <time>2010-10-07T07:41:56Z</time>
      </trkpt>
      <trkpt lat="45.33396" lon="6.69186">
        <ele>1836.736084</ele>
        <time>2010-10-07T07:42:04Z</time>
      </trkpt>
      <trkpt lat="45.33395" lon="6.69185">
        <ele>1836.736084</ele>
        <time>2010-10-07T07:42:05Z</time>
      </trkpt>
      <trkpt lat="45.33393" lon="6.69184">
        <ele>1837.216797</ele>
        <time>2010-10-07T07:42:07Z</time>
      </trkpt>
      <trkpt lat="45.33391" lon="6.69189">
        <ele>1839.139404</ele>
        <time>2010-10-07T07:42:12Z</time>
      </trkpt>
      <trkpt lat="45.33394" lon="6.69193">
        <ele>1841.062012</ele>
        <time>2010-10-07T07:42:15Z</time>
      </trkpt>
      <trkpt lat="45.33396" lon="6.69203">
        <ele>1841.542725</ele>
        <time>2010-10-07T07:42:21Z</time>
      </trkpt>
      <trkpt lat="45.33397" lon="6.69207">
        <ele>1842.023438</ele>
        <time>2010-10-07T07:42:23Z</time>
      </trkpt>
      <trkpt lat="45.33399" lon="6.69218">
        <ele>1842.50415</ele>
        <time>2010-10-07T07:42:29Z</time>
      </trkpt>
      <trkpt lat="45.33405" lon="6.69228">
        <ele>1847.310547</ele>
        <time>2010-10-07T07:42:35Z</time>
      </trkpt>
      <trkpt lat="45.33408" lon="6.69231">
        <ele>1849.233154</ele>
        <time>2010-10-07T07:42:37Z</time>
      </trkpt>
      <trkpt lat="45.33413" lon="6.6924">
        <ele>1849.233154</ele>
        <time>2010-10-07T07:42:44Z</time>
      </trkpt>
      <trkpt lat="45.33415" lon="6.69243">
        <ele>1850.675049</ele>
        <time>2010-10-07T07:42:46Z</time>
      </trkpt>
      <trkpt lat="45.33419" lon="6.69249">
        <ele>1853.078613</ele>
        <time>2010-10-07T07:42:50Z</time>
      </trkpt>
      <trkpt lat="45.33417" lon="6.69259">
        <ele>1847.310547</ele>
        <time>2010-10-07T07:42:57Z</time>
      </trkpt>
      <trkpt lat="45.33423" lon="6.69267">
        <ele>1847.79126</ele>
        <time>2010-10-07T07:43:03Z</time>
      </trkpt>
      <trkpt lat="45.33424" lon="6.69272">
        <ele>1847.310547</ele>
        <time>2010-10-07T07:43:06Z</time>
      </trkpt>
      <trkpt lat="45.33427" lon="6.69278">
        <ele>1849.713867</ele>
        <time>2010-10-07T07:43:10Z</time>
      </trkpt>
      <trkpt lat="45.33432" lon="6.69287">
        <ele>1850.675049</ele>
        <time>2010-10-07T07:43:16Z</time>
      </trkpt>
      <trkpt lat="45.33433" lon="6.6929">
        <ele>1850.675049</ele>
        <time>2010-10-07T07:43:19Z</time>
      </trkpt>
      <trkpt lat="45.33437" lon="6.69299">
        <ele>1850.675049</ele>
        <time>2010-10-07T07:43:26Z</time>
      </trkpt>
      <trkpt lat="45.33438" lon="6.693">
        <ele>1850.19458</ele>
        <time>2010-10-07T07:43:27Z</time>
      </trkpt>
      <trkpt lat="45.33439" lon="6.69303">
        <ele>1850.675049</ele>
        <time>2010-10-07T07:43:29Z</time>
      </trkpt>
      <trkpt lat="45.33443" lon="6.6931">
        <ele>1849.233154</ele>
        <time>2010-10-07T07:43:36Z</time>
      </trkpt>
      <trkpt lat="45.33444" lon="6.69311">
        <ele>1848.752441</ele>
        <time>2010-10-07T07:43:37Z</time>
      </trkpt>
      <trkpt lat="45.33446" lon="6.69321">
        <ele>1849.233154</ele>
        <time>2010-10-07T07:43:43Z</time>
      </trkpt>
      <trkpt lat="45.33457" lon="6.69332">
        <ele>1858.846436</ele>
        <time>2010-10-07T07:43:50Z</time>
      </trkpt>
      <trkpt lat="45.33461" lon="6.6934">
        <ele>1860.28833</ele>
        <time>2010-10-07T07:43:56Z</time>
      </trkpt>
      <trkpt lat="45.33468" lon="6.69348">
        <ele>1863.172363</ele>
        <time>2010-10-07T07:44:03Z</time>
      </trkpt>
      <trkpt lat="45.3347" lon="6.69351">
        <ele>1862.69165</ele>
        <time>2010-10-07T07:44:06Z</time>
      </trkpt>
      <trkpt lat="45.3347" lon="6.69356">
        <ele>1862.69165</ele>
        <time>2010-10-07T07:44:09Z</time>
      </trkpt>
      <trkpt lat="45.33476" lon="6.69363">
        <ele>1865.575684</ele>
        <time>2010-10-07T07:44:14Z</time>
      </trkpt>
      <trkpt lat="45.33482" lon="6.69373">
        <ele>1868.459717</ele>
        <time>2010-10-07T07:44:21Z</time>
      </trkpt>
      <trkpt lat="45.33486" lon="6.69381">
        <ele>1866.056152</ele>
        <time>2010-10-07T07:44:28Z</time>
      </trkpt>
      <trkpt lat="45.3349" lon="6.69388">
        <ele>1867.017578</ele>
        <time>2010-10-07T07:44:33Z</time>
      </trkpt>
      <trkpt lat="45.33488" lon="6.69391">
        <ele>1867.017578</ele>
        <time>2010-10-07T07:44:36Z</time>
      </trkpt>
      <trkpt lat="45.33481" lon="6.69389">
        <ele>1865.094971</ele>
        <time>2010-10-07T07:44:44Z</time>
      </trkpt>
      <trkpt lat="45.33476" lon="6.6939">
        <ele>1867.017578</ele>
        <time>2010-10-07T07:45:12Z</time>
      </trkpt>
      <trkpt lat="45.33476" lon="6.69389">
        <ele>1864.614258</ele>
        <time>2010-10-07T07:45:24Z</time>
      </trkpt>
      <trkpt lat="45.33475" lon="6.69385">
        <ele>1861.730469</ele>
        <time>2010-10-07T07:45:35Z</time>
      </trkpt>
      <trkpt lat="45.33474" lon="6.6938">
        <ele>1861.730469</ele>
        <time>2010-10-07T07:45:39Z</time>
      </trkpt>
      <trkpt lat="45.33471" lon="6.69373">
        <ele>1863.172363</ele>
        <time>2010-10-07T07:45:45Z</time>
      </trkpt>
      <trkpt lat="45.33465" lon="6.69368">
        <ele>1864.133545</ele>
        <time>2010-10-07T07:45:51Z</time>
      </trkpt>
      <trkpt lat="45.33457" lon="6.69359">
        <ele>1864.614258</ele>
        <time>2010-10-07T07:46:00Z</time>
      </trkpt>
      <trkpt lat="45.33453" lon="6.69357">
        <ele>1864.614258</ele>
        <time>2010-10-07T07:46:03Z</time>
      </trkpt>
      <trkpt lat="45.33448" lon="6.69354">
        <ele>1864.614258</ele>
        <time>2010-10-07T07:46:07Z</time>
      </trkpt>
      <trkpt lat="45.33436" lon="6.69345">
        <ele>1866.056152</ele>
        <time>2010-10-07T07:46:17Z</time>
      </trkpt>
      <trkpt lat="45.33429" lon="6.69338">
        <ele>1866.536865</ele>
        <time>2010-10-07T07:46:24Z</time>
      </trkpt>
      <trkpt lat="45.33423" lon="6.69331">
        <ele>1867.97876</ele>
        <time>2010-10-07T07:46:30Z</time>
      </trkpt>
      <trkpt lat="45.33417" lon="6.69324">
        <ele>1868.459717</ele>
        <time>2010-10-07T07:46:37Z</time>
      </trkpt>
      <trkpt lat="45.33411" lon="6.69318">
        <ele>1868.459717</ele>
        <time>2010-10-07T07:46:43Z</time>
      </trkpt>
      <trkpt lat="45.33402" lon="6.69313">
        <ele>1868.94043</ele>
        <time>2010-10-07T07:46:50Z</time>
      </trkpt>
      <trkpt lat="45.33394" lon="6.69308">
        <ele>1869.421143</ele>
        <time>2010-10-07T07:46:57Z</time>
      </trkpt>
      <trkpt lat="45.33386" lon="6.693">
        <ele>1871.824219</ele>
        <time>2010-10-07T07:47:06Z</time>
      </trkpt>
      <trkpt lat="45.33384" lon="6.69296">
        <ele>1873.266357</ele>
        <time>2010-10-07T07:47:10Z</time>
      </trkpt>
      <trkpt lat="45.33378" lon="6.69293">
        <ele>1873.746826</ele>
        <time>2010-10-07T07:47:15Z</time>
      </trkpt>
      <trkpt lat="45.3337" lon="6.69287">
        <ele>1875.188721</ele>
        <time>2010-10-07T07:47:23Z</time>
      </trkpt>
      <trkpt lat="45.33364" lon="6.69282">
        <ele>1875.669434</ele>
        <time>2010-10-07T07:47:30Z</time>
      </trkpt>
      <trkpt lat="45.33358" lon="6.69277">
        <ele>1876.150146</ele>
        <time>2010-10-07T07:47:36Z</time>
      </trkpt>
      <trkpt lat="45.33356" lon="6.69275">
        <ele>1876.150146</ele>
        <time>2010-10-07T07:47:38Z</time>
      </trkpt>
      <trkpt lat="45.33348" lon="6.69268">
        <ele>1877.592041</ele>
        <time>2010-10-07T07:47:46Z</time>
      </trkpt>
      <trkpt lat="45.33347" lon="6.69267">
        <ele>1878.072754</ele>
        <time>2010-10-07T07:47:47Z</time>
      </trkpt>
      <trkpt lat="45.3334" lon="6.69259">
        <ele>1879.514648</ele>
        <time>2010-10-07T07:47:55Z</time>
      </trkpt>
      <trkpt lat="45.33338" lon="6.69257">
        <ele>1879.995361</ele>
        <time>2010-10-07T07:47:58Z</time>
      </trkpt>
      <trkpt lat="45.3333" lon="6.69253">
        <ele>1880.476074</ele>
        <time>2010-10-07T07:48:05Z</time>
      </trkpt>
      <trkpt lat="45.33322" lon="6.69248">
        <ele>1880.956787</ele>
        <time>2010-10-07T07:48:13Z</time>
      </trkpt>
      <trkpt lat="45.33321" lon="6.69244">
        <ele>1882.398682</ele>
        <time>2010-10-07T07:48:17Z</time>
      </trkpt>
      <trkpt lat="45.33317" lon="6.69238">
        <ele>1883.840576</ele>
        <time>2010-10-07T07:48:23Z</time>
      </trkpt>
      <trkpt lat="45.33308" lon="6.69233">
        <ele>1883.840576</ele>
        <time>2010-10-07T07:48:31Z</time>
      </trkpt>
      <trkpt lat="45.33298" lon="6.69229">
        <ele>1885.763428</ele>
        <time>2010-10-07T07:48:40Z</time>
      </trkpt>
      <trkpt lat="45.33293" lon="6.69228">
        <ele>1886.244141</ele>
        <time>2010-10-07T07:48:46Z</time>
      </trkpt>
      <trkpt lat="45.3329" lon="6.69226">
        <ele>1886.724609</ele>
        <time>2010-10-07T07:48:49Z</time>
      </trkpt>
      <trkpt lat="45.33282" lon="6.69223">
        <ele>1887.686035</ele>
        <time>2010-10-07T07:48:56Z</time>
      </trkpt>
      <trkpt lat="45.33275" lon="6.69221">
        <ele>1888.166748</ele>
        <time>2010-10-07T07:49:02Z</time>
      </trkpt>
      <trkpt lat="45.33269" lon="6.69219">
        <ele>1888.166748</ele>
        <time>2010-10-07T07:49:07Z</time>
      </trkpt>
      <trkpt lat="45.33262" lon="6.69216">
        <ele>1888.647461</ele>
        <time>2010-10-07T07:49:14Z</time>
      </trkpt>
      <trkpt lat="45.33253" lon="6.69214">
        <ele>1889.608643</ele>
        <time>2010-10-07T07:49:23Z</time>
      </trkpt>
      <trkpt lat="45.33248" lon="6.69213">
        <ele>1891.53125</ele>
        <time>2010-10-07T07:49:27Z</time>
      </trkpt>
      <trkpt lat="45.33239" lon="6.69217">
        <ele>1892.973145</ele>
        <time>2010-10-07T07:49:35Z</time>
      </trkpt>
      <trkpt lat="45.3323" lon="6.69222">
        <ele>1893.93457</ele>
        <time>2010-10-07T07:49:44Z</time>
      </trkpt>
      <trkpt lat="45.33221" lon="6.69226">
        <ele>1893.93457</ele>
        <time>2010-10-07T07:49:53Z</time>
      </trkpt>
      <trkpt lat="45.33215" lon="6.69229">
        <ele>1893.93457</ele>
        <time>2010-10-07T07:49:59Z</time>
      </trkpt>
      <trkpt lat="45.33206" lon="6.69231">
        <ele>1895.857178</ele>
        <time>2010-10-07T07:50:06Z</time>
      </trkpt>
      <trkpt lat="45.332" lon="6.69234">
        <ele>1895.857178</ele>
        <time>2010-10-07T07:50:12Z</time>
      </trkpt>
      <trkpt lat="45.33191" lon="6.69236">
        <ele>1899.22168</ele>
        <time>2010-10-07T07:50:19Z</time>
      </trkpt>
      <trkpt lat="45.33184" lon="6.6924">
        <ele>1900.18335</ele>
        <time>2010-10-07T07:50:26Z</time>
      </trkpt>
      <trkpt lat="45.33177" lon="6.69242">
        <ele>1901.625244</ele>
        <time>2010-10-07T07:50:31Z</time>
      </trkpt>
      <trkpt lat="45.3317" lon="6.69247">
        <ele>1902.586426</ele>
        <time>2010-10-07T07:50:39Z</time>
      </trkpt>
      <trkpt lat="45.33165" lon="6.69251">
        <ele>1903.067139</ele>
        <time>2010-10-07T07:50:45Z</time>
      </trkpt>
      <trkpt lat="45.33157" lon="6.69256">
        <ele>1902.586426</ele>
        <time>2010-10-07T07:50:53Z</time>
      </trkpt>
      <trkpt lat="45.3315" lon="6.6926">
        <ele>1903.067139</ele>
        <time>2010-10-07T07:51:00Z</time>
      </trkpt>
      <trkpt lat="45.33142" lon="6.69262">
        <ele>1904.509033</ele>
        <time>2010-10-07T07:51:07Z</time>
      </trkpt>
      <trkpt lat="45.33133" lon="6.69265">
        <ele>1905.470459</ele>
        <time>2010-10-07T07:51:14Z</time>
      </trkpt>
      <trkpt lat="45.33127" lon="6.69272">
        <ele>1904.028564</ele>
        <time>2010-10-07T07:51:21Z</time>
      </trkpt>
      <trkpt lat="45.33121" lon="6.69278">
        <ele>1902.586426</ele>
        <time>2010-10-07T07:51:28Z</time>
      </trkpt>
      <trkpt lat="45.33114" lon="6.69284">
        <ele>1902.586426</ele>
        <time>2010-10-07T07:51:35Z</time>
      </trkpt>
      <trkpt lat="45.33108" lon="6.69291">
        <ele>1902.105713</ele>
        <time>2010-10-07T07:51:41Z</time>
      </trkpt>
      <trkpt lat="45.331" lon="6.69297">
        <ele>1903.067139</ele>
        <time>2010-10-07T07:51:48Z</time>
      </trkpt>
      <trkpt lat="45.33091" lon="6.69307">
        <ele>1904.028564</ele>
        <time>2010-10-07T07:51:57Z</time>
      </trkpt>
      <trkpt lat="45.33085" lon="6.69314">
        <ele>1904.028564</ele>
        <time>2010-10-07T07:52:03Z</time>
      </trkpt>
      <trkpt lat="45.33078" lon="6.69321">
        <ele>1903.067139</ele>
        <time>2010-10-07T07:52:10Z</time>
      </trkpt>
      <trkpt lat="45.33071" lon="6.69328">
        <ele>1901.625244</ele>
        <time>2010-10-07T07:52:17Z</time>
      </trkpt>
      <trkpt lat="45.33064" lon="6.69336">
        <ele>1901.625244</ele>
        <time>2010-10-07T07:52:24Z</time>
      </trkpt>
      <trkpt lat="45.33054" lon="6.69341">
        <ele>1902.586426</ele>
        <time>2010-10-07T07:52:32Z</time>
      </trkpt>
      <trkpt lat="45.33046" lon="6.69338">
        <ele>1901.144531</ele>
        <time>2010-10-07T07:52:39Z</time>
      </trkpt>
      <trkpt lat="45.33039" lon="6.69336">
        <ele>1904.028564</ele>
        <time>2010-10-07T07:52:44Z</time>
      </trkpt>
      <trkpt lat="45.33031" lon="6.69333">
        <ele>1904.028564</ele>
        <time>2010-10-07T07:52:50Z</time>
      </trkpt>
      <trkpt lat="45.33026" lon="6.69336">
        <ele>1903.067139</ele>
        <time>2010-10-07T07:52:55Z</time>
      </trkpt>
      <trkpt lat="45.33021" lon="6.69351">
        <ele>1902.586426</ele>
        <time>2010-10-07T07:53:03Z</time>
      </trkpt>
      <trkpt lat="45.33016" lon="6.69361">
        <ele>1902.586426</ele>
        <time>2010-10-07T07:53:10Z</time>
      </trkpt>
      <trkpt lat="45.33013" lon="6.69365">
        <ele>1902.586426</ele>
        <time>2010-10-07T07:53:14Z</time>
      </trkpt>
      <trkpt lat="45.33006" lon="6.69371">
        <ele>1903.067139</ele>
        <time>2010-10-07T07:53:20Z</time>
      </trkpt>
      <trkpt lat="45.33005" lon="6.69372">
        <ele>1903.067139</ele>
        <time>2010-10-07T07:53:21Z</time>
      </trkpt>
      <trkpt lat="45.32999" lon="6.69377">
        <ele>1902.586426</ele>
        <time>2010-10-07T07:53:27Z</time>
      </trkpt>
      <trkpt lat="45.32994" lon="6.6938">
        <ele>1904.989746</ele>
        <time>2010-10-07T07:53:32Z</time>
      </trkpt>
      <trkpt lat="45.3299" lon="6.69385">
        <ele>1904.509033</ele>
        <time>2010-10-07T07:53:38Z</time>
      </trkpt>
      <trkpt lat="45.32986" lon="6.69392">
        <ele>1904.989746</ele>
        <time>2010-10-07T07:53:43Z</time>
      </trkpt>
      <trkpt lat="45.32984" lon="6.69396">
        <ele>1904.989746</ele>
        <time>2010-10-07T07:53:47Z</time>
      </trkpt>
      <trkpt lat="45.32982" lon="6.69401">
        <ele>1904.989746</ele>
        <time>2010-10-07T07:53:52Z</time>
      </trkpt>
      <trkpt lat="45.32979" lon="6.69412">
        <ele>1904.509033</ele>
        <time>2010-10-07T07:53:59Z</time>
      </trkpt>
      <trkpt lat="45.32975" lon="6.69417">
        <ele>1906.912354</ele>
        <time>2010-10-07T07:54:03Z</time>
      </trkpt>
      <trkpt lat="45.32972" lon="6.6942">
        <ele>1907.873779</ele>
        <time>2010-10-07T07:54:06Z</time>
      </trkpt>
      <trkpt lat="45.32965" lon="6.69418">
        <ele>1906.912354</ele>
        <time>2010-10-07T07:54:11Z</time>
      </trkpt>
      <trkpt lat="45.32966" lon="6.69415">
        <ele>1904.989746</ele>
        <time>2010-10-07T07:54:13Z</time>
      </trkpt>
      <trkpt lat="45.32971" lon="6.69406">
        <ele>1900.18335</ele>
        <time>2010-10-07T07:54:20Z</time>
      </trkpt>
      <trkpt lat="45.32972" lon="6.69405">
        <ele>1899.22168</ele>
        <time>2010-10-07T07:54:21Z</time>
      </trkpt>
      <trkpt lat="45.3297" lon="6.69396">
        <ele>1899.702393</ele>
        <time>2010-10-07T07:54:27Z</time>
      </trkpt>
      <trkpt lat="45.32967" lon="6.6939">
        <ele>1900.663818</ele>
        <time>2010-10-07T07:54:31Z</time>
      </trkpt>
      <trkpt lat="45.32972" lon="6.69385">
        <ele>1895.857178</ele>
        <time>2010-10-07T07:54:36Z</time>
      </trkpt>
      <trkpt lat="45.32974" lon="6.69379">
        <ele>1892.011963</ele>
        <time>2010-10-07T07:54:41Z</time>
      </trkpt>
      <trkpt lat="45.3297" lon="6.69368">
        <ele>1894.895752</ele>
        <time>2010-10-07T07:54:47Z</time>
      </trkpt>
      <trkpt lat="45.32965" lon="6.6936">
        <ele>1899.702393</ele>
        <time>2010-10-07T07:54:52Z</time>
      </trkpt>
      <trkpt lat="45.32964" lon="6.69358">
        <ele>1900.18335</ele>
        <time>2010-10-07T07:54:53Z</time>
      </trkpt>
      <trkpt lat="45.32955" lon="6.69345">
        <ele>1906.431641</ele>
        <time>2010-10-07T07:55:00Z</time>
      </trkpt>
      <trkpt lat="45.32946" lon="6.69339">
        <ele>1908.834961</ele>
        <time>2010-10-07T07:55:06Z</time>
      </trkpt>
      <trkpt lat="45.32936" lon="6.69338">
        <ele>1908.354248</ele>
        <time>2010-10-07T07:55:13Z</time>
      </trkpt>
      <trkpt lat="45.32934" lon="6.69339">
        <ele>1907.873779</ele>
        <time>2010-10-07T07:55:15Z</time>
      </trkpt>
      <trkpt lat="45.32929" lon="6.6934">
        <ele>1907.393066</ele>
        <time>2010-10-07T07:55:19Z</time>
      </trkpt>
      <trkpt lat="45.32919" lon="6.69344">
        <ele>1905.470459</ele>
        <time>2010-10-07T07:55:27Z</time>
      </trkpt>
      <trkpt lat="45.3291" lon="6.69348">
        <ele>1904.028564</ele>
        <time>2010-10-07T07:55:35Z</time>
      </trkpt>
      <trkpt lat="45.32906" lon="6.69351">
        <ele>1903.067139</ele>
        <time>2010-10-07T07:55:41Z</time>
      </trkpt>
      <trkpt lat="45.329" lon="6.69357">
        <ele>1901.144531</ele>
        <time>2010-10-07T07:55:47Z</time>
      </trkpt>
      <trkpt lat="45.32892" lon="6.69365">
        <ele>1900.663818</ele>
        <time>2010-10-07T07:55:54Z</time>
      </trkpt>
      <trkpt lat="45.32887" lon="6.69371">
        <ele>1902.105713</ele>
        <time>2010-10-07T07:55:58Z</time>
      </trkpt>
      <trkpt lat="45.32879" lon="6.69378">
        <ele>1906.912354</ele>
        <time>2010-10-07T07:56:04Z</time>
      </trkpt>
      <trkpt lat="45.32875" lon="6.69384">
        <ele>1906.912354</ele>
        <time>2010-10-07T07:56:11Z</time>
      </trkpt>
      <trkpt lat="45.32871" lon="6.69386">
        <ele>1908.834961</ele>
        <time>2010-10-07T07:56:14Z</time>
      </trkpt>
      <trkpt lat="45.32869" lon="6.69386">
        <ele>1912.199463</ele>
        <time>2010-10-07T07:56:20Z</time>
      </trkpt>
      <trkpt lat="45.32867" lon="6.69385">
        <ele>1913.160889</ele>
        <time>2010-10-07T07:56:29Z</time>
      </trkpt>
      <trkpt lat="45.32868" lon="6.69385">
        <ele>1909.796143</ele>
        <time>2010-10-07T07:56:35Z</time>
      </trkpt>
      <trkpt lat="45.32868" lon="6.6939">
        <ele>1909.796143</ele>
        <time>2010-10-07T07:56:52Z</time>
      </trkpt>
      <trkpt lat="45.32867" lon="6.69399">
        <ele>1913.641357</ele>
        <time>2010-10-07T07:56:58Z</time>
      </trkpt>
      <trkpt lat="45.3287" lon="6.69405">
        <ele>1913.641357</ele>
        <time>2010-10-07T07:57:05Z</time>
      </trkpt>
      <trkpt lat="45.32872" lon="6.69407">
        <ele>1911.718994</ele>
        <time>2010-10-07T07:57:07Z</time>
      </trkpt>
      <trkpt lat="45.32877" lon="6.69415">
        <ele>1910.757568</ele>
        <time>2010-10-07T07:57:13Z</time>
      </trkpt>
      <trkpt lat="45.32876" lon="6.69418">
        <ele>1910.276855</ele>
        <time>2010-10-07T07:57:21Z</time>
      </trkpt>
      <trkpt lat="45.32872" lon="6.69419">
        <ele>1914.602783</ele>
        <time>2010-10-07T07:57:30Z</time>
      </trkpt>
      <trkpt lat="45.32867" lon="6.69418">
        <ele>1916.044922</ele>
        <time>2010-10-07T07:57:37Z</time>
      </trkpt>
      <trkpt lat="45.32867" lon="6.69418">
        <ele>1911.718994</ele>
        <time>2010-10-07T07:58:01Z</time>
      </trkpt>
      <trkpt lat="45.32864" lon="6.69418">
        <ele>1909.796143</ele>
        <time>2010-10-07T07:58:06Z</time>
      </trkpt>
      <trkpt lat="45.32858" lon="6.69423">
        <ele>1910.757568</ele>
        <time>2010-10-07T07:58:13Z</time>
      </trkpt>
      <trkpt lat="45.32853" lon="6.69427">
        <ele>1912.680176</ele>
        <time>2010-10-07T07:58:20Z</time>
      </trkpt>
      <trkpt lat="45.32849" lon="6.69432">
        <ele>1913.160889</ele>
        <time>2010-10-07T07:58:27Z</time>
      </trkpt>
      <trkpt lat="45.32843" lon="6.69436">
        <ele>1917.006348</ele>
        <time>2010-10-07T07:58:34Z</time>
      </trkpt>
      <trkpt lat="45.32839" lon="6.69439">
        <ele>1917.967529</ele>
        <time>2010-10-07T07:58:39Z</time>
      </trkpt>
      <trkpt lat="45.32833" lon="6.69445">
        <ele>1918.448242</ele>
        <time>2010-10-07T07:58:47Z</time>
      </trkpt>
      <trkpt lat="45.3283" lon="6.69446">
        <ele>1919.409668</ele>
        <time>2010-10-07T07:58:49Z</time>
      </trkpt>
      <trkpt lat="45.32822" lon="6.69452">
        <ele>1921.332031</ele>
        <time>2010-10-07T07:58:57Z</time>
      </trkpt>
      <trkpt lat="45.32817" lon="6.69457">
        <ele>1922.77417</ele>
        <time>2010-10-07T07:59:04Z</time>
      </trkpt>
      <trkpt lat="45.32811" lon="6.6946">
        <ele>1926.138672</ele>
        <time>2010-10-07T07:59:09Z</time>
      </trkpt>
      <trkpt lat="45.32805" lon="6.69465">
        <ele>1926.619385</ele>
        <time>2010-10-07T07:59:16Z</time>
      </trkpt>
      <trkpt lat="45.328" lon="6.6947">
        <ele>1923.254883</ele>
        <time>2010-10-07T07:59:25Z</time>
      </trkpt>
      <trkpt lat="45.328" lon="6.69474">
        <ele>1921.812744</ele>
        <time>2010-10-07T07:59:30Z</time>
      </trkpt>
      <trkpt lat="45.32798" lon="6.69478">
        <ele>1921.332031</ele>
        <time>2010-10-07T07:59:35Z</time>
      </trkpt>
      <trkpt lat="45.32795" lon="6.6948">
        <ele>1921.812744</ele>
        <time>2010-10-07T07:59:37Z</time>
      </trkpt>
      <trkpt lat="45.32792" lon="6.69487">
        <ele>1922.77417</ele>
        <time>2010-10-07T07:59:42Z</time>
      </trkpt>
      <trkpt lat="45.32792" lon="6.69495">
        <ele>1923.735352</ele>
        <time>2010-10-07T07:59:46Z</time>
      </trkpt>
      <trkpt lat="45.32792" lon="6.69501">
        <ele>1923.254883</ele>
        <time>2010-10-07T07:59:50Z</time>
      </trkpt>
      <trkpt lat="45.32789" lon="6.69504">
        <ele>1921.332031</ele>
        <time>2010-10-07T07:59:57Z</time>
      </trkpt>
      <trkpt lat="45.32786" lon="6.69506">
        <ele>1919.890137</ele>
        <time>2010-10-07T08:00:02Z</time>
      </trkpt>
      <trkpt lat="45.32784" lon="6.69509">
        <ele>1919.409668</ele>
        <time>2010-10-07T08:00:07Z</time>
      </trkpt>
      <trkpt lat="45.32783" lon="6.69514">
        <ele>1919.409668</ele>
        <time>2010-10-07T08:00:14Z</time>
      </trkpt>
      <trkpt lat="45.32782" lon="6.69518">
        <ele>1918.928955</ele>
        <time>2010-10-07T08:00:20Z</time>
      </trkpt>
      <trkpt lat="45.32778" lon="6.6952">
        <ele>1917.967529</ele>
        <time>2010-10-07T08:00:27Z</time>
      </trkpt>
      <trkpt lat="45.32775" lon="6.69521">
        <ele>1917.486816</ele>
        <time>2010-10-07T08:00:30Z</time>
      </trkpt>
      <trkpt lat="45.32773" lon="6.69522">
        <ele>1917.006348</ele>
        <time>2010-10-07T08:00:35Z</time>
      </trkpt>
      <trkpt lat="45.32772" lon="6.69525">
        <ele>1916.525635</ele>
        <time>2010-10-07T08:00:39Z</time>
      </trkpt>
      <trkpt lat="45.32768" lon="6.69526">
        <ele>1916.044922</ele>
        <time>2010-10-07T08:00:45Z</time>
      </trkpt>
      <trkpt lat="45.32762" lon="6.69528">
        <ele>1915.083496</ele>
        <time>2010-10-07T08:00:55Z</time>
      </trkpt>
      <trkpt lat="45.32758" lon="6.69528">
        <ele>1914.12207</ele>
        <time>2010-10-07T08:00:59Z</time>
      </trkpt>
      <trkpt lat="45.32751" lon="6.69529">
        <ele>1913.641357</ele>
        <time>2010-10-07T08:01:06Z</time>
      </trkpt>
      <trkpt lat="45.3275" lon="6.6953">
        <ele>1912.680176</ele>
        <time>2010-10-07T08:01:12Z</time>
      </trkpt>
      <trkpt lat="45.32747" lon="6.6953">
        <ele>1911.718994</ele>
        <time>2010-10-07T08:01:18Z</time>
      </trkpt>
      <trkpt lat="45.32745" lon="6.69531">
        <ele>1910.757568</ele>
        <time>2010-10-07T08:01:23Z</time>
      </trkpt>
      <trkpt lat="45.32743" lon="6.69531">
        <ele>1910.276855</ele>
        <time>2010-10-07T08:01:28Z</time>
      </trkpt>
      <trkpt lat="45.3274" lon="6.69532">
        <ele>1909.315674</ele>
        <time>2010-10-07T08:01:33Z</time>
      </trkpt>
      <trkpt lat="45.32738" lon="6.69532">
        <ele>1909.315674</ele>
        <time>2010-10-07T08:01:38Z</time>
      </trkpt>
      <trkpt lat="45.32731" lon="6.69532">
        <ele>1908.354248</ele>
        <time>2010-10-07T08:01:47Z</time>
      </trkpt>
      <trkpt lat="45.32728" lon="6.69535">
        <ele>1907.393066</ele>
        <time>2010-10-07T08:01:55Z</time>
      </trkpt>
      <trkpt lat="45.32717" lon="6.69538">
        <ele>1917.486816</ele>
        <time>2010-10-07T08:02:04Z</time>
      </trkpt>
      <trkpt lat="45.32715" lon="6.69541">
        <ele>1918.448242</ele>
        <time>2010-10-07T08:02:08Z</time>
      </trkpt>
      <trkpt lat="45.32705" lon="6.69543">
        <ele>1920.851562</ele>
        <time>2010-10-07T08:02:15Z</time>
      </trkpt>
      <trkpt lat="45.32699" lon="6.69544">
        <ele>1924.216064</ele>
        <time>2010-10-07T08:02:20Z</time>
      </trkpt>
      <trkpt lat="45.32696" lon="6.69546">
        <ele>1925.657959</ele>
        <time>2010-10-07T08:02:25Z</time>
      </trkpt>
      <trkpt lat="45.32692" lon="6.6955">
        <ele>1924.696777</ele>
        <time>2010-10-07T08:02:34Z</time>
      </trkpt>
      <trkpt lat="45.32688" lon="6.69552">
        <ele>1924.216064</ele>
        <time>2010-10-07T08:02:40Z</time>
      </trkpt>
      <trkpt lat="45.32685" lon="6.69554">
        <ele>1923.735352</ele>
        <time>2010-10-07T08:02:43Z</time>
      </trkpt>
      <trkpt lat="45.32679" lon="6.69556">
        <ele>1928.061279</ele>
        <time>2010-10-07T08:02:53Z</time>
      </trkpt>
      <trkpt lat="45.32679" lon="6.69558">
        <ele>1927.580566</ele>
        <time>2010-10-07T08:02:57Z</time>
      </trkpt>
      <trkpt lat="45.32675" lon="6.69559">
        <ele>1929.022461</ele>
        <time>2010-10-07T08:03:03Z</time>
      </trkpt>
      <trkpt lat="45.32659" lon="6.69555">
        <ele>1943.923096</ele>
        <time>2010-10-07T08:03:51Z</time>
      </trkpt>
      <trkpt lat="45.32659" lon="6.69559">
        <ele>1939.116455</ele>
        <time>2010-10-07T08:03:59Z</time>
      </trkpt>
      <trkpt lat="45.32654" lon="6.6956">
        <ele>1940.55835</ele>
        <time>2010-10-07T08:04:04Z</time>
      </trkpt>
      <trkpt lat="45.32648" lon="6.69564">
        <ele>1939.597168</ele>
        <time>2010-10-07T08:04:13Z</time>
      </trkpt>
      <trkpt lat="45.32641" lon="6.69568">
        <ele>1943.923096</ele>
        <time>2010-10-07T08:04:20Z</time>
      </trkpt>
      <trkpt lat="45.32635" lon="6.69567">
        <ele>1945.845703</ele>
        <time>2010-10-07T08:04:26Z</time>
      </trkpt>
      <trkpt lat="45.32629" lon="6.69568">
        <ele>1947.287598</ele>
        <time>2010-10-07T08:04:37Z</time>
      </trkpt>
      <trkpt lat="45.32623" lon="6.69567">
        <ele>1950.171875</ele>
        <time>2010-10-07T08:04:43Z</time>
      </trkpt>
      <trkpt lat="45.3262" lon="6.69566">
        <ele>1951.61377</ele>
        <time>2010-10-07T08:04:48Z</time>
      </trkpt>
      <trkpt lat="45.32618" lon="6.69565">
        <ele>1952.094238</ele>
        <time>2010-10-07T08:04:51Z</time>
      </trkpt>
      <trkpt lat="45.32614" lon="6.69567">
        <ele>1953.055664</ele>
        <time>2010-10-07T08:04:58Z</time>
      </trkpt>
      <trkpt lat="45.32614" lon="6.69568">
        <ele>1955.458984</ele>
        <time>2010-10-07T08:05:05Z</time>
      </trkpt>
      <trkpt lat="45.32619" lon="6.69572">
        <ele>1954.978271</ele>
        <time>2010-10-07T08:05:09Z</time>
      </trkpt>
      <trkpt lat="45.32619" lon="6.69575">
        <ele>1956.420166</ele>
        <time>2010-10-07T08:05:12Z</time>
      </trkpt>
      <trkpt lat="45.32619" lon="6.69579">
        <ele>1958.342773</ele>
        <time>2010-10-07T08:05:17Z</time>
      </trkpt>
      <trkpt lat="45.32621" lon="6.69582">
        <ele>1958.823486</ele>
        <time>2010-10-07T08:05:21Z</time>
      </trkpt>
      <trkpt lat="45.3262" lon="6.69585">
        <ele>1958.823486</ele>
        <time>2010-10-07T08:05:25Z</time>
      </trkpt>
      <trkpt lat="45.3261" lon="6.69579">
        <ele>1961.70752</ele>
        <time>2010-10-07T08:05:40Z</time>
      </trkpt>
      <trkpt lat="45.32607" lon="6.69577">
        <ele>1962.668701</ele>
        <time>2010-10-07T08:05:46Z</time>
      </trkpt>
      <trkpt lat="45.32604" lon="6.69574">
        <ele>1963.149414</ele>
        <time>2010-10-07T08:05:52Z</time>
      </trkpt>
      <trkpt lat="45.32603" lon="6.69568">
        <ele>1961.226807</ele>
        <time>2010-10-07T08:05:59Z</time>
      </trkpt>
      <trkpt lat="45.32604" lon="6.69568">
        <ele>1959.784668</ele>
        <time>2010-10-07T08:06:02Z</time>
      </trkpt>
      <trkpt lat="45.3257" lon="6.69559">
        <ele>1990.066406</ele>
        <time>2010-10-07T08:06:09Z</time>
      </trkpt>
      <trkpt lat="45.32568" lon="6.69561">
        <ele>1992.950195</ele>
        <time>2010-10-07T08:06:14Z</time>
      </trkpt>
      <trkpt lat="45.32568" lon="6.69566">
        <ele>1994.39209</ele>
        <time>2010-10-07T08:06:19Z</time>
      </trkpt>
      <trkpt lat="45.32568" lon="6.6957">
        <ele>1995.353516</ele>
        <time>2010-10-07T08:06:23Z</time>
      </trkpt>
      <trkpt lat="45.32566" lon="6.69573">
        <ele>1996.315186</ele>
        <time>2010-10-07T08:06:29Z</time>
      </trkpt>
      <trkpt lat="45.32564" lon="6.6957">
        <ele>1997.75708</ele>
        <time>2010-10-07T08:06:34Z</time>
      </trkpt>
      <trkpt lat="45.32561" lon="6.69566">
        <ele>1999.198975</ele>
        <time>2010-10-07T08:06:39Z</time>
      </trkpt>
      <trkpt lat="45.32558" lon="6.69566">
        <ele>2002.563477</ele>
        <time>2010-10-07T08:06:52Z</time>
      </trkpt>
      <trkpt lat="45.3256" lon="6.69564">
        <ele>1998.237549</ele>
        <time>2010-10-07T08:07:03Z</time>
      </trkpt>
      <trkpt lat="45.32555" lon="6.69562">
        <ele>2000.640869</ele>
        <time>2010-10-07T08:07:09Z</time>
      </trkpt>
      <trkpt lat="45.32552" lon="6.69561">
        <ele>2002.082764</ele>
        <time>2010-10-07T08:07:11Z</time>
      </trkpt>
      <trkpt lat="45.32547" lon="6.69562">
        <ele>2006.408691</ele>
        <time>2010-10-07T08:07:21Z</time>
      </trkpt>
      <trkpt lat="45.32551" lon="6.69563">
        <ele>2004.966797</ele>
        <time>2010-10-07T08:07:34Z</time>
      </trkpt>
      <trkpt lat="45.32551" lon="6.69563">
        <ele>2006.889404</ele>
        <time>2010-10-07T08:07:41Z</time>
      </trkpt>
      <trkpt lat="45.32552" lon="6.69565">
        <ele>2008.331299</ele>
        <time>2010-10-07T08:08:01Z</time>
      </trkpt>
      <trkpt lat="45.3255" lon="6.69565">
        <ele>2003.524902</ele>
        <time>2010-10-07T08:08:11Z</time>
      </trkpt>
      <trkpt lat="45.32549" lon="6.69565">
        <ele>2006.408691</ele>
        <time>2010-10-07T08:08:22Z</time>
      </trkpt>
      <trkpt lat="45.32556" lon="6.69567">
        <ele>2009.292725</ele>
        <time>2010-10-07T08:08:31Z</time>
      </trkpt>
      <trkpt lat="45.3255" lon="6.69565">
        <ele>2006.889404</ele>
        <time>2010-10-07T08:08:44Z</time>
      </trkpt>
      <trkpt lat="45.32553" lon="6.69566">
        <ele>2005.44751</ele>
        <time>2010-10-07T08:09:07Z</time>
      </trkpt>
      <trkpt lat="45.32555" lon="6.69567">
        <ele>2002.082764</ele>
        <time>2010-10-07T08:09:32Z</time>
      </trkpt>
      <trkpt lat="45.32551" lon="6.69566">
        <ele>2004.005615</ele>
        <time>2010-10-07T08:09:42Z</time>
      </trkpt>
      <trkpt lat="45.32551" lon="6.69565">
        <ele>2004.005615</ele>
        <time>2010-10-07T08:09:51Z</time>
      </trkpt>
      <trkpt lat="45.32548" lon="6.69563">
        <ele>2006.889404</ele>
        <time>2010-10-07T08:10:03Z</time>
      </trkpt>
      <trkpt lat="45.32542" lon="6.69565">
        <ele>2009.292725</ele>
        <time>2010-10-07T08:10:11Z</time>
      </trkpt>
      <trkpt lat="45.3254" lon="6.69568">
        <ele>2011.215332</ele>
        <time>2010-10-07T08:10:16Z</time>
      </trkpt>
      <trkpt lat="45.32536" lon="6.69572">
        <ele>2010.253906</ele>
        <time>2010-10-07T08:10:23Z</time>
      </trkpt>
      <trkpt lat="45.32534" lon="6.69578">
        <ele>2008.331299</ele>
        <time>2010-10-07T08:10:39Z</time>
      </trkpt>
      <trkpt lat="45.3253" lon="6.69581">
        <ele>2007.85083</ele>
        <time>2010-10-07T08:10:45Z</time>
      </trkpt>
      <trkpt lat="45.32526" lon="6.69579">
        <ele>2011.696045</ele>
        <time>2010-10-07T08:10:53Z</time>
      </trkpt>
      <trkpt lat="45.32524" lon="6.69582">
        <ele>2011.215332</ele>
        <time>2010-10-07T08:10:57Z</time>
      </trkpt>
      <trkpt lat="45.32521" lon="6.69585">
        <ele>2013.138184</ele>
        <time>2010-10-07T08:11:02Z</time>
      </trkpt>
      <trkpt lat="45.32523" lon="6.69586">
        <ele>2011.215332</ele>
        <time>2010-10-07T08:11:10Z</time>
      </trkpt>
      <trkpt lat="45.3252" lon="6.6959">
        <ele>2009.292725</ele>
        <time>2010-10-07T08:11:15Z</time>
      </trkpt>
      <trkpt lat="45.32514" lon="6.69593">
        <ele>2009.773193</ele>
        <time>2010-10-07T08:11:20Z</time>
      </trkpt>
      <trkpt lat="45.3251" lon="6.69594">
        <ele>2011.215332</ele>
        <time>2010-10-07T08:11:23Z</time>
      </trkpt>
      <trkpt lat="45.32509" lon="6.69597">
        <ele>2011.215332</ele>
        <time>2010-10-07T08:11:26Z</time>
      </trkpt>
      <trkpt lat="45.32507" lon="6.69602">
        <ele>2011.696045</ele>
        <time>2010-10-07T08:11:29Z</time>
      </trkpt>
      <trkpt lat="45.32503" lon="6.69611">
        <ele>2010.253906</ele>
        <time>2010-10-07T08:11:37Z</time>
      </trkpt>
      <trkpt lat="45.32502" lon="6.69616">
        <ele>2009.292725</ele>
        <time>2010-10-07T08:11:41Z</time>
      </trkpt>
      <trkpt lat="45.32499" lon="6.69617">
        <ele>2009.773193</ele>
        <time>2010-10-07T08:11:45Z</time>
      </trkpt>
      <trkpt lat="45.32499" lon="6.69619">
        <ele>2010.253906</ele>
        <time>2010-10-07T08:11:58Z</time>
      </trkpt>
      <trkpt lat="45.32499" lon="6.69622">
        <ele>2012.176758</ele>
        <time>2010-10-07T08:12:08Z</time>
      </trkpt>
      <trkpt lat="45.32498" lon="6.69622">
        <ele>2012.657471</ele>
        <time>2010-10-07T08:12:15Z</time>
      </trkpt>
      <trkpt lat="45.32496" lon="6.69626">
        <ele>2011.696045</ele>
        <time>2010-10-07T08:12:25Z</time>
      </trkpt>
      <trkpt lat="45.32492" lon="6.69629">
        <ele>2013.138184</ele>
        <time>2010-10-07T08:12:30Z</time>
      </trkpt>
      <trkpt lat="45.32491" lon="6.69636">
        <ele>2011.696045</ele>
        <time>2010-10-07T08:12:36Z</time>
      </trkpt>
      <trkpt lat="45.3249" lon="6.69641">
        <ele>2011.696045</ele>
        <time>2010-10-07T08:12:41Z</time>
      </trkpt>
      <trkpt lat="45.32487" lon="6.69645">
        <ele>2012.657471</ele>
        <time>2010-10-07T08:12:46Z</time>
      </trkpt>
      <trkpt lat="45.32484" lon="6.69645">
        <ele>2012.657471</ele>
        <time>2010-10-07T08:12:48Z</time>
      </trkpt>
      <trkpt lat="45.32479" lon="6.69645">
        <ele>2014.099365</ele>
        <time>2010-10-07T08:12:53Z</time>
      </trkpt>
      <trkpt lat="45.32472" lon="6.6965">
        <ele>2016.021973</ele>
        <time>2010-10-07T08:12:59Z</time>
      </trkpt>
      <trkpt lat="45.32469" lon="6.69654">
        <ele>2016.021973</ele>
        <time>2010-10-07T08:13:05Z</time>
      </trkpt>
      <trkpt lat="45.32468" lon="6.69658">
        <ele>2016.502686</ele>
        <time>2010-10-07T08:13:09Z</time>
      </trkpt>
      <trkpt lat="45.32465" lon="6.69662">
        <ele>2018.906006</ele>
        <time>2010-10-07T08:13:15Z</time>
      </trkpt>
      <trkpt lat="45.32463" lon="6.69667">
        <ele>2019.386719</ele>
        <time>2010-10-07T08:13:21Z</time>
      </trkpt>
      <trkpt lat="45.32462" lon="6.69673">
        <ele>2019.386719</ele>
        <time>2010-10-07T08:13:26Z</time>
      </trkpt>
      <trkpt lat="45.32459" lon="6.69682">
        <ele>2020.3479</ele>
        <time>2010-10-07T08:13:33Z</time>
      </trkpt>
      <trkpt lat="45.32457" lon="6.69687">
        <ele>2021.789795</ele>
        <time>2010-10-07T08:13:37Z</time>
      </trkpt>
      <trkpt lat="45.32456" lon="6.69696">
        <ele>2021.789795</ele>
        <time>2010-10-07T08:13:43Z</time>
      </trkpt>
      <trkpt lat="45.32456" lon="6.697">
        <ele>2021.789795</ele>
        <time>2010-10-07T08:13:45Z</time>
      </trkpt>
      <trkpt lat="45.32458" lon="6.69711">
        <ele>2021.789795</ele>
        <time>2010-10-07T08:13:51Z</time>
      </trkpt>
      <trkpt lat="45.32458" lon="6.6972">
        <ele>2022.270508</ele>
        <time>2010-10-07T08:13:56Z</time>
      </trkpt>
      <trkpt lat="45.32455" lon="6.69728">
        <ele>2021.789795</ele>
        <time>2010-10-07T08:14:02Z</time>
      </trkpt>
      <trkpt lat="45.32455" lon="6.69729">
        <ele>2021.789795</ele>
        <time>2010-10-07T08:14:03Z</time>
      </trkpt>
      <trkpt lat="45.32454" lon="6.69736">
        <ele>2021.789795</ele>
        <time>2010-10-07T08:14:08Z</time>
      </trkpt>
      <trkpt lat="45.32454" lon="6.69741">
        <ele>2022.270508</ele>
        <time>2010-10-07T08:14:12Z</time>
      </trkpt>
      <trkpt lat="45.32454" lon="6.69746">
        <ele>2022.270508</ele>
        <time>2010-10-07T08:14:16Z</time>
      </trkpt>
      <trkpt lat="45.32453" lon="6.69751">
        <ele>2022.751221</ele>
        <time>2010-10-07T08:14:20Z</time>
      </trkpt>
      <trkpt lat="45.32453" lon="6.69756">
        <ele>2023.231934</ele>
        <time>2010-10-07T08:14:24Z</time>
      </trkpt>
      <trkpt lat="45.32452" lon="6.6976">
        <ele>2024.193115</ele>
        <time>2010-10-07T08:14:28Z</time>
      </trkpt>
      <trkpt lat="45.3245" lon="6.69766">
        <ele>2025.154297</ele>
        <time>2010-10-07T08:14:34Z</time>
      </trkpt>
      <trkpt lat="45.32448" lon="6.6977">
        <ele>2024.673828</ele>
        <time>2010-10-07T08:14:39Z</time>
      </trkpt>
      <trkpt lat="45.32444" lon="6.69771">
        <ele>2024.193115</ele>
        <time>2010-10-07T08:14:43Z</time>
      </trkpt>
      <trkpt lat="45.32443" lon="6.69776">
        <ele>2025.63501</ele>
        <time>2010-10-07T08:14:47Z</time>
      </trkpt>
      <trkpt lat="45.32444" lon="6.6978">
        <ele>2026.115723</ele>
        <time>2010-10-07T08:14:51Z</time>
      </trkpt>
      <trkpt lat="45.32445" lon="6.69784">
        <ele>2026.596436</ele>
        <time>2010-10-07T08:14:55Z</time>
      </trkpt>
      <trkpt lat="45.32443" lon="6.69786">
        <ele>2028.038574</ele>
        <time>2010-10-07T08:15:00Z</time>
      </trkpt>
      <trkpt lat="45.32441" lon="6.69791">
        <ele>2030.922607</ele>
        <time>2010-10-07T08:15:05Z</time>
      </trkpt>
      <trkpt lat="45.32437" lon="6.69794">
        <ele>2030.922607</ele>
        <time>2010-10-07T08:15:10Z</time>
      </trkpt>
      <trkpt lat="45.32435" lon="6.69795">
        <ele>2031.883789</ele>
        <time>2010-10-07T08:15:11Z</time>
      </trkpt>
      <trkpt lat="45.32433" lon="6.69798">
        <ele>2031.883789</ele>
        <time>2010-10-07T08:15:14Z</time>
      </trkpt>
      <trkpt lat="45.32426" lon="6.69806">
        <ele>2032.844971</ele>
        <time>2010-10-07T08:15:21Z</time>
      </trkpt>
      <trkpt lat="45.32424" lon="6.69813">
        <ele>2033.325684</ele>
        <time>2010-10-07T08:15:27Z</time>
      </trkpt>
      <trkpt lat="45.32423" lon="6.69821">
        <ele>2033.325684</ele>
        <time>2010-10-07T08:15:32Z</time>
      </trkpt>
      <trkpt lat="45.32422" lon="6.6983">
        <ele>2034.767822</ele>
        <time>2010-10-07T08:15:39Z</time>
      </trkpt>
      <trkpt lat="45.32418" lon="6.69834">
        <ele>2035.729004</ele>
        <time>2010-10-07T08:15:43Z</time>
      </trkpt>
      <trkpt lat="45.3241" lon="6.69841">
        <ele>2037.170898</ele>
        <time>2010-10-07T08:15:50Z</time>
      </trkpt>
      <trkpt lat="45.32407" lon="6.69845">
        <ele>2036.209717</ele>
        <time>2010-10-07T08:15:55Z</time>
      </trkpt>
      <trkpt lat="45.32408" lon="6.69854">
        <ele>2037.170898</ele>
        <time>2010-10-07T08:16:02Z</time>
      </trkpt>
      <trkpt lat="45.32405" lon="6.69858">
        <ele>2037.651611</ele>
        <time>2010-10-07T08:16:07Z</time>
      </trkpt>
      <trkpt lat="45.32399" lon="6.69861">
        <ele>2038.613037</ele>
        <time>2010-10-07T08:16:12Z</time>
      </trkpt>
      <trkpt lat="45.32397" lon="6.69862">
        <ele>2039.093506</ele>
        <time>2010-10-07T08:16:14Z</time>
      </trkpt>
      <trkpt lat="45.32396" lon="6.69865">
        <ele>2040.054932</ele>
        <time>2010-10-07T08:16:17Z</time>
      </trkpt>
      <trkpt lat="45.32395" lon="6.6987">
        <ele>2039.093506</ele>
        <time>2010-10-07T08:16:22Z</time>
      </trkpt>
      <trkpt lat="45.32393" lon="6.69875">
        <ele>2039.574219</ele>
        <time>2010-10-07T08:16:27Z</time>
      </trkpt>
      <trkpt lat="45.3239" lon="6.69883">
        <ele>2040.5354</ele>
        <time>2010-10-07T08:16:35Z</time>
      </trkpt>
      <trkpt lat="45.32391" lon="6.69887">
        <ele>2041.977539</ele>
        <time>2010-10-07T08:16:40Z</time>
      </trkpt>
      <trkpt lat="45.32389" lon="6.69892">
        <ele>2043.419434</ele>
        <time>2010-10-07T08:16:46Z</time>
      </trkpt>
      <trkpt lat="45.32388" lon="6.69895">
        <ele>2043.900146</ele>
        <time>2010-10-07T08:16:51Z</time>
      </trkpt>
      <trkpt lat="45.32388" lon="6.699">
        <ele>2044.861572</ele>
        <time>2010-10-07T08:16:55Z</time>
      </trkpt>
      <trkpt lat="45.32385" lon="6.69903">
        <ele>2046.303711</ele>
        <time>2010-10-07T08:16:59Z</time>
      </trkpt>
      <trkpt lat="45.32382" lon="6.69909">
        <ele>2047.264893</ele>
        <time>2010-10-07T08:17:05Z</time>
      </trkpt>
      <trkpt lat="45.32381" lon="6.69911">
        <ele>2046.78418</ele>
        <time>2010-10-07T08:17:08Z</time>
      </trkpt>
      <trkpt lat="45.3238" lon="6.69916">
        <ele>2047.745605</ele>
        <time>2010-10-07T08:17:13Z</time>
      </trkpt>
      <trkpt lat="45.32379" lon="6.6992">
        <ele>2049.668213</ele>
        <time>2010-10-07T08:17:17Z</time>
      </trkpt>
      <trkpt lat="45.32378" lon="6.69925">
        <ele>2050.629395</ele>
        <time>2010-10-07T08:17:22Z</time>
      </trkpt>
      <trkpt lat="45.32375" lon="6.69927">
        <ele>2052.552002</ele>
        <time>2010-10-07T08:17:26Z</time>
      </trkpt>
      <trkpt lat="45.32374" lon="6.6993">
        <ele>2053.032715</ele>
        <time>2010-10-07T08:17:31Z</time>
      </trkpt>
      <trkpt lat="45.32374" lon="6.69935">
        <ele>2054.474609</ele>
        <time>2010-10-07T08:17:36Z</time>
      </trkpt>
      <trkpt lat="45.32371" lon="6.6994">
        <ele>2055.436035</ele>
        <time>2010-10-07T08:17:43Z</time>
      </trkpt>
      <trkpt lat="45.32368" lon="6.69943">
        <ele>2056.87793</ele>
        <time>2010-10-07T08:17:48Z</time>
      </trkpt>
      <trkpt lat="45.32365" lon="6.69945">
        <ele>2058.800537</ele>
        <time>2010-10-07T08:17:54Z</time>
      </trkpt>
      <trkpt lat="45.32363" lon="6.69947">
        <ele>2059.761719</ele>
        <time>2010-10-07T08:17:59Z</time>
      </trkpt>
      <trkpt lat="45.32362" lon="6.6995">
        <ele>2060.242676</ele>
        <time>2010-10-07T08:18:04Z</time>
      </trkpt>
      <trkpt lat="45.32361" lon="6.69954">
        <ele>2061.684814</ele>
        <time>2010-10-07T08:18:08Z</time>
      </trkpt>
      <trkpt lat="45.32359" lon="6.6996">
        <ele>2061.684814</ele>
        <time>2010-10-07T08:18:13Z</time>
      </trkpt>
      <trkpt lat="45.32357" lon="6.69967">
        <ele>2063.126709</ele>
        <time>2010-10-07T08:18:20Z</time>
      </trkpt>
      <trkpt lat="45.32356" lon="6.6997">
        <ele>2063.607178</ele>
        <time>2010-10-07T08:18:24Z</time>
      </trkpt>
      <trkpt lat="45.32355" lon="6.69974">
        <ele>2064.568604</ele>
        <time>2010-10-07T08:18:28Z</time>
      </trkpt>
      <trkpt lat="45.32355" lon="6.69978">
        <ele>2064.087891</ele>
        <time>2010-10-07T08:18:34Z</time>
      </trkpt>
      <trkpt lat="45.32356" lon="6.69982">
        <ele>2064.568604</ele>
        <time>2010-10-07T08:18:39Z</time>
      </trkpt>
      <trkpt lat="45.32355" lon="6.6999">
        <ele>2065.049316</ele>
        <time>2010-10-07T08:18:45Z</time>
      </trkpt>
      <trkpt lat="45.32353" lon="6.69995">
        <ele>2065.530029</ele>
        <time>2010-10-07T08:18:50Z</time>
      </trkpt>
      <trkpt lat="45.32352" lon="6.69998">
        <ele>2066.010498</ele>
        <time>2010-10-07T08:18:53Z</time>
      </trkpt>
      <trkpt lat="45.32349" lon="6.70001">
        <ele>2067.452393</ele>
        <time>2010-10-07T08:18:58Z</time>
      </trkpt>
      <trkpt lat="45.32349" lon="6.70006">
        <ele>2067.933105</ele>
        <time>2010-10-07T08:19:02Z</time>
      </trkpt>
      <trkpt lat="45.32347" lon="6.70009">
        <ele>2068.413818</ele>
        <time>2010-10-07T08:19:06Z</time>
      </trkpt>
      <trkpt lat="45.32348" lon="6.70014">
        <ele>2068.894531</ele>
        <time>2010-10-07T08:19:11Z</time>
      </trkpt>
      <trkpt lat="45.32348" lon="6.7002">
        <ele>2069.375244</ele>
        <time>2010-10-07T08:19:16Z</time>
      </trkpt>
      <trkpt lat="45.32347" lon="6.70023">
        <ele>2069.855713</ele>
        <time>2010-10-07T08:19:19Z</time>
      </trkpt>
      <trkpt lat="45.32346" lon="6.70031">
        <ele>2070.817139</ele>
        <time>2010-10-07T08:19:25Z</time>
      </trkpt>
      <trkpt lat="45.32344" lon="6.70035">
        <ele>2071.297607</ele>
        <time>2010-10-07T08:19:29Z</time>
      </trkpt>
      <trkpt lat="45.32343" lon="6.7004">
        <ele>2071.297607</ele>
        <time>2010-10-07T08:19:33Z</time>
      </trkpt>
      <trkpt lat="45.32344" lon="6.70048">
        <ele>2071.77832</ele>
        <time>2010-10-07T08:19:39Z</time>
      </trkpt>
      <trkpt lat="45.32341" lon="6.70053">
        <ele>2072.259033</ele>
        <time>2010-10-07T08:19:43Z</time>
      </trkpt>
      <trkpt lat="45.3234" lon="6.7006">
        <ele>2073.220459</ele>
        <time>2010-10-07T08:19:49Z</time>
      </trkpt>
      <trkpt lat="45.3234" lon="6.70065">
        <ele>2073.700928</ele>
        <time>2010-10-07T08:19:53Z</time>
      </trkpt>
      <trkpt lat="45.32339" lon="6.70069">
        <ele>2074.662354</ele>
        <time>2010-10-07T08:19:58Z</time>
      </trkpt>
      <trkpt lat="45.32339" lon="6.70073">
        <ele>2075.623535</ele>
        <time>2010-10-07T08:20:02Z</time>
      </trkpt>
      <trkpt lat="45.3234" lon="6.70079">
        <ele>2077.546387</ele>
        <time>2010-10-07T08:20:08Z</time>
      </trkpt>
      <trkpt lat="45.32339" lon="6.70083">
        <ele>2078.0271</ele>
        <time>2010-10-07T08:20:12Z</time>
      </trkpt>
      <trkpt lat="45.3234" lon="6.70084">
        <ele>2078.507812</ele>
        <time>2010-10-07T08:20:16Z</time>
      </trkpt>
      <trkpt lat="45.32343" lon="6.70086">
        <ele>2079.949707</ele>
        <time>2010-10-07T08:20:21Z</time>
      </trkpt>
      <trkpt lat="45.32345" lon="6.70088">
        <ele>2079.949707</ele>
        <time>2010-10-07T08:20:24Z</time>
      </trkpt>
      <trkpt lat="45.32347" lon="6.70089">
        <ele>2080.911133</ele>
        <time>2010-10-07T08:20:29Z</time>
      </trkpt>
      <trkpt lat="45.32349" lon="6.70091">
        <ele>2081.872314</ele>
        <time>2010-10-07T08:20:32Z</time>
      </trkpt>
      <trkpt lat="45.32352" lon="6.7009">
        <ele>2081.872314</ele>
        <time>2010-10-07T08:20:37Z</time>
      </trkpt>
      <trkpt lat="45.32355" lon="6.7009">
        <ele>2082.353027</ele>
        <time>2010-10-07T08:20:41Z</time>
      </trkpt>
      <trkpt lat="45.32357" lon="6.70092">
        <ele>2084.275635</ele>
        <time>2010-10-07T08:20:45Z</time>
      </trkpt>
      <trkpt lat="45.32356" lon="6.70096">
        <ele>2084.275635</ele>
        <time>2010-10-07T08:20:49Z</time>
      </trkpt>
      <trkpt lat="45.32354" lon="6.70099">
        <ele>2086.198242</ele>
        <time>2010-10-07T08:20:54Z</time>
      </trkpt>
      <trkpt lat="45.32353" lon="6.70105">
        <ele>2086.198242</ele>
        <time>2010-10-07T08:20:59Z</time>
      </trkpt>
      <trkpt lat="45.32351" lon="6.70109">
        <ele>2087.640137</ele>
        <time>2010-10-07T08:21:05Z</time>
      </trkpt>
      <trkpt lat="45.3235" lon="6.70114">
        <ele>2087.640137</ele>
        <time>2010-10-07T08:21:10Z</time>
      </trkpt>
      <trkpt lat="45.32349" lon="6.70117">
        <ele>2089.562744</ele>
        <time>2010-10-07T08:21:16Z</time>
      </trkpt>
      <trkpt lat="45.32347" lon="6.70121">
        <ele>2090.523926</ele>
        <time>2010-10-07T08:21:22Z</time>
      </trkpt>
      <trkpt lat="45.32345" lon="6.70123">
        <ele>2091.485352</ele>
        <time>2010-10-07T08:21:27Z</time>
      </trkpt>
      <trkpt lat="45.32343" lon="6.70126">
        <ele>2092.92749</ele>
        <time>2010-10-07T08:21:33Z</time>
      </trkpt>
      <trkpt lat="45.32339" lon="6.70129">
        <ele>2095.330811</ele>
        <time>2010-10-07T08:21:39Z</time>
      </trkpt>
      <trkpt lat="45.32337" lon="6.70131">
        <ele>2096.292236</ele>
        <time>2010-10-07T08:21:44Z</time>
      </trkpt>
      <trkpt lat="45.32336" lon="6.70132">
        <ele>2097.253418</ele>
        <time>2010-10-07T08:21:48Z</time>
      </trkpt>
      <trkpt lat="45.32336" lon="6.70134">
        <ele>2097.253418</ele>
        <time>2010-10-07T08:21:53Z</time>
      </trkpt>
      <trkpt lat="45.32336" lon="6.70138">
        <ele>2097.253418</ele>
        <time>2010-10-07T08:21:59Z</time>
      </trkpt>
      <trkpt lat="45.32339" lon="6.70143">
        <ele>2099.656738</ele>
        <time>2010-10-07T08:22:15Z</time>
      </trkpt>
      <trkpt lat="45.32337" lon="6.7014">
        <ele>2102.059814</ele>
        <time>2010-10-07T08:22:31Z</time>
      </trkpt>
      <trkpt lat="45.3234" lon="6.70141">
        <ele>2101.098633</ele>
        <time>2010-10-07T08:22:34Z</time>
      </trkpt>
      <trkpt lat="45.32344" lon="6.70146">
        <ele>2099.656738</ele>
        <time>2010-10-07T08:22:40Z</time>
      </trkpt>
      <trkpt lat="45.32347" lon="6.70149">
        <ele>2099.656738</ele>
        <time>2010-10-07T08:22:45Z</time>
      </trkpt>
      <trkpt lat="45.32349" lon="6.70152">
        <ele>2099.656738</ele>
        <time>2010-10-07T08:22:49Z</time>
      </trkpt>
      <trkpt lat="45.3235" lon="6.70158">
        <ele>2099.656738</ele>
        <time>2010-10-07T08:22:53Z</time>
      </trkpt>
      <trkpt lat="45.32348" lon="6.70162">
        <ele>2099.656738</ele>
        <time>2010-10-07T08:22:56Z</time>
      </trkpt>
      <trkpt lat="45.32345" lon="6.70167">
        <ele>2098.695312</ele>
        <time>2010-10-07T08:23:01Z</time>
      </trkpt>
      <trkpt lat="45.32343" lon="6.70168">
        <ele>2099.176025</ele>
        <time>2010-10-07T08:23:03Z</time>
      </trkpt>
      <trkpt lat="45.3234" lon="6.70173">
        <ele>2101.098633</ele>
        <time>2010-10-07T08:23:09Z</time>
      </trkpt>
      <trkpt lat="45.32338" lon="6.70176">
        <ele>2102.059814</ele>
        <time>2010-10-07T08:23:12Z</time>
      </trkpt>
      <trkpt lat="45.32338" lon="6.70182">
        <ele>2102.540527</ele>
        <time>2010-10-07T08:23:17Z</time>
      </trkpt>
      <trkpt lat="45.32336" lon="6.70185">
        <ele>2103.02124</ele>
        <time>2010-10-07T08:23:20Z</time>
      </trkpt>
      <trkpt lat="45.32335" lon="6.7019">
        <ele>2103.982666</ele>
        <time>2010-10-07T08:23:26Z</time>
      </trkpt>
      <trkpt lat="45.32336" lon="6.70193">
        <ele>2104.943848</ele>
        <time>2010-10-07T08:23:30Z</time>
      </trkpt>
      <trkpt lat="45.32335" lon="6.70199">
        <ele>2105.905029</ele>
        <time>2010-10-07T08:23:36Z</time>
      </trkpt>
      <trkpt lat="45.32334" lon="6.70203">
        <ele>2106.866455</ele>
        <time>2010-10-07T08:23:41Z</time>
      </trkpt>
      <trkpt lat="45.32334" lon="6.70208">
        <ele>2107.347168</ele>
        <time>2010-10-07T08:23:46Z</time>
      </trkpt>
      <trkpt lat="45.32334" lon="6.70213">
        <ele>2108.308594</ele>
        <time>2010-10-07T08:23:52Z</time>
      </trkpt>
      <trkpt lat="45.32334" lon="6.70217">
        <ele>2108.789307</ele>
        <time>2010-10-07T08:23:56Z</time>
      </trkpt>
      <trkpt lat="45.32334" lon="6.70223">
        <ele>2109.750488</ele>
        <time>2010-10-07T08:24:03Z</time>
      </trkpt>
      <trkpt lat="45.32333" lon="6.70226">
        <ele>2110.711914</ele>
        <time>2010-10-07T08:24:07Z</time>
      </trkpt>
      <trkpt lat="45.32332" lon="6.70229">
        <ele>2111.67334</ele>
        <time>2010-10-07T08:24:11Z</time>
      </trkpt>
      <trkpt lat="45.32331" lon="6.70234">
        <ele>2112.153809</ele>
        <time>2010-10-07T08:24:16Z</time>
      </trkpt>
      <trkpt lat="45.3233" lon="6.70239">
        <ele>2112.153809</ele>
        <time>2010-10-07T08:24:20Z</time>
      </trkpt>
      <trkpt lat="45.32327" lon="6.70241">
        <ele>2112.634521</ele>
        <time>2010-10-07T08:24:23Z</time>
      </trkpt>
      <trkpt lat="45.32327" lon="6.70246">
        <ele>2113.115234</ele>
        <time>2010-10-07T08:24:28Z</time>
      </trkpt>
      <trkpt lat="45.32327" lon="6.70249">
        <ele>2113.595703</ele>
        <time>2010-10-07T08:24:32Z</time>
      </trkpt>
      <trkpt lat="45.32328" lon="6.70251">
        <ele>2113.595703</ele>
        <time>2010-10-07T08:24:36Z</time>
      </trkpt>
      <trkpt lat="45.32329" lon="6.70255">
        <ele>2113.595703</ele>
        <time>2010-10-07T08:24:40Z</time>
      </trkpt>
      <trkpt lat="45.32326" lon="6.70255">
        <ele>2115.518555</ele>
        <time>2010-10-07T08:24:44Z</time>
      </trkpt>
      <trkpt lat="45.32322" lon="6.70255">
        <ele>2117.921631</ele>
        <time>2010-10-07T08:24:48Z</time>
      </trkpt>
      <trkpt lat="45.3232" lon="6.70257">
        <ele>2118.883057</ele>
        <time>2010-10-07T08:24:53Z</time>
      </trkpt>
      <trkpt lat="45.32321" lon="6.70261">
        <ele>2120.324951</ele>
        <time>2010-10-07T08:24:57Z</time>
      </trkpt>
      <trkpt lat="45.32321" lon="6.70265">
        <ele>2121.286133</ele>
        <time>2010-10-07T08:25:03Z</time>
      </trkpt>
      <trkpt lat="45.32321" lon="6.7027">
        <ele>2122.247559</ele>
        <time>2010-10-07T08:25:07Z</time>
      </trkpt>
      <trkpt lat="45.32323" lon="6.70273">
        <ele>2122.247559</ele>
        <time>2010-10-07T08:25:12Z</time>
      </trkpt>
      <trkpt lat="45.32325" lon="6.70277">
        <ele>2122.247559</ele>
        <time>2010-10-07T08:25:17Z</time>
      </trkpt>
      <trkpt lat="45.32324" lon="6.7028">
        <ele>2123.208984</ele>
        <time>2010-10-07T08:25:21Z</time>
      </trkpt>
      <trkpt lat="45.32323" lon="6.70283">
        <ele>2124.17041</ele>
        <time>2010-10-07T08:25:26Z</time>
      </trkpt>
      <trkpt lat="45.3232" lon="6.70287">
        <ele>2125.131592</ele>
        <time>2010-10-07T08:25:32Z</time>
      </trkpt>
      <trkpt lat="45.32318" lon="6.70289">
        <ele>2126.57373</ele>
        <time>2010-10-07T08:25:37Z</time>
      </trkpt>
      <trkpt lat="45.32316" lon="6.70291">
        <ele>2128.015625</ele>
        <time>2010-10-07T08:25:41Z</time>
      </trkpt>
      <trkpt lat="45.32313" lon="6.70294">
        <ele>2129.45752</ele>
        <time>2010-10-07T08:25:47Z</time>
      </trkpt>
      <trkpt lat="45.32313" lon="6.70296">
        <ele>2130.418945</ele>
        <time>2010-10-07T08:25:51Z</time>
      </trkpt>
      <trkpt lat="45.32317" lon="6.703">
        <ele>2130.418945</ele>
        <time>2010-10-07T08:25:56Z</time>
      </trkpt>
      <trkpt lat="45.32317" lon="6.70303">
        <ele>2131.380127</ele>
        <time>2010-10-07T08:26:00Z</time>
      </trkpt>
      <trkpt lat="45.32316" lon="6.70306">
        <ele>2132.341553</ele>
        <time>2010-10-07T08:26:06Z</time>
      </trkpt>
      <trkpt lat="45.32316" lon="6.70313">
        <ele>2132.822021</ele>
        <time>2010-10-07T08:26:12Z</time>
      </trkpt>
      <trkpt lat="45.32314" lon="6.70316">
        <ele>2133.783447</ele>
        <time>2010-10-07T08:26:16Z</time>
      </trkpt>
      <trkpt lat="45.3231" lon="6.70318">
        <ele>2134.26416</ele>
        <time>2010-10-07T08:26:20Z</time>
      </trkpt>
      <trkpt lat="45.32308" lon="6.7032">
        <ele>2134.26416</ele>
        <time>2010-10-07T08:26:23Z</time>
      </trkpt>
      <trkpt lat="45.32306" lon="6.70321">
        <ele>2134.744873</ele>
        <time>2010-10-07T08:26:26Z</time>
      </trkpt>
      <trkpt lat="45.32301" lon="6.70323">
        <ele>2134.744873</ele>
        <time>2010-10-07T08:26:31Z</time>
      </trkpt>
      <trkpt lat="45.32301" lon="6.70328">
        <ele>2134.744873</ele>
        <time>2010-10-07T08:26:36Z</time>
      </trkpt>
      <trkpt lat="45.323" lon="6.70335">
        <ele>2134.26416</ele>
        <time>2010-10-07T08:26:42Z</time>
      </trkpt>
      <trkpt lat="45.323" lon="6.70339">
        <ele>2135.225342</ele>
        <time>2010-10-07T08:26:47Z</time>
      </trkpt>
      <trkpt lat="45.32297" lon="6.70343">
        <ele>2135.225342</ele>
        <time>2010-10-07T08:26:52Z</time>
      </trkpt>
      <trkpt lat="45.32297" lon="6.70346">
        <ele>2135.706055</ele>
        <time>2010-10-07T08:26:56Z</time>
      </trkpt>
      <trkpt lat="45.32297" lon="6.70349">
        <ele>2137.147949</ele>
        <time>2010-10-07T08:27:00Z</time>
      </trkpt>
      <trkpt lat="45.32298" lon="6.70351">
        <ele>2138.109375</ele>
        <time>2010-10-07T08:27:04Z</time>
      </trkpt>
      <trkpt lat="45.323" lon="6.70351">
        <ele>2139.070557</ele>
        <time>2010-10-07T08:27:08Z</time>
      </trkpt>
      <trkpt lat="45.32303" lon="6.70353">
        <ele>2140.512695</ele>
        <time>2010-10-07T08:27:12Z</time>
      </trkpt>
      <trkpt lat="45.32305" lon="6.70356">
        <ele>2142.435547</ele>
        <time>2010-10-07T08:27:15Z</time>
      </trkpt>
      <trkpt lat="45.32304" lon="6.7036">
        <ele>2144.35791</ele>
        <time>2010-10-07T08:27:19Z</time>
      </trkpt>
      <trkpt lat="45.32305" lon="6.70364">
        <ele>2144.838623</ele>
        <time>2010-10-07T08:27:24Z</time>
      </trkpt>
      <trkpt lat="45.32307" lon="6.70367">
        <ele>2145.800049</ele>
        <time>2010-10-07T08:27:28Z</time>
      </trkpt>
      <trkpt lat="45.32308" lon="6.70374">
        <ele>2146.280762</ele>
        <time>2010-10-07T08:27:34Z</time>
      </trkpt>
      <trkpt lat="45.32309" lon="6.70376">
        <ele>2147.722656</ele>
        <time>2010-10-07T08:27:39Z</time>
      </trkpt>
      <trkpt lat="45.32309" lon="6.70382">
        <ele>2148.203125</ele>
        <time>2010-10-07T08:27:44Z</time>
      </trkpt>
      <trkpt lat="45.32307" lon="6.70385">
        <ele>2148.683838</ele>
        <time>2010-10-07T08:27:47Z</time>
      </trkpt>
      <trkpt lat="45.32304" lon="6.7039">
        <ele>2148.683838</ele>
        <time>2010-10-07T08:27:52Z</time>
      </trkpt>
      <trkpt lat="45.32304" lon="6.70393">
        <ele>2149.164551</ele>
        <time>2010-10-07T08:27:56Z</time>
      </trkpt>
      <trkpt lat="45.32306" lon="6.70397">
        <ele>2149.645264</ele>
        <time>2010-10-07T08:28:00Z</time>
      </trkpt>
      <trkpt lat="45.32306" lon="6.704">
        <ele>2149.645264</ele>
        <time>2010-10-07T08:28:05Z</time>
      </trkpt>
      <trkpt lat="45.32308" lon="6.70403">
        <ele>2150.606445</ele>
        <time>2010-10-07T08:28:09Z</time>
      </trkpt>
      <trkpt lat="45.32309" lon="6.70408">
        <ele>2150.125977</ele>
        <time>2010-10-07T08:28:14Z</time>
      </trkpt>
      <trkpt lat="45.32309" lon="6.70414">
        <ele>2150.606445</ele>
        <time>2010-10-07T08:28:19Z</time>
      </trkpt>
      <trkpt lat="45.32309" lon="6.70421">
        <ele>2152.04834</ele>
        <time>2010-10-07T08:28:25Z</time>
      </trkpt>
      <trkpt lat="45.32308" lon="6.70426">
        <ele>2152.04834</ele>
        <time>2010-10-07T08:28:29Z</time>
      </trkpt>
      <trkpt lat="45.32307" lon="6.70426">
        <ele>2153.009766</ele>
        <time>2010-10-07T08:28:35Z</time>
      </trkpt>
      <trkpt lat="45.32311" lon="6.7043">
        <ele>2148.683838</ele>
        <time>2010-10-07T08:28:47Z</time>
      </trkpt>
      <trkpt lat="45.3231" lon="6.70435">
        <ele>2149.164551</ele>
        <time>2010-10-07T08:28:51Z</time>
      </trkpt>
      <trkpt lat="45.32306" lon="6.70442">
        <ele>2151.567871</ele>
        <time>2010-10-07T08:28:57Z</time>
      </trkpt>
      <trkpt lat="45.32303" lon="6.70446">
        <ele>2152.04834</ele>
        <time>2010-10-07T08:29:01Z</time>
      </trkpt>
      <trkpt lat="45.32301" lon="6.7045">
        <ele>2153.490479</ele>
        <time>2010-10-07T08:29:05Z</time>
      </trkpt>
      <trkpt lat="45.32297" lon="6.70453">
        <ele>2155.893555</ele>
        <time>2010-10-07T08:29:09Z</time>
      </trkpt>
      <trkpt lat="45.32295" lon="6.7046">
        <ele>2157.335938</ele>
        <time>2010-10-07T08:29:15Z</time>
      </trkpt>
      <trkpt lat="45.32295" lon="6.70462">
        <ele>2157.335938</ele>
        <time>2010-10-07T08:29:18Z</time>
      </trkpt>
      <trkpt lat="45.32295" lon="6.70464">
        <ele>2158.297119</ele>
        <time>2010-10-07T08:29:21Z</time>
      </trkpt>
      <trkpt lat="45.32295" lon="6.70466">
        <ele>2159.739014</ele>
        <time>2010-10-07T08:29:24Z</time>
      </trkpt>
      <trkpt lat="45.32295" lon="6.7047">
        <ele>2161.181152</ele>
        <time>2010-10-07T08:29:28Z</time>
      </trkpt>
      <trkpt lat="45.32295" lon="6.70474">
        <ele>2161.661865</ele>
        <time>2010-10-07T08:29:32Z</time>
      </trkpt>
      <trkpt lat="45.32294" lon="6.70479">
        <ele>2162.623047</ele>
        <time>2010-10-07T08:29:37Z</time>
      </trkpt>
      <trkpt lat="45.32293" lon="6.70484">
        <ele>2163.584229</ele>
        <time>2010-10-07T08:29:43Z</time>
      </trkpt>
      <trkpt lat="45.32294" lon="6.70486">
        <ele>2165.50708</ele>
        <time>2010-10-07T08:29:47Z</time>
      </trkpt>
      <trkpt lat="45.32296" lon="6.70489">
        <ele>2166.468262</ele>
        <time>2010-10-07T08:29:51Z</time>
      </trkpt>
      <trkpt lat="45.32296" lon="6.70493">
        <ele>2166.468262</ele>
        <time>2010-10-07T08:29:55Z</time>
      </trkpt>
      <trkpt lat="45.32296" lon="6.70497">
        <ele>2168.390869</ele>
        <time>2010-10-07T08:29:58Z</time>
      </trkpt>
      <trkpt lat="45.32294" lon="6.705">
        <ele>2168.871582</ele>
        <time>2010-10-07T08:30:02Z</time>
      </trkpt>
      <trkpt lat="45.32293" lon="6.70504">
        <ele>2170.794189</ele>
        <time>2010-10-07T08:30:07Z</time>
      </trkpt>
      <trkpt lat="45.32292" lon="6.70507">
        <ele>2172.236328</ele>
        <time>2010-10-07T08:30:11Z</time>
      </trkpt>
      <trkpt lat="45.3229" lon="6.70511">
        <ele>2172.236328</ele>
        <time>2010-10-07T08:30:15Z</time>
      </trkpt>
      <trkpt lat="45.32287" lon="6.70515">
        <ele>2174.639648</ele>
        <time>2010-10-07T08:30:21Z</time>
      </trkpt>
      <trkpt lat="45.32286" lon="6.7052">
        <ele>2175.120117</ele>
        <time>2010-10-07T08:30:25Z</time>
      </trkpt>
      <trkpt lat="45.32285" lon="6.70524">
        <ele>2175.60083</ele>
        <time>2010-10-07T08:30:30Z</time>
      </trkpt>
      <trkpt lat="45.32284" lon="6.70531">
        <ele>2174.158936</ele>
        <time>2010-10-07T08:30:34Z</time>
      </trkpt>
      <trkpt lat="45.32284" lon="6.70535">
        <ele>2175.120117</ele>
        <time>2010-10-07T08:30:38Z</time>
      </trkpt>
      <trkpt lat="45.32282" lon="6.70538">
        <ele>2174.639648</ele>
        <time>2010-10-07T08:30:42Z</time>
      </trkpt>
      <trkpt lat="45.32281" lon="6.70543">
        <ele>2175.60083</ele>
        <time>2010-10-07T08:30:47Z</time>
      </trkpt>
      <trkpt lat="45.32281" lon="6.70547">
        <ele>2176.081543</ele>
        <time>2010-10-07T08:30:52Z</time>
      </trkpt>
      <trkpt lat="45.32279" lon="6.7055">
        <ele>2176.562256</ele>
        <time>2010-10-07T08:30:55Z</time>
      </trkpt>
      <trkpt lat="45.32275" lon="6.70555">
        <ele>2176.081543</ele>
        <time>2010-10-07T08:31:00Z</time>
      </trkpt>
      <trkpt lat="45.32274" lon="6.7056">
        <ele>2175.120117</ele>
        <time>2010-10-07T08:31:05Z</time>
      </trkpt>
      <trkpt lat="45.32272" lon="6.70564">
        <ele>2175.60083</ele>
        <time>2010-10-07T08:31:10Z</time>
      </trkpt>
      <trkpt lat="45.3227" lon="6.70569">
        <ele>2175.60083</ele>
        <time>2010-10-07T08:31:14Z</time>
      </trkpt>
      <trkpt lat="45.3227" lon="6.70573">
        <ele>2175.60083</ele>
        <time>2010-10-07T08:31:18Z</time>
      </trkpt>
      <trkpt lat="45.32268" lon="6.70576">
        <ele>2177.523438</ele>
        <time>2010-10-07T08:31:22Z</time>
      </trkpt>
      <trkpt lat="45.32265" lon="6.70579">
        <ele>2178.965332</ele>
        <time>2010-10-07T08:31:25Z</time>
      </trkpt>
      <trkpt lat="45.32265" lon="6.70582">
        <ele>2179.926758</ele>
        <time>2010-10-07T08:31:28Z</time>
      </trkpt>
      <trkpt lat="45.32265" lon="6.70586">
        <ele>2180.888184</ele>
        <time>2010-10-07T08:31:32Z</time>
      </trkpt>
      <trkpt lat="45.32263" lon="6.7059">
        <ele>2181.368652</ele>
        <time>2010-10-07T08:31:36Z</time>
      </trkpt>
      <trkpt lat="45.32261" lon="6.70593">
        <ele>2182.810547</ele>
        <time>2010-10-07T08:31:40Z</time>
      </trkpt>
      <trkpt lat="45.32261" lon="6.70598">
        <ele>2182.810547</ele>
        <time>2010-10-07T08:31:45Z</time>
      </trkpt>
      <trkpt lat="45.32259" lon="6.70604">
        <ele>2184.252686</ele>
        <time>2010-10-07T08:31:51Z</time>
      </trkpt>
      <trkpt lat="45.32257" lon="6.70606">
        <ele>2184.733398</ele>
        <time>2010-10-07T08:31:55Z</time>
      </trkpt>
      <trkpt lat="45.32255" lon="6.7061">
        <ele>2183.771973</ele>
        <time>2010-10-07T08:31:59Z</time>
      </trkpt>
      <trkpt lat="45.32254" lon="6.70617">
        <ele>2184.252686</ele>
        <time>2010-10-07T08:32:05Z</time>
      </trkpt>
      <trkpt lat="45.32254" lon="6.70624">
        <ele>2184.252686</ele>
        <time>2010-10-07T08:32:10Z</time>
      </trkpt>
      <trkpt lat="45.32253" lon="6.70629">
        <ele>2184.733398</ele>
        <time>2010-10-07T08:32:15Z</time>
      </trkpt>
      <trkpt lat="45.32253" lon="6.70634">
        <ele>2184.733398</ele>
        <time>2010-10-07T08:32:20Z</time>
      </trkpt>
      <trkpt lat="45.32257" lon="6.70639">
        <ele>2184.252686</ele>
        <time>2010-10-07T08:32:25Z</time>
      </trkpt>
      <trkpt lat="45.32256" lon="6.70644">
        <ele>2184.733398</ele>
        <time>2010-10-07T08:32:30Z</time>
      </trkpt>
      <trkpt lat="45.32257" lon="6.7065">
        <ele>2185.69458</ele>
        <time>2010-10-07T08:32:36Z</time>
      </trkpt>
      <trkpt lat="45.32256" lon="6.70656">
        <ele>2187.617188</ele>
        <time>2010-10-07T08:32:43Z</time>
      </trkpt>
      <trkpt lat="45.32256" lon="6.7066">
        <ele>2189.059326</ele>
        <time>2010-10-07T08:32:48Z</time>
      </trkpt>
      <trkpt lat="45.32256" lon="6.70663">
        <ele>2190.020752</ele>
        <time>2010-10-07T08:32:53Z</time>
      </trkpt>
      <trkpt lat="45.32256" lon="6.70666">
        <ele>2190.501221</ele>
        <time>2010-10-07T08:32:57Z</time>
      </trkpt>
      <trkpt lat="45.32256" lon="6.7067">
        <ele>2191.462646</ele>
        <time>2010-10-07T08:33:03Z</time>
      </trkpt>
      <trkpt lat="45.32255" lon="6.70672">
        <ele>2191.462646</ele>
        <time>2010-10-07T08:33:08Z</time>
      </trkpt>
      <trkpt lat="45.32258" lon="6.70674">
        <ele>2191.462646</ele>
        <time>2010-10-07T08:33:13Z</time>
      </trkpt>
      <trkpt lat="45.3226" lon="6.70676">
        <ele>2193.385254</ele>
        <time>2010-10-07T08:33:17Z</time>
      </trkpt>
      <trkpt lat="45.32259" lon="6.7068">
        <ele>2196.269287</ele>
        <time>2010-10-07T08:33:23Z</time>
      </trkpt>
      <trkpt lat="45.32258" lon="6.70682">
        <ele>2198.19165</ele>
        <time>2010-10-07T08:33:27Z</time>
      </trkpt>
      <trkpt lat="45.3226" lon="6.70683">
        <ele>2198.672363</ele>
        <time>2010-10-07T08:33:32Z</time>
      </trkpt>
      <trkpt lat="45.32261" lon="6.70685">
        <ele>2198.672363</ele>
        <time>2010-10-07T08:33:36Z</time>
      </trkpt>
      <trkpt lat="45.3226" lon="6.70689">
        <ele>2201.556396</ele>
        <time>2010-10-07T08:33:41Z</time>
      </trkpt>
      <trkpt lat="45.32259" lon="6.70691">
        <ele>2202.998291</ele>
        <time>2010-10-07T08:33:45Z</time>
      </trkpt>
      <trkpt lat="45.32257" lon="6.70694">
        <ele>2203.959717</ele>
        <time>2010-10-07T08:33:49Z</time>
      </trkpt>
      <trkpt lat="45.32259" lon="6.70696">
        <ele>2204.921143</ele>
        <time>2010-10-07T08:33:54Z</time>
      </trkpt>
      <trkpt lat="45.32261" lon="6.70695">
        <ele>2205.882324</ele>
        <time>2010-10-07T08:33:59Z</time>
      </trkpt>
      <trkpt lat="45.32264" lon="6.70694">
        <ele>2206.84375</ele>
        <time>2010-10-07T08:34:04Z</time>
      </trkpt>
      <trkpt lat="45.32267" lon="6.70691">
        <ele>2207.324463</ele>
        <time>2010-10-07T08:34:10Z</time>
      </trkpt>
      <trkpt lat="45.32268" lon="6.70694">
        <ele>2208.766357</ele>
        <time>2010-10-07T08:34:15Z</time>
      </trkpt>
      <trkpt lat="45.32268" lon="6.70698">
        <ele>2209.24707</ele>
        <time>2010-10-07T08:34:20Z</time>
      </trkpt>
      <trkpt lat="45.32268" lon="6.70702">
        <ele>2210.208252</ele>
        <time>2010-10-07T08:34:24Z</time>
      </trkpt>
      <trkpt lat="45.32269" lon="6.70704">
        <ele>2212.130859</ele>
        <time>2010-10-07T08:34:29Z</time>
      </trkpt>
      <trkpt lat="45.3227" lon="6.70708">
        <ele>2212.611572</ele>
        <time>2010-10-07T08:34:33Z</time>
      </trkpt>
      <trkpt lat="45.32269" lon="6.70712">
        <ele>2213.092285</ele>
        <time>2010-10-07T08:34:38Z</time>
      </trkpt>
      <trkpt lat="45.32268" lon="6.70715">
        <ele>2214.053467</ele>
        <time>2010-10-07T08:34:42Z</time>
      </trkpt>
      <trkpt lat="45.32269" lon="6.70717">
        <ele>2214.53418</ele>
        <time>2010-10-07T08:34:48Z</time>
      </trkpt>
      <trkpt lat="45.32274" lon="6.70717">
        <ele>2215.014893</ele>
        <time>2010-10-07T08:34:59Z</time>
      </trkpt>
      <trkpt lat="45.32273" lon="6.7072">
        <ele>2215.976074</ele>
        <time>2010-10-07T08:35:03Z</time>
      </trkpt>
      <trkpt lat="45.32272" lon="6.70725">
        <ele>2216.456787</ele>
        <time>2010-10-07T08:35:10Z</time>
      </trkpt>
      <trkpt lat="45.32269" lon="6.70728">
        <ele>2218.860107</ele>
        <time>2010-10-07T08:35:16Z</time>
      </trkpt>
      <trkpt lat="45.3227" lon="6.70732">
        <ele>2219.821289</ele>
        <time>2010-10-07T08:35:23Z</time>
      </trkpt>
      <trkpt lat="45.3227" lon="6.70737">
        <ele>2219.821289</ele>
        <time>2010-10-07T08:35:28Z</time>
      </trkpt>
      <trkpt lat="45.3227" lon="6.70742">
        <ele>2219.821289</ele>
        <time>2010-10-07T08:35:32Z</time>
      </trkpt>
      <trkpt lat="45.32268" lon="6.70747">
        <ele>2221.263428</ele>
        <time>2010-10-07T08:35:38Z</time>
      </trkpt>
      <trkpt lat="45.32268" lon="6.70752">
        <ele>2220.302246</ele>
        <time>2010-10-07T08:35:44Z</time>
      </trkpt>
      <trkpt lat="45.3227" lon="6.70755">
        <ele>2221.744141</ele>
        <time>2010-10-07T08:35:51Z</time>
      </trkpt>
      <trkpt lat="45.3227" lon="6.70759">
        <ele>2222.705566</ele>
        <time>2010-10-07T08:35:57Z</time>
      </trkpt>
      <trkpt lat="45.32269" lon="6.70762">
        <ele>2224.147461</ele>
        <time>2010-10-07T08:36:02Z</time>
      </trkpt>
      <trkpt lat="45.32269" lon="6.70765">
        <ele>2224.628174</ele>
        <time>2010-10-07T08:36:06Z</time>
      </trkpt>
      <trkpt lat="45.32268" lon="6.70769">
        <ele>2226.070068</ele>
        <time>2010-10-07T08:36:11Z</time>
      </trkpt>
      <trkpt lat="45.32268" lon="6.70773">
        <ele>2227.511963</ele>
        <time>2010-10-07T08:36:16Z</time>
      </trkpt>
      <trkpt lat="45.32269" lon="6.70774">
        <ele>2227.992676</ele>
        <time>2010-10-07T08:36:21Z</time>
      </trkpt>
      <trkpt lat="45.32271" lon="6.70773">
        <ele>2229.43457</ele>
        <time>2010-10-07T08:36:27Z</time>
      </trkpt>
      <trkpt lat="45.3227" lon="6.70776">
        <ele>2230.876709</ele>
        <time>2010-10-07T08:36:32Z</time>
      </trkpt>
      <trkpt lat="45.32272" lon="6.70776">
        <ele>2231.837891</ele>
        <time>2010-10-07T08:36:38Z</time>
      </trkpt>
      <trkpt lat="45.32273" lon="6.70779">
        <ele>2232.799072</ele>
        <time>2010-10-07T08:36:43Z</time>
      </trkpt>
      <trkpt lat="45.32273" lon="6.70781">
        <ele>2231.357178</ele>
        <time>2010-10-07T08:36:47Z</time>
      </trkpt>
      <trkpt lat="45.32273" lon="6.70783">
        <ele>2233.279785</ele>
        <time>2010-10-07T08:36:53Z</time>
      </trkpt>
      <trkpt lat="45.32274" lon="6.70787">
        <ele>2234.721924</ele>
        <time>2010-10-07T08:36:59Z</time>
      </trkpt>
      <trkpt lat="45.32274" lon="6.70791">
        <ele>2237.605957</ele>
        <time>2010-10-07T08:37:08Z</time>
      </trkpt>
      <trkpt lat="45.32274" lon="6.7079">
        <ele>2240.009277</ele>
        <time>2010-10-07T08:37:16Z</time>
      </trkpt>
      <trkpt lat="45.32269" lon="6.7079">
        <ele>2242.412598</ele>
        <time>2010-10-07T08:37:24Z</time>
      </trkpt>
      <trkpt lat="45.32267" lon="6.70794">
        <ele>2242.893066</ele>
        <time>2010-10-07T08:37:29Z</time>
      </trkpt>
      <trkpt lat="45.32266" lon="6.70797">
        <ele>2240.489746</ele>
        <time>2010-10-07T08:37:34Z</time>
      </trkpt>
      <trkpt lat="45.32262" lon="6.70795">
        <ele>2250.103027</ele>
        <time>2010-10-07T08:37:53Z</time>
      </trkpt>
      <trkpt lat="45.32262" lon="6.70799">
        <ele>2246.738281</ele>
        <time>2010-10-07T08:38:00Z</time>
      </trkpt>
      <trkpt lat="45.32259" lon="6.70804">
        <ele>2245.296387</ele>
        <time>2010-10-07T08:38:04Z</time>
      </trkpt>
      <trkpt lat="45.32253" lon="6.7081">
        <ele>2245.7771</ele>
        <time>2010-10-07T08:38:11Z</time>
      </trkpt>
      <trkpt lat="45.32253" lon="6.70815">
        <ele>2245.296387</ele>
        <time>2010-10-07T08:38:17Z</time>
      </trkpt>
      <trkpt lat="45.32251" lon="6.70817">
        <ele>2244.815674</ele>
        <time>2010-10-07T08:38:22Z</time>
      </trkpt>
      <trkpt lat="45.3225" lon="6.70818">
        <ele>2244.334961</ele>
        <time>2010-10-07T08:38:28Z</time>
      </trkpt>
      <trkpt lat="45.32248" lon="6.70821">
        <ele>2244.815674</ele>
        <time>2010-10-07T08:38:34Z</time>
      </trkpt>
      <trkpt lat="45.32246" lon="6.70823">
        <ele>2244.815674</ele>
        <time>2010-10-07T08:38:39Z</time>
      </trkpt>
      <trkpt lat="45.32244" lon="6.70824">
        <ele>2246.738281</ele>
        <time>2010-10-07T08:38:44Z</time>
      </trkpt>
      <trkpt lat="45.32242" lon="6.70826">
        <ele>2247.699707</ele>
        <time>2010-10-07T08:38:48Z</time>
      </trkpt>
      <trkpt lat="45.3224" lon="6.70829">
        <ele>2247.218994</ele>
        <time>2010-10-07T08:38:52Z</time>
      </trkpt>
      <trkpt lat="45.32239" lon="6.70834">
        <ele>2247.218994</ele>
        <time>2010-10-07T08:38:56Z</time>
      </trkpt>
      <trkpt lat="45.32237" lon="6.70839">
        <ele>2246.257812</ele>
        <time>2010-10-07T08:39:01Z</time>
      </trkpt>
      <trkpt lat="45.32236" lon="6.70847">
        <ele>2246.257812</ele>
        <time>2010-10-07T08:39:08Z</time>
      </trkpt>
      <trkpt lat="45.32235" lon="6.70851">
        <ele>2245.296387</ele>
        <time>2010-10-07T08:39:13Z</time>
      </trkpt>
      <trkpt lat="45.32232" lon="6.70851">
        <ele>2247.699707</ele>
        <time>2010-10-07T08:39:15Z</time>
      </trkpt>
      <trkpt lat="45.3223" lon="6.70856">
        <ele>2248.180176</ele>
        <time>2010-10-07T08:39:21Z</time>
      </trkpt>
      <trkpt lat="45.32228" lon="6.70859">
        <ele>2249.622314</ele>
        <time>2010-10-07T08:39:26Z</time>
      </trkpt>
      <trkpt lat="45.32223" lon="6.70865">
        <ele>2252.987061</ele>
        <time>2010-10-07T08:39:37Z</time>
      </trkpt>
      <trkpt lat="45.32222" lon="6.70871">
        <ele>2252.987061</ele>
        <time>2010-10-07T08:39:43Z</time>
      </trkpt>
      <trkpt lat="45.32221" lon="6.70874">
        <ele>2252.987061</ele>
        <time>2010-10-07T08:39:47Z</time>
      </trkpt>
      <trkpt lat="45.32221" lon="6.70882">
        <ele>2251.544922</ele>
        <time>2010-10-07T08:39:52Z</time>
      </trkpt>
      <trkpt lat="45.32218" lon="6.70885">
        <ele>2252.025635</ele>
        <time>2010-10-07T08:39:56Z</time>
      </trkpt>
      <trkpt lat="45.32214" lon="6.70889">
        <ele>2252.506348</ele>
        <time>2010-10-07T08:40:00Z</time>
      </trkpt>
      <trkpt lat="45.32209" lon="6.70894">
        <ele>2252.025635</ele>
        <time>2010-10-07T08:40:06Z</time>
      </trkpt>
      <trkpt lat="45.32204" lon="6.70899">
        <ele>2257.312988</ele>
        <time>2010-10-07T08:40:12Z</time>
      </trkpt>
      <trkpt lat="45.32199" lon="6.709">
        <ele>2260.196777</ele>
        <time>2010-10-07T08:40:17Z</time>
      </trkpt>
      <trkpt lat="45.32197" lon="6.70905">
        <ele>2260.67749</ele>
        <time>2010-10-07T08:40:24Z</time>
      </trkpt>
      <trkpt lat="45.32196" lon="6.70907">
        <ele>2263.561279</ele>
        <time>2010-10-07T08:40:28Z</time>
      </trkpt>
      <trkpt lat="45.32193" lon="6.7091">
        <ele>2265.484131</ele>
        <time>2010-10-07T08:40:34Z</time>
      </trkpt>
      <trkpt lat="45.32191" lon="6.70913">
        <ele>2265.484131</ele>
        <time>2010-10-07T08:40:39Z</time>
      </trkpt>
      <trkpt lat="45.32188" lon="6.70917">
        <ele>2266.445312</ele>
        <time>2010-10-07T08:40:44Z</time>
      </trkpt>
      <trkpt lat="45.32184" lon="6.70919">
        <ele>2266.445312</ele>
        <time>2010-10-07T08:40:50Z</time>
      </trkpt>
      <trkpt lat="45.32181" lon="6.7092">
        <ele>2268.368164</ele>
        <time>2010-10-07T08:40:54Z</time>
      </trkpt>
      <trkpt lat="45.32177" lon="6.70922">
        <ele>2270.290771</ele>
        <time>2010-10-07T08:40:58Z</time>
      </trkpt>
      <trkpt lat="45.32174" lon="6.70922">
        <ele>2272.213379</ele>
        <time>2010-10-07T08:41:03Z</time>
      </trkpt>
      <trkpt lat="45.32171" lon="6.70925">
        <ele>2272.694092</ele>
        <time>2010-10-07T08:41:08Z</time>
      </trkpt>
      <trkpt lat="45.32166" lon="6.70927">
        <ele>2274.616699</ele>
        <time>2010-10-07T08:41:13Z</time>
      </trkpt>
      <trkpt lat="45.32165" lon="6.70929">
        <ele>2273.655273</ele>
        <time>2010-10-07T08:41:17Z</time>
      </trkpt>
      <trkpt lat="45.32162" lon="6.70929">
        <ele>2274.616699</ele>
        <time>2010-10-07T08:41:21Z</time>
      </trkpt>
      <trkpt lat="45.3216" lon="6.70932">
        <ele>2273.655273</ele>
        <time>2010-10-07T08:41:28Z</time>
      </trkpt>
      <trkpt lat="45.32153" lon="6.70933">
        <ele>2281.345703</ele>
        <time>2010-10-07T08:41:33Z</time>
      </trkpt>
      <trkpt lat="45.32149" lon="6.70934">
        <ele>2284.710693</ele>
        <time>2010-10-07T08:41:38Z</time>
      </trkpt>
      <trkpt lat="45.32142" lon="6.70936">
        <ele>2286.152588</ele>
        <time>2010-10-07T08:41:45Z</time>
      </trkpt>
      <trkpt lat="45.32137" lon="6.70938">
        <ele>2290.478271</ele>
        <time>2010-10-07T08:41:49Z</time>
      </trkpt>
      <trkpt lat="45.32134" lon="6.70941">
        <ele>2288.075195</ele>
        <time>2010-10-07T08:41:55Z</time>
      </trkpt>
      <trkpt lat="45.32133" lon="6.70943">
        <ele>2286.633057</ele>
        <time>2010-10-07T08:41:59Z</time>
      </trkpt>
      <trkpt lat="45.32133" lon="6.70947">
        <ele>2283.268311</ele>
        <time>2010-10-07T08:42:03Z</time>
      </trkpt>
      <trkpt lat="45.32131" lon="6.7095">
        <ele>2280.384521</ele>
        <time>2010-10-07T08:42:09Z</time>
      </trkpt>
      <trkpt lat="45.32128" lon="6.70953">
        <ele>2280.865234</ele>
        <time>2010-10-07T08:42:15Z</time>
      </trkpt>
      <trkpt lat="45.32125" lon="6.70957">
        <ele>2282.307129</ele>
        <time>2010-10-07T08:42:19Z</time>
      </trkpt>
      <trkpt lat="45.32124" lon="6.70961">
        <ele>2281.826416</ele>
        <time>2010-10-07T08:42:23Z</time>
      </trkpt>
      <trkpt lat="45.3212" lon="6.70966">
        <ele>2281.826416</ele>
        <time>2010-10-07T08:42:29Z</time>
      </trkpt>
      <trkpt lat="45.32119" lon="6.70971">
        <ele>2282.307129</ele>
        <time>2010-10-07T08:42:34Z</time>
      </trkpt>
      <trkpt lat="45.32119" lon="6.70975">
        <ele>2281.826416</ele>
        <time>2010-10-07T08:42:38Z</time>
      </trkpt>
      <trkpt lat="45.32121" lon="6.70983">
        <ele>2282.307129</ele>
        <time>2010-10-07T08:42:52Z</time>
      </trkpt>
      <trkpt lat="45.32121" lon="6.70986">
        <ele>2283.268311</ele>
        <time>2010-10-07T08:42:56Z</time>
      </trkpt>
      <trkpt lat="45.32121" lon="6.70989">
        <ele>2282.307129</ele>
        <time>2010-10-07T08:43:01Z</time>
      </trkpt>
      <trkpt lat="45.3212" lon="6.70993">
        <ele>2282.307129</ele>
        <time>2010-10-07T08:43:17Z</time>
      </trkpt>
      <trkpt lat="45.32119" lon="6.70995">
        <ele>2282.787598</ele>
        <time>2010-10-07T08:43:21Z</time>
      </trkpt>
      <trkpt lat="45.3212" lon="6.70997">
        <ele>2284.22998</ele>
        <time>2010-10-07T08:43:27Z</time>
      </trkpt>
      <trkpt lat="45.32121" lon="6.70999">
        <ele>2285.671875</ele>
        <time>2010-10-07T08:43:30Z</time>
      </trkpt>
      <trkpt lat="45.3212" lon="6.71004">
        <ele>2288.075195</ele>
        <time>2010-10-07T08:43:36Z</time>
      </trkpt>
      <trkpt lat="45.32119" lon="6.71007">
        <ele>2288.075195</ele>
        <time>2010-10-07T08:43:42Z</time>
      </trkpt>
      <trkpt lat="45.32117" lon="6.71007">
        <ele>2290.478271</ele>
        <time>2010-10-07T08:43:48Z</time>
      </trkpt>
      <trkpt lat="45.32118" lon="6.71011">
        <ele>2296.246338</ele>
        <time>2010-10-07T08:44:26Z</time>
      </trkpt>
      <trkpt lat="45.32117" lon="6.71013">
        <ele>2293.362305</ele>
        <time>2010-10-07T08:44:46Z</time>
      </trkpt>
      <trkpt lat="45.32115" lon="6.71017">
        <ele>2293.843018</ele>
        <time>2010-10-07T08:44:52Z</time>
      </trkpt>
      <trkpt lat="45.32114" lon="6.71019">
        <ele>2293.843018</ele>
        <time>2010-10-07T08:44:56Z</time>
      </trkpt>
      <trkpt lat="45.32113" lon="6.71025">
        <ele>2293.843018</ele>
        <time>2010-10-07T08:45:03Z</time>
      </trkpt>
      <trkpt lat="45.3211" lon="6.7103">
        <ele>2293.362305</ele>
        <time>2010-10-07T08:45:08Z</time>
      </trkpt>
      <trkpt lat="45.32107" lon="6.71033">
        <ele>2292.881592</ele>
        <time>2010-10-07T08:45:12Z</time>
      </trkpt>
      <trkpt lat="45.32103" lon="6.71039">
        <ele>2294.804199</ele>
        <time>2010-10-07T08:45:18Z</time>
      </trkpt>
      <trkpt lat="45.32101" lon="6.71044">
        <ele>2295.765625</ele>
        <time>2010-10-07T08:45:23Z</time>
      </trkpt>
      <trkpt lat="45.321" lon="6.71047">
        <ele>2295.284912</ele>
        <time>2010-10-07T08:45:26Z</time>
      </trkpt>
      <trkpt lat="45.32099" lon="6.71052">
        <ele>2296.246338</ele>
        <time>2010-10-07T08:45:33Z</time>
      </trkpt>
      <trkpt lat="45.32096" lon="6.71054">
        <ele>2298.168701</ele>
        <time>2010-10-07T08:45:37Z</time>
      </trkpt>
      <trkpt lat="45.32092" lon="6.71056">
        <ele>2300.091797</ele>
        <time>2010-10-07T08:45:44Z</time>
      </trkpt>
      <trkpt lat="45.32094" lon="6.7106">
        <ele>2298.168701</ele>
        <time>2010-10-07T08:45:52Z</time>
      </trkpt>
      <trkpt lat="45.32096" lon="6.71064">
        <ele>2299.130127</ele>
        <time>2010-10-07T08:45:55Z</time>
      </trkpt>
      <trkpt lat="45.32094" lon="6.71066">
        <ele>2298.649414</ele>
        <time>2010-10-07T08:45:59Z</time>
      </trkpt>
      <trkpt lat="45.32091" lon="6.7107">
        <ele>2298.649414</ele>
        <time>2010-10-07T08:46:03Z</time>
      </trkpt>
      <trkpt lat="45.32086" lon="6.71076">
        <ele>2298.168701</ele>
        <time>2010-10-07T08:46:09Z</time>
      </trkpt>
      <trkpt lat="45.32086" lon="6.71077">
        <ele>2298.168701</ele>
        <time>2010-10-07T08:46:10Z</time>
      </trkpt>
      <trkpt lat="45.32084" lon="6.71082">
        <ele>2299.130127</ele>
        <time>2010-10-07T08:46:15Z</time>
      </trkpt>
      <trkpt lat="45.32081" lon="6.71086">
        <ele>2300.572266</ele>
        <time>2010-10-07T08:46:19Z</time>
      </trkpt>
      <trkpt lat="45.32078" lon="6.71091">
        <ele>2300.091797</ele>
        <time>2010-10-07T08:46:24Z</time>
      </trkpt>
      <trkpt lat="45.32075" lon="6.71096">
        <ele>2300.091797</ele>
        <time>2010-10-07T08:46:29Z</time>
      </trkpt>
      <trkpt lat="45.32071" lon="6.71099">
        <ele>2301.052979</ele>
        <time>2010-10-07T08:46:34Z</time>
      </trkpt>
      <trkpt lat="45.32068" lon="6.71103">
        <ele>2301.533691</ele>
        <time>2010-10-07T08:46:38Z</time>
      </trkpt>
      <trkpt lat="45.32066" lon="6.71108">
        <ele>2302.01416</ele>
        <time>2010-10-07T08:46:44Z</time>
      </trkpt>
      <trkpt lat="45.32063" lon="6.71111">
        <ele>2303.456299</ele>
        <time>2010-10-07T08:46:49Z</time>
      </trkpt>
      <trkpt lat="45.32061" lon="6.71115">
        <ele>2303.937012</ele>
        <time>2010-10-07T08:46:54Z</time>
      </trkpt>
      <trkpt lat="45.32057" lon="6.71115">
        <ele>2305.378906</ele>
        <time>2010-10-07T08:46:59Z</time>
      </trkpt>
      <trkpt lat="45.32055" lon="6.71117">
        <ele>2306.340088</ele>
        <time>2010-10-07T08:47:04Z</time>
      </trkpt>
      <trkpt lat="45.32052" lon="6.7112">
        <ele>2308.262695</ele>
        <time>2010-10-07T08:47:09Z</time>
      </trkpt>
      <trkpt lat="45.3205" lon="6.71123">
        <ele>2308.743408</ele>
        <time>2010-10-07T08:47:13Z</time>
      </trkpt>
      <trkpt lat="45.32047" lon="6.71129">
        <ele>2309.70459</ele>
        <time>2010-10-07T08:47:21Z</time>
      </trkpt>
      <trkpt lat="45.32046" lon="6.71134">
        <ele>2309.224121</ele>
        <time>2010-10-07T08:47:25Z</time>
      </trkpt>
      <trkpt lat="45.32042" lon="6.71136">
        <ele>2311.146729</ele>
        <time>2010-10-07T08:47:29Z</time>
      </trkpt>
      <trkpt lat="45.32039" lon="6.71138">
        <ele>2314.030518</ele>
        <time>2010-10-07T08:47:33Z</time>
      </trkpt>
      <trkpt lat="45.32039" lon="6.71143">
        <ele>2311.627441</ele>
        <time>2010-10-07T08:47:37Z</time>
      </trkpt>
      <trkpt lat="45.32039" lon="6.71147">
        <ele>2309.224121</ele>
        <time>2010-10-07T08:47:41Z</time>
      </trkpt>
      <trkpt lat="45.32039" lon="6.71151">
        <ele>2309.70459</ele>
        <time>2010-10-07T08:47:44Z</time>
      </trkpt>
      <trkpt lat="45.32038" lon="6.71154">
        <ele>2310.185303</ele>
        <time>2010-10-07T08:47:48Z</time>
      </trkpt>
      <trkpt lat="45.32036" lon="6.71157">
        <ele>2311.627441</ele>
        <time>2010-10-07T08:47:52Z</time>
      </trkpt>
      <trkpt lat="45.32033" lon="6.7116">
        <ele>2313.069336</ele>
        <time>2010-10-07T08:47:56Z</time>
      </trkpt>
      <trkpt lat="45.3203" lon="6.71163">
        <ele>2312.588623</ele>
        <time>2010-10-07T08:48:01Z</time>
      </trkpt>
      <trkpt lat="45.32028" lon="6.71165">
        <ele>2314.991943</ele>
        <time>2010-10-07T08:48:05Z</time>
      </trkpt>
      <trkpt lat="45.32025" lon="6.71168">
        <ele>2317.875977</ele>
        <time>2010-10-07T08:48:09Z</time>
      </trkpt>
      <trkpt lat="45.32024" lon="6.71172">
        <ele>2317.395264</ele>
        <time>2010-10-07T08:48:13Z</time>
      </trkpt>
      <trkpt lat="45.32022" lon="6.71175">
        <ele>2318.356689</ele>
        <time>2010-10-07T08:48:17Z</time>
      </trkpt>
      <trkpt lat="45.32021" lon="6.71178">
        <ele>2319.318115</ele>
        <time>2010-10-07T08:48:20Z</time>
      </trkpt>
      <trkpt lat="45.3202" lon="6.7118">
        <ele>2319.798584</ele>
        <time>2010-10-07T08:48:23Z</time>
      </trkpt>
      <trkpt lat="45.32018" lon="6.71182">
        <ele>2320.279297</ele>
        <time>2010-10-07T08:48:27Z</time>
      </trkpt>
      <trkpt lat="45.32017" lon="6.71185">
        <ele>2319.318115</ele>
        <time>2010-10-07T08:48:31Z</time>
      </trkpt>
      <trkpt lat="45.32015" lon="6.71186">
        <ele>2320.76001</ele>
        <time>2010-10-07T08:48:34Z</time>
      </trkpt>
      <trkpt lat="45.32013" lon="6.71189">
        <ele>2323.16333</ele>
        <time>2010-10-07T08:48:38Z</time>
      </trkpt>
      <trkpt lat="45.32011" lon="6.71192">
        <ele>2324.124512</ele>
        <time>2010-10-07T08:48:43Z</time>
      </trkpt>
      <trkpt lat="45.32009" lon="6.71195">
        <ele>2326.527832</ele>
        <time>2010-10-07T08:48:47Z</time>
      </trkpt>
      <trkpt lat="45.32006" lon="6.71198">
        <ele>2327.489014</ele>
        <time>2010-10-07T08:48:51Z</time>
      </trkpt>
      <trkpt lat="45.32004" lon="6.71202">
        <ele>2326.527832</ele>
        <time>2010-10-07T08:48:56Z</time>
      </trkpt>
      <trkpt lat="45.32002" lon="6.71206">
        <ele>2326.047119</ele>
        <time>2010-10-07T08:49:01Z</time>
      </trkpt>
      <trkpt lat="45.32003" lon="6.71211">
        <ele>2324.605225</ele>
        <time>2010-10-07T08:49:05Z</time>
      </trkpt>
      <trkpt lat="45.32002" lon="6.71215">
        <ele>2325.566406</ele>
        <time>2010-10-07T08:49:10Z</time>
      </trkpt>
      <trkpt lat="45.32001" lon="6.71219">
        <ele>2324.605225</ele>
        <time>2010-10-07T08:49:15Z</time>
      </trkpt>
      <trkpt lat="45.32" lon="6.71223">
        <ele>2324.605225</ele>
        <time>2010-10-07T08:49:20Z</time>
      </trkpt>
      <trkpt lat="45.32001" lon="6.71228">
        <ele>2324.124512</ele>
        <time>2010-10-07T08:49:24Z</time>
      </trkpt>
      <trkpt lat="45.32001" lon="6.71232">
        <ele>2325.085693</ele>
        <time>2010-10-07T08:49:28Z</time>
      </trkpt>
      <trkpt lat="45.32003" lon="6.71234">
        <ele>2326.047119</ele>
        <time>2010-10-07T08:49:32Z</time>
      </trkpt>
      <trkpt lat="45.32006" lon="6.71237">
        <ele>2324.605225</ele>
        <time>2010-10-07T08:49:36Z</time>
      </trkpt>
      <trkpt lat="45.32009" lon="6.71243">
        <ele>2323.643799</ele>
        <time>2010-10-07T08:49:41Z</time>
      </trkpt>
      <trkpt lat="45.3201" lon="6.71245">
        <ele>2324.124512</ele>
        <time>2010-10-07T08:49:44Z</time>
      </trkpt>
      <trkpt lat="45.32012" lon="6.71249">
        <ele>2325.085693</ele>
        <time>2010-10-07T08:49:49Z</time>
      </trkpt>
      <trkpt lat="45.32012" lon="6.71253">
        <ele>2326.047119</ele>
        <time>2010-10-07T08:49:52Z</time>
      </trkpt>
      <trkpt lat="45.32011" lon="6.71256">
        <ele>2326.047119</ele>
        <time>2010-10-07T08:49:54Z</time>
      </trkpt>
      <trkpt lat="45.32011" lon="6.71263">
        <ele>2324.605225</ele>
        <time>2010-10-07T08:50:01Z</time>
      </trkpt>
      <trkpt lat="45.32009" lon="6.71266">
        <ele>2326.047119</ele>
        <time>2010-10-07T08:50:05Z</time>
      </trkpt>
      <trkpt lat="45.32009" lon="6.71271">
        <ele>2326.047119</ele>
        <time>2010-10-07T08:50:09Z</time>
      </trkpt>
      <trkpt lat="45.32008" lon="6.71276">
        <ele>2328.450439</ele>
        <time>2010-10-07T08:50:14Z</time>
      </trkpt>
      <trkpt lat="45.32006" lon="6.71279">
        <ele>2328.930908</ele>
        <time>2010-10-07T08:50:18Z</time>
      </trkpt>
      <trkpt lat="45.32004" lon="6.71284">
        <ele>2330.373047</ele>
        <time>2010-10-07T08:50:23Z</time>
      </trkpt>
      <trkpt lat="45.32003" lon="6.71289">
        <ele>2331.334229</ele>
        <time>2010-10-07T08:50:28Z</time>
      </trkpt>
      <trkpt lat="45.32001" lon="6.71294">
        <ele>2332.776367</ele>
        <time>2010-10-07T08:50:33Z</time>
      </trkpt>
      <trkpt lat="45.32" lon="6.71299">
        <ele>2332.295898</ele>
        <time>2010-10-07T08:50:38Z</time>
      </trkpt>
      <trkpt lat="45.31997" lon="6.71302">
        <ele>2332.776367</ele>
        <time>2010-10-07T08:50:43Z</time>
      </trkpt>
      <trkpt lat="45.31996" lon="6.71306">
        <ele>2333.25708</ele>
        <time>2010-10-07T08:50:57Z</time>
      </trkpt>
      <trkpt lat="45.31994" lon="6.71311">
        <ele>2333.737793</ele>
        <time>2010-10-07T08:51:02Z</time>
      </trkpt>
      <trkpt lat="45.31993" lon="6.71316">
        <ele>2333.737793</ele>
        <time>2010-10-07T08:51:06Z</time>
      </trkpt>
      <trkpt lat="45.31989" lon="6.71317">
        <ele>2335.6604</ele>
        <time>2010-10-07T08:51:10Z</time>
      </trkpt>
      <trkpt lat="45.31986" lon="6.71324">
        <ele>2335.6604</ele>
        <time>2010-10-07T08:51:16Z</time>
      </trkpt>
      <trkpt lat="45.3198" lon="6.71326">
        <ele>2341.428223</ele>
        <time>2010-10-07T08:51:22Z</time>
      </trkpt>
      <trkpt lat="45.31976" lon="6.71332">
        <ele>2343.35083</ele>
        <time>2010-10-07T08:51:29Z</time>
      </trkpt>
      <trkpt lat="45.31975" lon="6.71338">
        <ele>2341.908936</ele>
        <time>2010-10-07T08:51:35Z</time>
      </trkpt>
      <trkpt lat="45.31971" lon="6.71342">
        <ele>2343.35083</ele>
        <time>2010-10-07T08:51:40Z</time>
      </trkpt>
      <trkpt lat="45.31969" lon="6.71347">
        <ele>2342.870117</ele>
        <time>2010-10-07T08:51:45Z</time>
      </trkpt>
      <trkpt lat="45.31967" lon="6.7135">
        <ele>2344.792725</ele>
        <time>2010-10-07T08:51:48Z</time>
      </trkpt>
      <trkpt lat="45.31965" lon="6.71355">
        <ele>2344.792725</ele>
        <time>2010-10-07T08:51:54Z</time>
      </trkpt>
      <trkpt lat="45.31963" lon="6.71357">
        <ele>2345.273438</ele>
        <time>2010-10-07T08:51:58Z</time>
      </trkpt>
      <trkpt lat="45.31959" lon="6.71358">
        <ele>2349.118896</ele>
        <time>2010-10-07T08:52:02Z</time>
      </trkpt>
      <trkpt lat="45.31957" lon="6.71359">
        <ele>2350.080322</ele>
        <time>2010-10-07T08:52:04Z</time>
      </trkpt>
      <trkpt lat="45.31955" lon="6.71363">
        <ele>2347.676758</ele>
        <time>2010-10-07T08:52:09Z</time>
      </trkpt>
      <trkpt lat="45.31953" lon="6.71367">
        <ele>2349.118896</ele>
        <time>2010-10-07T08:52:14Z</time>
      </trkpt>
      <trkpt lat="45.31953" lon="6.7137">
        <ele>2349.599609</ele>
        <time>2010-10-07T08:52:19Z</time>
      </trkpt>
      <trkpt lat="45.31953" lon="6.71374">
        <ele>2350.560791</ele>
        <time>2010-10-07T08:52:23Z</time>
      </trkpt>
      <trkpt lat="45.31959" lon="6.71378">
        <ele>2340.94751</ele>
        <time>2010-10-07T08:52:40Z</time>
      </trkpt>
      <trkpt lat="45.31962" lon="6.71383">
        <ele>2341.908936</ele>
        <time>2010-10-07T08:52:46Z</time>
      </trkpt>
      <trkpt lat="45.31964" lon="6.71385">
        <ele>2344.312012</ele>
        <time>2010-10-07T08:52:51Z</time>
      </trkpt>
      <trkpt lat="45.31964" lon="6.71388">
        <ele>2344.312012</ele>
        <time>2010-10-07T08:52:55Z</time>
      </trkpt>
      <trkpt lat="45.31964" lon="6.7139">
        <ele>2345.273438</ele>
        <time>2010-10-07T08:52:59Z</time>
      </trkpt>
      <trkpt lat="45.31966" lon="6.71393">
        <ele>2344.792725</ele>
        <time>2010-10-07T08:53:03Z</time>
      </trkpt>
      <trkpt lat="45.31967" lon="6.71397">
        <ele>2345.273438</ele>
        <time>2010-10-07T08:53:07Z</time>
      </trkpt>
      <trkpt lat="45.31965" lon="6.71399">
        <ele>2347.676758</ele>
        <time>2010-10-07T08:53:10Z</time>
      </trkpt>
      <trkpt lat="45.31966" lon="6.71401">
        <ele>2349.599609</ele>
        <time>2010-10-07T08:53:16Z</time>
      </trkpt>
      <trkpt lat="45.31968" lon="6.71403">
        <ele>2350.560791</ele>
        <time>2010-10-07T08:53:19Z</time>
      </trkpt>
      <trkpt lat="45.31967" lon="6.71406">
        <ele>2352.002686</ele>
        <time>2010-10-07T08:53:23Z</time>
      </trkpt>
      <trkpt lat="45.31967" lon="6.7141">
        <ele>2353.925537</ele>
        <time>2010-10-07T08:53:28Z</time>
      </trkpt>
      <trkpt lat="45.31968" lon="6.71412">
        <ele>2354.406006</ele>
        <time>2010-10-07T08:53:31Z</time>
      </trkpt>
      <trkpt lat="45.3197" lon="6.71416">
        <ele>2353.925537</ele>
        <time>2010-10-07T08:53:35Z</time>
      </trkpt>
      <trkpt lat="45.31972" lon="6.71418">
        <ele>2353.925537</ele>
        <time>2010-10-07T08:53:38Z</time>
      </trkpt>
      <trkpt lat="45.31975" lon="6.71419">
        <ele>2353.925537</ele>
        <time>2010-10-07T08:53:42Z</time>
      </trkpt>
      <trkpt lat="45.31977" lon="6.71421">
        <ele>2354.886719</ele>
        <time>2010-10-07T08:53:46Z</time>
      </trkpt>
      <trkpt lat="45.31978" lon="6.71423">
        <ele>2356.809326</ele>
        <time>2010-10-07T08:53:50Z</time>
      </trkpt>
      <trkpt lat="45.31976" lon="6.71426">
        <ele>2358.731934</ele>
        <time>2010-10-07T08:53:55Z</time>
      </trkpt>
      <trkpt lat="45.31977" lon="6.71429">
        <ele>2359.693115</ele>
        <time>2010-10-07T08:54:00Z</time>
      </trkpt>
      <trkpt lat="45.31981" lon="6.7143">
        <ele>2359.212646</ele>
        <time>2010-10-07T08:54:06Z</time>
      </trkpt>
      <trkpt lat="45.31986" lon="6.71429">
        <ele>2359.693115</ele>
        <time>2010-10-07T08:54:12Z</time>
      </trkpt>
      <trkpt lat="45.3199" lon="6.71429">
        <ele>2360.173828</ele>
        <time>2010-10-07T08:54:17Z</time>
      </trkpt>
      <trkpt lat="45.31993" lon="6.7143">
        <ele>2360.654541</ele>
        <time>2010-10-07T08:54:21Z</time>
      </trkpt>
      <trkpt lat="45.31994" lon="6.71432">
        <ele>2362.577148</ele>
        <time>2010-10-07T08:54:27Z</time>
      </trkpt>
      <trkpt lat="45.31997" lon="6.71435">
        <ele>2364.019287</ele>
        <time>2010-10-07T08:54:31Z</time>
      </trkpt>
      <trkpt lat="45.31999" lon="6.71435">
        <ele>2366.422607</ele>
        <time>2010-10-07T08:54:35Z</time>
      </trkpt>
      <trkpt lat="45.32001" lon="6.71434">
        <ele>2365.941895</ele>
        <time>2010-10-07T08:54:41Z</time>
      </trkpt>
      <trkpt lat="45.32004" lon="6.71434">
        <ele>2366.422607</ele>
        <time>2010-10-07T08:54:45Z</time>
      </trkpt>
      <trkpt lat="45.32005" lon="6.71435">
        <ele>2366.90332</ele>
        <time>2010-10-07T08:54:48Z</time>
      </trkpt>
      <trkpt lat="45.32009" lon="6.71438">
        <ele>2366.422607</ele>
        <time>2010-10-07T08:54:55Z</time>
      </trkpt>
      <trkpt lat="45.32012" lon="6.71441">
        <ele>2366.422607</ele>
        <time>2010-10-07T08:55:02Z</time>
      </trkpt>
      <trkpt lat="45.32014" lon="6.71441">
        <ele>2368.345215</ele>
        <time>2010-10-07T08:55:06Z</time>
      </trkpt>
      <trkpt lat="45.32018" lon="6.71439">
        <ele>2372.671143</ele>
        <time>2010-10-07T08:55:27Z</time>
      </trkpt>
      <trkpt lat="45.3202" lon="6.71439">
        <ele>2372.671143</ele>
        <time>2010-10-07T08:55:32Z</time>
      </trkpt>
      <trkpt lat="45.32024" lon="6.71439">
        <ele>2371.229004</ele>
        <time>2010-10-07T08:55:38Z</time>
      </trkpt>
      <trkpt lat="45.32025" lon="6.71438">
        <ele>2371.229004</ele>
        <time>2010-10-07T08:55:43Z</time>
      </trkpt>
      <trkpt lat="45.32032" lon="6.71437">
        <ele>2373.632324</ele>
        <time>2010-10-07T08:56:48Z</time>
      </trkpt>
      <trkpt lat="45.32034" lon="6.71436">
        <ele>2371.709717</ele>
        <time>2010-10-07T08:56:53Z</time>
      </trkpt>
      <trkpt lat="45.32037" lon="6.71433">
        <ele>2371.709717</ele>
        <time>2010-10-07T08:57:00Z</time>
      </trkpt>
      <trkpt lat="45.32039" lon="6.71429">
        <ele>2373.151855</ele>
        <time>2010-10-07T08:57:06Z</time>
      </trkpt>
      <trkpt lat="45.3204" lon="6.71427">
        <ele>2375.074219</ele>
        <time>2010-10-07T08:57:12Z</time>
      </trkpt>
      <trkpt lat="45.32042" lon="6.71426">
        <ele>2375.554932</ele>
        <time>2010-10-07T08:57:16Z</time>
      </trkpt>
      <trkpt lat="45.32042" lon="6.71424">
        <ele>2377.958252</ele>
        <time>2010-10-07T08:57:20Z</time>
      </trkpt>
      <trkpt lat="45.32045" lon="6.71424">
        <ele>2378.438965</ele>
        <time>2010-10-07T08:57:25Z</time>
      </trkpt>
      <trkpt lat="45.32047" lon="6.71423">
        <ele>2378.919434</ele>
        <time>2010-10-07T08:57:30Z</time>
      </trkpt>
      <trkpt lat="45.3205" lon="6.71422">
        <ele>2379.400146</ele>
        <time>2010-10-07T08:57:36Z</time>
      </trkpt>
      <trkpt lat="45.32052" lon="6.71422">
        <ele>2380.361816</ele>
        <time>2010-10-07T08:57:41Z</time>
      </trkpt>
      <trkpt lat="45.32054" lon="6.7142">
        <ele>2379.880859</ele>
        <time>2010-10-07T08:57:48Z</time>
      </trkpt>
      <trkpt lat="45.32055" lon="6.71417">
        <ele>2381.803711</ele>
        <time>2010-10-07T08:57:54Z</time>
      </trkpt>
      <trkpt lat="45.32057" lon="6.71414">
        <ele>2382.764893</ele>
        <time>2010-10-07T08:58:00Z</time>
      </trkpt>
      <trkpt lat="45.32059" lon="6.71411">
        <ele>2382.284424</ele>
        <time>2010-10-07T08:58:04Z</time>
      </trkpt>
      <trkpt lat="45.32061" lon="6.71409">
        <ele>2383.726318</ele>
        <time>2010-10-07T08:58:08Z</time>
      </trkpt>
      <trkpt lat="45.32064" lon="6.71407">
        <ele>2385.168213</ele>
        <time>2010-10-07T08:58:13Z</time>
      </trkpt>
      <trkpt lat="45.32065" lon="6.71404">
        <ele>2385.648926</ele>
        <time>2010-10-07T08:58:18Z</time>
      </trkpt>
      <trkpt lat="45.32068" lon="6.71402">
        <ele>2384.207031</ele>
        <time>2010-10-07T08:58:23Z</time>
      </trkpt>
      <trkpt lat="45.3207" lon="6.714">
        <ele>2384.207031</ele>
        <time>2010-10-07T08:58:28Z</time>
      </trkpt>
      <trkpt lat="45.32072" lon="6.71397">
        <ele>2385.648926</ele>
        <time>2010-10-07T08:58:32Z</time>
      </trkpt>
      <trkpt lat="45.32072" lon="6.71393">
        <ele>2386.610107</ele>
        <time>2010-10-07T08:58:37Z</time>
      </trkpt>
      <trkpt lat="45.32073" lon="6.71388">
        <ele>2387.571533</ele>
        <time>2010-10-07T08:58:42Z</time>
      </trkpt>
      <trkpt lat="45.32077" lon="6.71386">
        <ele>2388.532959</ele>
        <time>2010-10-07T08:58:47Z</time>
      </trkpt>
      <trkpt lat="45.32078" lon="6.71383">
        <ele>2387.571533</ele>
        <time>2010-10-07T08:58:51Z</time>
      </trkpt>
      <trkpt lat="45.32078" lon="6.71381">
        <ele>2388.052246</ele>
        <time>2010-10-07T08:58:55Z</time>
      </trkpt>
      <trkpt lat="45.32079" lon="6.7138">
        <ele>2389.013428</ele>
        <time>2010-10-07T08:58:59Z</time>
      </trkpt>
      <trkpt lat="45.32079" lon="6.71377">
        <ele>2389.013428</ele>
        <time>2010-10-07T08:59:06Z</time>
      </trkpt>
      <trkpt lat="45.32082" lon="6.71376">
        <ele>2389.494141</ele>
        <time>2010-10-07T08:59:11Z</time>
      </trkpt>
      <trkpt lat="45.32083" lon="6.71373">
        <ele>2390.455322</ele>
        <time>2010-10-07T08:59:16Z</time>
      </trkpt>
      <trkpt lat="45.32084" lon="6.71369">
        <ele>2390.455322</ele>
        <time>2010-10-07T08:59:21Z</time>
      </trkpt>
      <trkpt lat="45.32087" lon="6.71364">
        <ele>2390.455322</ele>
        <time>2010-10-07T08:59:27Z</time>
      </trkpt>
      <trkpt lat="45.3209" lon="6.7136">
        <ele>2391.416748</ele>
        <time>2010-10-07T08:59:32Z</time>
      </trkpt>
      <trkpt lat="45.32092" lon="6.71359">
        <ele>2392.858643</ele>
        <time>2010-10-07T08:59:36Z</time>
      </trkpt>
      <trkpt lat="45.32094" lon="6.71357">
        <ele>2392.858643</ele>
        <time>2010-10-07T08:59:40Z</time>
      </trkpt>
      <trkpt lat="45.32097" lon="6.71357">
        <ele>2394.78125</ele>
        <time>2010-10-07T08:59:45Z</time>
      </trkpt>
      <trkpt lat="45.32099" lon="6.71355">
        <ele>2396.704102</ele>
        <time>2010-10-07T08:59:49Z</time>
      </trkpt>
      <trkpt lat="45.321" lon="6.71355">
        <ele>2397.184814</ele>
        <time>2010-10-07T08:59:51Z</time>
      </trkpt>
      <trkpt lat="45.32106" lon="6.7135">
        <ele>2398.145996</ele>
        <time>2010-10-07T08:59:58Z</time>
      </trkpt>
      <trkpt lat="45.32108" lon="6.71349">
        <ele>2399.107422</ele>
        <time>2010-10-07T09:00:02Z</time>
      </trkpt>
      <trkpt lat="45.32116" lon="6.71347">
        <ele>2397.184814</ele>
        <time>2010-10-07T09:00:10Z</time>
      </trkpt>
      <trkpt lat="45.32119" lon="6.71346">
        <ele>2397.184814</ele>
        <time>2010-10-07T09:00:15Z</time>
      </trkpt>
      <trkpt lat="45.32123" lon="6.71344">
        <ele>2396.223633</ele>
        <time>2010-10-07T09:00:21Z</time>
      </trkpt>
      <trkpt lat="45.32125" lon="6.71342">
        <ele>2398.626709</ele>
        <time>2010-10-07T09:00:28Z</time>
      </trkpt>
      <trkpt lat="45.32127" lon="6.7134">
        <ele>2400.068848</ele>
        <time>2010-10-07T09:00:33Z</time>
      </trkpt>
      <trkpt lat="45.32129" lon="6.71338">
        <ele>2402.471924</ele>
        <time>2010-10-07T09:00:38Z</time>
      </trkpt>
      <trkpt lat="45.32132" lon="6.71336">
        <ele>2402.471924</ele>
        <time>2010-10-07T09:00:43Z</time>
      </trkpt>
      <trkpt lat="45.32134" lon="6.71334">
        <ele>2404.394531</ele>
        <time>2010-10-07T09:00:49Z</time>
      </trkpt>
      <trkpt lat="45.32138" lon="6.71333">
        <ele>2403.43335</ele>
        <time>2010-10-07T09:00:59Z</time>
      </trkpt>
      <trkpt lat="45.32131" lon="6.71327">
        <ele>2410.643066</ele>
        <time>2010-10-07T09:02:29Z</time>
      </trkpt>
      <trkpt lat="45.32131" lon="6.71326">
        <ele>2413.046631</ele>
        <time>2010-10-07T09:03:05Z</time>
      </trkpt>
      <trkpt lat="45.3213" lon="6.71327">
        <ele>2410.643066</ele>
        <time>2010-10-07T09:03:17Z</time>
      </trkpt>
      <trkpt lat="45.32132" lon="6.71326">
        <ele>2411.123779</ele>
        <time>2010-10-07T09:03:29Z</time>
      </trkpt>
      <trkpt lat="45.32133" lon="6.71325">
        <ele>2412.565918</ele>
        <time>2010-10-07T09:03:39Z</time>
      </trkpt>
      <trkpt lat="45.32136" lon="6.71321">
        <ele>2413.5271</ele>
        <time>2010-10-07T09:03:48Z</time>
      </trkpt>
      <trkpt lat="45.32143" lon="6.71318">
        <ele>2414.969238</ele>
        <time>2010-10-07T09:03:55Z</time>
      </trkpt>
      <trkpt lat="45.32147" lon="6.71312">
        <ele>2414.969238</ele>
        <time>2010-10-07T09:04:02Z</time>
      </trkpt>
      <trkpt lat="45.32151" lon="6.71308">
        <ele>2415.93042</ele>
        <time>2010-10-07T09:04:08Z</time>
      </trkpt>
      <trkpt lat="45.32154" lon="6.71306">
        <ele>2417.372314</ele>
        <time>2010-10-07T09:04:12Z</time>
      </trkpt>
      <trkpt lat="45.32159" lon="6.71301">
        <ele>2418.814453</ele>
        <time>2010-10-07T09:04:19Z</time>
      </trkpt>
      <trkpt lat="45.32163" lon="6.71295">
        <ele>2419.295166</ele>
        <time>2010-10-07T09:04:26Z</time>
      </trkpt>
      <trkpt lat="45.32167" lon="6.71292">
        <ele>2419.775635</ele>
        <time>2010-10-07T09:04:31Z</time>
      </trkpt>
      <trkpt lat="45.3217" lon="6.71289">
        <ele>2420.737061</ele>
        <time>2010-10-07T09:04:37Z</time>
      </trkpt>
      <trkpt lat="45.32173" lon="6.71284">
        <ele>2421.217529</ele>
        <time>2010-10-07T09:04:43Z</time>
      </trkpt>
      <trkpt lat="45.32176" lon="6.71277">
        <ele>2421.217529</ele>
        <time>2010-10-07T09:04:50Z</time>
      </trkpt>
      <trkpt lat="45.32182" lon="6.71271">
        <ele>2421.217529</ele>
        <time>2010-10-07T09:04:59Z</time>
      </trkpt>
      <trkpt lat="45.3219" lon="6.71268">
        <ele>2423.140381</ele>
        <time>2010-10-07T09:05:08Z</time>
      </trkpt>
      <trkpt lat="45.32194" lon="6.71266">
        <ele>2424.582275</ele>
        <time>2010-10-07T09:05:15Z</time>
      </trkpt>
      <trkpt lat="45.32198" lon="6.71262">
        <ele>2425.543457</ele>
        <time>2010-10-07T09:05:20Z</time>
      </trkpt>
      <trkpt lat="45.32202" lon="6.71256">
        <ele>2426.02417</ele>
        <time>2010-10-07T09:05:26Z</time>
      </trkpt>
      <trkpt lat="45.32208" lon="6.71247">
        <ele>2426.985596</ele>
        <time>2010-10-07T09:05:35Z</time>
      </trkpt>
      <trkpt lat="45.32211" lon="6.71243">
        <ele>2426.985596</ele>
        <time>2010-10-07T09:05:40Z</time>
      </trkpt>
      <trkpt lat="45.32213" lon="6.7124">
        <ele>2426.504883</ele>
        <time>2010-10-07T09:05:45Z</time>
      </trkpt>
      <trkpt lat="45.32218" lon="6.71236">
        <ele>2427.946777</ele>
        <time>2010-10-07T09:05:51Z</time>
      </trkpt>
      <trkpt lat="45.32221" lon="6.71234">
        <ele>2427.946777</ele>
        <time>2010-10-07T09:05:57Z</time>
      </trkpt>
      <trkpt lat="45.32224" lon="6.71229">
        <ele>2428.427734</ele>
        <time>2010-10-07T09:06:03Z</time>
      </trkpt>
      <trkpt lat="45.32227" lon="6.71224">
        <ele>2428.427734</ele>
        <time>2010-10-07T09:06:08Z</time>
      </trkpt>
      <trkpt lat="45.32231" lon="6.71219">
        <ele>2428.427734</ele>
        <time>2010-10-07T09:06:15Z</time>
      </trkpt>
      <trkpt lat="45.32236" lon="6.71211">
        <ele>2427.946777</ele>
        <time>2010-10-07T09:06:24Z</time>
      </trkpt>
      <trkpt lat="45.32239" lon="6.71207">
        <ele>2427.946777</ele>
        <time>2010-10-07T09:06:28Z</time>
      </trkpt>
      <trkpt lat="45.32244" lon="6.71199">
        <ele>2427.946777</ele>
        <time>2010-10-07T09:06:36Z</time>
      </trkpt>
      <trkpt lat="45.32247" lon="6.71193">
        <ele>2427.946777</ele>
        <time>2010-10-07T09:06:42Z</time>
      </trkpt>
      <trkpt lat="45.3225" lon="6.7119">
        <ele>2428.427734</ele>
        <time>2010-10-07T09:06:48Z</time>
      </trkpt>
      <trkpt lat="45.32254" lon="6.71185">
        <ele>2428.908203</ele>
        <time>2010-10-07T09:06:53Z</time>
      </trkpt>
      <trkpt lat="45.32257" lon="6.71179">
        <ele>2427.946777</ele>
        <time>2010-10-07T09:06:59Z</time>
      </trkpt>
      <trkpt lat="45.32261" lon="6.71175">
        <ele>2426.985596</ele>
        <time>2010-10-07T09:07:05Z</time>
      </trkpt>
      <trkpt lat="45.32263" lon="6.71169">
        <ele>2426.504883</ele>
        <time>2010-10-07T09:07:11Z</time>
      </trkpt>
      <trkpt lat="45.32267" lon="6.7116">
        <ele>2426.504883</ele>
        <time>2010-10-07T09:07:18Z</time>
      </trkpt>
      <trkpt lat="45.32268" lon="6.7116">
        <ele>2426.985596</ele>
        <time>2010-10-07T09:07:19Z</time>
      </trkpt>
      <trkpt lat="45.32275" lon="6.71151">
        <ele>2426.504883</ele>
        <time>2010-10-07T09:07:28Z</time>
      </trkpt>
      <trkpt lat="45.32277" lon="6.71146">
        <ele>2426.02417</ele>
        <time>2010-10-07T09:07:33Z</time>
      </trkpt>
      <trkpt lat="45.32279" lon="6.71143">
        <ele>2426.504883</ele>
        <time>2010-10-07T09:07:36Z</time>
      </trkpt>
      <trkpt lat="45.32284" lon="6.7114">
        <ele>2426.985596</ele>
        <time>2010-10-07T09:07:40Z</time>
      </trkpt>
      <trkpt lat="45.32284" lon="6.71136">
        <ele>2426.504883</ele>
        <time>2010-10-07T09:07:43Z</time>
      </trkpt>
      <trkpt lat="45.32285" lon="6.71132">
        <ele>2426.504883</ele>
        <time>2010-10-07T09:07:47Z</time>
      </trkpt>
      <trkpt lat="45.32287" lon="6.71133">
        <ele>2426.02417</ele>
        <time>2010-10-07T09:08:01Z</time>
      </trkpt>
      <trkpt lat="45.32289" lon="6.71131">
        <ele>2426.02417</ele>
        <time>2010-10-07T09:08:05Z</time>
      </trkpt>
      <trkpt lat="45.3229" lon="6.71125">
        <ele>2425.543457</ele>
        <time>2010-10-07T09:08:11Z</time>
      </trkpt>
      <trkpt lat="45.32293" lon="6.71118">
        <ele>2425.062744</ele>
        <time>2010-10-07T09:08:16Z</time>
      </trkpt>
      <trkpt lat="45.32294" lon="6.71117">
        <ele>2425.062744</ele>
        <time>2010-10-07T09:08:22Z</time>
      </trkpt>
      <trkpt lat="45.32294" lon="6.71118">
        <ele>2425.062744</ele>
        <time>2010-10-07T09:08:33Z</time>
      </trkpt>
      <trkpt lat="45.32294" lon="6.71117">
        <ele>2424.582275</ele>
        <time>2010-10-07T09:08:41Z</time>
      </trkpt>
      <trkpt lat="45.32299" lon="6.71116">
        <ele>2424.101562</ele>
        <time>2010-10-07T09:08:46Z</time>
      </trkpt>
      <trkpt lat="45.32304" lon="6.71119">
        <ele>2425.062744</ele>
        <time>2010-10-07T09:08:52Z</time>
      </trkpt>
      <trkpt lat="45.32307" lon="6.71124">
        <ele>2426.504883</ele>
        <time>2010-10-07T09:08:58Z</time>
      </trkpt>
      <trkpt lat="45.32308" lon="6.7112">
        <ele>2427.466064</ele>
        <time>2010-10-07T09:09:06Z</time>
      </trkpt>
      <trkpt lat="45.32311" lon="6.71111">
        <ele>2426.985596</ele>
        <time>2010-10-07T09:09:12Z</time>
      </trkpt>
      <trkpt lat="45.32313" lon="6.71111">
        <ele>2426.02417</ele>
        <time>2010-10-07T09:09:24Z</time>
      </trkpt>
      <trkpt lat="45.32314" lon="6.71109">
        <ele>2426.02417</ele>
        <time>2010-10-07T09:09:30Z</time>
      </trkpt>
      <trkpt lat="45.32315" lon="6.71104">
        <ele>2425.062744</ele>
        <time>2010-10-07T09:09:38Z</time>
      </trkpt>
      <trkpt lat="45.32316" lon="6.71099">
        <ele>2424.101562</ele>
        <time>2010-10-07T09:09:44Z</time>
      </trkpt>
      <trkpt lat="45.32316" lon="6.71094">
        <ele>2423.140381</ele>
        <time>2010-10-07T09:09:48Z</time>
      </trkpt>
      <trkpt lat="45.32319" lon="6.7109">
        <ele>2421.698242</ele>
        <time>2010-10-07T09:09:53Z</time>
      </trkpt>
      <trkpt lat="45.32319" lon="6.7109">
        <ele>2421.217529</ele>
        <time>2010-10-07T09:09:58Z</time>
      </trkpt>
      <trkpt lat="45.3232" lon="6.71092">
        <ele>2420.737061</ele>
        <time>2010-10-07T09:10:20Z</time>
      </trkpt>
      <trkpt lat="45.3232" lon="6.71092">
        <ele>2420.737061</ele>
        <time>2010-10-07T09:10:30Z</time>
      </trkpt>
      <trkpt lat="45.3232" lon="6.71092">
        <ele>2421.217529</ele>
        <time>2010-10-07T09:10:37Z</time>
      </trkpt>
      <trkpt lat="45.32321" lon="6.71089">
        <ele>2422.178955</ele>
        <time>2010-10-07T09:10:45Z</time>
      </trkpt>
      <trkpt lat="45.32325" lon="6.71084">
        <ele>2422.659668</ele>
        <time>2010-10-07T09:10:51Z</time>
      </trkpt>
      <trkpt lat="45.32329" lon="6.71078">
        <ele>2423.140381</ele>
        <time>2010-10-07T09:10:56Z</time>
      </trkpt>
      <trkpt lat="45.32331" lon="6.71069">
        <ele>2423.62085</ele>
        <time>2010-10-07T09:11:03Z</time>
      </trkpt>
      <trkpt lat="45.32332" lon="6.71068">
        <ele>2424.101562</ele>
        <time>2010-10-07T09:11:04Z</time>
      </trkpt>
      <trkpt lat="45.32332" lon="6.71066">
        <ele>2423.140381</ele>
        <time>2010-10-07T09:11:12Z</time>
      </trkpt>
      <trkpt lat="45.32333" lon="6.71065">
        <ele>2425.543457</ele>
        <time>2010-10-07T09:11:47Z</time>
      </trkpt>
      <trkpt lat="45.32333" lon="6.71067">
        <ele>2425.062744</ele>
        <time>2010-10-07T09:11:57Z</time>
      </trkpt>
      <trkpt lat="45.32333" lon="6.7107">
        <ele>2426.02417</ele>
        <time>2010-10-07T09:12:05Z</time>
      </trkpt>
      <trkpt lat="45.32333" lon="6.71069">
        <ele>2426.504883</ele>
        <time>2010-10-07T09:12:26Z</time>
      </trkpt>
      <trkpt lat="45.32334" lon="6.71071">
        <ele>2426.985596</ele>
        <time>2010-10-07T09:12:33Z</time>
      </trkpt>
      <trkpt lat="45.32335" lon="6.71071">
        <ele>2427.466064</ele>
        <time>2010-10-07T09:12:39Z</time>
      </trkpt>
      <trkpt lat="45.32335" lon="6.7107">
        <ele>2427.946777</ele>
        <time>2010-10-07T09:12:49Z</time>
      </trkpt>
      <trkpt lat="45.32339" lon="6.71069">
        <ele>2428.427734</ele>
        <time>2010-10-07T09:12:54Z</time>
      </trkpt>
      <trkpt lat="45.32341" lon="6.71067">
        <ele>2428.908203</ele>
        <time>2010-10-07T09:12:59Z</time>
      </trkpt>
      <trkpt lat="45.32341" lon="6.71067">
        <ele>2428.908203</ele>
        <time>2010-10-07T09:13:05Z</time>
      </trkpt>
      <trkpt lat="45.32341" lon="6.71067">
        <ele>2426.985596</ele>
        <time>2010-10-07T09:13:19Z</time>
      </trkpt>
      <trkpt lat="45.32339" lon="6.71066">
        <ele>2426.02417</ele>
        <time>2010-10-07T09:13:38Z</time>
      </trkpt>
      <trkpt lat="45.3234" lon="6.71066">
        <ele>2425.543457</ele>
        <time>2010-10-07T09:13:46Z</time>
      </trkpt>
      <trkpt lat="45.3234" lon="6.71066">
        <ele>2426.02417</ele>
        <time>2010-10-07T09:13:56Z</time>
      </trkpt>
      <trkpt lat="45.3234" lon="6.71065">
        <ele>2425.062744</ele>
        <time>2010-10-07T09:14:18Z</time>
      </trkpt>
      <trkpt lat="45.3234" lon="6.71066">
        <ele>2425.543457</ele>
        <time>2010-10-07T09:14:54Z</time>
      </trkpt>
      <trkpt lat="45.3234" lon="6.71067">
        <ele>2424.101562</ele>
        <time>2010-10-07T09:15:14Z</time>
      </trkpt>
      <trkpt lat="45.3234" lon="6.71067">
        <ele>2423.62085</ele>
        <time>2010-10-07T09:15:21Z</time>
      </trkpt>
      <trkpt lat="45.32341" lon="6.71068">
        <ele>2424.582275</ele>
        <time>2010-10-07T09:15:36Z</time>
      </trkpt>
      <trkpt lat="45.32342" lon="6.71066">
        <ele>2425.543457</ele>
        <time>2010-10-07T09:15:43Z</time>
      </trkpt>
      <trkpt lat="45.32345" lon="6.71065">
        <ele>2426.985596</ele>
        <time>2010-10-07T09:15:53Z</time>
      </trkpt>
      <trkpt lat="45.32348" lon="6.71063">
        <ele>2427.946777</ele>
        <time>2010-10-07T09:16:00Z</time>
      </trkpt>
      <trkpt lat="45.32351" lon="6.71062">
        <ele>2428.427734</ele>
        <time>2010-10-07T09:16:10Z</time>
      </trkpt>
      <trkpt lat="45.32355" lon="6.71058">
        <ele>2428.908203</ele>
        <time>2010-10-07T09:16:15Z</time>
      </trkpt>
      <trkpt lat="45.32358" lon="6.71056">
        <ele>2429.869629</ele>
        <time>2010-10-07T09:16:19Z</time>
      </trkpt>
      <trkpt lat="45.32363" lon="6.71051">
        <ele>2430.350342</ele>
        <time>2010-10-07T09:16:26Z</time>
      </trkpt>
      <trkpt lat="45.32367" lon="6.71048">
        <ele>2430.831055</ele>
        <time>2010-10-07T09:16:31Z</time>
      </trkpt>
      <trkpt lat="45.3237" lon="6.71048">
        <ele>2431.311523</ele>
        <time>2010-10-07T09:16:38Z</time>
      </trkpt>
      <trkpt lat="45.32372" lon="6.71048">
        <ele>2431.311523</ele>
        <time>2010-10-07T09:16:42Z</time>
      </trkpt>
      <trkpt lat="45.32377" lon="6.71049">
        <ele>2431.792236</ele>
        <time>2010-10-07T09:16:48Z</time>
      </trkpt>
      <trkpt lat="45.32385" lon="6.7105">
        <ele>2431.311523</ele>
        <time>2010-10-07T09:16:55Z</time>
      </trkpt>
      <trkpt lat="45.32388" lon="6.71051">
        <ele>2431.792236</ele>
        <time>2010-10-07T09:16:59Z</time>
      </trkpt>
      <trkpt lat="45.32394" lon="6.71051">
        <ele>2432.753418</ele>
        <time>2010-10-07T09:17:05Z</time>
      </trkpt>
      <trkpt lat="45.32398" lon="6.71049">
        <ele>2433.714844</ele>
        <time>2010-10-07T09:17:10Z</time>
      </trkpt>
      <trkpt lat="45.32401" lon="6.71045">
        <ele>2434.67627</ele>
        <time>2010-10-07T09:17:16Z</time>
      </trkpt>
      <trkpt lat="45.32405" lon="6.71043">
        <ele>2435.156738</ele>
        <time>2010-10-07T09:17:20Z</time>
      </trkpt>
      <trkpt lat="45.32409" lon="6.71042">
        <ele>2434.67627</ele>
        <time>2010-10-07T09:17:24Z</time>
      </trkpt>
      <trkpt lat="45.32414" lon="6.71042">
        <ele>2435.637451</ele>
        <time>2010-10-07T09:17:32Z</time>
      </trkpt>
      <trkpt lat="45.32418" lon="6.71042">
        <ele>2436.118164</ele>
        <time>2010-10-07T09:17:37Z</time>
      </trkpt>
      <trkpt lat="45.32421" lon="6.7104">
        <ele>2437.079346</ele>
        <time>2010-10-07T09:17:43Z</time>
      </trkpt>
      <trkpt lat="45.32425" lon="6.71039">
        <ele>2439.001953</ele>
        <time>2010-10-07T09:17:49Z</time>
      </trkpt>
      <trkpt lat="45.3243" lon="6.71038">
        <ele>2440.443848</ele>
        <time>2010-10-07T09:17:56Z</time>
      </trkpt>
      <trkpt lat="45.32433" lon="6.71037">
        <ele>2440.443848</ele>
        <time>2010-10-07T09:18:00Z</time>
      </trkpt>
      <trkpt lat="45.32437" lon="6.71034">
        <ele>2441.405273</ele>
        <time>2010-10-07T09:18:06Z</time>
      </trkpt>
      <trkpt lat="45.32439" lon="6.71033">
        <ele>2441.885986</ele>
        <time>2010-10-07T09:18:11Z</time>
      </trkpt>
      <trkpt lat="45.32439" lon="6.71033">
        <ele>2442.847168</ele>
        <time>2010-10-07T09:18:21Z</time>
      </trkpt>
      <trkpt lat="45.32441" lon="6.71032">
        <ele>2443.327881</ele>
        <time>2010-10-07T09:18:26Z</time>
      </trkpt>
      <trkpt lat="45.32444" lon="6.71029">
        <ele>2443.808594</ele>
        <time>2010-10-07T09:18:31Z</time>
      </trkpt>
      <trkpt lat="45.32446" lon="6.71027">
        <ele>2444.77002</ele>
        <time>2010-10-07T09:18:36Z</time>
      </trkpt>
      <trkpt lat="45.32448" lon="6.71023">
        <ele>2445.250732</ele>
        <time>2010-10-07T09:18:42Z</time>
      </trkpt>
      <trkpt lat="45.32451" lon="6.71019">
        <ele>2446.692627</ele>
        <time>2010-10-07T09:18:48Z</time>
      </trkpt>
      <trkpt lat="45.32453" lon="6.71015">
        <ele>2447.654053</ele>
        <time>2010-10-07T09:18:52Z</time>
      </trkpt>
      <trkpt lat="45.32456" lon="6.71011">
        <ele>2449.095947</ele>
        <time>2010-10-07T09:18:57Z</time>
      </trkpt>
      <trkpt lat="45.32458" lon="6.71009">
        <ele>2451.018555</ele>
        <time>2010-10-07T09:19:03Z</time>
      </trkpt>
      <trkpt lat="45.3246" lon="6.71009">
        <ele>2451.499268</ele>
        <time>2010-10-07T09:19:07Z</time>
      </trkpt>
      <trkpt lat="45.32462" lon="6.71008">
        <ele>2452.941162</ele>
        <time>2010-10-07T09:19:12Z</time>
      </trkpt>
      <trkpt lat="45.32464" lon="6.71008">
        <ele>2453.902588</ele>
        <time>2010-10-07T09:19:17Z</time>
      </trkpt>
      <trkpt lat="45.32467" lon="6.71004">
        <ele>2454.86377</ele>
        <time>2010-10-07T09:19:22Z</time>
      </trkpt>
      <trkpt lat="45.32468" lon="6.71002">
        <ele>2455.824951</ele>
        <time>2010-10-07T09:19:27Z</time>
      </trkpt>
      <trkpt lat="45.3247" lon="6.70999">
        <ele>2457.26709</ele>
        <time>2010-10-07T09:19:32Z</time>
      </trkpt>
      <trkpt lat="45.32472" lon="6.70997">
        <ele>2458.228271</ele>
        <time>2010-10-07T09:19:37Z</time>
      </trkpt>
      <trkpt lat="45.32475" lon="6.70996">
        <ele>2459.189697</ele>
        <time>2010-10-07T09:19:43Z</time>
      </trkpt>
      <trkpt lat="45.32477" lon="6.70994">
        <ele>2460.151123</ele>
        <time>2010-10-07T09:19:47Z</time>
      </trkpt>
      <trkpt lat="45.32481" lon="6.7099">
        <ele>2460.631836</ele>
        <time>2010-10-07T09:19:52Z</time>
      </trkpt>
      <trkpt lat="45.32486" lon="6.70987">
        <ele>2461.112549</ele>
        <time>2010-10-07T09:19:57Z</time>
      </trkpt>
      <trkpt lat="45.3249" lon="6.70984">
        <ele>2461.112549</ele>
        <time>2010-10-07T09:20:02Z</time>
      </trkpt>
      <trkpt lat="45.32495" lon="6.70983">
        <ele>2461.112549</ele>
        <time>2010-10-07T09:20:07Z</time>
      </trkpt>
      <trkpt lat="45.32498" lon="6.70981">
        <ele>2461.593262</ele>
        <time>2010-10-07T09:20:12Z</time>
      </trkpt>
      <trkpt lat="45.32502" lon="6.70977">
        <ele>2463.035156</ele>
        <time>2010-10-07T09:20:18Z</time>
      </trkpt>
      <trkpt lat="45.32505" lon="6.70975">
        <ele>2463.515625</ele>
        <time>2010-10-07T09:20:24Z</time>
      </trkpt>
      <trkpt lat="45.32508" lon="6.70973">
        <ele>2464.477051</ele>
        <time>2010-10-07T09:20:30Z</time>
      </trkpt>
      <trkpt lat="45.3251" lon="6.7097">
        <ele>2464.957764</ele>
        <time>2010-10-07T09:20:34Z</time>
      </trkpt>
      <trkpt lat="45.32513" lon="6.70967">
        <ele>2466.399658</ele>
        <time>2010-10-07T09:20:40Z</time>
      </trkpt>
      <trkpt lat="45.32514" lon="6.70965">
        <ele>2465.918945</ele>
        <time>2010-10-07T09:20:43Z</time>
      </trkpt>
      <trkpt lat="45.32516" lon="6.70962">
        <ele>2466.880371</ele>
        <time>2010-10-07T09:20:47Z</time>
      </trkpt>
      <trkpt lat="45.32519" lon="6.70959">
        <ele>2467.841553</ele>
        <time>2010-10-07T09:20:53Z</time>
      </trkpt>
      <trkpt lat="45.32522" lon="6.70959">
        <ele>2468.802979</ele>
        <time>2010-10-07T09:20:57Z</time>
      </trkpt>
      <trkpt lat="45.32524" lon="6.70956">
        <ele>2470.244873</ele>
        <time>2010-10-07T09:21:03Z</time>
      </trkpt>
      <trkpt lat="45.32527" lon="6.70953">
        <ele>2472.16748</ele>
        <time>2010-10-07T09:21:08Z</time>
      </trkpt>
      <trkpt lat="45.3253" lon="6.7095">
        <ele>2473.128906</ele>
        <time>2010-10-07T09:21:14Z</time>
      </trkpt>
      <trkpt lat="45.32532" lon="6.7095">
        <ele>2474.090088</ele>
        <time>2010-10-07T09:21:19Z</time>
      </trkpt>
      <trkpt lat="45.32535" lon="6.7095">
        <ele>2474.570801</ele>
        <time>2010-10-07T09:21:23Z</time>
      </trkpt>
      <trkpt lat="45.32538" lon="6.70948">
        <ele>2475.05127</ele>
        <time>2010-10-07T09:21:28Z</time>
      </trkpt>
      <trkpt lat="45.3254" lon="6.70945">
        <ele>2476.493652</ele>
        <time>2010-10-07T09:21:33Z</time>
      </trkpt>
      <trkpt lat="45.32544" lon="6.70941">
        <ele>2477.935547</ele>
        <time>2010-10-07T09:21:40Z</time>
      </trkpt>
      <trkpt lat="45.32546" lon="6.70939">
        <ele>2477.935547</ele>
        <time>2010-10-07T09:21:46Z</time>
      </trkpt>
      <trkpt lat="45.32549" lon="6.70937">
        <ele>2478.896729</ele>
        <time>2010-10-07T09:21:54Z</time>
      </trkpt>
      <trkpt lat="45.32553" lon="6.70937">
        <ele>2479.858154</ele>
        <time>2010-10-07T09:22:02Z</time>
      </trkpt>
      <trkpt lat="45.32557" lon="6.70935">
        <ele>2480.338867</ele>
        <time>2010-10-07T09:22:08Z</time>
      </trkpt>
      <trkpt lat="45.32561" lon="6.70933">
        <ele>2481.780762</ele>
        <time>2010-10-07T09:22:13Z</time>
      </trkpt>
      <trkpt lat="45.32565" lon="6.70932">
        <ele>2481.780762</ele>
        <time>2010-10-07T09:22:18Z</time>
      </trkpt>
      <trkpt lat="45.32571" lon="6.7093">
        <ele>2482.261475</ele>
        <time>2010-10-07T09:22:25Z</time>
      </trkpt>
      <trkpt lat="45.32576" lon="6.7093">
        <ele>2482.741943</ele>
        <time>2010-10-07T09:22:31Z</time>
      </trkpt>
      <trkpt lat="45.3258" lon="6.70932">
        <ele>2482.741943</ele>
        <time>2010-10-07T09:22:36Z</time>
      </trkpt>
      <trkpt lat="45.32584" lon="6.70934">
        <ele>2483.703369</ele>
        <time>2010-10-07T09:22:42Z</time>
      </trkpt>
      <trkpt lat="45.3259" lon="6.70938">
        <ele>2484.184082</ele>
        <time>2010-10-07T09:22:49Z</time>
      </trkpt>
      <trkpt lat="45.32593" lon="6.7094">
        <ele>2483.703369</ele>
        <time>2010-10-07T09:22:54Z</time>
      </trkpt>
      <trkpt lat="45.32598" lon="6.70946">
        <ele>2482.741943</ele>
        <time>2010-10-07T09:23:01Z</time>
      </trkpt>
      <trkpt lat="45.32603" lon="6.70952">
        <ele>2481.780762</ele>
        <time>2010-10-07T09:23:08Z</time>
      </trkpt>
      <trkpt lat="45.32607" lon="6.70954">
        <ele>2481.780762</ele>
        <time>2010-10-07T09:23:14Z</time>
      </trkpt>
      <trkpt lat="45.32613" lon="6.70952">
        <ele>2482.261475</ele>
        <time>2010-10-07T09:23:21Z</time>
      </trkpt>
      <trkpt lat="45.32618" lon="6.70945">
        <ele>2483.703369</ele>
        <time>2010-10-07T09:23:29Z</time>
      </trkpt>
      <trkpt lat="45.32621" lon="6.70939">
        <ele>2484.664795</ele>
        <time>2010-10-07T09:23:36Z</time>
      </trkpt>
      <trkpt lat="45.32622" lon="6.70938">
        <ele>2484.664795</ele>
        <time>2010-10-07T09:23:45Z</time>
      </trkpt>
      <trkpt lat="45.32623" lon="6.70938">
        <ele>2484.664795</ele>
        <time>2010-10-07T09:23:50Z</time>
      </trkpt>
      <trkpt lat="45.32627" lon="6.70936">
        <ele>2485.625977</ele>
        <time>2010-10-07T09:23:56Z</time>
      </trkpt>
      <trkpt lat="45.32634" lon="6.70934">
        <ele>2486.587158</ele>
        <time>2010-10-07T09:24:03Z</time>
      </trkpt>
      <trkpt lat="45.32636" lon="6.70934">
        <ele>2486.587158</ele>
        <time>2010-10-07T09:24:05Z</time>
      </trkpt>
      <trkpt lat="45.32645" lon="6.70933">
        <ele>2488.51001</ele>
        <time>2010-10-07T09:24:15Z</time>
      </trkpt>
      <trkpt lat="45.32652" lon="6.70932">
        <ele>2489.471191</ele>
        <time>2010-10-07T09:24:22Z</time>
      </trkpt>
      <trkpt lat="45.32655" lon="6.70932">
        <ele>2489.951904</ele>
        <time>2010-10-07T09:24:28Z</time>
      </trkpt>
      <trkpt lat="45.32657" lon="6.70932">
        <ele>2489.951904</ele>
        <time>2010-10-07T09:24:34Z</time>
      </trkpt>
      <trkpt lat="45.32662" lon="6.70933">
        <ele>2490.432373</ele>
        <time>2010-10-07T09:24:39Z</time>
      </trkpt>
      <trkpt lat="45.32667" lon="6.70937">
        <ele>2489.951904</ele>
        <time>2010-10-07T09:24:44Z</time>
      </trkpt>
      <trkpt lat="45.32674" lon="6.70941">
        <ele>2489.471191</ele>
        <time>2010-10-07T09:24:52Z</time>
      </trkpt>
      <trkpt lat="45.32675" lon="6.70942">
        <ele>2489.471191</ele>
        <time>2010-10-07T09:24:59Z</time>
      </trkpt>
      <trkpt lat="45.32674" lon="6.70941">
        <ele>2490.913086</ele>
        <time>2010-10-07T09:25:23Z</time>
      </trkpt>
      <trkpt lat="45.32679" lon="6.70945">
        <ele>2490.432373</ele>
        <time>2010-10-07T09:25:41Z</time>
      </trkpt>
      <trkpt lat="45.32685" lon="6.70947">
        <ele>2490.913086</ele>
        <time>2010-10-07T09:25:47Z</time>
      </trkpt>
      <trkpt lat="45.32693" lon="6.70948">
        <ele>2490.913086</ele>
        <time>2010-10-07T09:25:55Z</time>
      </trkpt>
      <trkpt lat="45.327" lon="6.70948">
        <ele>2490.913086</ele>
        <time>2010-10-07T09:26:02Z</time>
      </trkpt>
      <trkpt lat="45.32707" lon="6.70946">
        <ele>2491.874512</ele>
        <time>2010-10-07T09:26:08Z</time>
      </trkpt>
      <trkpt lat="45.32712" lon="6.7094">
        <ele>2492.355469</ele>
        <time>2010-10-07T09:26:15Z</time>
      </trkpt>
      <trkpt lat="45.3272" lon="6.70938">
        <ele>2492.835938</ele>
        <time>2010-10-07T09:26:23Z</time>
      </trkpt>
      <trkpt lat="45.32725" lon="6.70939">
        <ele>2493.31665</ele>
        <time>2010-10-07T09:26:28Z</time>
      </trkpt>
      <trkpt lat="45.32729" lon="6.7094">
        <ele>2493.31665</ele>
        <time>2010-10-07T09:26:32Z</time>
      </trkpt>
      <trkpt lat="45.32738" lon="6.70943">
        <ele>2493.31665</ele>
        <time>2010-10-07T09:26:40Z</time>
      </trkpt>
      <trkpt lat="45.32743" lon="6.70943">
        <ele>2493.797363</ele>
        <time>2010-10-07T09:26:45Z</time>
      </trkpt>
      <trkpt lat="45.32748" lon="6.70943">
        <ele>2494.277832</ele>
        <time>2010-10-07T09:26:50Z</time>
      </trkpt>
      <trkpt lat="45.32757" lon="6.70941">
        <ele>2494.277832</ele>
        <time>2010-10-07T09:26:58Z</time>
      </trkpt>
      <trkpt lat="45.32766" lon="6.7094">
        <ele>2494.758545</ele>
        <time>2010-10-07T09:27:07Z</time>
      </trkpt>
      <trkpt lat="45.32771" lon="6.70939">
        <ele>2494.758545</ele>
        <time>2010-10-07T09:27:13Z</time>
      </trkpt>
      <trkpt lat="45.32778" lon="6.70939">
        <ele>2495.239258</ele>
        <time>2010-10-07T09:27:19Z</time>
      </trkpt>
      <trkpt lat="45.32785" lon="6.7094">
        <ele>2495.239258</ele>
        <time>2010-10-07T09:27:26Z</time>
      </trkpt>
      <trkpt lat="45.32792" lon="6.70939">
        <ele>2496.200684</ele>
        <time>2010-10-07T09:27:32Z</time>
      </trkpt>
      <trkpt lat="45.32798" lon="6.70941">
        <ele>2497.161865</ele>
        <time>2010-10-07T09:27:39Z</time>
      </trkpt>
      <trkpt lat="45.32804" lon="6.70944">
        <ele>2497.642578</ele>
        <time>2010-10-07T09:27:45Z</time>
      </trkpt>
      <trkpt lat="45.32808" lon="6.70946">
        <ele>2498.60376</ele>
        <time>2010-10-07T09:27:51Z</time>
      </trkpt>
      <trkpt lat="45.32812" lon="6.70948">
        <ele>2499.565186</ele>
        <time>2010-10-07T09:27:57Z</time>
      </trkpt>
      <trkpt lat="45.32814" lon="6.7095">
        <ele>2500.526367</ele>
        <time>2010-10-07T09:28:01Z</time>
      </trkpt>
      <trkpt lat="45.32817" lon="6.70951">
        <ele>2501.00708</ele>
        <time>2010-10-07T09:28:06Z</time>
      </trkpt>
      <trkpt lat="45.3282" lon="6.70953">
        <ele>2501.00708</ele>
        <time>2010-10-07T09:28:20Z</time>
      </trkpt>
      <trkpt lat="45.32825" lon="6.70955">
        <ele>2502.448975</ele>
        <time>2010-10-07T09:28:26Z</time>
      </trkpt>
      <trkpt lat="45.3283" lon="6.70957">
        <ele>2502.929688</ele>
        <time>2010-10-07T09:28:31Z</time>
      </trkpt>
      <trkpt lat="45.32834" lon="6.70959">
        <ele>2504.371582</ele>
        <time>2010-10-07T09:28:36Z</time>
      </trkpt>
      <trkpt lat="45.32838" lon="6.7096">
        <ele>2504.371582</ele>
        <time>2010-10-07T09:28:41Z</time>
      </trkpt>
      <trkpt lat="45.32842" lon="6.70964">
        <ele>2504.852295</ele>
        <time>2010-10-07T09:28:47Z</time>
      </trkpt>
      <trkpt lat="45.32845" lon="6.70966">
        <ele>2505.333008</ele>
        <time>2010-10-07T09:28:51Z</time>
      </trkpt>
      <trkpt lat="45.32849" lon="6.70967">
        <ele>2505.813477</ele>
        <time>2010-10-07T09:28:56Z</time>
      </trkpt>
      <trkpt lat="45.32851" lon="6.70969">
        <ele>2506.294189</ele>
        <time>2010-10-07T09:29:12Z</time>
      </trkpt>
      <trkpt lat="45.32856" lon="6.70972">
        <ele>2506.294189</ele>
        <time>2010-10-07T09:29:18Z</time>
      </trkpt>
      <trkpt lat="45.32862" lon="6.70975">
        <ele>2505.813477</ele>
        <time>2010-10-07T09:29:25Z</time>
      </trkpt>
      <trkpt lat="45.32866" lon="6.70979">
        <ele>2506.294189</ele>
        <time>2010-10-07T09:29:30Z</time>
      </trkpt>
      <trkpt lat="45.32867" lon="6.70981">
        <ele>2506.774902</ele>
        <time>2010-10-07T09:29:36Z</time>
      </trkpt>
      <trkpt lat="45.32871" lon="6.70983">
        <ele>2508.217041</ele>
        <time>2010-10-07T09:29:41Z</time>
      </trkpt>
      <trkpt lat="45.32871" lon="6.70987">
        <ele>2509.658936</ele>
        <time>2010-10-07T09:29:46Z</time>
      </trkpt>
      <trkpt lat="45.32869" lon="6.7099">
        <ele>2511.101074</ele>
        <time>2010-10-07T09:29:52Z</time>
      </trkpt>
      <trkpt lat="45.32867" lon="6.70992">
        <ele>2511.581787</ele>
        <time>2010-10-07T09:30:06Z</time>
      </trkpt>
      <trkpt lat="45.32867" lon="6.70996">
        <ele>2513.023682</ele>
        <time>2010-10-07T09:30:12Z</time>
      </trkpt>
      <trkpt lat="45.32866" lon="6.70998">
        <ele>2513.50415</ele>
        <time>2010-10-07T09:30:16Z</time>
      </trkpt>
      <trkpt lat="45.32866" lon="6.71001">
        <ele>2513.984863</ele>
        <time>2010-10-07T09:30:20Z</time>
      </trkpt>
      <trkpt lat="45.32864" lon="6.71003">
        <ele>2514.465576</ele>
        <time>2010-10-07T09:30:24Z</time>
      </trkpt>
      <trkpt lat="45.32861" lon="6.71003">
        <ele>2515.907471</ele>
        <time>2010-10-07T09:30:31Z</time>
      </trkpt>
      <trkpt lat="45.32857" lon="6.71004">
        <ele>2515.427002</ele>
        <time>2010-10-07T09:30:36Z</time>
      </trkpt>
      <trkpt lat="45.32852" lon="6.71004">
        <ele>2515.427002</ele>
        <time>2010-10-07T09:30:42Z</time>
      </trkpt>
      <trkpt lat="45.32847" lon="6.71005">
        <ele>2516.388184</ele>
        <time>2010-10-07T09:30:49Z</time>
      </trkpt>
      <trkpt lat="45.32842" lon="6.71007">
        <ele>2515.427002</ele>
        <time>2010-10-07T09:30:54Z</time>
      </trkpt>
      <trkpt lat="45.32836" lon="6.71007">
        <ele>2514.946289</ele>
        <time>2010-10-07T09:31:01Z</time>
      </trkpt>
      <trkpt lat="45.32831" lon="6.71009">
        <ele>2515.427002</ele>
        <time>2010-10-07T09:31:06Z</time>
      </trkpt>
      <trkpt lat="45.3283" lon="6.71009">
        <ele>2514.946289</ele>
        <time>2010-10-07T09:31:07Z</time>
      </trkpt>
      <trkpt lat="45.32825" lon="6.71008">
        <ele>2513.50415</ele>
        <time>2010-10-07T09:31:12Z</time>
      </trkpt>
      <trkpt lat="45.32818" lon="6.7101">
        <ele>2513.50415</ele>
        <time>2010-10-07T09:31:20Z</time>
      </trkpt>
      <trkpt lat="45.32812" lon="6.71011">
        <ele>2515.427002</ele>
        <time>2010-10-07T09:31:26Z</time>
      </trkpt>
      <trkpt lat="45.32807" lon="6.71014">
        <ele>2516.388184</ele>
        <time>2010-10-07T09:31:31Z</time>
      </trkpt>
      <trkpt lat="45.328" lon="6.71015">
        <ele>2517.830078</ele>
        <time>2010-10-07T09:31:38Z</time>
      </trkpt>
      <trkpt lat="45.32794" lon="6.71017">
        <ele>2518.310791</ele>
        <time>2010-10-07T09:31:45Z</time>
      </trkpt>
      <trkpt lat="45.32788" lon="6.71022">
        <ele>2519.272217</ele>
        <time>2010-10-07T09:31:52Z</time>
      </trkpt>
      <trkpt lat="45.32785" lon="6.71024">
        <ele>2519.752686</ele>
        <time>2010-10-07T09:31:55Z</time>
      </trkpt>
      <trkpt lat="45.32778" lon="6.71026">
        <ele>2519.752686</ele>
        <time>2010-10-07T09:32:00Z</time>
      </trkpt>
      <trkpt lat="45.32773" lon="6.71026">
        <ele>2519.752686</ele>
        <time>2010-10-07T09:32:06Z</time>
      </trkpt>
      <trkpt lat="45.32766" lon="6.71028">
        <ele>2520.233398</ele>
        <time>2010-10-07T09:32:13Z</time>
      </trkpt>
      <trkpt lat="45.32759" lon="6.7103">
        <ele>2519.272217</ele>
        <time>2010-10-07T09:32:20Z</time>
      </trkpt>
      <trkpt lat="45.32752" lon="6.71033">
        <ele>2520.714111</ele>
        <time>2010-10-07T09:32:26Z</time>
      </trkpt>
      <trkpt lat="45.32746" lon="6.71033">
        <ele>2521.19458</ele>
        <time>2010-10-07T09:32:32Z</time>
      </trkpt>
      <trkpt lat="45.32744" lon="6.71034">
        <ele>2520.714111</ele>
        <time>2010-10-07T09:32:34Z</time>
      </trkpt>
      <trkpt lat="45.32739" lon="6.71036">
        <ele>2521.19458</ele>
        <time>2010-10-07T09:32:39Z</time>
      </trkpt>
      <trkpt lat="45.3273" lon="6.7104">
        <ele>2521.19458</ele>
        <time>2010-10-07T09:32:48Z</time>
      </trkpt>
      <trkpt lat="45.32725" lon="6.71042">
        <ele>2521.19458</ele>
        <time>2010-10-07T09:32:54Z</time>
      </trkpt>
      <trkpt lat="45.32725" lon="6.71042">
        <ele>2522.156006</ele>
        <time>2010-10-07T09:33:00Z</time>
      </trkpt>
      <trkpt lat="45.32719" lon="6.71048">
        <ele>2522.636719</ele>
        <time>2010-10-07T09:33:06Z</time>
      </trkpt>
      <trkpt lat="45.3271" lon="6.71055">
        <ele>2523.117432</ele>
        <time>2010-10-07T09:33:15Z</time>
      </trkpt>
      <trkpt lat="45.32703" lon="6.71059">
        <ele>2523.5979</ele>
        <time>2010-10-07T09:33:22Z</time>
      </trkpt>
      <trkpt lat="45.32694" lon="6.71064">
        <ele>2524.078857</ele>
        <time>2010-10-07T09:33:30Z</time>
      </trkpt>
      <trkpt lat="45.32689" lon="6.71067">
        <ele>2524.078857</ele>
        <time>2010-10-07T09:33:35Z</time>
      </trkpt>
      <trkpt lat="45.32683" lon="6.71072">
        <ele>2523.5979</ele>
        <time>2010-10-07T09:33:41Z</time>
      </trkpt>
      <trkpt lat="45.32677" lon="6.71079">
        <ele>2522.156006</ele>
        <time>2010-10-07T09:33:48Z</time>
      </trkpt>
      <trkpt lat="45.32671" lon="6.71086">
        <ele>2521.675293</ele>
        <time>2010-10-07T09:33:54Z</time>
      </trkpt>
      <trkpt lat="45.32666" lon="6.71089">
        <ele>2521.675293</ele>
        <time>2010-10-07T09:34:02Z</time>
      </trkpt>
      <trkpt lat="45.32659" lon="6.71095">
        <ele>2524.55957</ele>
        <time>2010-10-07T09:34:11Z</time>
      </trkpt>
      <trkpt lat="45.32656" lon="6.71099">
        <ele>2526.962891</ele>
        <time>2010-10-07T09:34:16Z</time>
      </trkpt>
      <trkpt lat="45.32652" lon="6.71106">
        <ele>2528.404785</ele>
        <time>2010-10-07T09:34:22Z</time>
      </trkpt>
      <trkpt lat="45.32649" lon="6.71111">
        <ele>2529.365967</ele>
        <time>2010-10-07T09:34:28Z</time>
      </trkpt>
      <trkpt lat="45.32647" lon="6.71114">
        <ele>2531.288574</ele>
        <time>2010-10-07T09:34:32Z</time>
      </trkpt>
      <trkpt lat="45.32642" lon="6.71118">
        <ele>2533.211182</ele>
        <time>2010-10-07T09:34:39Z</time>
      </trkpt>
      <trkpt lat="45.3264" lon="6.71121">
        <ele>2533.691895</ele>
        <time>2010-10-07T09:34:44Z</time>
      </trkpt>
      <trkpt lat="45.32637" lon="6.71124">
        <ele>2534.65332</ele>
        <time>2010-10-07T09:34:49Z</time>
      </trkpt>
      <trkpt lat="45.32634" lon="6.71128">
        <ele>2534.65332</ele>
        <time>2010-10-07T09:34:54Z</time>
      </trkpt>
      <trkpt lat="45.3263" lon="6.7113">
        <ele>2535.133789</ele>
        <time>2010-10-07T09:34:59Z</time>
      </trkpt>
      <trkpt lat="45.32626" lon="6.71136">
        <ele>2536.095215</ele>
        <time>2010-10-07T09:35:06Z</time>
      </trkpt>
      <trkpt lat="45.32624" lon="6.7114">
        <ele>2536.575684</ele>
        <time>2010-10-07T09:35:11Z</time>
      </trkpt>
      <trkpt lat="45.32619" lon="6.71144">
        <ele>2538.498535</ele>
        <time>2010-10-07T09:35:19Z</time>
      </trkpt>
      <trkpt lat="45.32616" lon="6.71147">
        <ele>2539.459717</ele>
        <time>2010-10-07T09:35:25Z</time>
      </trkpt>
      <trkpt lat="45.32612" lon="6.71151">
        <ele>2540.421143</ele>
        <time>2010-10-07T09:35:31Z</time>
      </trkpt>
      <trkpt lat="45.3261" lon="6.71154">
        <ele>2540.901855</ele>
        <time>2010-10-07T09:35:36Z</time>
      </trkpt>
      <trkpt lat="45.32608" lon="6.71157">
        <ele>2542.343994</ele>
        <time>2010-10-07T09:35:42Z</time>
      </trkpt>
      <trkpt lat="45.32605" lon="6.71161">
        <ele>2542.824463</ele>
        <time>2010-10-07T09:35:48Z</time>
      </trkpt>
      <trkpt lat="45.32602" lon="6.71165">
        <ele>2544.266357</ele>
        <time>2010-10-07T09:35:53Z</time>
      </trkpt>
      <trkpt lat="45.32598" lon="6.71169">
        <ele>2545.227783</ele>
        <time>2010-10-07T09:35:59Z</time>
      </trkpt>
      <trkpt lat="45.32596" lon="6.71176">
        <ele>2546.669678</ele>
        <time>2010-10-07T09:36:07Z</time>
      </trkpt>
      <trkpt lat="45.32593" lon="6.71182">
        <ele>2547.150391</ele>
        <time>2010-10-07T09:36:13Z</time>
      </trkpt>
      <trkpt lat="45.32589" lon="6.71189">
        <ele>2547.631104</ele>
        <time>2010-10-07T09:36:20Z</time>
      </trkpt>
      <trkpt lat="45.32584" lon="6.71194">
        <ele>2549.072998</ele>
        <time>2010-10-07T09:36:27Z</time>
      </trkpt>
      <trkpt lat="45.3258" lon="6.71199">
        <ele>2550.034424</ele>
        <time>2010-10-07T09:36:33Z</time>
      </trkpt>
      <trkpt lat="45.32578" lon="6.71202">
        <ele>2550.514893</ele>
        <time>2010-10-07T09:36:37Z</time>
      </trkpt>
      <trkpt lat="45.32573" lon="6.71208">
        <ele>2551.476318</ele>
        <time>2010-10-07T09:36:44Z</time>
      </trkpt>
      <trkpt lat="45.3257" lon="6.71212">
        <ele>2551.956787</ele>
        <time>2010-10-07T09:36:48Z</time>
      </trkpt>
      <trkpt lat="45.32566" lon="6.71217">
        <ele>2552.4375</ele>
        <time>2010-10-07T09:36:54Z</time>
      </trkpt>
      <trkpt lat="45.32566" lon="6.71219">
        <ele>2552.918213</ele>
        <time>2010-10-07T09:37:01Z</time>
      </trkpt>
      <trkpt lat="45.32565" lon="6.71225">
        <ele>2553.398926</ele>
        <time>2010-10-07T09:37:10Z</time>
      </trkpt>
      <trkpt lat="45.32564" lon="6.71236">
        <ele>2554.360107</ele>
        <time>2010-10-07T09:37:20Z</time>
      </trkpt>
      <trkpt lat="45.32563" lon="6.71242">
        <ele>2554.84082</ele>
        <time>2010-10-07T09:37:29Z</time>
      </trkpt>
      <trkpt lat="45.32561" lon="6.71251">
        <ele>2554.84082</ele>
        <time>2010-10-07T09:37:36Z</time>
      </trkpt>
      <trkpt lat="45.32558" lon="6.71258">
        <ele>2555.321533</ele>
        <time>2010-10-07T09:37:45Z</time>
      </trkpt>
      <trkpt lat="45.32556" lon="6.71263">
        <ele>2555.321533</ele>
        <time>2010-10-07T09:37:51Z</time>
      </trkpt>
      <trkpt lat="45.32553" lon="6.71273">
        <ele>2555.321533</ele>
        <time>2010-10-07T09:37:59Z</time>
      </trkpt>
      <trkpt lat="45.32549" lon="6.71282">
        <ele>2556.763672</ele>
        <time>2010-10-07T09:38:07Z</time>
      </trkpt>
      <trkpt lat="45.32547" lon="6.7129">
        <ele>2556.763672</ele>
        <time>2010-10-07T09:38:14Z</time>
      </trkpt>
      <trkpt lat="45.32547" lon="6.71298">
        <ele>2556.763672</ele>
        <time>2010-10-07T09:38:20Z</time>
      </trkpt>
      <trkpt lat="45.32546" lon="6.71308">
        <ele>2557.244385</ele>
        <time>2010-10-07T09:38:27Z</time>
      </trkpt>
      <trkpt lat="45.32545" lon="6.71318">
        <ele>2556.282959</ele>
        <time>2010-10-07T09:38:34Z</time>
      </trkpt>
      <trkpt lat="45.32544" lon="6.71329">
        <ele>2555.802002</ele>
        <time>2010-10-07T09:38:41Z</time>
      </trkpt>
      <trkpt lat="45.32541" lon="6.71337">
        <ele>2556.282959</ele>
        <time>2010-10-07T09:38:48Z</time>
      </trkpt>
      <trkpt lat="45.32539" lon="6.71345">
        <ele>2557.244385</ele>
        <time>2010-10-07T09:38:55Z</time>
      </trkpt>
      <trkpt lat="45.32538" lon="6.7135">
        <ele>2558.205566</ele>
        <time>2010-10-07T09:39:00Z</time>
      </trkpt>
      <trkpt lat="45.32538" lon="6.71354">
        <ele>2559.166992</ele>
        <time>2010-10-07T09:39:04Z</time>
      </trkpt>
      <trkpt lat="45.32536" lon="6.71361">
        <ele>2560.128174</ele>
        <time>2010-10-07T09:39:10Z</time>
      </trkpt>
      <trkpt lat="45.32535" lon="6.71367">
        <ele>2561.570312</ele>
        <time>2010-10-07T09:39:16Z</time>
      </trkpt>
      <trkpt lat="45.32534" lon="6.71378">
        <ele>2562.050781</ele>
        <time>2010-10-07T09:39:24Z</time>
      </trkpt>
      <trkpt lat="45.32534" lon="6.71389">
        <ele>2562.531494</ele>
        <time>2010-10-07T09:39:32Z</time>
      </trkpt>
      <trkpt lat="45.32536" lon="6.71397">
        <ele>2562.050781</ele>
        <time>2010-10-07T09:39:39Z</time>
      </trkpt>
      <trkpt lat="45.32537" lon="6.71405">
        <ele>2561.570312</ele>
        <time>2010-10-07T09:39:45Z</time>
      </trkpt>
      <trkpt lat="45.3254" lon="6.71412">
        <ele>2560.608887</ele>
        <time>2010-10-07T09:39:51Z</time>
      </trkpt>
      <trkpt lat="45.32542" lon="6.71416">
        <ele>2560.128174</ele>
        <time>2010-10-07T09:39:57Z</time>
      </trkpt>
      <trkpt lat="45.32544" lon="6.71423">
        <ele>2559.647461</ele>
        <time>2010-10-07T09:40:04Z</time>
      </trkpt>
      <trkpt lat="45.32543" lon="6.71433">
        <ele>2560.128174</ele>
        <time>2010-10-07T09:40:11Z</time>
      </trkpt>
      <trkpt lat="45.32543" lon="6.71436">
        <ele>2560.128174</ele>
        <time>2010-10-07T09:40:13Z</time>
      </trkpt>
      <trkpt lat="45.32542" lon="6.71442">
        <ele>2560.128174</ele>
        <time>2010-10-07T09:40:17Z</time>
      </trkpt>
      <trkpt lat="45.32545" lon="6.71446">
        <ele>2560.608887</ele>
        <time>2010-10-07T09:40:22Z</time>
      </trkpt>
      <trkpt lat="45.32547" lon="6.71455">
        <ele>2560.608887</ele>
        <time>2010-10-07T09:40:29Z</time>
      </trkpt>
      <trkpt lat="45.32549" lon="6.7146">
        <ele>2561.0896</ele>
        <time>2010-10-07T09:40:34Z</time>
      </trkpt>
      <trkpt lat="45.32552" lon="6.71457">
        <ele>2562.531494</ele>
        <time>2010-10-07T09:40:39Z</time>
      </trkpt>
      <trkpt lat="45.32554" lon="6.71461">
        <ele>2563.492676</ele>
        <time>2010-10-07T09:40:44Z</time>
      </trkpt>
      <trkpt lat="45.32557" lon="6.71467">
        <ele>2563.492676</ele>
        <time>2010-10-07T09:40:50Z</time>
      </trkpt>
      <trkpt lat="45.32561" lon="6.7147">
        <ele>2563.492676</ele>
        <time>2010-10-07T09:40:55Z</time>
      </trkpt>
      <trkpt lat="45.32563" lon="6.71473">
        <ele>2563.492676</ele>
        <time>2010-10-07T09:40:59Z</time>
      </trkpt>
      <trkpt lat="45.32565" lon="6.71475">
        <ele>2563.012207</ele>
        <time>2010-10-07T09:41:03Z</time>
      </trkpt>
      <trkpt lat="45.32567" lon="6.71479">
        <ele>2563.973389</ele>
        <time>2010-10-07T09:41:07Z</time>
      </trkpt>
      <trkpt lat="45.32569" lon="6.71483">
        <ele>2564.454102</ele>
        <time>2010-10-07T09:41:12Z</time>
      </trkpt>
      <trkpt lat="45.32571" lon="6.7149">
        <ele>2565.415527</ele>
        <time>2010-10-07T09:41:19Z</time>
      </trkpt>
      <trkpt lat="45.32573" lon="6.71493">
        <ele>2564.934814</ele>
        <time>2010-10-07T09:41:25Z</time>
      </trkpt>
      <trkpt lat="45.32574" lon="6.71497">
        <ele>2566.376709</ele>
        <time>2010-10-07T09:41:31Z</time>
      </trkpt>
      <trkpt lat="45.32574" lon="6.71503">
        <ele>2567.818604</ele>
        <time>2010-10-07T09:41:37Z</time>
      </trkpt>
      <trkpt lat="45.32575" lon="6.71508">
        <ele>2568.299316</ele>
        <time>2010-10-07T09:41:42Z</time>
      </trkpt>
      <trkpt lat="45.32574" lon="6.71516">
        <ele>2569.741211</ele>
        <time>2010-10-07T09:41:50Z</time>
      </trkpt>
      <trkpt lat="45.32575" lon="6.7152">
        <ele>2570.221924</ele>
        <time>2010-10-07T09:41:54Z</time>
      </trkpt>
      <trkpt lat="45.32575" lon="6.71526">
        <ele>2571.183105</ele>
        <time>2010-10-07T09:41:59Z</time>
      </trkpt>
      <trkpt lat="45.32574" lon="6.7153">
        <ele>2571.183105</ele>
        <time>2010-10-07T09:42:03Z</time>
      </trkpt>
      <trkpt lat="45.32571" lon="6.71537">
        <ele>2572.625488</ele>
        <time>2010-10-07T09:42:10Z</time>
      </trkpt>
      <trkpt lat="45.3257" lon="6.71543">
        <ele>2574.067383</ele>
        <time>2010-10-07T09:42:17Z</time>
      </trkpt>
      <trkpt lat="45.3257" lon="6.71546">
        <ele>2575.509277</ele>
        <time>2010-10-07T09:42:22Z</time>
      </trkpt>
      <trkpt lat="45.32571" lon="6.71549">
        <ele>2575.98999</ele>
        <time>2010-10-07T09:42:26Z</time>
      </trkpt>
      <trkpt lat="45.32572" lon="6.71554">
        <ele>2576.470703</ele>
        <time>2010-10-07T09:42:31Z</time>
      </trkpt>
      <trkpt lat="45.32574" lon="6.71555">
        <ele>2577.431885</ele>
        <time>2010-10-07T09:42:35Z</time>
      </trkpt>
      <trkpt lat="45.32576" lon="6.71557">
        <ele>2577.431885</ele>
        <time>2010-10-07T09:42:43Z</time>
      </trkpt>
      <trkpt lat="45.32576" lon="6.71558">
        <ele>2577.912598</ele>
        <time>2010-10-07T09:43:09Z</time>
      </trkpt>
      <trkpt lat="45.32576" lon="6.71556">
        <ele>2577.912598</ele>
        <time>2010-10-07T09:43:20Z</time>
      </trkpt>
      <trkpt lat="45.32569" lon="6.71557">
        <ele>2586.08374</ele>
        <time>2010-10-07T09:44:17Z</time>
      </trkpt>
      <trkpt lat="45.3257" lon="6.71556">
        <ele>2586.08374</ele>
        <time>2010-10-07T09:44:30Z</time>
      </trkpt>
      <trkpt lat="45.32572" lon="6.71557">
        <ele>2582.238525</ele>
        <time>2010-10-07T09:44:50Z</time>
      </trkpt>
      <trkpt lat="45.32572" lon="6.71557">
        <ele>2578.393311</ele>
        <time>2010-10-07T09:45:20Z</time>
      </trkpt>
      <trkpt lat="45.32572" lon="6.71555">
        <ele>2577.912598</ele>
        <time>2010-10-07T09:45:31Z</time>
      </trkpt>
      <trkpt lat="45.32573" lon="6.71555">
        <ele>2575.028564</ele>
        <time>2010-10-07T09:45:38Z</time>
      </trkpt>
      <trkpt lat="45.32574" lon="6.71557">
        <ele>2575.509277</ele>
        <time>2010-10-07T09:45:45Z</time>
      </trkpt>
      <trkpt lat="45.32575" lon="6.71557">
        <ele>2576.951416</ele>
        <time>2010-10-07T09:45:53Z</time>
      </trkpt>
      <trkpt lat="45.32574" lon="6.71556">
        <ele>2578.393311</ele>
        <time>2010-10-07T09:45:59Z</time>
      </trkpt>
      <trkpt lat="45.32574" lon="6.71556">
        <ele>2579.835205</ele>
        <time>2010-10-07T09:46:09Z</time>
      </trkpt>
      <trkpt lat="45.32574" lon="6.71556">
        <ele>2579.835205</ele>
        <time>2010-10-07T09:46:15Z</time>
      </trkpt>
      <trkpt lat="45.32574" lon="6.71556">
        <ele>2577.912598</ele>
        <time>2010-10-07T09:46:24Z</time>
      </trkpt>
      <trkpt lat="45.32574" lon="6.71556">
        <ele>2578.873779</ele>
        <time>2010-10-07T09:46:34Z</time>
      </trkpt>
      <trkpt lat="45.32574" lon="6.71556">
        <ele>2579.354492</ele>
        <time>2010-10-07T09:46:40Z</time>
      </trkpt>
      <trkpt lat="45.32575" lon="6.71556">
        <ele>2579.835205</ele>
        <time>2010-10-07T09:46:47Z</time>
      </trkpt>
      <trkpt lat="45.32576" lon="6.71556">
        <ele>2578.873779</ele>
        <time>2010-10-07T09:47:03Z</time>
      </trkpt>
      <trkpt lat="45.32575" lon="6.71556">
        <ele>2579.835205</ele>
        <time>2010-10-07T09:47:23Z</time>
      </trkpt>
      <trkpt lat="45.32574" lon="6.71553">
        <ele>2583.199707</ele>
        <time>2010-10-07T09:48:10Z</time>
      </trkpt>
      <trkpt lat="45.32575" lon="6.71553">
        <ele>2582.718994</ele>
        <time>2010-10-07T09:48:27Z</time>
      </trkpt>
      <trkpt lat="45.32576" lon="6.71552">
        <ele>2580.315918</ele>
        <time>2010-10-07T09:48:41Z</time>
      </trkpt>
      <trkpt lat="45.32577" lon="6.71552">
        <ele>2579.354492</ele>
        <time>2010-10-07T09:48:47Z</time>
      </trkpt>
      <trkpt lat="45.32577" lon="6.71552">
        <ele>2579.354492</ele>
        <time>2010-10-07T09:48:57Z</time>
      </trkpt>
      <trkpt lat="45.32577" lon="6.71552">
        <ele>2579.354492</ele>
        <time>2010-10-07T09:49:07Z</time>
      </trkpt>
      <trkpt lat="45.32577" lon="6.71553">
        <ele>2578.873779</ele>
        <time>2010-10-07T09:49:14Z</time>
      </trkpt>
      <trkpt lat="45.32579" lon="6.71558">
        <ele>2579.835205</ele>
        <time>2010-10-07T09:49:22Z</time>
      </trkpt>
      <trkpt lat="45.32583" lon="6.71559">
        <ele>2580.315918</ele>
        <time>2010-10-07T09:49:28Z</time>
      </trkpt>
      <trkpt lat="45.32586" lon="6.71563">
        <ele>2580.796631</ele>
        <time>2010-10-07T09:49:34Z</time>
      </trkpt>
      <trkpt lat="45.32588" lon="6.7156">
        <ele>2581.2771</ele>
        <time>2010-10-07T09:49:40Z</time>
      </trkpt>
      <trkpt lat="45.3259" lon="6.71553">
        <ele>2582.718994</ele>
        <time>2010-10-07T09:49:48Z</time>
      </trkpt>
      <trkpt lat="45.32592" lon="6.71549">
        <ele>2583.68042</ele>
        <time>2010-10-07T09:49:54Z</time>
      </trkpt>
      <trkpt lat="45.32595" lon="6.71546">
        <ele>2584.161133</ele>
        <time>2010-10-07T09:49:59Z</time>
      </trkpt>
      <trkpt lat="45.32597" lon="6.71548">
        <ele>2585.122314</ele>
        <time>2010-10-07T09:50:04Z</time>
      </trkpt>
      <trkpt lat="45.326" lon="6.7155">
        <ele>2585.122314</ele>
        <time>2010-10-07T09:50:08Z</time>
      </trkpt>
      <trkpt lat="45.32601" lon="6.7155">
        <ele>2585.603027</ele>
        <time>2010-10-07T09:50:11Z</time>
      </trkpt>
      <trkpt lat="45.32604" lon="6.71553">
        <ele>2586.08374</ele>
        <time>2010-10-07T09:50:16Z</time>
      </trkpt>
      <trkpt lat="45.32607" lon="6.71553">
        <ele>2587.044922</ele>
        <time>2010-10-07T09:50:20Z</time>
      </trkpt>
      <trkpt lat="45.32609" lon="6.71552">
        <ele>2588.487305</ele>
        <time>2010-10-07T09:50:24Z</time>
      </trkpt>
      <trkpt lat="45.3261" lon="6.71552">
        <ele>2589.929199</ele>
        <time>2010-10-07T09:50:28Z</time>
      </trkpt>
      <trkpt lat="45.32613" lon="6.71551">
        <ele>2591.371094</ele>
        <time>2010-10-07T09:50:33Z</time>
      </trkpt>
      <trkpt lat="45.32615" lon="6.7155">
        <ele>2591.851807</ele>
        <time>2010-10-07T09:50:37Z</time>
      </trkpt>
      <trkpt lat="45.32617" lon="6.71552">
        <ele>2591.851807</ele>
        <time>2010-10-07T09:50:42Z</time>
      </trkpt>
      <trkpt lat="45.32618" lon="6.71555">
        <ele>2592.812988</ele>
        <time>2010-10-07T09:50:46Z</time>
      </trkpt>
      <trkpt lat="45.3262" lon="6.71557">
        <ele>2593.774414</ele>
        <time>2010-10-07T09:50:50Z</time>
      </trkpt>
      <trkpt lat="45.32621" lon="6.71559">
        <ele>2592.812988</ele>
        <time>2010-10-07T09:50:53Z</time>
      </trkpt>
      <trkpt lat="45.32622" lon="6.71557">
        <ele>2593.774414</ele>
        <time>2010-10-07T09:50:58Z</time>
      </trkpt>
      <trkpt lat="45.32622" lon="6.71553">
        <ele>2594.735596</ele>
        <time>2010-10-07T09:51:02Z</time>
      </trkpt>
      <trkpt lat="45.32625" lon="6.71549">
        <ele>2596.177734</ele>
        <time>2010-10-07T09:51:08Z</time>
      </trkpt>
      <trkpt lat="45.32626" lon="6.71553">
        <ele>2597.619629</ele>
        <time>2010-10-07T09:51:12Z</time>
      </trkpt>
      <trkpt lat="45.32628" lon="6.71553">
        <ele>2598.581055</ele>
        <time>2010-10-07T09:51:17Z</time>
      </trkpt>
      <trkpt lat="45.3263" lon="6.7155">
        <ele>2599.541992</ele>
        <time>2010-10-07T09:51:22Z</time>
      </trkpt>
      <trkpt lat="45.32631" lon="6.71548">
        <ele>2600.503418</ele>
        <time>2010-10-07T09:51:26Z</time>
      </trkpt>
      <trkpt lat="45.32633" lon="6.71545">
        <ele>2600.984375</ele>
        <time>2010-10-07T09:51:30Z</time>
      </trkpt>
      <trkpt lat="45.32634" lon="6.71542">
        <ele>2601.464844</ele>
        <time>2010-10-07T09:51:34Z</time>
      </trkpt>
      <trkpt lat="45.32636" lon="6.71543">
        <ele>2601.945312</ele>
        <time>2010-10-07T09:51:38Z</time>
      </trkpt>
      <trkpt lat="45.32637" lon="6.71546">
        <ele>2602.42627</ele>
        <time>2010-10-07T09:51:43Z</time>
      </trkpt>
      <trkpt lat="45.3264" lon="6.71549">
        <ele>2603.868164</ele>
        <time>2010-10-07T09:51:48Z</time>
      </trkpt>
      <trkpt lat="45.32643" lon="6.71552">
        <ele>2603.868164</ele>
        <time>2010-10-07T09:51:54Z</time>
      </trkpt>
      <trkpt lat="45.32643" lon="6.71552">
        <ele>2603.868164</ele>
        <time>2010-10-07T09:51:57Z</time>
      </trkpt>
      <trkpt lat="45.32645" lon="6.71553">
        <ele>2604.829102</ele>
        <time>2010-10-07T09:52:00Z</time>
      </trkpt>
      <trkpt lat="45.32647" lon="6.71556">
        <ele>2606.751953</ele>
        <time>2010-10-07T09:52:05Z</time>
      </trkpt>
      <trkpt lat="45.32648" lon="6.71561">
        <ele>2609.635742</ele>
        <time>2010-10-07T09:52:10Z</time>
      </trkpt>
      <trkpt lat="45.32651" lon="6.71565">
        <ele>2611.077637</ele>
        <time>2010-10-07T09:52:15Z</time>
      </trkpt>
      <trkpt lat="45.32654" lon="6.71567">
        <ele>2611.077637</ele>
        <time>2010-10-07T09:52:20Z</time>
      </trkpt>
      <trkpt lat="45.32656" lon="6.71568">
        <ele>2610.597168</ele>
        <time>2010-10-07T09:52:26Z</time>
      </trkpt>
      <trkpt lat="45.3266" lon="6.71571">
        <ele>2609.635742</ele>
        <time>2010-10-07T09:52:31Z</time>
      </trkpt>
      <trkpt lat="45.32661" lon="6.71576">
        <ele>2610.597168</ele>
        <time>2010-10-07T09:52:36Z</time>
      </trkpt>
      <trkpt lat="45.32663" lon="6.71582">
        <ele>2611.558594</ele>
        <time>2010-10-07T09:52:42Z</time>
      </trkpt>
      <trkpt lat="45.32665" lon="6.71586">
        <ele>2612.52002</ele>
        <time>2010-10-07T09:52:47Z</time>
      </trkpt>
      <trkpt lat="45.32667" lon="6.71588">
        <ele>2613.000977</ele>
        <time>2010-10-07T09:52:51Z</time>
      </trkpt>
      <trkpt lat="45.32669" lon="6.71591">
        <ele>2612.52002</ele>
        <time>2010-10-07T09:52:55Z</time>
      </trkpt>
      <trkpt lat="45.32672" lon="6.71594">
        <ele>2612.039551</ele>
        <time>2010-10-07T09:53:00Z</time>
      </trkpt>
      <trkpt lat="45.32675" lon="6.71598">
        <ele>2612.52002</ele>
        <time>2010-10-07T09:53:05Z</time>
      </trkpt>
      <trkpt lat="45.32678" lon="6.71603">
        <ele>2613.000977</ele>
        <time>2010-10-07T09:53:12Z</time>
      </trkpt>
      <trkpt lat="45.32682" lon="6.71608">
        <ele>2613.962402</ele>
        <time>2010-10-07T09:53:18Z</time>
      </trkpt>
      <trkpt lat="45.32684" lon="6.7161">
        <ele>2614.92334</ele>
        <time>2010-10-07T09:53:24Z</time>
      </trkpt>
      <trkpt lat="45.32682" lon="6.71605">
        <ele>2615.404297</ele>
        <time>2010-10-07T09:53:30Z</time>
      </trkpt>
      <trkpt lat="45.32681" lon="6.71601">
        <ele>2614.92334</ele>
        <time>2010-10-07T09:53:34Z</time>
      </trkpt>
      <trkpt lat="45.32681" lon="6.71602">
        <ele>2614.92334</ele>
        <time>2010-10-07T09:53:42Z</time>
      </trkpt>
      <trkpt lat="45.32682" lon="6.71607">
        <ele>2615.404297</ele>
        <time>2010-10-07T09:53:45Z</time>
      </trkpt>
      <trkpt lat="45.32684" lon="6.7161">
        <ele>2616.365723</ele>
        <time>2010-10-07T09:53:49Z</time>
      </trkpt>
      <trkpt lat="45.32686" lon="6.71614">
        <ele>2617.807617</ele>
        <time>2010-10-07T09:53:54Z</time>
      </trkpt>
      <trkpt lat="45.3269" lon="6.7162">
        <ele>2618.288086</ele>
        <time>2010-10-07T09:53:59Z</time>
      </trkpt>
      <trkpt lat="45.32694" lon="6.71624">
        <ele>2618.768555</ele>
        <time>2010-10-07T09:54:05Z</time>
      </trkpt>
      <trkpt lat="45.32698" lon="6.71627">
        <ele>2619.72998</ele>
        <time>2010-10-07T09:54:10Z</time>
      </trkpt>
      <trkpt lat="45.32701" lon="6.71629">
        <ele>2621.171875</ele>
        <time>2010-10-07T09:54:15Z</time>
      </trkpt>
      <trkpt lat="45.32703" lon="6.7163">
        <ele>2621.652832</ele>
        <time>2010-10-07T09:54:19Z</time>
      </trkpt>
      <trkpt lat="45.32705" lon="6.71629">
        <ele>2622.133301</ele>
        <time>2010-10-07T09:54:23Z</time>
      </trkpt>
      <trkpt lat="45.32708" lon="6.71627">
        <ele>2623.575195</ele>
        <time>2010-10-07T09:54:28Z</time>
      </trkpt>
      <trkpt lat="45.32709" lon="6.7163">
        <ele>2623.094727</ele>
        <time>2010-10-07T09:54:32Z</time>
      </trkpt>
      <trkpt lat="45.32712" lon="6.71636">
        <ele>2624.056152</ele>
        <time>2010-10-07T09:54:37Z</time>
      </trkpt>
      <trkpt lat="45.32713" lon="6.71641">
        <ele>2625.498047</ele>
        <time>2010-10-07T09:54:43Z</time>
      </trkpt>
      <trkpt lat="45.32715" lon="6.71647">
        <ele>2626.458984</ele>
        <time>2010-10-07T09:54:49Z</time>
      </trkpt>
      <trkpt lat="45.32716" lon="6.71651">
        <ele>2626.939941</ele>
        <time>2010-10-07T09:54:53Z</time>
      </trkpt>
      <trkpt lat="45.32716" lon="6.71657">
        <ele>2627.900879</ele>
        <time>2010-10-07T09:54:58Z</time>
      </trkpt>
      <trkpt lat="45.32716" lon="6.71663">
        <ele>2629.82373</ele>
        <time>2010-10-07T09:55:04Z</time>
      </trkpt>
      <trkpt lat="45.32716" lon="6.71666">
        <ele>2630.785156</ele>
        <time>2010-10-07T09:55:09Z</time>
      </trkpt>
      <trkpt lat="45.32716" lon="6.7167">
        <ele>2631.746582</ele>
        <time>2010-10-07T09:55:13Z</time>
      </trkpt>
      <trkpt lat="45.32717" lon="6.71674">
        <ele>2632.227051</ele>
        <time>2010-10-07T09:55:18Z</time>
      </trkpt>
      <trkpt lat="45.32717" lon="6.71678">
        <ele>2633.668945</ele>
        <time>2010-10-07T09:55:24Z</time>
      </trkpt>
      <trkpt lat="45.32718" lon="6.71682">
        <ele>2634.630371</ele>
        <time>2010-10-07T09:55:29Z</time>
      </trkpt>
      <trkpt lat="45.32719" lon="6.71686">
        <ele>2636.552734</ele>
        <time>2010-10-07T09:55:34Z</time>
      </trkpt>
      <trkpt lat="45.32718" lon="6.71692">
        <ele>2637.51416</ele>
        <time>2010-10-07T09:55:40Z</time>
      </trkpt>
      <trkpt lat="45.32716" lon="6.717">
        <ele>2637.994629</ele>
        <time>2010-10-07T09:55:48Z</time>
      </trkpt>
      <trkpt lat="45.32714" lon="6.71706">
        <ele>2638.475586</ele>
        <time>2010-10-07T09:55:53Z</time>
      </trkpt>
      <trkpt lat="45.32713" lon="6.71709">
        <ele>2638.475586</ele>
        <time>2010-10-07T09:55:59Z</time>
      </trkpt>
      <trkpt lat="45.3271" lon="6.71713">
        <ele>2638.956055</ele>
        <time>2010-10-07T09:56:05Z</time>
      </trkpt>
      <trkpt lat="45.32707" lon="6.71716">
        <ele>2640.397949</ele>
        <time>2010-10-07T09:56:10Z</time>
      </trkpt>
      <trkpt lat="45.32704" lon="6.71723">
        <ele>2642.320801</ele>
        <time>2010-10-07T09:56:17Z</time>
      </trkpt>
      <trkpt lat="45.32701" lon="6.71729">
        <ele>2643.281738</ele>
        <time>2010-10-07T09:56:24Z</time>
      </trkpt>
      <trkpt lat="45.32701" lon="6.7173">
        <ele>2644.724609</ele>
        <time>2010-10-07T09:56:35Z</time>
      </trkpt>
      <trkpt lat="45.327" lon="6.71731">
        <ele>2644.724609</ele>
        <time>2010-10-07T09:56:50Z</time>
      </trkpt>
      <trkpt lat="45.327" lon="6.71731">
        <ele>2643.281738</ele>
        <time>2010-10-07T09:57:02Z</time>
      </trkpt>
      <trkpt lat="45.32702" lon="6.71731">
        <ele>2640.878906</ele>
        <time>2010-10-07T09:57:17Z</time>
      </trkpt>
      <trkpt lat="45.32704" lon="6.71733">
        <ele>2641.839844</ele>
        <time>2010-10-07T09:57:23Z</time>
      </trkpt>
      <trkpt lat="45.32708" lon="6.71735">
        <ele>2641.839844</ele>
        <time>2010-10-07T09:57:29Z</time>
      </trkpt>
      <trkpt lat="45.3271" lon="6.71737">
        <ele>2642.80127</ele>
        <time>2010-10-07T09:57:36Z</time>
      </trkpt>
      <trkpt lat="45.3271" lon="6.71738">
        <ele>2643.281738</ele>
        <time>2010-10-07T09:57:43Z</time>
      </trkpt>
      <trkpt lat="45.32708" lon="6.71742">
        <ele>2645.205078</ele>
        <time>2010-10-07T09:58:00Z</time>
      </trkpt>
      <trkpt lat="45.32708" lon="6.71744">
        <ele>2645.205078</ele>
        <time>2010-10-07T09:58:06Z</time>
      </trkpt>
      <trkpt lat="45.32712" lon="6.71746">
        <ele>2645.685547</ele>
        <time>2010-10-07T09:58:13Z</time>
      </trkpt>
      <trkpt lat="45.32713" lon="6.71752">
        <ele>2646.166504</ele>
        <time>2010-10-07T09:58:19Z</time>
      </trkpt>
      <trkpt lat="45.32714" lon="6.71755">
        <ele>2646.166504</ele>
        <time>2010-10-07T09:58:24Z</time>
      </trkpt>
      <trkpt lat="45.32715" lon="6.71756">
        <ele>2645.205078</ele>
        <time>2010-10-07T09:58:31Z</time>
      </trkpt>
      <trkpt lat="45.32719" lon="6.71762">
        <ele>2645.205078</ele>
        <time>2010-10-07T09:58:37Z</time>
      </trkpt>
      <trkpt lat="45.32722" lon="6.71767">
        <ele>2645.685547</ele>
        <time>2010-10-07T09:58:42Z</time>
      </trkpt>
      <trkpt lat="45.32726" lon="6.71769">
        <ele>2646.646973</ele>
        <time>2010-10-07T09:58:48Z</time>
      </trkpt>
      <trkpt lat="45.32729" lon="6.7177">
        <ele>2648.088867</ele>
        <time>2010-10-07T09:58:53Z</time>
      </trkpt>
      <trkpt lat="45.32731" lon="6.71769">
        <ele>2649.050293</ele>
        <time>2010-10-07T09:58:58Z</time>
      </trkpt>
      <trkpt lat="45.32735" lon="6.71768">
        <ele>2650.492188</ele>
        <time>2010-10-07T09:59:04Z</time>
      </trkpt>
      <trkpt lat="45.32739" lon="6.7177">
        <ele>2652.415039</ele>
        <time>2010-10-07T09:59:10Z</time>
      </trkpt>
      <trkpt lat="45.32741" lon="6.71773">
        <ele>2653.856934</ele>
        <time>2010-10-07T09:59:15Z</time>
      </trkpt>
      <trkpt lat="45.32741" lon="6.71773">
        <ele>2655.298828</ele>
        <time>2010-10-07T09:59:21Z</time>
      </trkpt>
      <trkpt lat="45.32744" lon="6.71775">
        <ele>2656.260254</ele>
        <time>2010-10-07T09:59:26Z</time>
      </trkpt>
      <trkpt lat="45.32748" lon="6.71781">
        <ele>2658.182617</ele>
        <time>2010-10-07T09:59:33Z</time>
      </trkpt>
      <trkpt lat="45.32751" lon="6.71786">
        <ele>2659.624512</ele>
        <time>2010-10-07T09:59:40Z</time>
      </trkpt>
      <trkpt lat="45.32754" lon="6.7179">
        <ele>2661.066406</ele>
        <time>2010-10-07T09:59:46Z</time>
      </trkpt>
      <trkpt lat="45.32758" lon="6.71792">
        <ele>2661.066406</ele>
        <time>2010-10-07T09:59:52Z</time>
      </trkpt>
      <trkpt lat="45.32762" lon="6.71792">
        <ele>2660.585938</ele>
        <time>2010-10-07T10:00:00Z</time>
      </trkpt>
      <trkpt lat="45.32761" lon="6.71792">
        <ele>2660.585938</ele>
        <time>2010-10-07T10:00:31Z</time>
      </trkpt>
      <trkpt lat="45.32762" lon="6.71791">
        <ele>2660.105469</ele>
        <time>2010-10-07T10:00:39Z</time>
      </trkpt>
      <trkpt lat="45.32763" lon="6.71791">
        <ele>2659.144043</ele>
        <time>2010-10-07T10:00:45Z</time>
      </trkpt>
      <trkpt lat="45.32761" lon="6.7179">
        <ele>2657.221191</ele>
        <time>2010-10-07T10:01:15Z</time>
      </trkpt>
      <trkpt lat="45.32763" lon="6.7179">
        <ele>2655.779297</ele>
        <time>2010-10-07T10:01:27Z</time>
      </trkpt>
      <trkpt lat="45.32766" lon="6.71789">
        <ele>2657.221191</ele>
        <time>2010-10-07T10:01:47Z</time>
      </trkpt>
      <trkpt lat="45.32767" lon="6.7178">
        <ele>2658.663086</ele>
        <time>2010-10-07T10:01:55Z</time>
      </trkpt>
      <trkpt lat="45.32767" lon="6.71779">
        <ele>2659.144043</ele>
        <time>2010-10-07T10:02:02Z</time>
      </trkpt>
      <trkpt lat="45.32766" lon="6.71773">
        <ele>2660.105469</ele>
        <time>2010-10-07T10:02:16Z</time>
      </trkpt>
      <trkpt lat="45.32768" lon="6.71768">
        <ele>2661.547363</ele>
        <time>2010-10-07T10:02:22Z</time>
      </trkpt>
      <trkpt lat="45.3277" lon="6.71758">
        <ele>2663.950684</ele>
        <time>2010-10-07T10:02:29Z</time>
      </trkpt>
      <trkpt lat="45.3277" lon="6.71755">
        <ele>2664.911621</ele>
        <time>2010-10-07T10:02:35Z</time>
      </trkpt>
      <trkpt lat="45.3277" lon="6.71751">
        <ele>2664.431152</ele>
        <time>2010-10-07T10:02:43Z</time>
      </trkpt>
      <trkpt lat="45.3277" lon="6.71742">
        <ele>2664.431152</ele>
        <time>2010-10-07T10:02:50Z</time>
      </trkpt>
      <trkpt lat="45.32772" lon="6.71733">
        <ele>2665.873047</ele>
        <time>2010-10-07T10:02:58Z</time>
      </trkpt>
      <trkpt lat="45.32773" lon="6.71729">
        <ele>2664.911621</ele>
        <time>2010-10-07T10:03:04Z</time>
      </trkpt>
      <trkpt lat="45.32773" lon="6.71725">
        <ele>2666.834473</ele>
        <time>2010-10-07T10:03:32Z</time>
      </trkpt>
      <trkpt lat="45.32774" lon="6.71716">
        <ele>2666.834473</ele>
        <time>2010-10-07T10:03:39Z</time>
      </trkpt>
      <trkpt lat="45.32777" lon="6.71707">
        <ele>2665.392578</ele>
        <time>2010-10-07T10:03:46Z</time>
      </trkpt>
      <trkpt lat="45.32778" lon="6.71694">
        <ele>2667.795898</ele>
        <time>2010-10-07T10:03:54Z</time>
      </trkpt>
      <trkpt lat="45.32779" lon="6.71686">
        <ele>2669.237793</ele>
        <time>2010-10-07T10:04:01Z</time>
      </trkpt>
      <trkpt lat="45.32782" lon="6.71678">
        <ele>2668.276367</ele>
        <time>2010-10-07T10:04:07Z</time>
      </trkpt>
      <trkpt lat="45.32786" lon="6.71669">
        <ele>2666.353516</ele>
        <time>2010-10-07T10:04:16Z</time>
      </trkpt>
      <trkpt lat="45.32786" lon="6.71657">
        <ele>2666.834473</ele>
        <time>2010-10-07T10:04:24Z</time>
      </trkpt>
      <trkpt lat="45.32785" lon="6.71653">
        <ele>2666.834473</ele>
        <time>2010-10-07T10:04:30Z</time>
      </trkpt>
      <trkpt lat="45.32784" lon="6.71653">
        <ele>2666.834473</ele>
        <time>2010-10-07T10:04:37Z</time>
      </trkpt>
      <trkpt lat="45.32783" lon="6.71647">
        <ele>2667.314941</ele>
        <time>2010-10-07T10:04:44Z</time>
      </trkpt>
      <trkpt lat="45.32784" lon="6.7164">
        <ele>2668.756836</ele>
        <time>2010-10-07T10:04:50Z</time>
      </trkpt>
      <trkpt lat="45.32786" lon="6.71629">
        <ele>2670.199219</ele>
        <time>2010-10-07T10:04:58Z</time>
      </trkpt>
      <trkpt lat="45.32787" lon="6.71619">
        <ele>2671.641113</ele>
        <time>2010-10-07T10:05:05Z</time>
      </trkpt>
      <trkpt lat="45.32787" lon="6.71612">
        <ele>2672.602051</ele>
        <time>2010-10-07T10:05:12Z</time>
      </trkpt>
      <trkpt lat="45.32787" lon="6.71605">
        <ele>2673.083008</ele>
        <time>2010-10-07T10:05:19Z</time>
      </trkpt>
      <trkpt lat="45.32788" lon="6.71598">
        <ele>2673.563477</ele>
        <time>2010-10-07T10:05:26Z</time>
      </trkpt>
      <trkpt lat="45.32788" lon="6.71592">
        <ele>2674.043945</ele>
        <time>2010-10-07T10:05:31Z</time>
      </trkpt>
      <trkpt lat="45.32788" lon="6.71589">
        <ele>2675.966797</ele>
        <time>2010-10-07T10:05:40Z</time>
      </trkpt>
      <trkpt lat="45.32789" lon="6.71585">
        <ele>2675.005371</ele>
        <time>2010-10-07T10:05:48Z</time>
      </trkpt>
      <trkpt lat="45.32791" lon="6.71582">
        <ele>2675.005371</ele>
        <time>2010-10-07T10:05:53Z</time>
      </trkpt>
      <trkpt lat="45.32793" lon="6.71577">
        <ele>2677.40918</ele>
        <time>2010-10-07T10:06:01Z</time>
      </trkpt>
      <trkpt lat="45.32795" lon="6.71576">
        <ele>2678.370605</ele>
        <time>2010-10-07T10:06:06Z</time>
      </trkpt>
      <trkpt lat="45.32796" lon="6.71572">
        <ele>2679.332031</ele>
        <time>2010-10-07T10:06:12Z</time>
      </trkpt>
      <trkpt lat="45.32798" lon="6.71566">
        <ele>2679.8125</ele>
        <time>2010-10-07T10:06:19Z</time>
      </trkpt>
      <trkpt lat="45.32798" lon="6.71565">
        <ele>2680.773926</ele>
        <time>2010-10-07T10:06:26Z</time>
      </trkpt>
      <trkpt lat="45.32797" lon="6.71563">
        <ele>2680.773926</ele>
        <time>2010-10-07T10:06:38Z</time>
      </trkpt>
      <trkpt lat="45.32799" lon="6.71557">
        <ele>2681.734863</ele>
        <time>2010-10-07T10:06:44Z</time>
      </trkpt>
      <trkpt lat="45.32802" lon="6.71551">
        <ele>2684.138184</ele>
        <time>2010-10-07T10:06:51Z</time>
      </trkpt>
      <trkpt lat="45.32804" lon="6.71548">
        <ele>2684.619141</ele>
        <time>2010-10-07T10:06:58Z</time>
      </trkpt>
      <trkpt lat="45.32806" lon="6.71541">
        <ele>2686.541504</ele>
        <time>2010-10-07T10:07:06Z</time>
      </trkpt>
      <trkpt lat="45.32807" lon="6.71537">
        <ele>2688.464355</ele>
        <time>2010-10-07T10:07:13Z</time>
      </trkpt>
      <trkpt lat="45.32807" lon="6.71536">
        <ele>2688.464355</ele>
        <time>2010-10-07T10:07:17Z</time>
      </trkpt>
      <trkpt lat="45.32809" lon="6.71535">
        <ele>2688.464355</ele>
        <time>2010-10-07T10:07:21Z</time>
      </trkpt>
      <trkpt lat="45.32808" lon="6.71536">
        <ele>2688.464355</ele>
        <time>2010-10-07T10:07:22Z</time>
      </trkpt>
      <trkpt lat="45.32808" lon="6.71535">
        <ele>2689.90625</ele>
        <time>2010-10-07T10:07:26Z</time>
      </trkpt>
      <trkpt lat="45.32809" lon="6.7153">
        <ele>2690.386719</ele>
        <time>2010-10-07T10:07:31Z</time>
      </trkpt>
      <trkpt lat="45.3281" lon="6.71527">
        <ele>2691.828613</ele>
        <time>2010-10-07T10:07:36Z</time>
      </trkpt>
      <trkpt lat="45.3281" lon="6.71524">
        <ele>2692.790039</ele>
        <time>2010-10-07T10:07:41Z</time>
      </trkpt>
      <trkpt lat="45.32811" lon="6.7152">
        <ele>2694.712891</ele>
        <time>2010-10-07T10:07:47Z</time>
      </trkpt>
      <trkpt lat="45.32811" lon="6.71517">
        <ele>2696.154785</ele>
        <time>2010-10-07T10:07:51Z</time>
      </trkpt>
      <trkpt lat="45.32811" lon="6.71514">
        <ele>2697.115723</ele>
        <time>2010-10-07T10:07:55Z</time>
      </trkpt>
      <trkpt lat="45.32812" lon="6.71509">
        <ele>2699.519043</ele>
        <time>2010-10-07T10:08:01Z</time>
      </trkpt>
      <trkpt lat="45.32813" lon="6.71502">
        <ele>2700.961426</ele>
        <time>2010-10-07T10:08:09Z</time>
      </trkpt>
      <trkpt lat="45.32812" lon="6.715">
        <ele>2702.40332</ele>
        <time>2010-10-07T10:08:14Z</time>
      </trkpt>
      <trkpt lat="45.32812" lon="6.71496">
        <ele>2702.883789</ele>
        <time>2010-10-07T10:08:19Z</time>
      </trkpt>
      <trkpt lat="45.32812" lon="6.7149">
        <ele>2703.845215</ele>
        <time>2010-10-07T10:08:25Z</time>
      </trkpt>
      <trkpt lat="45.32811" lon="6.71486">
        <ele>2704.806152</ele>
        <time>2010-10-07T10:08:31Z</time>
      </trkpt>
      <trkpt lat="45.32811" lon="6.71481">
        <ele>2705.767578</ele>
        <time>2010-10-07T10:08:37Z</time>
      </trkpt>
      <trkpt lat="45.32812" lon="6.71476">
        <ele>2707.209473</ele>
        <time>2010-10-07T10:08:42Z</time>
      </trkpt>
      <trkpt lat="45.32812" lon="6.71473">
        <ele>2707.69043</ele>
        <time>2010-10-07T10:08:48Z</time>
      </trkpt>
      <trkpt lat="45.32813" lon="6.71473">
        <ele>2707.209473</ele>
        <time>2010-10-07T10:09:01Z</time>
      </trkpt>
      <trkpt lat="45.3281" lon="6.71469">
        <ele>2706.729004</ele>
        <time>2010-10-07T10:09:08Z</time>
      </trkpt>
      <trkpt lat="45.32809" lon="6.71468">
        <ele>2706.248535</ele>
        <time>2010-10-07T10:09:09Z</time>
      </trkpt>
      <trkpt lat="45.32802" lon="6.7146">
        <ele>2703.364258</ele>
        <time>2010-10-07T10:09:16Z</time>
      </trkpt>
      <trkpt lat="45.32796" lon="6.71453">
        <ele>2703.364258</ele>
        <time>2010-10-07T10:09:22Z</time>
      </trkpt>
      <trkpt lat="45.32792" lon="6.71451">
        <ele>2704.325684</ele>
        <time>2010-10-07T10:09:26Z</time>
      </trkpt>
      <trkpt lat="45.32786" lon="6.71447">
        <ele>2704.806152</ele>
        <time>2010-10-07T10:09:32Z</time>
      </trkpt>
      <trkpt lat="45.32784" lon="6.71446">
        <ele>2704.806152</ele>
        <time>2010-10-07T10:09:34Z</time>
      </trkpt>
      <trkpt lat="45.3278" lon="6.71443">
        <ele>2705.287109</ele>
        <time>2010-10-07T10:09:40Z</time>
      </trkpt>
      <trkpt lat="45.32776" lon="6.71442">
        <ele>2705.767578</ele>
        <time>2010-10-07T10:09:46Z</time>
      </trkpt>
      <trkpt lat="45.32772" lon="6.71441">
        <ele>2704.806152</ele>
        <time>2010-10-07T10:09:51Z</time>
      </trkpt>
      <trkpt lat="45.32769" lon="6.71437">
        <ele>2703.364258</ele>
        <time>2010-10-07T10:09:56Z</time>
      </trkpt>
      <trkpt lat="45.32769" lon="6.71435">
        <ele>2702.883789</ele>
        <time>2010-10-07T10:10:02Z</time>
      </trkpt>
      <trkpt lat="45.32769" lon="6.71433">
        <ele>2702.883789</ele>
        <time>2010-10-07T10:10:10Z</time>
      </trkpt>
      <trkpt lat="45.32769" lon="6.71433">
        <ele>2703.845215</ele>
        <time>2010-10-07T10:10:19Z</time>
      </trkpt>
      <trkpt lat="45.3277" lon="6.71432">
        <ele>2704.806152</ele>
        <time>2010-10-07T10:10:38Z</time>
      </trkpt>
      <trkpt lat="45.3277" lon="6.71433">
        <ele>2704.806152</ele>
        <time>2010-10-07T10:10:45Z</time>
      </trkpt>
      <trkpt lat="45.32773" lon="6.71435">
        <ele>2704.806152</ele>
        <time>2010-10-07T10:10:56Z</time>
      </trkpt>
      <trkpt lat="45.32774" lon="6.71437">
        <ele>2705.287109</ele>
        <time>2010-10-07T10:11:04Z</time>
      </trkpt>
      <trkpt lat="45.32775" lon="6.7144">
        <ele>2706.248535</ele>
        <time>2010-10-07T10:11:16Z</time>
      </trkpt>
      <trkpt lat="45.32778" lon="6.71443">
        <ele>2706.248535</ele>
        <time>2010-10-07T10:11:40Z</time>
      </trkpt>
      <trkpt lat="45.32781" lon="6.71445">
        <ele>2707.209473</ele>
        <time>2010-10-07T10:11:47Z</time>
      </trkpt>
      <trkpt lat="45.32782" lon="6.71445">
        <ele>2705.767578</ele>
        <time>2010-10-07T10:12:04Z</time>
      </trkpt>
      <trkpt lat="45.3279" lon="6.71447">
        <ele>2704.325684</ele>
        <time>2010-10-07T10:12:10Z</time>
      </trkpt>
      <trkpt lat="45.32791" lon="6.71448">
        <ele>2704.325684</ele>
        <time>2010-10-07T10:12:11Z</time>
      </trkpt>
      <trkpt lat="45.328" lon="6.71456">
        <ele>2702.40332</ele>
        <time>2010-10-07T10:12:20Z</time>
      </trkpt>
      <trkpt lat="45.32806" lon="6.71463">
        <ele>2703.364258</ele>
        <time>2010-10-07T10:12:27Z</time>
      </trkpt>
      <trkpt lat="45.32811" lon="6.7147">
        <ele>2704.325684</ele>
        <time>2010-10-07T10:12:34Z</time>
      </trkpt>
      <trkpt lat="45.32814" lon="6.71475">
        <ele>2705.767578</ele>
        <time>2010-10-07T10:12:40Z</time>
      </trkpt>
      <trkpt lat="45.32817" lon="6.71481">
        <ele>2705.767578</ele>
        <time>2010-10-07T10:12:46Z</time>
      </trkpt>
      <trkpt lat="45.32819" lon="6.71483">
        <ele>2705.767578</ele>
        <time>2010-10-07T10:12:50Z</time>
      </trkpt>
      <trkpt lat="45.32822" lon="6.71486">
        <ele>2706.729004</ele>
        <time>2010-10-07T10:12:54Z</time>
      </trkpt>
      <trkpt lat="45.32826" lon="6.71488">
        <ele>2708.171387</ele>
        <time>2010-10-07T10:12:58Z</time>
      </trkpt>
      <trkpt lat="45.32828" lon="6.71492">
        <ele>2709.132812</ele>
        <time>2010-10-07T10:13:03Z</time>
      </trkpt>
      <trkpt lat="45.32829" lon="6.71495">
        <ele>2710.094238</ele>
        <time>2010-10-07T10:13:07Z</time>
      </trkpt>
      <trkpt lat="45.32829" lon="6.71498">
        <ele>2711.055176</ele>
        <time>2010-10-07T10:13:12Z</time>
      </trkpt>
      <trkpt lat="45.3283" lon="6.71501">
        <ele>2711.536133</ele>
        <time>2010-10-07T10:13:17Z</time>
      </trkpt>
      <trkpt lat="45.32832" lon="6.71504">
        <ele>2712.978027</ele>
        <time>2010-10-07T10:13:22Z</time>
      </trkpt>
      <trkpt lat="45.32834" lon="6.71505">
        <ele>2713.939453</ele>
        <time>2010-10-07T10:13:27Z</time>
      </trkpt>
      <trkpt lat="45.32836" lon="6.71505">
        <ele>2714.419922</ele>
        <time>2010-10-07T10:13:32Z</time>
      </trkpt>
      <trkpt lat="45.32838" lon="6.71505">
        <ele>2715.381348</ele>
        <time>2010-10-07T10:13:36Z</time>
      </trkpt>
      <trkpt lat="45.32841" lon="6.71506">
        <ele>2716.342773</ele>
        <time>2010-10-07T10:13:42Z</time>
      </trkpt>
      <trkpt lat="45.32845" lon="6.71507">
        <ele>2717.784668</ele>
        <time>2010-10-07T10:13:47Z</time>
      </trkpt>
      <trkpt lat="45.3285" lon="6.7151">
        <ele>2718.745605</ele>
        <time>2010-10-07T10:13:53Z</time>
      </trkpt>
      <trkpt lat="45.32854" lon="6.71511">
        <ele>2720.1875</ele>
        <time>2010-10-07T10:13:59Z</time>
      </trkpt>
      <trkpt lat="45.32857" lon="6.71511">
        <ele>2721.629883</ele>
        <time>2010-10-07T10:14:04Z</time>
      </trkpt>
      <trkpt lat="45.32859" lon="6.71512">
        <ele>2722.110352</ele>
        <time>2010-10-07T10:14:08Z</time>
      </trkpt>
      <trkpt lat="45.32859" lon="6.71515">
        <ele>2722.59082</ele>
        <time>2010-10-07T10:14:12Z</time>
      </trkpt>
      <trkpt lat="45.32861" lon="6.71517">
        <ele>2723.552246</ele>
        <time>2010-10-07T10:14:16Z</time>
      </trkpt>
      <trkpt lat="45.32862" lon="6.71518">
        <ele>2724.513672</ele>
        <time>2010-10-07T10:14:21Z</time>
      </trkpt>
      <trkpt lat="45.32865" lon="6.7152">
        <ele>2725.955566</ele>
        <time>2010-10-07T10:14:26Z</time>
      </trkpt>
      <trkpt lat="45.32866" lon="6.71522">
        <ele>2725.955566</ele>
        <time>2010-10-07T10:14:31Z</time>
      </trkpt>
      <trkpt lat="45.32868" lon="6.71523">
        <ele>2727.397461</ele>
        <time>2010-10-07T10:14:36Z</time>
      </trkpt>
      <trkpt lat="45.32869" lon="6.71526">
        <ele>2727.87793</ele>
        <time>2010-10-07T10:14:41Z</time>
      </trkpt>
      <trkpt lat="45.32871" lon="6.71526">
        <ele>2729.320312</ele>
        <time>2010-10-07T10:14:47Z</time>
      </trkpt>
      <trkpt lat="45.32875" lon="6.71526">
        <ele>2729.800781</ele>
        <time>2010-10-07T10:14:52Z</time>
      </trkpt>
      <trkpt lat="45.32877" lon="6.71527">
        <ele>2730.762207</ele>
        <time>2010-10-07T10:14:56Z</time>
      </trkpt>
      <trkpt lat="45.32878" lon="6.71528">
        <ele>2732.204102</ele>
        <time>2010-10-07T10:15:01Z</time>
      </trkpt>
      <trkpt lat="45.32881" lon="6.71526">
        <ele>2733.165527</ele>
        <time>2010-10-07T10:15:06Z</time>
      </trkpt>
      <trkpt lat="45.32885" lon="6.71527">
        <ele>2734.607422</ele>
        <time>2010-10-07T10:15:12Z</time>
      </trkpt>
      <trkpt lat="45.32887" lon="6.71527">
        <ele>2735.568359</ele>
        <time>2010-10-07T10:15:16Z</time>
      </trkpt>
      <trkpt lat="45.32891" lon="6.71528">
        <ele>2736.529785</ele>
        <time>2010-10-07T10:15:22Z</time>
      </trkpt>
      <trkpt lat="45.32896" lon="6.71527">
        <ele>2736.529785</ele>
        <time>2010-10-07T10:15:27Z</time>
      </trkpt>
      <trkpt lat="45.329" lon="6.71527">
        <ele>2737.010742</ele>
        <time>2010-10-07T10:15:31Z</time>
      </trkpt>
      <trkpt lat="45.32904" lon="6.71527">
        <ele>2737.491211</ele>
        <time>2010-10-07T10:15:36Z</time>
      </trkpt>
      <trkpt lat="45.32905" lon="6.71525">
        <ele>2737.97168</ele>
        <time>2010-10-07T10:15:40Z</time>
      </trkpt>
      <trkpt lat="45.32906" lon="6.71524">
        <ele>2738.933105</ele>
        <time>2010-10-07T10:15:45Z</time>
      </trkpt>
      <trkpt lat="45.32908" lon="6.71522">
        <ele>2739.414062</ele>
        <time>2010-10-07T10:15:49Z</time>
      </trkpt>
      <trkpt lat="45.3291" lon="6.71523">
        <ele>2740.375488</ele>
        <time>2010-10-07T10:15:55Z</time>
      </trkpt>
      <trkpt lat="45.32912" lon="6.71524">
        <ele>2740.856445</ele>
        <time>2010-10-07T10:16:00Z</time>
      </trkpt>
      <trkpt lat="45.32913" lon="6.71526">
        <ele>2741.336914</ele>
        <time>2010-10-07T10:16:05Z</time>
      </trkpt>
      <trkpt lat="45.32914" lon="6.71522">
        <ele>2742.29834</ele>
        <time>2010-10-07T10:16:31Z</time>
      </trkpt>
      <trkpt lat="45.32915" lon="6.7152">
        <ele>2742.29834</ele>
        <time>2010-10-07T10:16:32Z</time>
      </trkpt>
      <trkpt lat="45.32919" lon="6.71515">
        <ele>2743.740234</ele>
        <time>2010-10-07T10:16:39Z</time>
      </trkpt>
      <trkpt lat="45.32923" lon="6.71513">
        <ele>2744.220703</ele>
        <time>2010-10-07T10:16:44Z</time>
      </trkpt>
      <trkpt lat="45.32926" lon="6.71512">
        <ele>2745.662598</ele>
        <time>2010-10-07T10:16:49Z</time>
      </trkpt>
      <trkpt lat="45.32928" lon="6.71513">
        <ele>2746.143555</ele>
        <time>2010-10-07T10:16:56Z</time>
      </trkpt>
      <trkpt lat="45.32929" lon="6.71512">
        <ele>2748.546875</ele>
        <time>2010-10-07T10:17:33Z</time>
      </trkpt>
      <trkpt lat="45.32929" lon="6.71512">
        <ele>2748.546875</ele>
        <time>2010-10-07T10:17:42Z</time>
      </trkpt>
      <trkpt lat="45.32927" lon="6.71515">
        <ele>2748.065918</ele>
        <time>2010-10-07T10:19:41Z</time>
      </trkpt>
      <trkpt lat="45.32925" lon="6.71512">
        <ele>2746.624023</ele>
        <time>2010-10-07T10:19:47Z</time>
      </trkpt>
      <trkpt lat="45.32925" lon="6.71508">
        <ele>2744.70166</ele>
        <time>2010-10-07T10:19:54Z</time>
      </trkpt>
      <trkpt lat="45.32925" lon="6.71504">
        <ele>2741.336914</ele>
        <time>2010-10-07T10:20:27Z</time>
      </trkpt>
      <trkpt lat="45.32923" lon="6.715">
        <ele>2739.894531</ele>
        <time>2010-10-07T10:20:34Z</time>
      </trkpt>
      <trkpt lat="45.32924" lon="6.71498">
        <ele>2738.933105</ele>
        <time>2010-10-07T10:20:41Z</time>
      </trkpt>
      <trkpt lat="45.32927" lon="6.71497">
        <ele>2737.97168</ele>
        <time>2010-10-07T10:20:46Z</time>
      </trkpt>
      <trkpt lat="45.32928" lon="6.71496">
        <ele>2736.529785</ele>
        <time>2010-10-07T10:20:52Z</time>
      </trkpt>
      <trkpt lat="45.32926" lon="6.71493">
        <ele>2735.087891</ele>
        <time>2010-10-07T10:20:58Z</time>
      </trkpt>
      <trkpt lat="45.32925" lon="6.7149">
        <ele>2733.645996</ele>
        <time>2010-10-07T10:21:03Z</time>
      </trkpt>
      <trkpt lat="45.32924" lon="6.71487">
        <ele>2733.165527</ele>
        <time>2010-10-07T10:21:07Z</time>
      </trkpt>
      <trkpt lat="45.32925" lon="6.71485">
        <ele>2731.723633</ele>
        <time>2010-10-07T10:21:12Z</time>
      </trkpt>
      <trkpt lat="45.32928" lon="6.71486">
        <ele>2730.28125</ele>
        <time>2010-10-07T10:21:17Z</time>
      </trkpt>
      <trkpt lat="45.32933" lon="6.71487">
        <ele>2729.800781</ele>
        <time>2010-10-07T10:21:23Z</time>
      </trkpt>
      <trkpt lat="45.32935" lon="6.71486">
        <ele>2728.358887</ele>
        <time>2010-10-07T10:21:29Z</time>
      </trkpt>
      <trkpt lat="45.32933" lon="6.71485">
        <ele>2728.358887</ele>
        <time>2010-10-07T10:21:32Z</time>
      </trkpt>
      <trkpt lat="45.32932" lon="6.71482">
        <ele>2726.436035</ele>
        <time>2010-10-07T10:21:38Z</time>
      </trkpt>
      <trkpt lat="45.32936" lon="6.71482">
        <ele>2725.955566</ele>
        <time>2010-10-07T10:21:44Z</time>
      </trkpt>
      <trkpt lat="45.32934" lon="6.71479">
        <ele>2725.475098</ele>
        <time>2010-10-07T10:21:48Z</time>
      </trkpt>
      <trkpt lat="45.32935" lon="6.71477">
        <ele>2724.513672</ele>
        <time>2010-10-07T10:21:52Z</time>
      </trkpt>
      <trkpt lat="45.32939" lon="6.71479">
        <ele>2723.552246</ele>
        <time>2010-10-07T10:21:56Z</time>
      </trkpt>
      <trkpt lat="45.32942" lon="6.71478">
        <ele>2722.59082</ele>
        <time>2010-10-07T10:22:02Z</time>
      </trkpt>
      <trkpt lat="45.32942" lon="6.71475">
        <ele>2722.110352</ele>
        <time>2010-10-07T10:22:07Z</time>
      </trkpt>
      <trkpt lat="45.32944" lon="6.71473">
        <ele>2721.629883</ele>
        <time>2010-10-07T10:22:11Z</time>
      </trkpt>
      <trkpt lat="45.32947" lon="6.71471">
        <ele>2720.668457</ele>
        <time>2010-10-07T10:22:15Z</time>
      </trkpt>
      <trkpt lat="45.32951" lon="6.71469">
        <ele>2719.707031</ele>
        <time>2010-10-07T10:22:21Z</time>
      </trkpt>
      <trkpt lat="45.32952" lon="6.71468">
        <ele>2718.745605</ele>
        <time>2010-10-07T10:22:26Z</time>
      </trkpt>
      <trkpt lat="45.32956" lon="6.71465">
        <ele>2717.784668</ele>
        <time>2010-10-07T10:22:32Z</time>
      </trkpt>
      <trkpt lat="45.3296" lon="6.71466">
        <ele>2715.861816</ele>
        <time>2010-10-07T10:22:38Z</time>
      </trkpt>
      <trkpt lat="45.32964" lon="6.71467">
        <ele>2714.419922</ele>
        <time>2010-10-07T10:22:43Z</time>
      </trkpt>
      <trkpt lat="45.32968" lon="6.71469">
        <ele>2712.49707</ele>
        <time>2010-10-07T10:22:50Z</time>
      </trkpt>
      <trkpt lat="45.32974" lon="6.71469">
        <ele>2710.574707</ele>
        <time>2010-10-07T10:22:57Z</time>
      </trkpt>
      <trkpt lat="45.32976" lon="6.7147">
        <ele>2709.613281</ele>
        <time>2010-10-07T10:23:03Z</time>
      </trkpt>
      <trkpt lat="45.32981" lon="6.7147">
        <ele>2706.729004</ele>
        <time>2010-10-07T10:23:10Z</time>
      </trkpt>
      <trkpt lat="45.32985" lon="6.71468">
        <ele>2705.767578</ele>
        <time>2010-10-07T10:23:17Z</time>
      </trkpt>
      <trkpt lat="45.32989" lon="6.71467">
        <ele>2704.806152</ele>
        <time>2010-10-07T10:23:23Z</time>
      </trkpt>
      <trkpt lat="45.3299" lon="6.71466">
        <ele>2704.325684</ele>
        <time>2010-10-07T10:23:29Z</time>
      </trkpt>
      <trkpt lat="45.32991" lon="6.71461">
        <ele>2703.364258</ele>
        <time>2010-10-07T10:23:39Z</time>
      </trkpt>
      <trkpt lat="45.32991" lon="6.71456">
        <ele>2702.40332</ele>
        <time>2010-10-07T10:23:44Z</time>
      </trkpt>
      <trkpt lat="45.32992" lon="6.71452">
        <ele>2701.441895</ele>
        <time>2010-10-07T10:23:49Z</time>
      </trkpt>
      <trkpt lat="45.32994" lon="6.7145">
        <ele>2700</ele>
        <time>2010-10-07T10:23:55Z</time>
      </trkpt>
      <trkpt lat="45.32997" lon="6.71449">
        <ele>2699.519043</ele>
        <time>2010-10-07T10:24:01Z</time>
      </trkpt>
      <trkpt lat="45.33" lon="6.71447">
        <ele>2698.558105</ele>
        <time>2010-10-07T10:24:06Z</time>
      </trkpt>
      <trkpt lat="45.33001" lon="6.71444">
        <ele>2697.59668</ele>
        <time>2010-10-07T10:24:10Z</time>
      </trkpt>
      <trkpt lat="45.33003" lon="6.71438">
        <ele>2695.673828</ele>
        <time>2010-10-07T10:24:16Z</time>
      </trkpt>
      <trkpt lat="45.33007" lon="6.71433">
        <ele>2694.712891</ele>
        <time>2010-10-07T10:24:21Z</time>
      </trkpt>
      <trkpt lat="45.3301" lon="6.71431">
        <ele>2693.751465</ele>
        <time>2010-10-07T10:24:27Z</time>
      </trkpt>
      <trkpt lat="45.33013" lon="6.7143">
        <ele>2691.828613</ele>
        <time>2010-10-07T10:24:34Z</time>
      </trkpt>
      <trkpt lat="45.33014" lon="6.71426">
        <ele>2691.348145</ele>
        <time>2010-10-07T10:24:49Z</time>
      </trkpt>
      <trkpt lat="45.33016" lon="6.71422">
        <ele>2688.944824</ele>
        <time>2010-10-07T10:24:55Z</time>
      </trkpt>
      <trkpt lat="45.33019" lon="6.71422">
        <ele>2687.50293</ele>
        <time>2010-10-07T10:25:00Z</time>
      </trkpt>
      <trkpt lat="45.3302" lon="6.71418">
        <ele>2685.580566</ele>
        <time>2010-10-07T10:25:05Z</time>
      </trkpt>
      <trkpt lat="45.33023" lon="6.71414">
        <ele>2683.657715</ele>
        <time>2010-10-07T10:25:11Z</time>
      </trkpt>
      <trkpt lat="45.33026" lon="6.71409">
        <ele>2681.254395</ele>
        <time>2010-10-07T10:25:18Z</time>
      </trkpt>
      <trkpt lat="45.33027" lon="6.71403">
        <ele>2680.773926</ele>
        <time>2010-10-07T10:25:26Z</time>
      </trkpt>
      <trkpt lat="45.33029" lon="6.71399">
        <ele>2679.332031</ele>
        <time>2010-10-07T10:25:33Z</time>
      </trkpt>
      <trkpt lat="45.33033" lon="6.71395">
        <ele>2677.40918</ele>
        <time>2010-10-07T10:25:39Z</time>
      </trkpt>
      <trkpt lat="45.33036" lon="6.7139">
        <ele>2675.486328</ele>
        <time>2010-10-07T10:25:45Z</time>
      </trkpt>
      <trkpt lat="45.33038" lon="6.71387">
        <ele>2674.524902</ele>
        <time>2010-10-07T10:25:50Z</time>
      </trkpt>
      <trkpt lat="45.33041" lon="6.71384">
        <ele>2674.043945</ele>
        <time>2010-10-07T10:25:55Z</time>
      </trkpt>
      <trkpt lat="45.33045" lon="6.71379">
        <ele>2673.083008</ele>
        <time>2010-10-07T10:26:02Z</time>
      </trkpt>
      <trkpt lat="45.33049" lon="6.71374">
        <ele>2670.679688</ele>
        <time>2010-10-07T10:26:09Z</time>
      </trkpt>
      <trkpt lat="45.33051" lon="6.71374">
        <ele>2669.718262</ele>
        <time>2010-10-07T10:26:13Z</time>
      </trkpt>
      <trkpt lat="45.33055" lon="6.71374">
        <ele>2669.237793</ele>
        <time>2010-10-07T10:26:17Z</time>
      </trkpt>
      <trkpt lat="45.33058" lon="6.71371">
        <ele>2667.795898</ele>
        <time>2010-10-07T10:26:22Z</time>
      </trkpt>
      <trkpt lat="45.33061" lon="6.7137">
        <ele>2665.873047</ele>
        <time>2010-10-07T10:26:27Z</time>
      </trkpt>
      <trkpt lat="45.33062" lon="6.7137">
        <ele>2663.950684</ele>
        <time>2010-10-07T10:26:33Z</time>
      </trkpt>
      <trkpt lat="45.33065" lon="6.71367">
        <ele>2663.950684</ele>
        <time>2010-10-07T10:26:57Z</time>
      </trkpt>
      <trkpt lat="45.33068" lon="6.71365">
        <ele>2662.989258</ele>
        <time>2010-10-07T10:27:02Z</time>
      </trkpt>
      <trkpt lat="45.33071" lon="6.71366">
        <ele>2662.027832</ele>
        <time>2010-10-07T10:27:09Z</time>
      </trkpt>
      <trkpt lat="45.33071" lon="6.71366">
        <ele>2661.547363</ele>
        <time>2010-10-07T10:27:20Z</time>
      </trkpt>
      <trkpt lat="45.33072" lon="6.71366">
        <ele>2662.027832</ele>
        <time>2010-10-07T10:27:30Z</time>
      </trkpt>
      <trkpt lat="45.33075" lon="6.71365">
        <ele>2660.585938</ele>
        <time>2010-10-07T10:27:43Z</time>
      </trkpt>
      <trkpt lat="45.33081" lon="6.71365">
        <ele>2658.182617</ele>
        <time>2010-10-07T10:27:51Z</time>
      </trkpt>
      <trkpt lat="45.33086" lon="6.71364">
        <ele>2655.298828</ele>
        <time>2010-10-07T10:27:58Z</time>
      </trkpt>
      <trkpt lat="45.33091" lon="6.71359">
        <ele>2651.934082</ele>
        <time>2010-10-07T10:28:03Z</time>
      </trkpt>
      <trkpt lat="45.33092" lon="6.71357">
        <ele>2650.972656</ele>
        <time>2010-10-07T10:28:05Z</time>
      </trkpt>
      <trkpt lat="45.33097" lon="6.71352">
        <ele>2649.050293</ele>
        <time>2010-10-07T10:28:10Z</time>
      </trkpt>
      <trkpt lat="45.33101" lon="6.7135">
        <ele>2648.088867</ele>
        <time>2010-10-07T10:28:15Z</time>
      </trkpt>
      <trkpt lat="45.33103" lon="6.71349">
        <ele>2648.088867</ele>
        <time>2010-10-07T10:28:17Z</time>
      </trkpt>
      <trkpt lat="45.33107" lon="6.71344">
        <ele>2647.12793</ele>
        <time>2010-10-07T10:28:21Z</time>
      </trkpt>
      <trkpt lat="45.33111" lon="6.71343">
        <ele>2646.166504</ele>
        <time>2010-10-07T10:28:27Z</time>
      </trkpt>
      <trkpt lat="45.33116" lon="6.71342">
        <ele>2645.205078</ele>
        <time>2010-10-07T10:28:33Z</time>
      </trkpt>
      <trkpt lat="45.33116" lon="6.71341">
        <ele>2645.205078</ele>
        <time>2010-10-07T10:28:40Z</time>
      </trkpt>
      <trkpt lat="45.33116" lon="6.7134">
        <ele>2643.762695</ele>
        <time>2010-10-07T10:28:48Z</time>
      </trkpt>
      <trkpt lat="45.33117" lon="6.7134">
        <ele>2643.281738</ele>
        <time>2010-10-07T10:28:56Z</time>
      </trkpt>
      <trkpt lat="45.33116" lon="6.7134">
        <ele>2642.320801</ele>
        <time>2010-10-07T10:29:01Z</time>
      </trkpt>
      <trkpt lat="45.33114" lon="6.71339">
        <ele>2642.80127</ele>
        <time>2010-10-07T11:33:14Z</time>
      </trkpt>
      <trkpt lat="45.33114" lon="6.71339">
        <ele>2642.80127</ele>
        <time>2010-10-07T11:33:15Z</time>
      </trkpt>
      <trkpt lat="45.33115" lon="6.71339">
        <ele>2642.80127</ele>
        <time>2010-10-07T11:33:21Z</time>
      </trkpt>
      <trkpt lat="45.33115" lon="6.71339">
        <ele>2643.762695</ele>
        <time>2010-10-07T11:33:27Z</time>
      </trkpt>
      <trkpt lat="45.33117" lon="6.71337">
        <ele>2644.243652</ele>
        <time>2010-10-07T11:33:34Z</time>
      </trkpt>
      <trkpt lat="45.3312" lon="6.71336">
        <ele>2643.762695</ele>
        <time>2010-10-07T11:33:39Z</time>
      </trkpt>
      <trkpt lat="45.33124" lon="6.71333">
        <ele>2642.320801</ele>
        <time>2010-10-07T11:33:45Z</time>
      </trkpt>
      <trkpt lat="45.33126" lon="6.71332">
        <ele>2641.359375</ele>
        <time>2010-10-07T11:33:49Z</time>
      </trkpt>
      <trkpt lat="45.33129" lon="6.71332">
        <ele>2639.437012</ele>
        <time>2010-10-07T11:33:56Z</time>
      </trkpt>
      <trkpt lat="45.33131" lon="6.71334">
        <ele>2637.51416</ele>
        <time>2010-10-07T11:34:01Z</time>
      </trkpt>
      <trkpt lat="45.33132" lon="6.71333">
        <ele>2636.552734</ele>
        <time>2010-10-07T11:34:06Z</time>
      </trkpt>
      <trkpt lat="45.33135" lon="6.7133">
        <ele>2634.630371</ele>
        <time>2010-10-07T11:34:11Z</time>
      </trkpt>
      <trkpt lat="45.33136" lon="6.71329">
        <ele>2634.149414</ele>
        <time>2010-10-07T11:34:16Z</time>
      </trkpt>
      <trkpt lat="45.33135" lon="6.71327">
        <ele>2634.630371</ele>
        <time>2010-10-07T11:34:25Z</time>
      </trkpt>
      <trkpt lat="45.33133" lon="6.71323">
        <ele>2632.70752</ele>
        <time>2010-10-07T11:34:31Z</time>
      </trkpt>
      <trkpt lat="45.33135" lon="6.71322">
        <ele>2630.785156</ele>
        <time>2010-10-07T11:34:36Z</time>
      </trkpt>
      <trkpt lat="45.33137" lon="6.71323">
        <ele>2631.265625</ele>
        <time>2010-10-07T11:34:41Z</time>
      </trkpt>
      <trkpt lat="45.33135" lon="6.71323">
        <ele>2630.785156</ele>
        <time>2010-10-07T11:34:52Z</time>
      </trkpt>
      <trkpt lat="45.33134" lon="6.71322">
        <ele>2629.343262</ele>
        <time>2010-10-07T11:35:03Z</time>
      </trkpt>
      <trkpt lat="45.33131" lon="6.71317">
        <ele>2628.381836</ele>
        <time>2010-10-07T11:35:13Z</time>
      </trkpt>
      <trkpt lat="45.33131" lon="6.71316">
        <ele>2627.900879</ele>
        <time>2010-10-07T11:35:19Z</time>
      </trkpt>
      <trkpt lat="45.33129" lon="6.71313">
        <ele>2627.42041</ele>
        <time>2010-10-07T11:35:27Z</time>
      </trkpt>
      <trkpt lat="45.33126" lon="6.7131">
        <ele>2626.458984</ele>
        <time>2010-10-07T11:35:33Z</time>
      </trkpt>
      <trkpt lat="45.33122" lon="6.71307">
        <ele>2625.498047</ele>
        <time>2010-10-07T11:35:40Z</time>
      </trkpt>
      <trkpt lat="45.3312" lon="6.71305">
        <ele>2624.536621</ele>
        <time>2010-10-07T11:35:53Z</time>
      </trkpt>
      <trkpt lat="45.33116" lon="6.71301">
        <ele>2623.094727</ele>
        <time>2010-10-07T11:35:58Z</time>
      </trkpt>
      <trkpt lat="45.33114" lon="6.71295">
        <ele>2620.691406</ele>
        <time>2010-10-07T11:36:04Z</time>
      </trkpt>
      <trkpt lat="45.33117" lon="6.71292">
        <ele>2619.72998</ele>
        <time>2010-10-07T11:36:09Z</time>
      </trkpt>
      <trkpt lat="45.33117" lon="6.71292">
        <ele>2619.249512</ele>
        <time>2010-10-07T11:36:15Z</time>
      </trkpt>
      <trkpt lat="45.33117" lon="6.71289">
        <ele>2618.288086</ele>
        <time>2010-10-07T11:36:28Z</time>
      </trkpt>
      <trkpt lat="45.33118" lon="6.71287">
        <ele>2617.32666</ele>
        <time>2010-10-07T11:36:33Z</time>
      </trkpt>
      <trkpt lat="45.33119" lon="6.71286">
        <ele>2615.884766</ele>
        <time>2010-10-07T11:36:39Z</time>
      </trkpt>
      <trkpt lat="45.33121" lon="6.71283">
        <ele>2613.962402</ele>
        <time>2010-10-07T11:36:43Z</time>
      </trkpt>
      <trkpt lat="45.33125" lon="6.71283">
        <ele>2613.000977</ele>
        <time>2010-10-07T11:36:48Z</time>
      </trkpt>
      <trkpt lat="45.33131" lon="6.71281">
        <ele>2610.597168</ele>
        <time>2010-10-07T11:36:55Z</time>
      </trkpt>
      <trkpt lat="45.33135" lon="6.7128">
        <ele>2608.674805</ele>
        <time>2010-10-07T11:37:00Z</time>
      </trkpt>
      <trkpt lat="45.33141" lon="6.71278">
        <ele>2607.232422</ele>
        <time>2010-10-07T11:37:06Z</time>
      </trkpt>
      <trkpt lat="45.33145" lon="6.71276">
        <ele>2605.790527</ele>
        <time>2010-10-07T11:37:12Z</time>
      </trkpt>
      <trkpt lat="45.33148" lon="6.71275">
        <ele>2604.348633</ele>
        <time>2010-10-07T11:37:19Z</time>
      </trkpt>
      <trkpt lat="45.33152" lon="6.71274">
        <ele>2602.906738</ele>
        <time>2010-10-07T11:37:25Z</time>
      </trkpt>
      <trkpt lat="45.33157" lon="6.71273">
        <ele>2602.42627</ele>
        <time>2010-10-07T11:37:30Z</time>
      </trkpt>
      <trkpt lat="45.33164" lon="6.71272">
        <ele>2601.464844</ele>
        <time>2010-10-07T11:37:37Z</time>
      </trkpt>
      <trkpt lat="45.33167" lon="6.71269">
        <ele>2599.541992</ele>
        <time>2010-10-07T11:37:43Z</time>
      </trkpt>
      <trkpt lat="45.3317" lon="6.71265">
        <ele>2597.619629</ele>
        <time>2010-10-07T11:37:49Z</time>
      </trkpt>
      <trkpt lat="45.33174" lon="6.71265">
        <ele>2596.658203</ele>
        <time>2010-10-07T11:37:53Z</time>
      </trkpt>
      <trkpt lat="45.33179" lon="6.71262">
        <ele>2596.177734</ele>
        <time>2010-10-07T11:37:58Z</time>
      </trkpt>
      <trkpt lat="45.33183" lon="6.71258">
        <ele>2595.697021</ele>
        <time>2010-10-07T11:38:02Z</time>
      </trkpt>
      <trkpt lat="45.33186" lon="6.71253">
        <ele>2595.216309</ele>
        <time>2010-10-07T11:38:07Z</time>
      </trkpt>
      <trkpt lat="45.33189" lon="6.71248">
        <ele>2594.735596</ele>
        <time>2010-10-07T11:38:13Z</time>
      </trkpt>
      <trkpt lat="45.33192" lon="6.71245">
        <ele>2593.774414</ele>
        <time>2010-10-07T11:38:19Z</time>
      </trkpt>
      <trkpt lat="45.33193" lon="6.71241">
        <ele>2592.812988</ele>
        <time>2010-10-07T11:38:24Z</time>
      </trkpt>
      <trkpt lat="45.33195" lon="6.71237">
        <ele>2592.33252</ele>
        <time>2010-10-07T11:38:30Z</time>
      </trkpt>
      <trkpt lat="45.33197" lon="6.71234">
        <ele>2592.33252</ele>
        <time>2010-10-07T11:38:36Z</time>
      </trkpt>
      <trkpt lat="45.33197" lon="6.71235">
        <ele>2593.293701</ele>
        <time>2010-10-07T11:38:44Z</time>
      </trkpt>
      <trkpt lat="45.33199" lon="6.71234">
        <ele>2592.33252</ele>
        <time>2010-10-07T11:38:54Z</time>
      </trkpt>
      <trkpt lat="45.33203" lon="6.71233">
        <ele>2590.409668</ele>
        <time>2010-10-07T11:39:01Z</time>
      </trkpt>
      <trkpt lat="45.33206" lon="6.71231">
        <ele>2589.929199</ele>
        <time>2010-10-07T11:39:06Z</time>
      </trkpt>
      <trkpt lat="45.33206" lon="6.7123">
        <ele>2589.929199</ele>
        <time>2010-10-07T11:39:13Z</time>
      </trkpt>
      <trkpt lat="45.33208" lon="6.71228">
        <ele>2588.487305</ele>
        <time>2010-10-07T11:39:17Z</time>
      </trkpt>
      <trkpt lat="45.33211" lon="6.71228">
        <ele>2587.044922</ele>
        <time>2010-10-07T11:39:22Z</time>
      </trkpt>
      <trkpt lat="45.33213" lon="6.71228">
        <ele>2585.122314</ele>
        <time>2010-10-07T11:39:30Z</time>
      </trkpt>
      <trkpt lat="45.3321" lon="6.71229">
        <ele>2585.122314</ele>
        <time>2010-10-07T11:39:46Z</time>
      </trkpt>
      <trkpt lat="45.33207" lon="6.71228">
        <ele>2584.641846</ele>
        <time>2010-10-07T11:39:52Z</time>
      </trkpt>
      <trkpt lat="45.33205" lon="6.71226">
        <ele>2584.641846</ele>
        <time>2010-10-07T11:39:56Z</time>
      </trkpt>
      <trkpt lat="45.33203" lon="6.71225">
        <ele>2583.68042</ele>
        <time>2010-10-07T11:40:02Z</time>
      </trkpt>
      <trkpt lat="45.33201" lon="6.71224">
        <ele>2583.68042</ele>
        <time>2010-10-07T11:40:08Z</time>
      </trkpt>
      <trkpt lat="45.33202" lon="6.71222">
        <ele>2584.641846</ele>
        <time>2010-10-07T11:40:15Z</time>
      </trkpt>
      <trkpt lat="45.33203" lon="6.71221">
        <ele>2585.122314</ele>
        <time>2010-10-07T11:40:22Z</time>
      </trkpt>
      <trkpt lat="45.33209" lon="6.71222">
        <ele>2584.641846</ele>
        <time>2010-10-07T11:40:29Z</time>
      </trkpt>
      <trkpt lat="45.33208" lon="6.71222">
        <ele>2582.718994</ele>
        <time>2010-10-07T11:40:44Z</time>
      </trkpt>
      <trkpt lat="45.33209" lon="6.71222">
        <ele>2583.199707</ele>
        <time>2010-10-07T11:40:53Z</time>
      </trkpt>
      <trkpt lat="45.33208" lon="6.71221">
        <ele>2582.238525</ele>
        <time>2010-10-07T11:41:04Z</time>
      </trkpt>
      <trkpt lat="45.33207" lon="6.71218">
        <ele>2580.796631</ele>
        <time>2010-10-07T11:41:09Z</time>
      </trkpt>
      <trkpt lat="45.33207" lon="6.71218">
        <ele>2579.354492</ele>
        <time>2010-10-07T11:41:15Z</time>
      </trkpt>
      <trkpt lat="45.33206" lon="6.71218">
        <ele>2577.431885</ele>
        <time>2010-10-07T11:41:25Z</time>
      </trkpt>
      <trkpt lat="45.33207" lon="6.71216">
        <ele>2576.470703</ele>
        <time>2010-10-07T11:41:41Z</time>
      </trkpt>
      <trkpt lat="45.33205" lon="6.71212">
        <ele>2575.028564</ele>
        <time>2010-10-07T11:41:46Z</time>
      </trkpt>
      <trkpt lat="45.33212" lon="6.71211">
        <ele>2575.028564</ele>
        <time>2010-10-07T11:41:51Z</time>
      </trkpt>
      <trkpt lat="45.33218" lon="6.71212">
        <ele>2573.106201</ele>
        <time>2010-10-07T11:41:59Z</time>
      </trkpt>
      <trkpt lat="45.3322" lon="6.71214">
        <ele>2570.702637</ele>
        <time>2010-10-07T11:42:04Z</time>
      </trkpt>
      <trkpt lat="45.33219" lon="6.71214">
        <ele>2570.702637</ele>
        <time>2010-10-07T11:42:12Z</time>
      </trkpt>
      <trkpt lat="45.33218" lon="6.71211">
        <ele>2575.028564</ele>
        <time>2010-10-07T11:43:03Z</time>
      </trkpt>
      <trkpt lat="45.33215" lon="6.71207">
        <ele>2575.98999</ele>
        <time>2010-10-07T11:43:12Z</time>
      </trkpt>
      <trkpt lat="45.33212" lon="6.71205">
        <ele>2575.028564</ele>
        <time>2010-10-07T11:43:19Z</time>
      </trkpt>
      <trkpt lat="45.33212" lon="6.71204">
        <ele>2575.028564</ele>
        <time>2010-10-07T11:43:29Z</time>
      </trkpt>
      <trkpt lat="45.33211" lon="6.71203">
        <ele>2575.509277</ele>
        <time>2010-10-07T11:43:34Z</time>
      </trkpt>
      <trkpt lat="45.33215" lon="6.71205">
        <ele>2574.548096</ele>
        <time>2010-10-07T11:43:39Z</time>
      </trkpt>
      <trkpt lat="45.33218" lon="6.71208">
        <ele>2572.625488</ele>
        <time>2010-10-07T11:43:45Z</time>
      </trkpt>
      <trkpt lat="45.33222" lon="6.71212">
        <ele>2571.183105</ele>
        <time>2010-10-07T11:43:50Z</time>
      </trkpt>
      <trkpt lat="45.33225" lon="6.71216">
        <ele>2569.741211</ele>
        <time>2010-10-07T11:43:54Z</time>
      </trkpt>
      <trkpt lat="45.33228" lon="6.71219">
        <ele>2568.780029</ele>
        <time>2010-10-07T11:43:57Z</time>
      </trkpt>
      <trkpt lat="45.33231" lon="6.71223">
        <ele>2567.818604</ele>
        <time>2010-10-07T11:44:01Z</time>
      </trkpt>
      <trkpt lat="45.33233" lon="6.71228">
        <ele>2567.337891</ele>
        <time>2010-10-07T11:44:06Z</time>
      </trkpt>
      <trkpt lat="45.33236" lon="6.71234">
        <ele>2567.337891</ele>
        <time>2010-10-07T11:44:11Z</time>
      </trkpt>
      <trkpt lat="45.33234" lon="6.71234">
        <ele>2567.818604</ele>
        <time>2010-10-07T11:44:16Z</time>
      </trkpt>
      <trkpt lat="45.33236" lon="6.71234">
        <ele>2569.260742</ele>
        <time>2010-10-07T11:44:25Z</time>
      </trkpt>
      <trkpt lat="45.33236" lon="6.71239">
        <ele>2570.221924</ele>
        <time>2010-10-07T11:44:29Z</time>
      </trkpt>
      <trkpt lat="45.33236" lon="6.71242">
        <ele>2571.183105</ele>
        <time>2010-10-07T11:44:34Z</time>
      </trkpt>
      <trkpt lat="45.33238" lon="6.71243">
        <ele>2572.625488</ele>
        <time>2010-10-07T11:44:41Z</time>
      </trkpt>
      <trkpt lat="45.33242" lon="6.71244">
        <ele>2571.663818</ele>
        <time>2010-10-07T11:44:46Z</time>
      </trkpt>
      <trkpt lat="45.33247" lon="6.71244">
        <ele>2569.741211</ele>
        <time>2010-10-07T11:44:53Z</time>
      </trkpt>
      <trkpt lat="45.3325" lon="6.71243">
        <ele>2569.260742</ele>
        <time>2010-10-07T11:44:56Z</time>
      </trkpt>
      <trkpt lat="45.33253" lon="6.71243">
        <ele>2568.299316</ele>
        <time>2010-10-07T11:45:03Z</time>
      </trkpt>
      <trkpt lat="45.33251" lon="6.71242">
        <ele>2566.857422</ele>
        <time>2010-10-07T11:45:11Z</time>
      </trkpt>
      <trkpt lat="45.33254" lon="6.71238">
        <ele>2565.895996</ele>
        <time>2010-10-07T11:45:16Z</time>
      </trkpt>
      <trkpt lat="45.33257" lon="6.71237">
        <ele>2563.973389</ele>
        <time>2010-10-07T11:45:21Z</time>
      </trkpt>
      <trkpt lat="45.33259" lon="6.71236">
        <ele>2562.050781</ele>
        <time>2010-10-07T11:45:27Z</time>
      </trkpt>
      <trkpt lat="45.33259" lon="6.71232">
        <ele>2560.608887</ele>
        <time>2010-10-07T11:45:33Z</time>
      </trkpt>
      <trkpt lat="45.33262" lon="6.71233">
        <ele>2558.205566</ele>
        <time>2010-10-07T11:45:39Z</time>
      </trkpt>
      <trkpt lat="45.33262" lon="6.71233">
        <ele>2557.725098</ele>
        <time>2010-10-07T11:45:44Z</time>
      </trkpt>
      <trkpt lat="45.33263" lon="6.71234">
        <ele>2557.244385</ele>
        <time>2010-10-07T11:45:49Z</time>
      </trkpt>
      <trkpt lat="45.33264" lon="6.71234">
        <ele>2556.763672</ele>
        <time>2010-10-07T11:45:57Z</time>
      </trkpt>
      <trkpt lat="45.33266" lon="6.71235">
        <ele>2557.725098</ele>
        <time>2010-10-07T11:46:13Z</time>
      </trkpt>
      <trkpt lat="45.33266" lon="6.71239">
        <ele>2557.244385</ele>
        <time>2010-10-07T11:46:18Z</time>
      </trkpt>
      <trkpt lat="45.33265" lon="6.71242">
        <ele>2556.282959</ele>
        <time>2010-10-07T11:46:23Z</time>
      </trkpt>
      <trkpt lat="45.33266" lon="6.71241">
        <ele>2557.725098</ele>
        <time>2010-10-07T11:46:33Z</time>
      </trkpt>
      <trkpt lat="45.33268" lon="6.71237">
        <ele>2557.244385</ele>
        <time>2010-10-07T11:46:38Z</time>
      </trkpt>
      <trkpt lat="45.3327" lon="6.71238">
        <ele>2555.802002</ele>
        <time>2010-10-07T11:46:43Z</time>
      </trkpt>
      <trkpt lat="45.33274" lon="6.71237">
        <ele>2554.360107</ele>
        <time>2010-10-07T11:46:49Z</time>
      </trkpt>
      <trkpt lat="45.33276" lon="6.71229">
        <ele>2552.4375</ele>
        <time>2010-10-07T11:46:57Z</time>
      </trkpt>
      <trkpt lat="45.33278" lon="6.71227">
        <ele>2550.995605</ele>
        <time>2010-10-07T11:47:01Z</time>
      </trkpt>
      <trkpt lat="45.3328" lon="6.71228">
        <ele>2550.034424</ele>
        <time>2010-10-07T11:47:05Z</time>
      </trkpt>
      <trkpt lat="45.33283" lon="6.71227">
        <ele>2549.072998</ele>
        <time>2010-10-07T11:47:11Z</time>
      </trkpt>
      <trkpt lat="45.33285" lon="6.71228">
        <ele>2547.631104</ele>
        <time>2010-10-07T11:47:15Z</time>
      </trkpt>
      <trkpt lat="45.33287" lon="6.7123">
        <ele>2546.189209</ele>
        <time>2010-10-07T11:47:20Z</time>
      </trkpt>
      <trkpt lat="45.33289" lon="6.71224">
        <ele>2544.74707</ele>
        <time>2010-10-07T11:47:26Z</time>
      </trkpt>
      <trkpt lat="45.33291" lon="6.71224">
        <ele>2543.305176</ele>
        <time>2010-10-07T11:47:31Z</time>
      </trkpt>
      <trkpt lat="45.33294" lon="6.71226">
        <ele>2541.863281</ele>
        <time>2010-10-07T11:47:36Z</time>
      </trkpt>
      <trkpt lat="45.33295" lon="6.71229">
        <ele>2539.94043</ele>
        <time>2010-10-07T11:47:42Z</time>
      </trkpt>
      <trkpt lat="45.33298" lon="6.71228">
        <ele>2538.498535</ele>
        <time>2010-10-07T11:47:46Z</time>
      </trkpt>
      <trkpt lat="45.33301" lon="6.71224">
        <ele>2536.575684</ele>
        <time>2010-10-07T11:47:51Z</time>
      </trkpt>
      <trkpt lat="45.33301" lon="6.71219">
        <ele>2537.056396</ele>
        <time>2010-10-07T11:47:56Z</time>
      </trkpt>
      <trkpt lat="45.33302" lon="6.71213">
        <ele>2537.537109</ele>
        <time>2010-10-07T11:48:01Z</time>
      </trkpt>
      <trkpt lat="45.33304" lon="6.71211">
        <ele>2536.575684</ele>
        <time>2010-10-07T11:48:06Z</time>
      </trkpt>
      <trkpt lat="45.33308" lon="6.71213">
        <ele>2535.614502</ele>
        <time>2010-10-07T11:48:12Z</time>
      </trkpt>
      <trkpt lat="45.33309" lon="6.71211">
        <ele>2534.172607</ele>
        <time>2010-10-07T11:48:19Z</time>
      </trkpt>
      <trkpt lat="45.33311" lon="6.71209">
        <ele>2533.211182</ele>
        <time>2010-10-07T11:48:24Z</time>
      </trkpt>
      <trkpt lat="45.33315" lon="6.71209">
        <ele>2530.808105</ele>
        <time>2010-10-07T11:48:29Z</time>
      </trkpt>
      <trkpt lat="45.3332" lon="6.7121">
        <ele>2527.443359</ele>
        <time>2010-10-07T11:48:35Z</time>
      </trkpt>
      <trkpt lat="45.33322" lon="6.71211">
        <ele>2525.520752</ele>
        <time>2010-10-07T11:48:39Z</time>
      </trkpt>
      <trkpt lat="45.33326" lon="6.7121">
        <ele>2524.078857</ele>
        <time>2010-10-07T11:48:44Z</time>
      </trkpt>
      <trkpt lat="45.33329" lon="6.71208">
        <ele>2523.117432</ele>
        <time>2010-10-07T11:48:49Z</time>
      </trkpt>
      <trkpt lat="45.33334" lon="6.71206">
        <ele>2521.19458</ele>
        <time>2010-10-07T11:48:55Z</time>
      </trkpt>
      <trkpt lat="45.33344" lon="6.71205">
        <ele>2519.752686</ele>
        <time>2010-10-07T11:49:02Z</time>
      </trkpt>
      <trkpt lat="45.33348" lon="6.71204">
        <ele>2521.675293</ele>
        <time>2010-10-07T11:49:08Z</time>
      </trkpt>
      <trkpt lat="45.3335" lon="6.71197">
        <ele>2522.156006</ele>
        <time>2010-10-07T11:49:16Z</time>
      </trkpt>
      <trkpt lat="45.33355" lon="6.71192">
        <ele>2521.19458</ele>
        <time>2010-10-07T11:49:22Z</time>
      </trkpt>
      <trkpt lat="45.33358" lon="6.7119">
        <ele>2520.233398</ele>
        <time>2010-10-07T11:49:25Z</time>
      </trkpt>
      <trkpt lat="45.33358" lon="6.7119">
        <ele>2520.233398</ele>
        <time>2010-10-07T11:49:35Z</time>
      </trkpt>
      <trkpt lat="45.33357" lon="6.71191">
        <ele>2519.272217</ele>
        <time>2010-10-07T11:49:46Z</time>
      </trkpt>
      <trkpt lat="45.33357" lon="6.71192">
        <ele>2519.752686</ele>
        <time>2010-10-07T11:50:03Z</time>
      </trkpt>
      <trkpt lat="45.33354" lon="6.71196">
        <ele>2526.482178</ele>
        <time>2010-10-07T11:50:25Z</time>
      </trkpt>
      <trkpt lat="45.33357" lon="6.71199">
        <ele>2518.791504</ele>
        <time>2010-10-07T11:50:53Z</time>
      </trkpt>
      <trkpt lat="45.33353" lon="6.71201">
        <ele>2513.984863</ele>
        <time>2010-10-07T11:51:00Z</time>
      </trkpt>
      <trkpt lat="45.33347" lon="6.71199">
        <ele>2510.620361</ele>
        <time>2010-10-07T11:51:06Z</time>
      </trkpt>
      <trkpt lat="45.33343" lon="6.71197">
        <ele>2509.178467</ele>
        <time>2010-10-07T11:51:09Z</time>
      </trkpt>
      <trkpt lat="45.33336" lon="6.71192">
        <ele>2507.736328</ele>
        <time>2010-10-07T11:51:15Z</time>
      </trkpt>
      <trkpt lat="45.33329" lon="6.71182">
        <ele>2505.333008</ele>
        <time>2010-10-07T11:51:22Z</time>
      </trkpt>
      <trkpt lat="45.33325" lon="6.71177">
        <ele>2504.852295</ele>
        <time>2010-10-07T11:51:27Z</time>
      </trkpt>
      <trkpt lat="45.33319" lon="6.71169">
        <ele>2502.929688</ele>
        <time>2010-10-07T11:51:34Z</time>
      </trkpt>
      <trkpt lat="45.33315" lon="6.71162">
        <ele>2502.448975</ele>
        <time>2010-10-07T11:51:40Z</time>
      </trkpt>
      <trkpt lat="45.33312" lon="6.71155">
        <ele>2501.00708</ele>
        <time>2010-10-07T11:51:46Z</time>
      </trkpt>
      <trkpt lat="45.33309" lon="6.71148">
        <ele>2500.045898</ele>
        <time>2010-10-07T11:51:52Z</time>
      </trkpt>
      <trkpt lat="45.33308" lon="6.71147">
        <ele>2500.526367</ele>
        <time>2010-10-07T11:52:02Z</time>
      </trkpt>
      <trkpt lat="45.33308" lon="6.71146">
        <ele>2502.448975</ele>
        <time>2010-10-07T11:52:18Z</time>
      </trkpt>
      <trkpt lat="45.33306" lon="6.71144">
        <ele>2503.4104</ele>
        <time>2010-10-07T11:52:33Z</time>
      </trkpt>
      <trkpt lat="45.33303" lon="6.7114">
        <ele>2501.00708</ele>
        <time>2010-10-07T11:52:39Z</time>
      </trkpt>
      <trkpt lat="45.33303" lon="6.71137">
        <ele>2500.045898</ele>
        <time>2010-10-07T11:52:43Z</time>
      </trkpt>
      <trkpt lat="45.33304" lon="6.71136">
        <ele>2498.60376</ele>
        <time>2010-10-07T11:52:49Z</time>
      </trkpt>
      <trkpt lat="45.33302" lon="6.71134">
        <ele>2498.123047</ele>
        <time>2010-10-07T11:52:54Z</time>
      </trkpt>
      <trkpt lat="45.33301" lon="6.71131">
        <ele>2497.161865</ele>
        <time>2010-10-07T11:52:58Z</time>
      </trkpt>
      <trkpt lat="45.33301" lon="6.71126">
        <ele>2496.200684</ele>
        <time>2010-10-07T11:53:04Z</time>
      </trkpt>
      <trkpt lat="45.33302" lon="6.71122">
        <ele>2494.758545</ele>
        <time>2010-10-07T11:53:09Z</time>
      </trkpt>
      <trkpt lat="45.33307" lon="6.7112">
        <ele>2491.874512</ele>
        <time>2010-10-07T11:53:16Z</time>
      </trkpt>
      <trkpt lat="45.33311" lon="6.7112">
        <ele>2489.951904</ele>
        <time>2010-10-07T11:53:21Z</time>
      </trkpt>
      <trkpt lat="45.33313" lon="6.71118">
        <ele>2488.51001</ele>
        <time>2010-10-07T11:53:26Z</time>
      </trkpt>
      <trkpt lat="45.33315" lon="6.71115">
        <ele>2485.625977</ele>
        <time>2010-10-07T11:53:32Z</time>
      </trkpt>
      <trkpt lat="45.33317" lon="6.71114">
        <ele>2484.664795</ele>
        <time>2010-10-07T11:53:36Z</time>
      </trkpt>
      <trkpt lat="45.3332" lon="6.71112">
        <ele>2483.703369</ele>
        <time>2010-10-07T11:53:42Z</time>
      </trkpt>
      <trkpt lat="45.33322" lon="6.71109">
        <ele>2483.222656</ele>
        <time>2010-10-07T11:53:47Z</time>
      </trkpt>
      <trkpt lat="45.33324" lon="6.71107">
        <ele>2482.261475</ele>
        <time>2010-10-07T11:53:52Z</time>
      </trkpt>
      <trkpt lat="45.33328" lon="6.71105">
        <ele>2480.338867</ele>
        <time>2010-10-07T11:53:58Z</time>
      </trkpt>
      <trkpt lat="45.33331" lon="6.71101">
        <ele>2479.377441</ele>
        <time>2010-10-07T11:54:04Z</time>
      </trkpt>
      <trkpt lat="45.33331" lon="6.71097">
        <ele>2476.974365</ele>
        <time>2010-10-07T11:54:10Z</time>
      </trkpt>
      <trkpt lat="45.33333" lon="6.71095">
        <ele>2476.012939</ele>
        <time>2010-10-07T11:54:14Z</time>
      </trkpt>
      <trkpt lat="45.33337" lon="6.71094">
        <ele>2474.570801</ele>
        <time>2010-10-07T11:54:20Z</time>
      </trkpt>
      <trkpt lat="45.33337" lon="6.7109">
        <ele>2473.128906</ele>
        <time>2010-10-07T11:54:26Z</time>
      </trkpt>
      <trkpt lat="45.33336" lon="6.71084">
        <ele>2470.244873</ele>
        <time>2010-10-07T11:54:33Z</time>
      </trkpt>
      <trkpt lat="45.33338" lon="6.71081">
        <ele>2468.802979</ele>
        <time>2010-10-07T11:54:39Z</time>
      </trkpt>
      <trkpt lat="45.33338" lon="6.71083">
        <ele>2464.477051</ele>
        <time>2010-10-07T11:54:51Z</time>
      </trkpt>
      <trkpt lat="45.33338" lon="6.71083">
        <ele>2465.438477</ele>
        <time>2010-10-07T11:55:12Z</time>
      </trkpt>
      <trkpt lat="45.3334" lon="6.71079">
        <ele>2463.996338</ele>
        <time>2010-10-07T11:55:19Z</time>
      </trkpt>
      <trkpt lat="45.33343" lon="6.7108">
        <ele>2463.515625</ele>
        <time>2010-10-07T11:55:23Z</time>
      </trkpt>
      <trkpt lat="45.33347" lon="6.7108">
        <ele>2462.554443</ele>
        <time>2010-10-07T11:55:28Z</time>
      </trkpt>
      <trkpt lat="45.33351" lon="6.7108">
        <ele>2462.07373</ele>
        <time>2010-10-07T11:55:34Z</time>
      </trkpt>
      <trkpt lat="45.33353" lon="6.71079">
        <ele>2460.631836</ele>
        <time>2010-10-07T11:55:39Z</time>
      </trkpt>
      <trkpt lat="45.33355" lon="6.71076">
        <ele>2459.189697</ele>
        <time>2010-10-07T11:55:44Z</time>
      </trkpt>
      <trkpt lat="45.33355" lon="6.71072">
        <ele>2457.747803</ele>
        <time>2010-10-07T11:55:49Z</time>
      </trkpt>
      <trkpt lat="45.33353" lon="6.71067">
        <ele>2455.824951</ele>
        <time>2010-10-07T11:55:54Z</time>
      </trkpt>
      <trkpt lat="45.33354" lon="6.71062">
        <ele>2453.902588</ele>
        <time>2010-10-07T11:56:01Z</time>
      </trkpt>
      <trkpt lat="45.33355" lon="6.71058">
        <ele>2452.460449</ele>
        <time>2010-10-07T11:56:07Z</time>
      </trkpt>
      <trkpt lat="45.33354" lon="6.71056">
        <ele>2451.018555</ele>
        <time>2010-10-07T11:56:15Z</time>
      </trkpt>
      <trkpt lat="45.33356" lon="6.71053">
        <ele>2449.57666</ele>
        <time>2010-10-07T11:56:20Z</time>
      </trkpt>
      <trkpt lat="45.33357" lon="6.71048">
        <ele>2448.134521</ele>
        <time>2010-10-07T11:56:26Z</time>
      </trkpt>
      <trkpt lat="45.33354" lon="6.71043">
        <ele>2446.692627</ele>
        <time>2010-10-07T11:56:32Z</time>
      </trkpt>
      <trkpt lat="45.33355" lon="6.71038">
        <ele>2445.250732</ele>
        <time>2010-10-07T11:56:39Z</time>
      </trkpt>
      <trkpt lat="45.33354" lon="6.71033">
        <ele>2443.808594</ele>
        <time>2010-10-07T11:56:45Z</time>
      </trkpt>
      <trkpt lat="45.33353" lon="6.71031">
        <ele>2443.327881</ele>
        <time>2010-10-07T11:56:51Z</time>
      </trkpt>
      <trkpt lat="45.33353" lon="6.71029">
        <ele>2441.885986</ele>
        <time>2010-10-07T11:56:56Z</time>
      </trkpt>
      <trkpt lat="45.33352" lon="6.71023">
        <ele>2439.963379</ele>
        <time>2010-10-07T11:57:03Z</time>
      </trkpt>
      <trkpt lat="45.33355" lon="6.71022">
        <ele>2438.521484</ele>
        <time>2010-10-07T11:57:07Z</time>
      </trkpt>
      <trkpt lat="45.33357" lon="6.7102">
        <ele>2438.040771</ele>
        <time>2010-10-07T11:57:12Z</time>
      </trkpt>
      <trkpt lat="45.33359" lon="6.71017">
        <ele>2436.598633</ele>
        <time>2010-10-07T11:57:19Z</time>
      </trkpt>
      <trkpt lat="45.33362" lon="6.71013">
        <ele>2434.67627</ele>
        <time>2010-10-07T11:57:26Z</time>
      </trkpt>
      <trkpt lat="45.33362" lon="6.71009">
        <ele>2432.753418</ele>
        <time>2010-10-07T11:57:31Z</time>
      </trkpt>
      <trkpt lat="45.33363" lon="6.71007">
        <ele>2430.831055</ele>
        <time>2010-10-07T11:57:36Z</time>
      </trkpt>
      <trkpt lat="45.33366" lon="6.71004">
        <ele>2428.908203</ele>
        <time>2010-10-07T11:57:41Z</time>
      </trkpt>
      <trkpt lat="45.33367" lon="6.71004">
        <ele>2428.908203</ele>
        <time>2010-10-07T11:57:49Z</time>
      </trkpt>
      <trkpt lat="45.33369" lon="6.71004">
        <ele>2427.946777</ele>
        <time>2010-10-07T11:57:57Z</time>
      </trkpt>
      <trkpt lat="45.3337" lon="6.71004">
        <ele>2426.985596</ele>
        <time>2010-10-07T11:58:06Z</time>
      </trkpt>
      <trkpt lat="45.33367" lon="6.71001">
        <ele>2423.62085</ele>
        <time>2010-10-07T11:58:26Z</time>
      </trkpt>
      <trkpt lat="45.33364" lon="6.70997">
        <ele>2422.659668</ele>
        <time>2010-10-07T11:58:33Z</time>
      </trkpt>
      <trkpt lat="45.33366" lon="6.70995">
        <ele>2420.737061</ele>
        <time>2010-10-07T11:58:39Z</time>
      </trkpt>
      <trkpt lat="45.33365" lon="6.70992">
        <ele>2418.814453</ele>
        <time>2010-10-07T11:58:45Z</time>
      </trkpt>
      <trkpt lat="45.33363" lon="6.70989">
        <ele>2417.372314</ele>
        <time>2010-10-07T11:58:51Z</time>
      </trkpt>
      <trkpt lat="45.33359" lon="6.70987">
        <ele>2415.449951</ele>
        <time>2010-10-07T11:58:57Z</time>
      </trkpt>
      <trkpt lat="45.33356" lon="6.70983">
        <ele>2412.085205</ele>
        <time>2010-10-07T11:59:03Z</time>
      </trkpt>
      <trkpt lat="45.33356" lon="6.70982">
        <ele>2411.123779</ele>
        <time>2010-10-07T11:59:11Z</time>
      </trkpt>
      <trkpt lat="45.33358" lon="6.70981">
        <ele>2411.123779</ele>
        <time>2010-10-07T11:59:21Z</time>
      </trkpt>
      <trkpt lat="45.33364" lon="6.70979">
        <ele>2408.720459</ele>
        <time>2010-10-07T11:59:28Z</time>
      </trkpt>
      <trkpt lat="45.33369" lon="6.70976">
        <ele>2406.317139</ele>
        <time>2010-10-07T11:59:34Z</time>
      </trkpt>
      <trkpt lat="45.33373" lon="6.70973">
        <ele>2405.836426</ele>
        <time>2010-10-07T11:59:40Z</time>
      </trkpt>
      <trkpt lat="45.33375" lon="6.70969">
        <ele>2405.355957</ele>
        <time>2010-10-07T11:59:48Z</time>
      </trkpt>
      <trkpt lat="45.33375" lon="6.70969">
        <ele>2406.797852</ele>
        <time>2010-10-07T11:59:58Z</time>
      </trkpt>
      <trkpt lat="45.33378" lon="6.7097">
        <ele>2405.836426</ele>
        <time>2010-10-07T12:00:03Z</time>
      </trkpt>
      <trkpt lat="45.33376" lon="6.70969">
        <ele>2404.394531</ele>
        <time>2010-10-07T12:00:20Z</time>
      </trkpt>
      <trkpt lat="45.33377" lon="6.70969">
        <ele>2405.836426</ele>
        <time>2010-10-07T12:00:41Z</time>
      </trkpt>
      <trkpt lat="45.33377" lon="6.70968">
        <ele>2406.317139</ele>
        <time>2010-10-07T12:01:00Z</time>
      </trkpt>
      <trkpt lat="45.33376" lon="6.70968">
        <ele>2406.317139</ele>
        <time>2010-10-07T12:01:07Z</time>
      </trkpt>
      <trkpt lat="45.33376" lon="6.70968">
        <ele>2406.797852</ele>
        <time>2010-10-07T12:01:17Z</time>
      </trkpt>
      <trkpt lat="45.33376" lon="6.70967">
        <ele>2407.278564</ele>
        <time>2010-10-07T12:01:29Z</time>
      </trkpt>
      <trkpt lat="45.33376" lon="6.70967">
        <ele>2409.201172</ele>
        <time>2010-10-07T12:01:36Z</time>
      </trkpt>
      <trkpt lat="45.33375" lon="6.70966">
        <ele>2408.720459</ele>
        <time>2010-10-07T12:01:56Z</time>
      </trkpt>
      <trkpt lat="45.33374" lon="6.70964">
        <ele>2408.239746</ele>
        <time>2010-10-07T12:02:04Z</time>
      </trkpt>
      <trkpt lat="45.33374" lon="6.70962">
        <ele>2407.759277</ele>
        <time>2010-10-07T12:02:09Z</time>
      </trkpt>
      <trkpt lat="45.33376" lon="6.7096">
        <ele>2405.836426</ele>
        <time>2010-10-07T12:02:24Z</time>
      </trkpt>
      <trkpt lat="45.33376" lon="6.70959">
        <ele>2405.836426</ele>
        <time>2010-10-07T12:02:29Z</time>
      </trkpt>
      <trkpt lat="45.33377" lon="6.7096">
        <ele>2406.317139</ele>
        <time>2010-10-07T12:02:42Z</time>
      </trkpt>
      <trkpt lat="45.33377" lon="6.70961">
        <ele>2405.355957</ele>
        <time>2010-10-07T12:02:54Z</time>
      </trkpt>
      <trkpt lat="45.33377" lon="6.70957">
        <ele>2404.394531</ele>
        <time>2010-10-07T12:03:02Z</time>
      </trkpt>
      <trkpt lat="45.33376" lon="6.70956">
        <ele>2404.875244</ele>
        <time>2010-10-07T12:03:09Z</time>
      </trkpt>
      <trkpt lat="45.33374" lon="6.70953">
        <ele>2404.394531</ele>
        <time>2010-10-07T12:03:15Z</time>
      </trkpt>
      <trkpt lat="45.3337" lon="6.70953">
        <ele>2403.914062</ele>
        <time>2010-10-07T12:03:20Z</time>
      </trkpt>
      <trkpt lat="45.33365" lon="6.70952">
        <ele>2402.471924</ele>
        <time>2010-10-07T12:03:25Z</time>
      </trkpt>
      <trkpt lat="45.33362" lon="6.70948">
        <ele>2401.510742</ele>
        <time>2010-10-07T12:03:29Z</time>
      </trkpt>
      <trkpt lat="45.33362" lon="6.70947">
        <ele>2400.549316</ele>
        <time>2010-10-07T12:03:35Z</time>
      </trkpt>
      <trkpt lat="45.33363" lon="6.70947">
        <ele>2402.952637</ele>
        <time>2010-10-07T12:03:49Z</time>
      </trkpt>
      <trkpt lat="45.33363" lon="6.70946">
        <ele>2402.952637</ele>
        <time>2010-10-07T12:04:02Z</time>
      </trkpt>
      <trkpt lat="45.33363" lon="6.70947">
        <ele>2402.952637</ele>
        <time>2010-10-07T12:04:11Z</time>
      </trkpt>
      <trkpt lat="45.33363" lon="6.70946">
        <ele>2404.394531</ele>
        <time>2010-10-07T12:04:26Z</time>
      </trkpt>
      <trkpt lat="45.33362" lon="6.70946">
        <ele>2404.875244</ele>
        <time>2010-10-07T12:04:37Z</time>
      </trkpt>
      <trkpt lat="45.3336" lon="6.70945">
        <ele>2402.471924</ele>
        <time>2010-10-07T12:04:44Z</time>
      </trkpt>
      <trkpt lat="45.33356" lon="6.70943">
        <ele>2400.068848</ele>
        <time>2010-10-07T12:04:49Z</time>
      </trkpt>
      <trkpt lat="45.33353" lon="6.70941">
        <ele>2397.184814</ele>
        <time>2010-10-07T12:04:54Z</time>
      </trkpt>
      <trkpt lat="45.33349" lon="6.7094">
        <ele>2395.261963</ele>
        <time>2010-10-07T12:04:59Z</time>
      </trkpt>
      <trkpt lat="45.33345" lon="6.70939">
        <ele>2393.820068</ele>
        <time>2010-10-07T12:05:05Z</time>
      </trkpt>
      <trkpt lat="45.3334" lon="6.70938">
        <ele>2393.820068</ele>
        <time>2010-10-07T12:05:10Z</time>
      </trkpt>
      <trkpt lat="45.33337" lon="6.70935">
        <ele>2394.300537</ele>
        <time>2010-10-07T12:05:15Z</time>
      </trkpt>
      <trkpt lat="45.33337" lon="6.70933">
        <ele>2392.378174</ele>
        <time>2010-10-07T12:05:19Z</time>
      </trkpt>
      <trkpt lat="45.33339" lon="6.70928">
        <ele>2389.494141</ele>
        <time>2010-10-07T12:05:27Z</time>
      </trkpt>
      <trkpt lat="45.33342" lon="6.70924">
        <ele>2388.052246</ele>
        <time>2010-10-07T12:05:32Z</time>
      </trkpt>
      <trkpt lat="45.33342" lon="6.7092">
        <ele>2386.610107</ele>
        <time>2010-10-07T12:05:36Z</time>
      </trkpt>
      <trkpt lat="45.33344" lon="6.70916">
        <ele>2384.207031</ele>
        <time>2010-10-07T12:05:41Z</time>
      </trkpt>
      <trkpt lat="45.33345" lon="6.70913">
        <ele>2382.284424</ele>
        <time>2010-10-07T12:05:47Z</time>
      </trkpt>
      <trkpt lat="45.33343" lon="6.7091">
        <ele>2380.361816</ele>
        <time>2010-10-07T12:05:51Z</time>
      </trkpt>
      <trkpt lat="45.33343" lon="6.70907">
        <ele>2379.400146</ele>
        <time>2010-10-07T12:05:56Z</time>
      </trkpt>
      <trkpt lat="45.33341" lon="6.70903">
        <ele>2378.438965</ele>
        <time>2010-10-07T12:06:00Z</time>
      </trkpt>
      <trkpt lat="45.33342" lon="6.709">
        <ele>2376.99707</ele>
        <time>2010-10-07T12:06:04Z</time>
      </trkpt>
      <trkpt lat="45.33339" lon="6.70895">
        <ele>2374.113037</ele>
        <time>2010-10-07T12:06:10Z</time>
      </trkpt>
      <trkpt lat="45.33341" lon="6.70891">
        <ele>2372.671143</ele>
        <time>2010-10-07T12:06:14Z</time>
      </trkpt>
      <trkpt lat="45.33343" lon="6.70888">
        <ele>2371.229004</ele>
        <time>2010-10-07T12:06:18Z</time>
      </trkpt>
      <trkpt lat="45.33345" lon="6.70886">
        <ele>2370.748535</ele>
        <time>2010-10-07T12:06:22Z</time>
      </trkpt>
      <trkpt lat="45.33345" lon="6.70882">
        <ele>2368.345215</ele>
        <time>2010-10-07T12:06:27Z</time>
      </trkpt>
      <trkpt lat="45.33346" lon="6.70879">
        <ele>2366.422607</ele>
        <time>2010-10-07T12:06:31Z</time>
      </trkpt>
      <trkpt lat="45.33346" lon="6.70878">
        <ele>2365.461426</ele>
        <time>2010-10-07T12:06:35Z</time>
      </trkpt>
      <trkpt lat="45.33344" lon="6.70876">
        <ele>2364.019287</ele>
        <time>2010-10-07T12:06:40Z</time>
      </trkpt>
      <trkpt lat="45.33344" lon="6.70873">
        <ele>2363.057861</ele>
        <time>2010-10-07T12:06:45Z</time>
      </trkpt>
      <trkpt lat="45.33347" lon="6.70871">
        <ele>2362.577148</ele>
        <time>2010-10-07T12:06:50Z</time>
      </trkpt>
      <trkpt lat="45.33348" lon="6.70869">
        <ele>2361.615967</ele>
        <time>2010-10-07T12:06:55Z</time>
      </trkpt>
      <trkpt lat="45.33347" lon="6.70864">
        <ele>2358.251221</ele>
        <time>2010-10-07T12:07:01Z</time>
      </trkpt>
      <trkpt lat="45.33346" lon="6.70861">
        <ele>2356.809326</ele>
        <time>2010-10-07T12:07:05Z</time>
      </trkpt>
      <trkpt lat="45.33346" lon="6.70858">
        <ele>2356.328613</ele>
        <time>2010-10-07T12:07:10Z</time>
      </trkpt>
      <trkpt lat="45.33346" lon="6.70853">
        <ele>2354.886719</ele>
        <time>2010-10-07T12:07:15Z</time>
      </trkpt>
      <trkpt lat="45.33348" lon="6.70848">
        <ele>2352.964111</ele>
        <time>2010-10-07T12:07:20Z</time>
      </trkpt>
      <trkpt lat="45.3335" lon="6.70843">
        <ele>2351.041504</ele>
        <time>2010-10-07T12:07:26Z</time>
      </trkpt>
      <trkpt lat="45.33351" lon="6.7084">
        <ele>2350.080322</ele>
        <time>2010-10-07T12:07:30Z</time>
      </trkpt>
      <trkpt lat="45.33349" lon="6.70836">
        <ele>2348.638184</ele>
        <time>2010-10-07T12:07:35Z</time>
      </trkpt>
      <trkpt lat="45.33349" lon="6.70833">
        <ele>2347.676758</ele>
        <time>2010-10-07T12:07:41Z</time>
      </trkpt>
      <trkpt lat="45.33347" lon="6.70828">
        <ele>2345.75415</ele>
        <time>2010-10-07T12:07:47Z</time>
      </trkpt>
      <trkpt lat="45.33346" lon="6.70823">
        <ele>2344.792725</ele>
        <time>2010-10-07T12:07:53Z</time>
      </trkpt>
      <trkpt lat="45.33344" lon="6.70818">
        <ele>2342.870117</ele>
        <time>2010-10-07T12:07:59Z</time>
      </trkpt>
      <trkpt lat="45.33343" lon="6.70815">
        <ele>2341.428223</ele>
        <time>2010-10-07T12:08:04Z</time>
      </trkpt>
      <trkpt lat="45.3334" lon="6.7081">
        <ele>2339.505615</ele>
        <time>2010-10-07T12:08:10Z</time>
      </trkpt>
      <trkpt lat="45.33337" lon="6.70806">
        <ele>2338.544434</ele>
        <time>2010-10-07T12:08:15Z</time>
      </trkpt>
      <trkpt lat="45.33338" lon="6.70801">
        <ele>2338.063721</ele>
        <time>2010-10-07T12:08:20Z</time>
      </trkpt>
      <trkpt lat="45.3334" lon="6.70798">
        <ele>2338.063721</ele>
        <time>2010-10-07T12:08:24Z</time>
      </trkpt>
      <trkpt lat="45.3334" lon="6.70797">
        <ele>2338.544434</ele>
        <time>2010-10-07T12:08:34Z</time>
      </trkpt>
      <trkpt lat="45.33337" lon="6.70794">
        <ele>2334.699219</ele>
        <time>2010-10-07T12:09:02Z</time>
      </trkpt>
      <trkpt lat="45.33337" lon="6.70794">
        <ele>2333.737793</ele>
        <time>2010-10-07T12:09:12Z</time>
      </trkpt>
      <trkpt lat="45.33341" lon="6.70796">
        <ele>2334.699219</ele>
        <time>2010-10-07T12:09:56Z</time>
      </trkpt>
      <trkpt lat="45.33341" lon="6.70796">
        <ele>2336.141113</ele>
        <time>2010-10-07T12:10:11Z</time>
      </trkpt>
      <trkpt lat="45.33341" lon="6.70799">
        <ele>2336.621582</ele>
        <time>2010-10-07T12:10:27Z</time>
      </trkpt>
      <trkpt lat="45.33338" lon="6.70801">
        <ele>2336.621582</ele>
        <time>2010-10-07T12:10:33Z</time>
      </trkpt>
      <trkpt lat="45.33333" lon="6.70802">
        <ele>2336.141113</ele>
        <time>2010-10-07T12:10:40Z</time>
      </trkpt>
      <trkpt lat="45.33329" lon="6.70802">
        <ele>2335.179688</ele>
        <time>2010-10-07T12:10:46Z</time>
      </trkpt>
      <trkpt lat="45.33327" lon="6.70802">
        <ele>2333.737793</ele>
        <time>2010-10-07T12:10:50Z</time>
      </trkpt>
      <trkpt lat="45.33323" lon="6.708">
        <ele>2331.814941</ele>
        <time>2010-10-07T12:10:56Z</time>
      </trkpt>
      <trkpt lat="45.33323" lon="6.70795">
        <ele>2330.373047</ele>
        <time>2010-10-07T12:11:01Z</time>
      </trkpt>
      <trkpt lat="45.33322" lon="6.70793">
        <ele>2327.008545</ele>
        <time>2010-10-07T12:11:06Z</time>
      </trkpt>
      <trkpt lat="45.33319" lon="6.7079">
        <ele>2325.085693</ele>
        <time>2010-10-07T12:11:10Z</time>
      </trkpt>
      <trkpt lat="45.33318" lon="6.70786">
        <ele>2323.643799</ele>
        <time>2010-10-07T12:11:15Z</time>
      </trkpt>
      <trkpt lat="45.33319" lon="6.70782">
        <ele>2322.201904</ele>
        <time>2010-10-07T12:11:21Z</time>
      </trkpt>
      <trkpt lat="45.3332" lon="6.70782">
        <ele>2325.566406</ele>
        <time>2010-10-07T12:11:31Z</time>
      </trkpt>
      <trkpt lat="45.3332" lon="6.70781">
        <ele>2327.969727</ele>
        <time>2010-10-07T12:11:47Z</time>
      </trkpt>
      <trkpt lat="45.33322" lon="6.70776">
        <ele>2326.047119</ele>
        <time>2010-10-07T12:11:53Z</time>
      </trkpt>
      <trkpt lat="45.33322" lon="6.70775">
        <ele>2325.085693</ele>
        <time>2010-10-07T12:11:57Z</time>
      </trkpt>
      <trkpt lat="45.33317" lon="6.70774">
        <ele>2323.643799</ele>
        <time>2010-10-07T12:12:02Z</time>
      </trkpt>
      <trkpt lat="45.33316" lon="6.70773">
        <ele>2322.201904</ele>
        <time>2010-10-07T12:12:08Z</time>
      </trkpt>
      <trkpt lat="45.33313" lon="6.70772">
        <ele>2320.76001</ele>
        <time>2010-10-07T12:12:14Z</time>
      </trkpt>
      <trkpt lat="45.33311" lon="6.70771">
        <ele>2318.837402</ele>
        <time>2010-10-07T12:12:19Z</time>
      </trkpt>
      <trkpt lat="45.33309" lon="6.7077">
        <ele>2316.434082</ele>
        <time>2010-10-07T12:12:25Z</time>
      </trkpt>
      <trkpt lat="45.3331" lon="6.70765">
        <ele>2315.472656</ele>
        <time>2010-10-07T12:12:34Z</time>
      </trkpt>
      <trkpt lat="45.3331" lon="6.70761">
        <ele>2314.991943</ele>
        <time>2010-10-07T12:12:40Z</time>
      </trkpt>
      <trkpt lat="45.33308" lon="6.70758">
        <ele>2312.588623</ele>
        <time>2010-10-07T12:12:45Z</time>
      </trkpt>
      <trkpt lat="45.33306" lon="6.70758">
        <ele>2312.10791</ele>
        <time>2010-10-07T12:12:51Z</time>
      </trkpt>
      <trkpt lat="45.33305" lon="6.70756">
        <ele>2312.10791</ele>
        <time>2010-10-07T12:12:56Z</time>
      </trkpt>
      <trkpt lat="45.33303" lon="6.70755">
        <ele>2310.666016</ele>
        <time>2010-10-07T12:13:00Z</time>
      </trkpt>
      <trkpt lat="45.333" lon="6.70753">
        <ele>2309.224121</ele>
        <time>2010-10-07T12:13:05Z</time>
      </trkpt>
      <trkpt lat="45.33298" lon="6.70757">
        <ele>2309.70459</ele>
        <time>2010-10-07T12:13:11Z</time>
      </trkpt>
      <trkpt lat="45.33297" lon="6.70759">
        <ele>2311.146729</ele>
        <time>2010-10-07T12:13:17Z</time>
      </trkpt>
      <trkpt lat="45.33298" lon="6.70752">
        <ele>2312.588623</ele>
        <time>2010-10-07T12:13:29Z</time>
      </trkpt>
      <trkpt lat="45.33297" lon="6.70749">
        <ele>2311.627441</ele>
        <time>2010-10-07T12:13:33Z</time>
      </trkpt>
      <trkpt lat="45.33296" lon="6.70747">
        <ele>2310.185303</ele>
        <time>2010-10-07T12:13:38Z</time>
      </trkpt>
      <trkpt lat="45.33294" lon="6.70744">
        <ele>2308.743408</ele>
        <time>2010-10-07T12:13:52Z</time>
      </trkpt>
      <trkpt lat="45.33291" lon="6.7074">
        <ele>2307.782227</ele>
        <time>2010-10-07T12:13:59Z</time>
      </trkpt>
      <trkpt lat="45.33289" lon="6.70739">
        <ele>2305.378906</ele>
        <time>2010-10-07T12:14:04Z</time>
      </trkpt>
      <trkpt lat="45.33289" lon="6.70736">
        <ele>2304.898193</ele>
        <time>2010-10-07T12:14:09Z</time>
      </trkpt>
      <trkpt lat="45.33291" lon="6.70733">
        <ele>2304.898193</ele>
        <time>2010-10-07T12:14:13Z</time>
      </trkpt>
      <trkpt lat="45.33292" lon="6.7073">
        <ele>2304.898193</ele>
        <time>2010-10-07T12:14:17Z</time>
      </trkpt>
      <trkpt lat="45.33292" lon="6.70728">
        <ele>2303.456299</ele>
        <time>2010-10-07T12:14:23Z</time>
      </trkpt>
      <trkpt lat="45.33292" lon="6.70726">
        <ele>2302.975586</ele>
        <time>2010-10-07T12:14:28Z</time>
      </trkpt>
      <trkpt lat="45.33291" lon="6.70724">
        <ele>2302.494873</ele>
        <time>2010-10-07T12:14:33Z</time>
      </trkpt>
      <trkpt lat="45.33289" lon="6.70721">
        <ele>2300.572266</ele>
        <time>2010-10-07T12:14:40Z</time>
      </trkpt>
      <trkpt lat="45.33295" lon="6.7072">
        <ele>2304.898193</ele>
        <time>2010-10-07T12:15:00Z</time>
      </trkpt>
      <trkpt lat="45.333" lon="6.70718">
        <ele>2304.41748</ele>
        <time>2010-10-07T12:15:06Z</time>
      </trkpt>
      <trkpt lat="45.33299" lon="6.70717">
        <ele>2301.533691</ele>
        <time>2010-10-07T12:15:10Z</time>
      </trkpt>
      <trkpt lat="45.33297" lon="6.70715">
        <ele>2294.323486</ele>
        <time>2010-10-07T12:15:16Z</time>
      </trkpt>
      <trkpt lat="45.33295" lon="6.70713">
        <ele>2291.439697</ele>
        <time>2010-10-07T12:15:21Z</time>
      </trkpt>
      <trkpt lat="45.33294" lon="6.70709">
        <ele>2288.075195</ele>
        <time>2010-10-07T12:15:26Z</time>
      </trkpt>
      <trkpt lat="45.33295" lon="6.70705">
        <ele>2287.11377</ele>
        <time>2010-10-07T12:15:30Z</time>
      </trkpt>
      <trkpt lat="45.33296" lon="6.70701">
        <ele>2287.11377</ele>
        <time>2010-10-07T12:15:35Z</time>
      </trkpt>
      <trkpt lat="45.33295" lon="6.70697">
        <ele>2285.671875</ele>
        <time>2010-10-07T12:15:40Z</time>
      </trkpt>
      <trkpt lat="45.33296" lon="6.70694">
        <ele>2285.191162</ele>
        <time>2010-10-07T12:15:44Z</time>
      </trkpt>
      <trkpt lat="45.33297" lon="6.70688">
        <ele>2284.22998</ele>
        <time>2010-10-07T12:15:50Z</time>
      </trkpt>
      <trkpt lat="45.33296" lon="6.70683">
        <ele>2281.345703</ele>
        <time>2010-10-07T12:15:56Z</time>
      </trkpt>
      <trkpt lat="45.33296" lon="6.70679">
        <ele>2278.942383</ele>
        <time>2010-10-07T12:16:01Z</time>
      </trkpt>
      <trkpt lat="45.33294" lon="6.70677">
        <ele>2276.058594</ele>
        <time>2010-10-07T12:16:07Z</time>
      </trkpt>
      <trkpt lat="45.33294" lon="6.70673">
        <ele>2273.174805</ele>
        <time>2010-10-07T12:16:11Z</time>
      </trkpt>
      <trkpt lat="45.33295" lon="6.70668">
        <ele>2272.213379</ele>
        <time>2010-10-07T12:16:16Z</time>
      </trkpt>
      <trkpt lat="45.33299" lon="6.70664">
        <ele>2272.213379</ele>
        <time>2010-10-07T12:16:22Z</time>
      </trkpt>
      <trkpt lat="45.33299" lon="6.70658">
        <ele>2271.251953</ele>
        <time>2010-10-07T12:16:29Z</time>
      </trkpt>
      <trkpt lat="45.33297" lon="6.70654">
        <ele>2270.771484</ele>
        <time>2010-10-07T12:16:34Z</time>
      </trkpt>
      <trkpt lat="45.33298" lon="6.70649">
        <ele>2270.290771</ele>
        <time>2010-10-07T12:16:40Z</time>
      </trkpt>
      <trkpt lat="45.33301" lon="6.70647">
        <ele>2270.290771</ele>
        <time>2010-10-07T12:16:46Z</time>
      </trkpt>
      <trkpt lat="45.33301" lon="6.70643">
        <ele>2266.926025</ele>
        <time>2010-10-07T12:16:53Z</time>
      </trkpt>
      <trkpt lat="45.33301" lon="6.70643">
        <ele>2265.9646</ele>
        <time>2010-10-07T12:17:12Z</time>
      </trkpt>
      <trkpt lat="45.33304" lon="6.70639">
        <ele>2262.119385</ele>
        <time>2010-10-07T12:17:19Z</time>
      </trkpt>
      <trkpt lat="45.33305" lon="6.70635">
        <ele>2261.638916</ele>
        <time>2010-10-07T12:17:24Z</time>
      </trkpt>
      <trkpt lat="45.33306" lon="6.70631">
        <ele>2258.754883</ele>
        <time>2010-10-07T12:17:29Z</time>
      </trkpt>
      <trkpt lat="45.33309" lon="6.70628">
        <ele>2257.312988</ele>
        <time>2010-10-07T12:17:35Z</time>
      </trkpt>
      <trkpt lat="45.33309" lon="6.70625">
        <ele>2257.312988</ele>
        <time>2010-10-07T12:17:40Z</time>
      </trkpt>
      <trkpt lat="45.33314" lon="6.70625">
        <ele>2256.832275</ele>
        <time>2010-10-07T12:17:46Z</time>
      </trkpt>
      <trkpt lat="45.33315" lon="6.70622">
        <ele>2253.467773</ele>
        <time>2010-10-07T12:17:52Z</time>
      </trkpt>
      <trkpt lat="45.33317" lon="6.70618">
        <ele>2252.506348</ele>
        <time>2010-10-07T12:17:57Z</time>
      </trkpt>
      <trkpt lat="45.33318" lon="6.70616">
        <ele>2251.064209</ele>
        <time>2010-10-07T12:18:02Z</time>
      </trkpt>
      <trkpt lat="45.33321" lon="6.70615">
        <ele>2249.622314</ele>
        <time>2010-10-07T12:18:06Z</time>
      </trkpt>
      <trkpt lat="45.33325" lon="6.70613">
        <ele>2248.180176</ele>
        <time>2010-10-07T12:18:11Z</time>
      </trkpt>
      <trkpt lat="45.33328" lon="6.70614">
        <ele>2245.7771</ele>
        <time>2010-10-07T12:18:16Z</time>
      </trkpt>
      <trkpt lat="45.33331" lon="6.70612">
        <ele>2245.296387</ele>
        <time>2010-10-07T12:18:21Z</time>
      </trkpt>
      <trkpt lat="45.33334" lon="6.70609">
        <ele>2245.7771</ele>
        <time>2010-10-07T12:18:26Z</time>
      </trkpt>
      <trkpt lat="45.33337" lon="6.70605">
        <ele>2242.893066</ele>
        <time>2010-10-07T12:18:31Z</time>
      </trkpt>
      <trkpt lat="45.33339" lon="6.70604">
        <ele>2241.451172</ele>
        <time>2010-10-07T12:18:35Z</time>
      </trkpt>
      <trkpt lat="45.33343" lon="6.706">
        <ele>2241.931885</ele>
        <time>2010-10-07T12:18:41Z</time>
      </trkpt>
      <trkpt lat="45.33345" lon="6.70598">
        <ele>2240.970459</ele>
        <time>2010-10-07T12:18:45Z</time>
      </trkpt>
      <trkpt lat="45.33348" lon="6.70596">
        <ele>2238.567383</ele>
        <time>2010-10-07T12:18:49Z</time>
      </trkpt>
      <trkpt lat="45.3335" lon="6.70592">
        <ele>2238.08667</ele>
        <time>2010-10-07T12:18:54Z</time>
      </trkpt>
      <trkpt lat="45.33351" lon="6.7059">
        <ele>2236.644531</ele>
        <time>2010-10-07T12:18:58Z</time>
      </trkpt>
      <trkpt lat="45.33352" lon="6.70585">
        <ele>2235.202393</ele>
        <time>2010-10-07T12:19:04Z</time>
      </trkpt>
      <trkpt lat="45.33354" lon="6.70581">
        <ele>2234.241211</ele>
        <time>2010-10-07T12:19:09Z</time>
      </trkpt>
      <trkpt lat="45.33357" lon="6.70578">
        <ele>2233.279785</ele>
        <time>2010-10-07T12:19:14Z</time>
      </trkpt>
      <trkpt lat="45.33362" lon="6.70577">
        <ele>2233.279785</ele>
        <time>2010-10-07T12:19:19Z</time>
      </trkpt>
      <trkpt lat="45.33365" lon="6.70578">
        <ele>2231.837891</ele>
        <time>2010-10-07T12:19:23Z</time>
      </trkpt>
      <trkpt lat="45.33368" lon="6.7058">
        <ele>2229.915283</ele>
        <time>2010-10-07T12:19:28Z</time>
      </trkpt>
      <trkpt lat="45.33373" lon="6.70578">
        <ele>2228.953857</ele>
        <time>2010-10-07T12:19:34Z</time>
      </trkpt>
      <trkpt lat="45.33377" lon="6.70573">
        <ele>2226.550781</ele>
        <time>2010-10-07T12:19:41Z</time>
      </trkpt>
      <trkpt lat="45.3338" lon="6.7057">
        <ele>2224.147461</ele>
        <time>2010-10-07T12:19:46Z</time>
      </trkpt>
      <trkpt lat="45.33383" lon="6.70567">
        <ele>2221.263428</ele>
        <time>2010-10-07T12:19:52Z</time>
      </trkpt>
      <trkpt lat="45.33384" lon="6.70568">
        <ele>2219.821289</ele>
        <time>2010-10-07T12:20:09Z</time>
      </trkpt>
      <trkpt lat="45.33384" lon="6.70568">
        <ele>2219.34082</ele>
        <time>2010-10-07T12:20:21Z</time>
      </trkpt>
      <trkpt lat="45.33386" lon="6.70566">
        <ele>2216.9375</ele>
        <time>2010-10-07T12:20:36Z</time>
      </trkpt>
      <trkpt lat="45.33392" lon="6.70564">
        <ele>2216.456787</ele>
        <time>2010-10-07T12:20:43Z</time>
      </trkpt>
      <trkpt lat="45.33397" lon="6.70564">
        <ele>2215.976074</ele>
        <time>2010-10-07T12:20:49Z</time>
      </trkpt>
      <trkpt lat="45.33403" lon="6.70562">
        <ele>2215.014893</ele>
        <time>2010-10-07T12:20:55Z</time>
      </trkpt>
      <trkpt lat="45.33407" lon="6.70557">
        <ele>2215.014893</ele>
        <time>2010-10-07T12:21:00Z</time>
      </trkpt>
      <trkpt lat="45.33411" lon="6.70554">
        <ele>2214.53418</ele>
        <time>2010-10-07T12:21:05Z</time>
      </trkpt>
      <trkpt lat="45.33415" lon="6.7055">
        <ele>2213.572754</ele>
        <time>2010-10-07T12:21:11Z</time>
      </trkpt>
      <trkpt lat="45.3342" lon="6.70544">
        <ele>2211.650391</ele>
        <time>2010-10-07T12:21:18Z</time>
      </trkpt>
      <trkpt lat="45.33422" lon="6.70541">
        <ele>2210.208252</ele>
        <time>2010-10-07T12:21:26Z</time>
      </trkpt>
      <trkpt lat="45.33426" lon="6.70536">
        <ele>2208.285645</ele>
        <time>2010-10-07T12:21:32Z</time>
      </trkpt>
      <trkpt lat="45.3343" lon="6.7053">
        <ele>2207.805176</ele>
        <time>2010-10-07T12:21:37Z</time>
      </trkpt>
      <trkpt lat="45.33434" lon="6.70525">
        <ele>2208.285645</ele>
        <time>2010-10-07T12:21:43Z</time>
      </trkpt>
      <trkpt lat="45.33437" lon="6.70522">
        <ele>2208.766357</ele>
        <time>2010-10-07T12:21:48Z</time>
      </trkpt>
      <trkpt lat="45.33439" lon="6.70522">
        <ele>2206.84375</ele>
        <time>2010-10-07T12:21:54Z</time>
      </trkpt>
      <trkpt lat="45.33443" lon="6.70523">
        <ele>2203.479004</ele>
        <time>2010-10-07T12:22:01Z</time>
      </trkpt>
      <trkpt lat="45.33446" lon="6.70523">
        <ele>2202.517578</ele>
        <time>2010-10-07T12:22:06Z</time>
      </trkpt>
      <trkpt lat="45.33447" lon="6.70522">
        <ele>2198.672363</ele>
        <time>2010-10-07T12:22:12Z</time>
      </trkpt>
      <trkpt lat="45.33447" lon="6.70517">
        <ele>2198.672363</ele>
        <time>2010-10-07T12:22:17Z</time>
      </trkpt>
      <trkpt lat="45.33449" lon="6.70518">
        <ele>2198.672363</ele>
        <time>2010-10-07T12:22:21Z</time>
      </trkpt>
      <trkpt lat="45.33452" lon="6.70517">
        <ele>2199.633789</ele>
        <time>2010-10-07T12:22:26Z</time>
      </trkpt>
      <trkpt lat="45.33457" lon="6.70517">
        <ele>2199.153076</ele>
        <time>2010-10-07T12:22:31Z</time>
      </trkpt>
      <trkpt lat="45.33457" lon="6.70514">
        <ele>2202.998291</ele>
        <time>2010-10-07T12:22:35Z</time>
      </trkpt>
      <trkpt lat="45.33461" lon="6.7051">
        <ele>2204.44043</ele>
        <time>2010-10-07T12:22:41Z</time>
      </trkpt>
      <trkpt lat="45.33463" lon="6.70512">
        <ele>2201.075684</ele>
        <time>2010-10-07T12:22:45Z</time>
      </trkpt>
      <trkpt lat="45.33466" lon="6.70514">
        <ele>2199.153076</ele>
        <time>2010-10-07T12:22:52Z</time>
      </trkpt>
      <trkpt lat="45.33469" lon="6.70518">
        <ele>2197.230469</ele>
        <time>2010-10-07T12:22:58Z</time>
      </trkpt>
      <trkpt lat="45.33474" lon="6.70523">
        <ele>2193.385254</ele>
        <time>2010-10-07T12:23:05Z</time>
      </trkpt>
      <trkpt lat="45.33479" lon="6.70527">
        <ele>2195.307861</ele>
        <time>2010-10-07T12:23:12Z</time>
      </trkpt>
      <trkpt lat="45.33483" lon="6.70528">
        <ele>2194.827148</ele>
        <time>2010-10-07T12:23:17Z</time>
      </trkpt>
      <trkpt lat="45.33485" lon="6.70529">
        <ele>2195.788574</ele>
        <time>2010-10-07T12:23:21Z</time>
      </trkpt>
      <trkpt lat="45.33489" lon="6.7053">
        <ele>2197.711182</ele>
        <time>2010-10-07T12:23:25Z</time>
      </trkpt>
      <trkpt lat="45.33491" lon="6.70531">
        <ele>2199.153076</ele>
        <time>2010-10-07T12:23:29Z</time>
      </trkpt>
      <trkpt lat="45.33494" lon="6.70535">
        <ele>2200.114502</ele>
        <time>2010-10-07T12:23:34Z</time>
      </trkpt>
      <trkpt lat="45.33497" lon="6.70537">
        <ele>2200.594971</ele>
        <time>2010-10-07T12:23:39Z</time>
      </trkpt>
      <trkpt lat="45.33499" lon="6.7054">
        <ele>2201.556396</ele>
        <time>2010-10-07T12:23:43Z</time>
      </trkpt>
      <trkpt lat="45.33502" lon="6.70542">
        <ele>2202.517578</ele>
        <time>2010-10-07T12:23:47Z</time>
      </trkpt>
      <trkpt lat="45.33504" lon="6.70546">
        <ele>2202.998291</ele>
        <time>2010-10-07T12:23:51Z</time>
      </trkpt>
      <trkpt lat="45.33508" lon="6.70549">
        <ele>2202.036865</ele>
        <time>2010-10-07T12:23:55Z</time>
      </trkpt>
      <trkpt lat="45.33512" lon="6.70548">
        <ele>2202.517578</ele>
        <time>2010-10-07T12:23:59Z</time>
      </trkpt>
      <trkpt lat="45.33518" lon="6.7055">
        <ele>2201.075684</ele>
        <time>2010-10-07T12:24:05Z</time>
      </trkpt>
      <trkpt lat="45.33519" lon="6.7055">
        <ele>2201.075684</ele>
        <time>2010-10-07T12:24:06Z</time>
      </trkpt>
      <trkpt lat="45.33524" lon="6.70557">
        <ele>2201.556396</ele>
        <time>2010-10-07T12:24:12Z</time>
      </trkpt>
      <trkpt lat="45.33525" lon="6.70562">
        <ele>2201.556396</ele>
        <time>2010-10-07T12:24:15Z</time>
      </trkpt>
      <trkpt lat="45.33529" lon="6.70568">
        <ele>2201.556396</ele>
        <time>2010-10-07T12:24:21Z</time>
      </trkpt>
      <trkpt lat="45.33534" lon="6.70574">
        <ele>2201.556396</ele>
        <time>2010-10-07T12:24:28Z</time>
      </trkpt>
      <trkpt lat="45.33536" lon="6.7058">
        <ele>2201.556396</ele>
        <time>2010-10-07T12:24:33Z</time>
      </trkpt>
      <trkpt lat="45.33539" lon="6.70586">
        <ele>2202.998291</ele>
        <time>2010-10-07T12:24:38Z</time>
      </trkpt>
      <trkpt lat="45.33542" lon="6.70589">
        <ele>2203.959717</ele>
        <time>2010-10-07T12:24:42Z</time>
      </trkpt>
      <trkpt lat="45.33548" lon="6.70595">
        <ele>2205.401855</ele>
        <time>2010-10-07T12:24:48Z</time>
      </trkpt>
      <trkpt lat="45.33554" lon="6.70603">
        <ele>2205.882324</ele>
        <time>2010-10-07T12:24:55Z</time>
      </trkpt>
      <trkpt lat="45.33559" lon="6.70607">
        <ele>2205.401855</ele>
        <time>2010-10-07T12:24:59Z</time>
      </trkpt>
      <trkpt lat="45.33563" lon="6.70612">
        <ele>2206.84375</ele>
        <time>2010-10-07T12:25:04Z</time>
      </trkpt>
      <trkpt lat="45.33565" lon="6.70613">
        <ele>2207.805176</ele>
        <time>2010-10-07T12:25:05Z</time>
      </trkpt>
      <trkpt lat="45.3357" lon="6.70615">
        <ele>2208.285645</ele>
        <time>2010-10-07T12:25:10Z</time>
      </trkpt>
      <trkpt lat="45.33575" lon="6.70621">
        <ele>2208.285645</ele>
        <time>2010-10-07T12:25:16Z</time>
      </trkpt>
      <trkpt lat="45.33577" lon="6.70623">
        <ele>2207.805176</ele>
        <time>2010-10-07T12:25:20Z</time>
      </trkpt>
      <trkpt lat="45.33579" lon="6.70629">
        <ele>2205.882324</ele>
        <time>2010-10-07T12:25:30Z</time>
      </trkpt>
      <trkpt lat="45.33585" lon="6.70636">
        <ele>2205.882324</ele>
        <time>2010-10-07T12:25:38Z</time>
      </trkpt>
      <trkpt lat="45.33592" lon="6.70635">
        <ele>2206.363037</ele>
        <time>2010-10-07T12:25:44Z</time>
      </trkpt>
      <trkpt lat="45.336" lon="6.70641">
        <ele>2207.324463</ele>
        <time>2010-10-07T12:25:51Z</time>
      </trkpt>
      <trkpt lat="45.33607" lon="6.70647">
        <ele>2206.363037</ele>
        <time>2010-10-07T12:25:58Z</time>
      </trkpt>
      <trkpt lat="45.33612" lon="6.70654">
        <ele>2205.882324</ele>
        <time>2010-10-07T12:26:05Z</time>
      </trkpt>
      <trkpt lat="45.33617" lon="6.70659">
        <ele>2203.959717</ele>
        <time>2010-10-07T12:26:11Z</time>
      </trkpt>
      <trkpt lat="45.3362" lon="6.70661">
        <ele>2204.921143</ele>
        <time>2010-10-07T12:26:17Z</time>
      </trkpt>
      <trkpt lat="45.33621" lon="6.70656">
        <ele>2216.456787</ele>
        <time>2010-10-07T12:26:35Z</time>
      </trkpt>
      <trkpt lat="45.33622" lon="6.7066">
        <ele>2213.572754</ele>
        <time>2010-10-07T12:26:40Z</time>
      </trkpt>
      <trkpt lat="45.33625" lon="6.7066">
        <ele>2209.727539</ele>
        <time>2010-10-07T12:26:46Z</time>
      </trkpt>
      <trkpt lat="45.33628" lon="6.70661">
        <ele>2206.84375</ele>
        <time>2010-10-07T12:26:54Z</time>
      </trkpt>
      <trkpt lat="45.33634" lon="6.70665">
        <ele>2206.84375</ele>
        <time>2010-10-07T12:27:01Z</time>
      </trkpt>
      <trkpt lat="45.33636" lon="6.70665">
        <ele>2206.84375</ele>
        <time>2010-10-07T12:27:03Z</time>
      </trkpt>
      <trkpt lat="45.33638" lon="6.70667">
        <ele>2204.921143</ele>
        <time>2010-10-07T12:27:12Z</time>
      </trkpt>
      <trkpt lat="45.3364" lon="6.7067">
        <ele>2200.594971</ele>
        <time>2010-10-07T12:27:25Z</time>
      </trkpt>
      <trkpt lat="45.33643" lon="6.70669">
        <ele>2201.075684</ele>
        <time>2010-10-07T12:27:32Z</time>
      </trkpt>
      <trkpt lat="45.33645" lon="6.70668">
        <ele>2200.114502</ele>
        <time>2010-10-07T12:27:38Z</time>
      </trkpt>
      <trkpt lat="45.33645" lon="6.7067">
        <ele>2201.075684</ele>
        <time>2010-10-07T12:27:47Z</time>
      </trkpt>
      <trkpt lat="45.33647" lon="6.70669">
        <ele>2201.556396</ele>
        <time>2010-10-07T12:27:55Z</time>
      </trkpt>
      <trkpt lat="45.33649" lon="6.70669">
        <ele>2201.075684</ele>
        <time>2010-10-07T12:28:00Z</time>
      </trkpt>
      <trkpt lat="45.33652" lon="6.70666">
        <ele>2199.153076</ele>
        <time>2010-10-07T12:28:06Z</time>
      </trkpt>
      <trkpt lat="45.33657" lon="6.70665">
        <ele>2199.153076</ele>
        <time>2010-10-07T12:28:13Z</time>
      </trkpt>
      <trkpt lat="45.33659" lon="6.70664">
        <ele>2199.633789</ele>
        <time>2010-10-07T12:28:18Z</time>
      </trkpt>
      <trkpt lat="45.33661" lon="6.70661">
        <ele>2199.153076</ele>
        <time>2010-10-07T12:28:24Z</time>
      </trkpt>
      <trkpt lat="45.33665" lon="6.70659">
        <ele>2198.19165</ele>
        <time>2010-10-07T12:28:29Z</time>
      </trkpt>
      <trkpt lat="45.33669" lon="6.70656">
        <ele>2199.153076</ele>
        <time>2010-10-07T12:28:34Z</time>
      </trkpt>
      <trkpt lat="45.33672" lon="6.70656">
        <ele>2197.711182</ele>
        <time>2010-10-07T12:28:39Z</time>
      </trkpt>
      <trkpt lat="45.33672" lon="6.70659">
        <ele>2195.307861</ele>
        <time>2010-10-07T12:28:44Z</time>
      </trkpt>
      <trkpt lat="45.33675" lon="6.70662">
        <ele>2194.827148</ele>
        <time>2010-10-07T12:28:49Z</time>
      </trkpt>
      <trkpt lat="45.33679" lon="6.70664">
        <ele>2196.749756</ele>
        <time>2010-10-07T12:28:55Z</time>
      </trkpt>
      <trkpt lat="45.3368" lon="6.70669">
        <ele>2195.307861</ele>
        <time>2010-10-07T12:28:59Z</time>
      </trkpt>
      <trkpt lat="45.33684" lon="6.7067">
        <ele>2196.269287</ele>
        <time>2010-10-07T12:29:06Z</time>
      </trkpt>
      <trkpt lat="45.33688" lon="6.7067">
        <ele>2195.307861</ele>
        <time>2010-10-07T12:29:11Z</time>
      </trkpt>
      <trkpt lat="45.33692" lon="6.70669">
        <ele>2195.788574</ele>
        <time>2010-10-07T12:29:16Z</time>
      </trkpt>
      <trkpt lat="45.33697" lon="6.70673">
        <ele>2195.307861</ele>
        <time>2010-10-07T12:29:21Z</time>
      </trkpt>
      <trkpt lat="45.33697" lon="6.70672">
        <ele>2195.307861</ele>
        <time>2010-10-07T12:29:22Z</time>
      </trkpt>
      <trkpt lat="45.33702" lon="6.70665">
        <ele>2191.943359</ele>
        <time>2010-10-07T12:29:30Z</time>
      </trkpt>
      <trkpt lat="45.33706" lon="6.70663">
        <ele>2192.904541</ele>
        <time>2010-10-07T12:29:35Z</time>
      </trkpt>
      <trkpt lat="45.33712" lon="6.7066">
        <ele>2189.540039</ele>
        <time>2010-10-07T12:29:42Z</time>
      </trkpt>
      <trkpt lat="45.3372" lon="6.70654">
        <ele>2188.578857</ele>
        <time>2010-10-07T12:29:50Z</time>
      </trkpt>
      <trkpt lat="45.33727" lon="6.70652">
        <ele>2189.059326</ele>
        <time>2010-10-07T12:29:57Z</time>
      </trkpt>
      <trkpt lat="45.33733" lon="6.7065">
        <ele>2188.578857</ele>
        <time>2010-10-07T12:30:04Z</time>
      </trkpt>
      <trkpt lat="45.33739" lon="6.70648">
        <ele>2186.175293</ele>
        <time>2010-10-07T12:30:11Z</time>
      </trkpt>
      <trkpt lat="45.33747" lon="6.7065">
        <ele>2186.175293</ele>
        <time>2010-10-07T12:30:19Z</time>
      </trkpt>
      <trkpt lat="45.33752" lon="6.70649">
        <ele>2184.733398</ele>
        <time>2010-10-07T12:30:25Z</time>
      </trkpt>
      <trkpt lat="45.33754" lon="6.70646">
        <ele>2180.888184</ele>
        <time>2010-10-07T12:30:31Z</time>
      </trkpt>
      <trkpt lat="45.33757" lon="6.70646">
        <ele>2179.446045</ele>
        <time>2010-10-07T12:30:50Z</time>
      </trkpt>
      <trkpt lat="45.33763" lon="6.70647">
        <ele>2181.849365</ele>
        <time>2010-10-07T12:30:56Z</time>
      </trkpt>
      <trkpt lat="45.33765" lon="6.70649">
        <ele>2181.849365</ele>
        <time>2010-10-07T12:30:58Z</time>
      </trkpt>
      <trkpt lat="45.33769" lon="6.70658">
        <ele>2181.849365</ele>
        <time>2010-10-07T12:31:05Z</time>
      </trkpt>
      <trkpt lat="45.3377" lon="6.7066">
        <ele>2181.849365</ele>
        <time>2010-10-07T12:31:07Z</time>
      </trkpt>
      <trkpt lat="45.33776" lon="6.70664">
        <ele>2179.926758</ele>
        <time>2010-10-07T12:31:13Z</time>
      </trkpt>
      <trkpt lat="45.33782" lon="6.70667">
        <ele>2178.965332</ele>
        <time>2010-10-07T12:31:19Z</time>
      </trkpt>
      <trkpt lat="45.33786" lon="6.70664">
        <ele>2175.60083</ele>
        <time>2010-10-07T12:31:25Z</time>
      </trkpt>
      <trkpt lat="45.3379" lon="6.70661">
        <ele>2173.678223</ele>
        <time>2010-10-07T12:31:31Z</time>
      </trkpt>
      <trkpt lat="45.33791" lon="6.70658">
        <ele>2171.274658</ele>
        <time>2010-10-07T12:31:37Z</time>
      </trkpt>
      <trkpt lat="45.33792" lon="6.70656">
        <ele>2170.794189</ele>
        <time>2010-10-07T12:31:47Z</time>
      </trkpt>
      <trkpt lat="45.33793" lon="6.70656">
        <ele>2169.832764</ele>
        <time>2010-10-07T12:31:51Z</time>
      </trkpt>
      <trkpt lat="45.33792" lon="6.70654">
        <ele>2165.026367</ele>
        <time>2010-10-07T12:32:02Z</time>
      </trkpt>
      <trkpt lat="45.33792" lon="6.70655">
        <ele>2162.623047</ele>
        <time>2010-10-07T12:32:06Z</time>
      </trkpt>
      <trkpt lat="45.33796" lon="6.70662">
        <ele>2163.584229</ele>
        <time>2010-10-07T12:32:11Z</time>
      </trkpt>
      <trkpt lat="45.33797" lon="6.70664">
        <ele>2164.064941</ele>
        <time>2010-10-07T12:32:20Z</time>
      </trkpt>
      <trkpt lat="45.33802" lon="6.70672">
        <ele>2163.10376</ele>
        <time>2010-10-07T12:32:26Z</time>
      </trkpt>
      <trkpt lat="45.33805" lon="6.70674">
        <ele>2164.545654</ele>
        <time>2010-10-07T12:32:31Z</time>
      </trkpt>
      <trkpt lat="45.33808" lon="6.70677">
        <ele>2164.064941</ele>
        <time>2010-10-07T12:32:36Z</time>
      </trkpt>
      <trkpt lat="45.33811" lon="6.70674">
        <ele>2164.064941</ele>
        <time>2010-10-07T12:32:42Z</time>
      </trkpt>
      <trkpt lat="45.33814" lon="6.70671">
        <ele>2165.50708</ele>
        <time>2010-10-07T12:32:48Z</time>
      </trkpt>
      <trkpt lat="45.33815" lon="6.70667">
        <ele>2165.987549</ele>
        <time>2010-10-07T12:32:54Z</time>
      </trkpt>
      <trkpt lat="45.33817" lon="6.7067">
        <ele>2166.468262</ele>
        <time>2010-10-07T12:33:02Z</time>
      </trkpt>
      <trkpt lat="45.33818" lon="6.70672">
        <ele>2164.064941</ele>
        <time>2010-10-07T12:33:15Z</time>
      </trkpt>
      <trkpt lat="45.3382" lon="6.70674">
        <ele>2162.142334</ele>
        <time>2010-10-07T12:33:22Z</time>
      </trkpt>
      <trkpt lat="45.33821" lon="6.70675">
        <ele>2165.50708</ele>
        <time>2010-10-07T12:33:28Z</time>
      </trkpt>
      <trkpt lat="45.33821" lon="6.70675">
        <ele>2165.026367</ele>
        <time>2010-10-07T12:33:34Z</time>
      </trkpt>
      <trkpt lat="45.33821" lon="6.70673">
        <ele>2166.948975</ele>
        <time>2010-10-07T12:33:42Z</time>
      </trkpt>
      <trkpt lat="45.33817" lon="6.70671">
        <ele>2172.717041</ele>
        <time>2010-10-07T12:52:17Z</time>
      </trkpt>
      <trkpt lat="45.33817" lon="6.70671">
        <ele>2172.717041</ele>
        <time>2010-10-07T12:52:18Z</time>
      </trkpt>
      <trkpt lat="45.33818" lon="6.70675">
        <ele>2170.313477</ele>
        <time>2010-10-07T12:58:58Z</time>
      </trkpt>
      <trkpt lat="45.33818" lon="6.70676">
        <ele>2170.313477</ele>
        <time>2010-10-07T12:58:59Z</time>
      </trkpt>
      <trkpt lat="45.33818" lon="6.7068">
        <ele>2168.871582</ele>
        <time>2010-10-07T12:59:06Z</time>
      </trkpt>
      <trkpt lat="45.33819" lon="6.70687">
        <ele>2169.352295</ele>
        <time>2010-10-07T12:59:11Z</time>
      </trkpt>
      <trkpt lat="45.33819" lon="6.7069">
        <ele>2167.910156</ele>
        <time>2010-10-07T12:59:17Z</time>
      </trkpt>
      <trkpt lat="45.33821" lon="6.70696">
        <ele>2167.910156</ele>
        <time>2010-10-07T12:59:22Z</time>
      </trkpt>
      <trkpt lat="45.33823" lon="6.70699">
        <ele>2168.390869</ele>
        <time>2010-10-07T12:59:25Z</time>
      </trkpt>
      <trkpt lat="45.33824" lon="6.707">
        <ele>2168.390869</ele>
        <time>2010-10-07T12:59:28Z</time>
      </trkpt>
      <trkpt lat="45.33824" lon="6.70701">
        <ele>2168.390869</ele>
        <time>2010-10-07T12:59:29Z</time>
      </trkpt>
      <trkpt lat="45.33828" lon="6.70703">
        <ele>2168.390869</ele>
        <time>2010-10-07T12:59:31Z</time>
      </trkpt>
      <trkpt lat="45.33834" lon="6.70711">
        <ele>2166.948975</ele>
        <time>2010-10-07T12:59:38Z</time>
      </trkpt>
      <trkpt lat="45.33834" lon="6.70712">
        <ele>2166.948975</ele>
        <time>2010-10-07T12:59:39Z</time>
      </trkpt>
      <trkpt lat="45.33841" lon="6.70715">
        <ele>2165.026367</ele>
        <time>2010-10-07T12:59:46Z</time>
      </trkpt>
      <trkpt lat="45.33845" lon="6.70721">
        <ele>2163.10376</ele>
        <time>2010-10-07T12:59:51Z</time>
      </trkpt>
      <trkpt lat="45.33845" lon="6.70721">
        <ele>2162.623047</ele>
        <time>2010-10-07T12:59:52Z</time>
      </trkpt>
      <trkpt lat="45.33849" lon="6.70722">
        <ele>2162.623047</ele>
        <time>2010-10-07T12:59:55Z</time>
      </trkpt>
      <trkpt lat="45.33854" lon="6.70725">
        <ele>2163.10376</ele>
        <time>2010-10-07T12:59:59Z</time>
      </trkpt>
      <trkpt lat="45.33858" lon="6.70729">
        <ele>2162.142334</ele>
        <time>2010-10-07T13:00:03Z</time>
      </trkpt>
      <trkpt lat="45.33863" lon="6.70731">
        <ele>2162.142334</ele>
        <time>2010-10-07T13:00:08Z</time>
      </trkpt>
      <trkpt lat="45.3387" lon="6.70738">
        <ele>2162.142334</ele>
        <time>2010-10-07T13:00:15Z</time>
      </trkpt>
      <trkpt lat="45.33874" lon="6.70741">
        <ele>2161.661865</ele>
        <time>2010-10-07T13:00:19Z</time>
      </trkpt>
      <trkpt lat="45.3388" lon="6.70747">
        <ele>2162.142334</ele>
        <time>2010-10-07T13:00:25Z</time>
      </trkpt>
      <trkpt lat="45.33885" lon="6.70749">
        <ele>2162.142334</ele>
        <time>2010-10-07T13:00:30Z</time>
      </trkpt>
      <trkpt lat="45.33892" lon="6.70752">
        <ele>2162.142334</ele>
        <time>2010-10-07T13:00:36Z</time>
      </trkpt>
      <trkpt lat="45.33898" lon="6.70755">
        <ele>2162.623047</ele>
        <time>2010-10-07T13:00:41Z</time>
      </trkpt>
      <trkpt lat="45.33901" lon="6.70759">
        <ele>2163.10376</ele>
        <time>2010-10-07T13:00:44Z</time>
      </trkpt>
      <trkpt lat="45.33907" lon="6.70761">
        <ele>2163.10376</ele>
        <time>2010-10-07T13:00:49Z</time>
      </trkpt>
      <trkpt lat="45.33914" lon="6.70764">
        <ele>2161.661865</ele>
        <time>2010-10-07T13:00:55Z</time>
      </trkpt>
      <trkpt lat="45.3392" lon="6.70773">
        <ele>2160.700439</ele>
        <time>2010-10-07T13:01:03Z</time>
      </trkpt>
      <trkpt lat="45.33927" lon="6.70781">
        <ele>2158.297119</ele>
        <time>2010-10-07T13:01:10Z</time>
      </trkpt>
      <trkpt lat="45.33932" lon="6.70789">
        <ele>2157.81665</ele>
        <time>2010-10-07T13:01:16Z</time>
      </trkpt>
      <trkpt lat="45.33937" lon="6.7079">
        <ele>2158.297119</ele>
        <time>2010-10-07T13:01:22Z</time>
      </trkpt>
      <trkpt lat="45.33938" lon="6.7079">
        <ele>2157.81665</ele>
        <time>2010-10-07T13:01:23Z</time>
      </trkpt>
      <trkpt lat="45.33945" lon="6.70794">
        <ele>2160.219727</ele>
        <time>2010-10-07T13:01:29Z</time>
      </trkpt>
      <trkpt lat="45.3395" lon="6.70796">
        <ele>2161.661865</ele>
        <time>2010-10-07T13:01:33Z</time>
      </trkpt>
      <trkpt lat="45.33956" lon="6.70803">
        <ele>2162.623047</ele>
        <time>2010-10-07T13:01:39Z</time>
      </trkpt>
      <trkpt lat="45.33964" lon="6.7081">
        <ele>2162.142334</ele>
        <time>2010-10-07T13:01:46Z</time>
      </trkpt>
      <trkpt lat="45.33965" lon="6.70811">
        <ele>2161.661865</ele>
        <time>2010-10-07T13:01:47Z</time>
      </trkpt>
      <trkpt lat="45.33968" lon="6.7082">
        <ele>2161.181152</ele>
        <time>2010-10-07T13:01:53Z</time>
      </trkpt>
      <trkpt lat="45.33968" lon="6.70822">
        <ele>2161.661865</ele>
        <time>2010-10-07T13:01:54Z</time>
      </trkpt>
      <trkpt lat="45.33968" lon="6.70829">
        <ele>2162.142334</ele>
        <time>2010-10-07T13:01:59Z</time>
      </trkpt>
      <trkpt lat="45.33971" lon="6.70831">
        <ele>2162.623047</ele>
        <time>2010-10-07T13:02:02Z</time>
      </trkpt>
      <trkpt lat="45.33972" lon="6.70835">
        <ele>2163.584229</ele>
        <time>2010-10-07T13:02:08Z</time>
      </trkpt>
      <trkpt lat="45.33976" lon="6.70838">
        <ele>2164.064941</ele>
        <time>2010-10-07T13:02:14Z</time>
      </trkpt>
      <trkpt lat="45.3398" lon="6.70842">
        <ele>2165.026367</ele>
        <time>2010-10-07T13:02:19Z</time>
      </trkpt>
      <trkpt lat="45.33982" lon="6.70846">
        <ele>2165.50708</ele>
        <time>2010-10-07T13:02:22Z</time>
      </trkpt>
      <trkpt lat="45.33989" lon="6.70849">
        <ele>2165.026367</ele>
        <time>2010-10-07T13:02:28Z</time>
      </trkpt>
      <trkpt lat="45.33996" lon="6.70856">
        <ele>2165.026367</ele>
        <time>2010-10-07T13:02:35Z</time>
      </trkpt>
      <trkpt lat="45.34002" lon="6.70859">
        <ele>2165.026367</ele>
        <time>2010-10-07T13:02:40Z</time>
      </trkpt>
      <trkpt lat="45.34005" lon="6.70861">
        <ele>2165.026367</ele>
        <time>2010-10-07T13:02:43Z</time>
      </trkpt>
      <trkpt lat="45.34008" lon="6.70864">
        <ele>2166.468262</ele>
        <time>2010-10-07T13:02:47Z</time>
      </trkpt>
      <trkpt lat="45.34014" lon="6.70866">
        <ele>2164.545654</ele>
        <time>2010-10-07T13:02:52Z</time>
      </trkpt>
      <trkpt lat="45.34021" lon="6.70869">
        <ele>2163.10376</ele>
        <time>2010-10-07T13:02:59Z</time>
      </trkpt>
      <trkpt lat="45.34028" lon="6.70874">
        <ele>2161.661865</ele>
        <time>2010-10-07T13:03:06Z</time>
      </trkpt>
      <trkpt lat="45.34032" lon="6.70879">
        <ele>2161.661865</ele>
        <time>2010-10-07T13:03:10Z</time>
      </trkpt>
      <trkpt lat="45.34037" lon="6.70889">
        <ele>2161.181152</ele>
        <time>2010-10-07T13:03:17Z</time>
      </trkpt>
      <trkpt lat="45.34042" lon="6.70894">
        <ele>2160.219727</ele>
        <time>2010-10-07T13:03:25Z</time>
      </trkpt>
      <trkpt lat="45.34042" lon="6.70897">
        <ele>2159.739014</ele>
        <time>2010-10-07T13:03:50Z</time>
      </trkpt>
      <trkpt lat="45.34044" lon="6.70902">
        <ele>2159.258545</ele>
        <time>2010-10-07T13:03:55Z</time>
      </trkpt>
      <trkpt lat="45.34048" lon="6.70911">
        <ele>2157.81665</ele>
        <time>2010-10-07T13:04:01Z</time>
      </trkpt>
      <trkpt lat="45.34048" lon="6.70913">
        <ele>2157.335938</ele>
        <time>2010-10-07T13:04:02Z</time>
      </trkpt>
      <trkpt lat="45.34045" lon="6.70921">
        <ele>2154.932373</ele>
        <time>2010-10-07T13:04:08Z</time>
      </trkpt>
      <trkpt lat="45.34044" lon="6.70924">
        <ele>2154.45166</ele>
        <time>2010-10-07T13:04:10Z</time>
      </trkpt>
      <trkpt lat="45.34043" lon="6.70926">
        <ele>2152.04834</ele>
        <time>2010-10-07T13:04:18Z</time>
      </trkpt>
      <trkpt lat="45.34041" lon="6.70933">
        <ele>2152.529053</ele>
        <time>2010-10-07T13:04:23Z</time>
      </trkpt>
      <trkpt lat="45.34038" lon="6.7094">
        <ele>2152.04834</ele>
        <time>2010-10-07T13:04:28Z</time>
      </trkpt>
      <trkpt lat="45.34039" lon="6.7095">
        <ele>2152.04834</ele>
        <time>2010-10-07T13:04:34Z</time>
      </trkpt>
      <trkpt lat="45.3404" lon="6.70956">
        <ele>2151.567871</ele>
        <time>2010-10-07T13:04:38Z</time>
      </trkpt>
      <trkpt lat="45.34041" lon="6.70967">
        <ele>2151.567871</ele>
        <time>2010-10-07T13:04:45Z</time>
      </trkpt>
      <trkpt lat="45.34045" lon="6.70977">
        <ele>2151.087158</ele>
        <time>2010-10-07T13:04:52Z</time>
      </trkpt>
      <trkpt lat="45.34046" lon="6.70986">
        <ele>2150.606445</ele>
        <time>2010-10-07T13:04:59Z</time>
      </trkpt>
      <trkpt lat="45.34049" lon="6.7099">
        <ele>2150.125977</ele>
        <time>2010-10-07T13:05:05Z</time>
      </trkpt>
      <trkpt lat="45.34051" lon="6.70996">
        <ele>2149.645264</ele>
        <time>2010-10-07T13:05:10Z</time>
      </trkpt>
      <trkpt lat="45.34052" lon="6.71003">
        <ele>2148.203125</ele>
        <time>2010-10-07T13:05:15Z</time>
      </trkpt>
      <trkpt lat="45.34053" lon="6.71006">
        <ele>2148.203125</ele>
        <time>2010-10-07T13:05:17Z</time>
      </trkpt>
      <trkpt lat="45.34051" lon="6.71009">
        <ele>2148.683838</ele>
        <time>2010-10-07T13:05:22Z</time>
      </trkpt>
      <trkpt lat="45.34052" lon="6.71013">
        <ele>2149.645264</ele>
        <time>2010-10-07T13:05:31Z</time>
      </trkpt>
      <trkpt lat="45.34059" lon="6.71018">
        <ele>2151.087158</ele>
        <time>2010-10-07T13:05:38Z</time>
      </trkpt>
      <trkpt lat="45.3406" lon="6.71018">
        <ele>2151.087158</ele>
        <time>2010-10-07T13:05:39Z</time>
      </trkpt>
      <trkpt lat="45.34069" lon="6.71026">
        <ele>2152.04834</ele>
        <time>2010-10-07T13:05:48Z</time>
      </trkpt>
      <trkpt lat="45.34074" lon="6.71034">
        <ele>2151.087158</ele>
        <time>2010-10-07T13:05:54Z</time>
      </trkpt>
      <trkpt lat="45.34078" lon="6.71047">
        <ele>2148.683838</ele>
        <time>2010-10-07T13:06:01Z</time>
      </trkpt>
      <trkpt lat="45.34078" lon="6.71059">
        <ele>2147.722656</ele>
        <time>2010-10-07T13:06:07Z</time>
      </trkpt>
      <trkpt lat="45.34078" lon="6.71065">
        <ele>2147.241943</ele>
        <time>2010-10-07T13:06:11Z</time>
      </trkpt>
      <trkpt lat="45.34079" lon="6.71072">
        <ele>2146.280762</ele>
        <time>2010-10-07T13:06:16Z</time>
      </trkpt>
      <trkpt lat="45.34082" lon="6.71084">
        <ele>2145.319336</ele>
        <time>2010-10-07T13:06:23Z</time>
      </trkpt>
      <trkpt lat="45.34087" lon="6.71094">
        <ele>2142.916016</ele>
        <time>2010-10-07T13:06:32Z</time>
      </trkpt>
      <trkpt lat="45.3409" lon="6.71099">
        <ele>2142.435547</ele>
        <time>2010-10-07T13:06:39Z</time>
      </trkpt>
      <trkpt lat="45.34093" lon="6.71104">
        <ele>2141.474121</ele>
        <time>2010-10-07T13:06:45Z</time>
      </trkpt>
      <trkpt lat="45.34096" lon="6.71113">
        <ele>2139.55127</ele>
        <time>2010-10-07T13:06:52Z</time>
      </trkpt>
      <trkpt lat="45.34099" lon="6.71116">
        <ele>2138.109375</ele>
        <time>2010-10-07T13:06:58Z</time>
      </trkpt>
      <trkpt lat="45.34104" lon="6.71122">
        <ele>2137.147949</ele>
        <time>2010-10-07T13:07:03Z</time>
      </trkpt>
      <trkpt lat="45.34109" lon="6.71133">
        <ele>2136.186768</ele>
        <time>2010-10-07T13:07:10Z</time>
      </trkpt>
      <trkpt lat="45.3411" lon="6.71139">
        <ele>2135.706055</ele>
        <time>2010-10-07T13:07:15Z</time>
      </trkpt>
      <trkpt lat="45.34111" lon="6.71141">
        <ele>2136.186768</ele>
        <time>2010-10-07T13:07:16Z</time>
      </trkpt>
      <trkpt lat="45.34115" lon="6.71144">
        <ele>2138.109375</ele>
        <time>2010-10-07T13:07:21Z</time>
      </trkpt>
      <trkpt lat="45.3412" lon="6.71146">
        <ele>2139.070557</ele>
        <time>2010-10-07T13:07:26Z</time>
      </trkpt>
      <trkpt lat="45.34122" lon="6.71148">
        <ele>2140.032227</ele>
        <time>2010-10-07T13:07:29Z</time>
      </trkpt>
      <trkpt lat="45.34124" lon="6.71153">
        <ele>2140.512695</ele>
        <time>2010-10-07T13:07:34Z</time>
      </trkpt>
      <trkpt lat="45.34125" lon="6.71156">
        <ele>2140.993408</ele>
        <time>2010-10-07T13:07:39Z</time>
      </trkpt>
      <trkpt lat="45.34127" lon="6.7116">
        <ele>2140.512695</ele>
        <time>2010-10-07T13:07:43Z</time>
      </trkpt>
      <trkpt lat="45.34133" lon="6.71164">
        <ele>2140.993408</ele>
        <time>2010-10-07T13:07:49Z</time>
      </trkpt>
      <trkpt lat="45.34136" lon="6.71166">
        <ele>2141.954834</ele>
        <time>2010-10-07T13:07:53Z</time>
      </trkpt>
      <trkpt lat="45.34139" lon="6.71173">
        <ele>2144.838623</ele>
        <time>2010-10-07T13:08:00Z</time>
      </trkpt>
      <trkpt lat="45.34141" lon="6.71176">
        <ele>2146.76123</ele>
        <time>2010-10-07T13:08:06Z</time>
      </trkpt>
      <trkpt lat="45.34146" lon="6.7118">
        <ele>2146.280762</ele>
        <time>2010-10-07T13:08:11Z</time>
      </trkpt>
      <trkpt lat="45.34149" lon="6.71181">
        <ele>2146.280762</ele>
        <time>2010-10-07T13:08:14Z</time>
      </trkpt>
      <trkpt lat="45.34155" lon="6.71183">
        <ele>2146.280762</ele>
        <time>2010-10-07T13:08:20Z</time>
      </trkpt>
      <trkpt lat="45.34158" lon="6.71184">
        <ele>2146.280762</ele>
        <time>2010-10-07T13:08:23Z</time>
      </trkpt>
      <trkpt lat="45.3416" lon="6.71187">
        <ele>2147.241943</ele>
        <time>2010-10-07T13:08:28Z</time>
      </trkpt>
      <trkpt lat="45.34162" lon="6.71189">
        <ele>2147.722656</ele>
        <time>2010-10-07T13:08:33Z</time>
      </trkpt>
      <trkpt lat="45.34166" lon="6.71191">
        <ele>2147.722656</ele>
        <time>2010-10-07T13:08:37Z</time>
      </trkpt>
      <trkpt lat="45.3417" lon="6.71193">
        <ele>2147.241943</ele>
        <time>2010-10-07T13:08:43Z</time>
      </trkpt>
      <trkpt lat="45.34172" lon="6.71194">
        <ele>2146.280762</ele>
        <time>2010-10-07T13:08:56Z</time>
      </trkpt>
      <trkpt lat="45.34175" lon="6.71196">
        <ele>2148.203125</ele>
        <time>2010-10-07T13:09:00Z</time>
      </trkpt>
      <trkpt lat="45.34177" lon="6.71199">
        <ele>2149.164551</ele>
        <time>2010-10-07T13:09:05Z</time>
      </trkpt>
      <trkpt lat="45.34179" lon="6.71203">
        <ele>2150.606445</ele>
        <time>2010-10-07T13:09:09Z</time>
      </trkpt>
      <trkpt lat="45.34182" lon="6.71206">
        <ele>2151.087158</ele>
        <time>2010-10-07T13:09:15Z</time>
      </trkpt>
      <trkpt lat="45.34184" lon="6.71205">
        <ele>2152.04834</ele>
        <time>2010-10-07T13:09:24Z</time>
      </trkpt>
      <trkpt lat="45.34183" lon="6.71204">
        <ele>2153.971191</ele>
        <time>2010-10-07T13:09:33Z</time>
      </trkpt>
      <trkpt lat="45.34185" lon="6.71209">
        <ele>2154.45166</ele>
        <time>2010-10-07T13:09:46Z</time>
      </trkpt>
      <trkpt lat="45.3419" lon="6.71215">
        <ele>2155.893555</ele>
        <time>2010-10-07T13:09:53Z</time>
      </trkpt>
      <trkpt lat="45.34195" lon="6.71219">
        <ele>2156.374512</ele>
        <time>2010-10-07T13:09:59Z</time>
      </trkpt>
      <trkpt lat="45.34204" lon="6.71226">
        <ele>2156.855225</ele>
        <time>2010-10-07T13:10:07Z</time>
      </trkpt>
      <trkpt lat="45.34211" lon="6.71231">
        <ele>2155.413086</ele>
        <time>2010-10-07T13:10:13Z</time>
      </trkpt>
      <trkpt lat="45.34221" lon="6.71237">
        <ele>2153.971191</ele>
        <time>2010-10-07T13:10:21Z</time>
      </trkpt>
      <trkpt lat="45.34228" lon="6.71244">
        <ele>2153.971191</ele>
        <time>2010-10-07T13:10:28Z</time>
      </trkpt>
      <trkpt lat="45.34229" lon="6.71247">
        <ele>2154.45166</ele>
        <time>2010-10-07T13:10:30Z</time>
      </trkpt>
      <trkpt lat="45.34232" lon="6.71253">
        <ele>2154.45166</ele>
        <time>2010-10-07T13:10:36Z</time>
      </trkpt>
      <trkpt lat="45.34236" lon="6.71254">
        <ele>2154.45166</ele>
        <time>2010-10-07T13:10:41Z</time>
      </trkpt>
      <trkpt lat="45.3424" lon="6.71256">
        <ele>2154.45166</ele>
        <time>2010-10-07T13:10:44Z</time>
      </trkpt>
      <trkpt lat="45.34246" lon="6.71263">
        <ele>2152.04834</ele>
        <time>2010-10-07T13:10:50Z</time>
      </trkpt>
      <trkpt lat="45.34251" lon="6.71268">
        <ele>2151.567871</ele>
        <time>2010-10-07T13:10:55Z</time>
      </trkpt>
      <trkpt lat="45.34259" lon="6.71272">
        <ele>2151.087158</ele>
        <time>2010-10-07T13:11:01Z</time>
      </trkpt>
      <trkpt lat="45.34264" lon="6.71273">
        <ele>2152.04834</ele>
        <time>2010-10-07T13:11:06Z</time>
      </trkpt>
      <trkpt lat="45.34267" lon="6.71273">
        <ele>2152.529053</ele>
        <time>2010-10-07T13:11:09Z</time>
      </trkpt>
      <trkpt lat="45.34269" lon="6.71272">
        <ele>2153.490479</ele>
        <time>2010-10-07T13:11:12Z</time>
      </trkpt>
      <trkpt lat="45.34272" lon="6.71269">
        <ele>2155.413086</ele>
        <time>2010-10-07T13:11:16Z</time>
      </trkpt>
      <trkpt lat="45.34275" lon="6.71266">
        <ele>2157.335938</ele>
        <time>2010-10-07T13:11:21Z</time>
      </trkpt>
      <trkpt lat="45.34279" lon="6.71265">
        <ele>2159.258545</ele>
        <time>2010-10-07T13:11:27Z</time>
      </trkpt>
      <trkpt lat="45.3428" lon="6.7127">
        <ele>2160.700439</ele>
        <time>2010-10-07T13:11:31Z</time>
      </trkpt>
      <trkpt lat="45.3428" lon="6.71276">
        <ele>2162.142334</ele>
        <time>2010-10-07T13:11:36Z</time>
      </trkpt>
      <trkpt lat="45.34282" lon="6.71282">
        <ele>2162.142334</ele>
        <time>2010-10-07T13:11:41Z</time>
      </trkpt>
      <trkpt lat="45.34285" lon="6.71287">
        <ele>2162.623047</ele>
        <time>2010-10-07T13:11:45Z</time>
      </trkpt>
      <trkpt lat="45.34287" lon="6.71291">
        <ele>2163.584229</ele>
        <time>2010-10-07T13:11:49Z</time>
      </trkpt>
      <trkpt lat="45.34288" lon="6.71292">
        <ele>2165.987549</ele>
        <time>2010-10-07T13:11:57Z</time>
      </trkpt>
      <trkpt lat="45.34289" lon="6.71295">
        <ele>2165.50708</ele>
        <time>2010-10-07T13:12:00Z</time>
      </trkpt>
      <trkpt lat="45.34292" lon="6.713">
        <ele>2165.987549</ele>
        <time>2010-10-07T13:12:05Z</time>
      </trkpt>
      <trkpt lat="45.34293" lon="6.71304">
        <ele>2166.468262</ele>
        <time>2010-10-07T13:12:07Z</time>
      </trkpt>
      <trkpt lat="45.34292" lon="6.71313">
        <ele>2166.468262</ele>
        <time>2010-10-07T13:12:13Z</time>
      </trkpt>
      <trkpt lat="45.34293" lon="6.71321">
        <ele>2166.468262</ele>
        <time>2010-10-07T13:12:18Z</time>
      </trkpt>
      <trkpt lat="45.34294" lon="6.71328">
        <ele>2165.987549</ele>
        <time>2010-10-07T13:12:22Z</time>
      </trkpt>
      <trkpt lat="45.34292" lon="6.71336">
        <ele>2165.987549</ele>
        <time>2010-10-07T13:12:28Z</time>
      </trkpt>
      <trkpt lat="45.34289" lon="6.71344">
        <ele>2167.910156</ele>
        <time>2010-10-07T13:12:34Z</time>
      </trkpt>
      <trkpt lat="45.34289" lon="6.71345">
        <ele>2168.390869</ele>
        <time>2010-10-07T13:12:35Z</time>
      </trkpt>
      <trkpt lat="45.34287" lon="6.71356">
        <ele>2168.871582</ele>
        <time>2010-10-07T13:12:42Z</time>
      </trkpt>
      <trkpt lat="45.34286" lon="6.7136">
        <ele>2168.871582</ele>
        <time>2010-10-07T13:12:45Z</time>
      </trkpt>
      <trkpt lat="45.3428" lon="6.71369">
        <ele>2168.871582</ele>
        <time>2010-10-07T13:12:52Z</time>
      </trkpt>
      <trkpt lat="45.34277" lon="6.71373">
        <ele>2168.871582</ele>
        <time>2010-10-07T13:12:57Z</time>
      </trkpt>
      <trkpt lat="45.34274" lon="6.71381">
        <ele>2171.274658</ele>
        <time>2010-10-07T13:13:04Z</time>
      </trkpt>
      <trkpt lat="45.34268" lon="6.71388">
        <ele>2169.832764</ele>
        <time>2010-10-07T13:13:10Z</time>
      </trkpt>
      <trkpt lat="45.34264" lon="6.71392">
        <ele>2170.313477</ele>
        <time>2010-10-07T13:13:15Z</time>
      </trkpt>
      <trkpt lat="45.34262" lon="6.71394">
        <ele>2170.794189</ele>
        <time>2010-10-07T13:13:18Z</time>
      </trkpt>
      <trkpt lat="45.34257" lon="6.714">
        <ele>2170.313477</ele>
        <time>2010-10-07T13:13:24Z</time>
      </trkpt>
      <trkpt lat="45.34257" lon="6.71401">
        <ele>2170.794189</ele>
        <time>2010-10-07T13:13:25Z</time>
      </trkpt>
      <trkpt lat="45.34257" lon="6.71404">
        <ele>2170.794189</ele>
        <time>2010-10-07T13:13:27Z</time>
      </trkpt>
      <trkpt lat="45.34256" lon="6.71415">
        <ele>2172.717041</ele>
        <time>2010-10-07T13:13:33Z</time>
      </trkpt>
      <trkpt lat="45.34256" lon="6.71418">
        <ele>2172.717041</ele>
        <time>2010-10-07T13:13:35Z</time>
      </trkpt>
      <trkpt lat="45.34254" lon="6.71429">
        <ele>2171.755371</ele>
        <time>2010-10-07T13:13:42Z</time>
      </trkpt>
      <trkpt lat="45.34255" lon="6.71435">
        <ele>2171.755371</ele>
        <time>2010-10-07T13:13:45Z</time>
      </trkpt>
      <trkpt lat="45.34254" lon="6.71443">
        <ele>2173.197754</ele>
        <time>2010-10-07T13:13:50Z</time>
      </trkpt>
      <trkpt lat="45.3425" lon="6.7145">
        <ele>2173.678223</ele>
        <time>2010-10-07T13:13:56Z</time>
      </trkpt>
      <trkpt lat="45.34247" lon="6.71455">
        <ele>2173.197754</ele>
        <time>2010-10-07T13:13:59Z</time>
      </trkpt>
      <trkpt lat="45.34245" lon="6.71462">
        <ele>2174.158936</ele>
        <time>2010-10-07T13:14:04Z</time>
      </trkpt>
      <trkpt lat="45.34244" lon="6.71468">
        <ele>2175.120117</ele>
        <time>2010-10-07T13:14:08Z</time>
      </trkpt>
      <trkpt lat="45.34241" lon="6.71478">
        <ele>2175.60083</ele>
        <time>2010-10-07T13:14:15Z</time>
      </trkpt>
      <trkpt lat="45.34239" lon="6.71485">
        <ele>2176.081543</ele>
        <time>2010-10-07T13:14:20Z</time>
      </trkpt>
      <trkpt lat="45.34237" lon="6.71492">
        <ele>2176.081543</ele>
        <time>2010-10-07T13:14:25Z</time>
      </trkpt>
      <trkpt lat="45.34235" lon="6.71497">
        <ele>2177.042969</ele>
        <time>2010-10-07T13:14:29Z</time>
      </trkpt>
      <trkpt lat="45.34233" lon="6.71502">
        <ele>2177.523438</ele>
        <time>2010-10-07T13:14:33Z</time>
      </trkpt>
      <trkpt lat="45.3423" lon="6.71511">
        <ele>2178.484863</ele>
        <time>2010-10-07T13:14:39Z</time>
      </trkpt>
      <trkpt lat="45.3423" lon="6.71515">
        <ele>2178.965332</ele>
        <time>2010-10-07T13:14:42Z</time>
      </trkpt>
      <trkpt lat="45.34229" lon="6.7152">
        <ele>2179.446045</ele>
        <time>2010-10-07T13:14:45Z</time>
      </trkpt>
      <trkpt lat="45.34227" lon="6.71532">
        <ele>2179.446045</ele>
        <time>2010-10-07T13:14:52Z</time>
      </trkpt>
      <trkpt lat="45.34227" lon="6.71544">
        <ele>2178.484863</ele>
        <time>2010-10-07T13:14:59Z</time>
      </trkpt>
      <trkpt lat="45.34226" lon="6.7155">
        <ele>2178.484863</ele>
        <time>2010-10-07T13:15:03Z</time>
      </trkpt>
      <trkpt lat="45.34224" lon="6.71556">
        <ele>2178.965332</ele>
        <time>2010-10-07T13:15:07Z</time>
      </trkpt>
      <trkpt lat="45.34225" lon="6.71565">
        <ele>2180.888184</ele>
        <time>2010-10-07T13:15:14Z</time>
      </trkpt>
      <trkpt lat="45.34224" lon="6.7157">
        <ele>2181.849365</ele>
        <time>2010-10-07T13:15:17Z</time>
      </trkpt>
      <trkpt lat="45.3422" lon="6.71577">
        <ele>2182.330078</ele>
        <time>2010-10-07T13:15:22Z</time>
      </trkpt>
      <trkpt lat="45.3422" lon="6.7158">
        <ele>2181.849365</ele>
        <time>2010-10-07T13:15:25Z</time>
      </trkpt>
      <trkpt lat="45.34218" lon="6.71586">
        <ele>2180.407471</ele>
        <time>2010-10-07T13:15:30Z</time>
      </trkpt>
      <trkpt lat="45.34215" lon="6.71593">
        <ele>2178.965332</ele>
        <time>2010-10-07T13:15:35Z</time>
      </trkpt>
      <trkpt lat="45.34213" lon="6.71599">
        <ele>2178.484863</ele>
        <time>2010-10-07T13:15:40Z</time>
      </trkpt>
      <trkpt lat="45.34211" lon="6.71605">
        <ele>2178.00415</ele>
        <time>2010-10-07T13:15:44Z</time>
      </trkpt>
      <trkpt lat="45.34206" lon="6.71617">
        <ele>2178.00415</ele>
        <time>2010-10-07T13:15:52Z</time>
      </trkpt>
      <trkpt lat="45.34203" lon="6.71626">
        <ele>2178.00415</ele>
        <time>2010-10-07T13:15:58Z</time>
      </trkpt>
      <trkpt lat="45.342" lon="6.71635">
        <ele>2177.523438</ele>
        <time>2010-10-07T13:16:05Z</time>
      </trkpt>
      <trkpt lat="45.342" lon="6.71636">
        <ele>2177.042969</ele>
        <time>2010-10-07T13:16:06Z</time>
      </trkpt>
      <trkpt lat="45.34198" lon="6.71645">
        <ele>2175.60083</ele>
        <time>2010-10-07T13:16:11Z</time>
      </trkpt>
      <trkpt lat="45.34198" lon="6.71649">
        <ele>2175.120117</ele>
        <time>2010-10-07T13:16:14Z</time>
      </trkpt>
      <trkpt lat="45.34196" lon="6.71655">
        <ele>2175.120117</ele>
        <time>2010-10-07T13:16:19Z</time>
      </trkpt>
      <trkpt lat="45.34198" lon="6.71665">
        <ele>2174.158936</ele>
        <time>2010-10-07T13:16:26Z</time>
      </trkpt>
      <trkpt lat="45.34196" lon="6.71673">
        <ele>2173.197754</ele>
        <time>2010-10-07T13:16:32Z</time>
      </trkpt>
      <trkpt lat="45.34193" lon="6.71688">
        <ele>2172.236328</ele>
        <time>2010-10-07T13:16:41Z</time>
      </trkpt>
      <trkpt lat="45.3419" lon="6.71696">
        <ele>2172.236328</ele>
        <time>2010-10-07T13:16:48Z</time>
      </trkpt>
      <trkpt lat="45.34191" lon="6.71699">
        <ele>2173.678223</ele>
        <time>2010-10-07T13:16:50Z</time>
      </trkpt>
      <trkpt lat="45.34191" lon="6.71708">
        <ele>2174.639648</ele>
        <time>2010-10-07T13:16:57Z</time>
      </trkpt>
      <trkpt lat="45.34192" lon="6.71716">
        <ele>2176.562256</ele>
        <time>2010-10-07T13:17:04Z</time>
      </trkpt>
      <trkpt lat="45.34192" lon="6.7172">
        <ele>2178.00415</ele>
        <time>2010-10-07T13:17:09Z</time>
      </trkpt>
      <trkpt lat="45.3419" lon="6.71721">
        <ele>2178.484863</ele>
        <time>2010-10-07T13:17:14Z</time>
      </trkpt>
      <trkpt lat="45.3419" lon="6.71721">
        <ele>2179.926758</ele>
        <time>2010-10-07T13:17:27Z</time>
      </trkpt>
      <trkpt lat="45.3419" lon="6.71724">
        <ele>2180.407471</ele>
        <time>2010-10-07T13:17:38Z</time>
      </trkpt>
      <trkpt lat="45.34189" lon="6.71719">
        <ele>2180.407471</ele>
        <time>2010-10-07T13:17:43Z</time>
      </trkpt>
      <trkpt lat="45.34192" lon="6.71719">
        <ele>2179.446045</ele>
        <time>2010-10-07T13:17:47Z</time>
      </trkpt>
      <trkpt lat="45.34198" lon="6.71717">
        <ele>2177.042969</ele>
        <time>2010-10-07T13:17:53Z</time>
      </trkpt>
      <trkpt lat="45.34199" lon="6.71716">
        <ele>2176.081543</ele>
        <time>2010-10-07T13:17:55Z</time>
      </trkpt>
      <trkpt lat="45.34204" lon="6.71706">
        <ele>2175.60083</ele>
        <time>2010-10-07T13:18:01Z</time>
      </trkpt>
      <trkpt lat="45.34207" lon="6.717">
        <ele>2176.081543</ele>
        <time>2010-10-07T13:18:06Z</time>
      </trkpt>
      <trkpt lat="45.34212" lon="6.71696">
        <ele>2176.081543</ele>
        <time>2010-10-07T13:18:11Z</time>
      </trkpt>
      <trkpt lat="45.34217" lon="6.71696">
        <ele>2173.678223</ele>
        <time>2010-10-07T13:18:16Z</time>
      </trkpt>
      <trkpt lat="45.34222" lon="6.71693">
        <ele>2173.197754</ele>
        <time>2010-10-07T13:18:21Z</time>
      </trkpt>
      <trkpt lat="45.34223" lon="6.71693">
        <ele>2173.197754</ele>
        <time>2010-10-07T13:18:22Z</time>
      </trkpt>
      <trkpt lat="45.34227" lon="6.71693">
        <ele>2172.236328</ele>
        <time>2010-10-07T13:18:26Z</time>
      </trkpt>
      <trkpt lat="45.34232" lon="6.71697">
        <ele>2171.274658</ele>
        <time>2010-10-07T13:18:34Z</time>
      </trkpt>
      <trkpt lat="45.34236" lon="6.717">
        <ele>2169.352295</ele>
        <time>2010-10-07T13:18:40Z</time>
      </trkpt>
      <trkpt lat="45.3424" lon="6.71696">
        <ele>2167.910156</ele>
        <time>2010-10-07T13:18:45Z</time>
      </trkpt>
      <trkpt lat="45.34244" lon="6.71694">
        <ele>2167.429443</ele>
        <time>2010-10-07T13:18:50Z</time>
      </trkpt>
      <trkpt lat="45.34248" lon="6.71692">
        <ele>2164.545654</ele>
        <time>2010-10-07T13:18:56Z</time>
      </trkpt>
      <trkpt lat="45.34251" lon="6.71694">
        <ele>2163.584229</ele>
        <time>2010-10-07T13:19:01Z</time>
      </trkpt>
      <trkpt lat="45.34252" lon="6.71699">
        <ele>2162.142334</ele>
        <time>2010-10-07T13:19:07Z</time>
      </trkpt>
      <trkpt lat="45.34255" lon="6.71693">
        <ele>2162.623047</ele>
        <time>2010-10-07T13:19:12Z</time>
      </trkpt>
      <trkpt lat="45.34257" lon="6.71685">
        <ele>2162.623047</ele>
        <time>2010-10-07T13:19:19Z</time>
      </trkpt>
      <trkpt lat="45.34257" lon="6.7168">
        <ele>2163.584229</ele>
        <time>2010-10-07T13:19:23Z</time>
      </trkpt>
      <trkpt lat="45.34257" lon="6.71675">
        <ele>2162.142334</ele>
        <time>2010-10-07T13:19:28Z</time>
      </trkpt>
      <trkpt lat="45.34259" lon="6.71673">
        <ele>2160.219727</ele>
        <time>2010-10-07T13:19:33Z</time>
      </trkpt>
      <trkpt lat="45.3426" lon="6.71667">
        <ele>2159.258545</ele>
        <time>2010-10-07T13:19:38Z</time>
      </trkpt>
      <trkpt lat="45.34261" lon="6.71663">
        <ele>2158.297119</ele>
        <time>2010-10-07T13:19:43Z</time>
      </trkpt>
      <trkpt lat="45.34263" lon="6.71657">
        <ele>2156.855225</ele>
        <time>2010-10-07T13:19:48Z</time>
      </trkpt>
      <trkpt lat="45.34265" lon="6.71653">
        <ele>2155.893555</ele>
        <time>2010-10-07T13:19:53Z</time>
      </trkpt>
      <trkpt lat="45.34266" lon="6.71647">
        <ele>2155.893555</ele>
        <time>2010-10-07T13:19:59Z</time>
      </trkpt>
      <trkpt lat="45.34271" lon="6.71644">
        <ele>2153.490479</ele>
        <time>2010-10-07T13:20:05Z</time>
      </trkpt>
      <trkpt lat="45.34274" lon="6.71639">
        <ele>2151.087158</ele>
        <time>2010-10-07T13:20:11Z</time>
      </trkpt>
      <trkpt lat="45.34277" lon="6.71634">
        <ele>2149.164551</ele>
        <time>2010-10-07T13:20:16Z</time>
      </trkpt>
      <trkpt lat="45.3428" lon="6.71634">
        <ele>2147.241943</ele>
        <time>2010-10-07T13:20:21Z</time>
      </trkpt>
      <trkpt lat="45.34283" lon="6.71635">
        <ele>2145.800049</ele>
        <time>2010-10-07T13:20:26Z</time>
      </trkpt>
      <trkpt lat="45.34286" lon="6.71628">
        <ele>2144.838623</ele>
        <time>2010-10-07T13:20:32Z</time>
      </trkpt>
      <trkpt lat="45.34288" lon="6.71623">
        <ele>2142.916016</ele>
        <time>2010-10-07T13:20:37Z</time>
      </trkpt>
      <trkpt lat="45.34292" lon="6.71628">
        <ele>2140.993408</ele>
        <time>2010-10-07T13:20:41Z</time>
      </trkpt>
      <trkpt lat="45.34296" lon="6.71638">
        <ele>2140.032227</ele>
        <time>2010-10-07T13:20:48Z</time>
      </trkpt>
      <trkpt lat="45.34301" lon="6.71647">
        <ele>2139.070557</ele>
        <time>2010-10-07T13:20:56Z</time>
      </trkpt>
      <trkpt lat="45.34301" lon="6.71653">
        <ele>2138.109375</ele>
        <time>2010-10-07T13:21:01Z</time>
      </trkpt>
      <trkpt lat="45.34301" lon="6.71659">
        <ele>2136.186768</ele>
        <time>2010-10-07T13:21:06Z</time>
      </trkpt>
      <trkpt lat="45.34301" lon="6.71664">
        <ele>2135.706055</ele>
        <time>2010-10-07T13:21:11Z</time>
      </trkpt>
      <trkpt lat="45.34301" lon="6.71672">
        <ele>2134.744873</ele>
        <time>2010-10-07T13:21:17Z</time>
      </trkpt>
      <trkpt lat="45.34304" lon="6.71679">
        <ele>2132.822021</ele>
        <time>2010-10-07T13:21:23Z</time>
      </trkpt>
      <trkpt lat="45.34309" lon="6.71677">
        <ele>2131.86084</ele>
        <time>2010-10-07T13:21:28Z</time>
      </trkpt>
      <trkpt lat="45.34313" lon="6.7167">
        <ele>2130.899658</ele>
        <time>2010-10-07T13:21:34Z</time>
      </trkpt>
      <trkpt lat="45.34317" lon="6.71667">
        <ele>2130.418945</ele>
        <time>2010-10-07T13:21:40Z</time>
      </trkpt>
      <trkpt lat="45.34323" lon="6.71662">
        <ele>2130.899658</ele>
        <time>2010-10-07T13:21:47Z</time>
      </trkpt>
      <trkpt lat="45.34327" lon="6.7166">
        <ele>2129.938232</ele>
        <time>2010-10-07T13:21:52Z</time>
      </trkpt>
      <trkpt lat="45.34331" lon="6.71659">
        <ele>2129.45752</ele>
        <time>2010-10-07T13:21:57Z</time>
      </trkpt>
      <trkpt lat="45.34336" lon="6.71657">
        <ele>2128.015625</ele>
        <time>2010-10-07T13:22:03Z</time>
      </trkpt>
      <trkpt lat="45.3434" lon="6.71652">
        <ele>2128.015625</ele>
        <time>2010-10-07T13:22:09Z</time>
      </trkpt>
      <trkpt lat="45.34344" lon="6.71649">
        <ele>2125.131592</ele>
        <time>2010-10-07T13:22:15Z</time>
      </trkpt>
      <trkpt lat="45.34348" lon="6.71646">
        <ele>2123.689453</ele>
        <time>2010-10-07T13:22:20Z</time>
      </trkpt>
      <trkpt lat="45.34352" lon="6.71646">
        <ele>2121.766846</ele>
        <time>2010-10-07T13:22:25Z</time>
      </trkpt>
      <trkpt lat="45.34356" lon="6.71647">
        <ele>2119.844238</ele>
        <time>2010-10-07T13:22:31Z</time>
      </trkpt>
      <trkpt lat="45.34357" lon="6.71642">
        <ele>2118.402344</ele>
        <time>2010-10-07T13:22:37Z</time>
      </trkpt>
      <trkpt lat="45.3436" lon="6.71638">
        <ele>2116.479736</ele>
        <time>2010-10-07T13:22:43Z</time>
      </trkpt>
      <trkpt lat="45.34362" lon="6.71635">
        <ele>2115.999023</ele>
        <time>2010-10-07T13:22:48Z</time>
      </trkpt>
      <trkpt lat="45.34367" lon="6.71634">
        <ele>2115.037842</ele>
        <time>2010-10-07T13:22:54Z</time>
      </trkpt>
      <trkpt lat="45.3437" lon="6.71629">
        <ele>2113.595703</ele>
        <time>2010-10-07T13:22:59Z</time>
      </trkpt>
      <trkpt lat="45.34372" lon="6.71626">
        <ele>2113.115234</ele>
        <time>2010-10-07T13:23:04Z</time>
      </trkpt>
      <trkpt lat="45.34376" lon="6.7162">
        <ele>2111.67334</ele>
        <time>2010-10-07T13:23:10Z</time>
      </trkpt>
      <trkpt lat="45.3438" lon="6.71615">
        <ele>2111.192627</ele>
        <time>2010-10-07T13:23:16Z</time>
      </trkpt>
      <trkpt lat="45.34384" lon="6.7161">
        <ele>2109.750488</ele>
        <time>2010-10-07T13:23:22Z</time>
      </trkpt>
      <trkpt lat="45.34387" lon="6.71607">
        <ele>2109.27002</ele>
        <time>2010-10-07T13:23:27Z</time>
      </trkpt>
      <trkpt lat="45.34391" lon="6.71601">
        <ele>2108.308594</ele>
        <time>2010-10-07T13:23:34Z</time>
      </trkpt>
      <trkpt lat="45.34396" lon="6.71599">
        <ele>2105.424561</ele>
        <time>2010-10-07T13:23:40Z</time>
      </trkpt>
      <trkpt lat="45.344" lon="6.71595">
        <ele>2104.463135</ele>
        <time>2010-10-07T13:23:46Z</time>
      </trkpt>
      <trkpt lat="45.344" lon="6.71588">
        <ele>2103.501953</ele>
        <time>2010-10-07T13:23:52Z</time>
      </trkpt>
      <trkpt lat="45.34401" lon="6.71582">
        <ele>2103.02124</ele>
        <time>2010-10-07T13:23:58Z</time>
      </trkpt>
      <trkpt lat="45.34402" lon="6.71577">
        <ele>2101.098633</ele>
        <time>2010-10-07T13:24:04Z</time>
      </trkpt>
      <trkpt lat="45.34404" lon="6.71576">
        <ele>2099.656738</ele>
        <time>2010-10-07T13:24:09Z</time>
      </trkpt>
      <trkpt lat="45.34407" lon="6.71579">
        <ele>2098.695312</ele>
        <time>2010-10-07T13:24:13Z</time>
      </trkpt>
      <trkpt lat="45.34409" lon="6.71578">
        <ele>2096.772705</ele>
        <time>2010-10-07T13:24:18Z</time>
      </trkpt>
      <trkpt lat="45.34408" lon="6.71574">
        <ele>2094.850098</ele>
        <time>2010-10-07T13:24:23Z</time>
      </trkpt>
      <trkpt lat="45.34408" lon="6.71569">
        <ele>2094.369385</ele>
        <time>2010-10-07T13:24:28Z</time>
      </trkpt>
      <trkpt lat="45.34408" lon="6.71564">
        <ele>2092.92749</ele>
        <time>2010-10-07T13:24:33Z</time>
      </trkpt>
      <trkpt lat="45.34412" lon="6.71565">
        <ele>2090.523926</ele>
        <time>2010-10-07T13:24:38Z</time>
      </trkpt>
      <trkpt lat="45.34415" lon="6.71565">
        <ele>2089.082031</ele>
        <time>2010-10-07T13:24:42Z</time>
      </trkpt>
      <trkpt lat="45.34416" lon="6.71562">
        <ele>2089.562744</ele>
        <time>2010-10-07T13:24:49Z</time>
      </trkpt>
      <trkpt lat="45.34416" lon="6.71555">
        <ele>2087.159424</ele>
        <time>2010-10-07T13:24:55Z</time>
      </trkpt>
      <trkpt lat="45.34417" lon="6.71549">
        <ele>2086.198242</ele>
        <time>2010-10-07T13:25:01Z</time>
      </trkpt>
      <trkpt lat="45.34423" lon="6.71551">
        <ele>2083.794922</ele>
        <time>2010-10-07T13:25:06Z</time>
      </trkpt>
      <trkpt lat="45.34424" lon="6.71551">
        <ele>2083.314209</ele>
        <time>2010-10-07T13:25:07Z</time>
      </trkpt>
      <trkpt lat="45.3443" lon="6.71552">
        <ele>2081.391602</ele>
        <time>2010-10-07T13:25:14Z</time>
      </trkpt>
      <trkpt lat="45.34432" lon="6.7155">
        <ele>2079.949707</ele>
        <time>2010-10-07T13:25:19Z</time>
      </trkpt>
      <trkpt lat="45.34435" lon="6.71546">
        <ele>2077.546387</ele>
        <time>2010-10-07T13:25:26Z</time>
      </trkpt>
      <trkpt lat="45.3444" lon="6.71543">
        <ele>2075.623535</ele>
        <time>2010-10-07T13:25:32Z</time>
      </trkpt>
      <trkpt lat="45.34442" lon="6.7154">
        <ele>2074.181641</ele>
        <time>2010-10-07T13:25:38Z</time>
      </trkpt>
      <trkpt lat="45.34445" lon="6.71537">
        <ele>2073.220459</ele>
        <time>2010-10-07T13:25:43Z</time>
      </trkpt>
      <trkpt lat="45.34445" lon="6.71534">
        <ele>2073.700928</ele>
        <time>2010-10-07T13:25:49Z</time>
      </trkpt>
      <trkpt lat="45.34448" lon="6.71533">
        <ele>2072.259033</ele>
        <time>2010-10-07T13:26:00Z</time>
      </trkpt>
      <trkpt lat="45.34453" lon="6.71533">
        <ele>2069.375244</ele>
        <time>2010-10-07T13:26:06Z</time>
      </trkpt>
      <trkpt lat="45.34454" lon="6.71525">
        <ele>2066.971924</ele>
        <time>2010-10-07T13:26:13Z</time>
      </trkpt>
      <trkpt lat="45.34457" lon="6.7152">
        <ele>2065.049316</ele>
        <time>2010-10-07T13:26:19Z</time>
      </trkpt>
      <trkpt lat="45.34461" lon="6.71525">
        <ele>2063.607178</ele>
        <time>2010-10-07T13:26:24Z</time>
      </trkpt>
      <trkpt lat="45.34464" lon="6.71522">
        <ele>2062.165283</ele>
        <time>2010-10-07T13:26:30Z</time>
      </trkpt>
      <trkpt lat="45.34463" lon="6.71515">
        <ele>2061.204102</ele>
        <time>2010-10-07T13:26:36Z</time>
      </trkpt>
      <trkpt lat="45.34465" lon="6.71508">
        <ele>2059.28125</ele>
        <time>2010-10-07T13:26:43Z</time>
      </trkpt>
      <trkpt lat="45.34465" lon="6.71505">
        <ele>2059.28125</ele>
        <time>2010-10-07T13:26:45Z</time>
      </trkpt>
      <trkpt lat="45.34468" lon="6.71497">
        <ele>2058.800537</ele>
        <time>2010-10-07T13:26:51Z</time>
      </trkpt>
      <trkpt lat="45.34468" lon="6.71496">
        <ele>2058.800537</ele>
        <time>2010-10-07T13:26:52Z</time>
      </trkpt>
      <trkpt lat="45.3447" lon="6.71492">
        <ele>2058.319824</ele>
        <time>2010-10-07T13:26:58Z</time>
      </trkpt>
      <trkpt lat="45.3447" lon="6.71485">
        <ele>2057.839355</ele>
        <time>2010-10-07T13:27:04Z</time>
      </trkpt>
      <trkpt lat="45.34469" lon="6.71478">
        <ele>2056.87793</ele>
        <time>2010-10-07T13:27:09Z</time>
      </trkpt>
      <trkpt lat="45.34469" lon="6.71473">
        <ele>2056.397217</ele>
        <time>2010-10-07T13:27:14Z</time>
      </trkpt>
      <trkpt lat="45.34474" lon="6.71472">
        <ele>2054.474609</ele>
        <time>2010-10-07T13:27:20Z</time>
      </trkpt>
      <trkpt lat="45.34475" lon="6.71467">
        <ele>2053.513428</ele>
        <time>2010-10-07T13:27:26Z</time>
      </trkpt>
      <trkpt lat="45.34476" lon="6.71463">
        <ele>2053.513428</ele>
        <time>2010-10-07T13:27:30Z</time>
      </trkpt>
      <trkpt lat="45.34477" lon="6.71456">
        <ele>2053.513428</ele>
        <time>2010-10-07T13:27:36Z</time>
      </trkpt>
      <trkpt lat="45.34478" lon="6.7145">
        <ele>2052.552002</ele>
        <time>2010-10-07T13:27:41Z</time>
      </trkpt>
      <trkpt lat="45.34477" lon="6.71442">
        <ele>2053.032715</ele>
        <time>2010-10-07T13:27:47Z</time>
      </trkpt>
      <trkpt lat="45.34476" lon="6.71438">
        <ele>2052.071289</ele>
        <time>2010-10-07T13:27:50Z</time>
      </trkpt>
      <trkpt lat="45.34477" lon="6.71426">
        <ele>2053.032715</ele>
        <time>2010-10-07T13:27:57Z</time>
      </trkpt>
      <trkpt lat="45.34478" lon="6.71419">
        <ele>2053.994141</ele>
        <time>2010-10-07T13:28:01Z</time>
      </trkpt>
      <trkpt lat="45.34479" lon="6.71416">
        <ele>2054.474609</ele>
        <time>2010-10-07T13:28:03Z</time>
      </trkpt>
      <trkpt lat="45.3448" lon="6.71409">
        <ele>2056.397217</ele>
        <time>2010-10-07T13:28:08Z</time>
      </trkpt>
      <trkpt lat="45.3448" lon="6.71408">
        <ele>2056.397217</ele>
        <time>2010-10-07T13:28:09Z</time>
      </trkpt>
      <trkpt lat="45.34485" lon="6.714">
        <ele>2057.839355</ele>
        <time>2010-10-07T13:28:14Z</time>
      </trkpt>
      <trkpt lat="45.34486" lon="6.71398">
        <ele>2057.839355</ele>
        <time>2010-10-07T13:28:15Z</time>
      </trkpt>
      <trkpt lat="45.34489" lon="6.71389">
        <ele>2058.800537</ele>
        <time>2010-10-07T13:28:21Z</time>
      </trkpt>
      <trkpt lat="45.34488" lon="6.71388">
        <ele>2058.800537</ele>
        <time>2010-10-07T13:28:22Z</time>
      </trkpt>
      <trkpt lat="45.34487" lon="6.71386">
        <ele>2057.839355</ele>
        <time>2010-10-07T13:28:24Z</time>
      </trkpt>
      <trkpt lat="45.34488" lon="6.71382">
        <ele>2057.839355</ele>
        <time>2010-10-07T13:28:27Z</time>
      </trkpt>
      <trkpt lat="45.3449" lon="6.71376">
        <ele>2057.839355</ele>
        <time>2010-10-07T13:28:31Z</time>
      </trkpt>
      <trkpt lat="45.34494" lon="6.71369">
        <ele>2057.839355</ele>
        <time>2010-10-07T13:28:37Z</time>
      </trkpt>
      <trkpt lat="45.34496" lon="6.71361">
        <ele>2057.358643</ele>
        <time>2010-10-07T13:28:42Z</time>
      </trkpt>
      <trkpt lat="45.34496" lon="6.71356">
        <ele>2058.319824</ele>
        <time>2010-10-07T13:28:48Z</time>
      </trkpt>
      <trkpt lat="45.34498" lon="6.71349">
        <ele>2057.839355</ele>
        <time>2010-10-07T13:29:10Z</time>
      </trkpt>
      <trkpt lat="45.34499" lon="6.71347">
        <ele>2057.358643</ele>
        <time>2010-10-07T13:29:12Z</time>
      </trkpt>
      <trkpt lat="45.34504" lon="6.71336">
        <ele>2056.87793</ele>
        <time>2010-10-07T13:29:19Z</time>
      </trkpt>
      <trkpt lat="45.34504" lon="6.71335">
        <ele>2056.87793</ele>
        <time>2010-10-07T13:29:20Z</time>
      </trkpt>
      <trkpt lat="45.34505" lon="6.71328">
        <ele>2056.397217</ele>
        <time>2010-10-07T13:29:24Z</time>
      </trkpt>
      <trkpt lat="45.34506" lon="6.71325">
        <ele>2056.87793</ele>
        <time>2010-10-07T13:29:26Z</time>
      </trkpt>
      <trkpt lat="45.34508" lon="6.71315">
        <ele>2056.87793</ele>
        <time>2010-10-07T13:29:32Z</time>
      </trkpt>
      <trkpt lat="45.34511" lon="6.71307">
        <ele>2056.397217</ele>
        <time>2010-10-07T13:29:37Z</time>
      </trkpt>
      <trkpt lat="45.34512" lon="6.71302">
        <ele>2055.916504</ele>
        <time>2010-10-07T13:29:40Z</time>
      </trkpt>
      <trkpt lat="45.34516" lon="6.71297">
        <ele>2054.955322</ele>
        <time>2010-10-07T13:29:44Z</time>
      </trkpt>
      <trkpt lat="45.34518" lon="6.71293">
        <ele>2053.994141</ele>
        <time>2010-10-07T13:29:47Z</time>
      </trkpt>
      <trkpt lat="45.34521" lon="6.71281">
        <ele>2053.032715</ele>
        <time>2010-10-07T13:29:55Z</time>
      </trkpt>
      <trkpt lat="45.34523" lon="6.71275">
        <ele>2050.629395</ele>
        <time>2010-10-07T13:30:00Z</time>
      </trkpt>
      <trkpt lat="45.34529" lon="6.7126">
        <ele>2049.668213</ele>
        <time>2010-10-07T13:30:09Z</time>
      </trkpt>
      <trkpt lat="45.34533" lon="6.71251">
        <ele>2046.78418</ele>
        <time>2010-10-07T13:30:15Z</time>
      </trkpt>
      <trkpt lat="45.34534" lon="6.71249">
        <ele>2046.78418</ele>
        <time>2010-10-07T13:30:16Z</time>
      </trkpt>
      <trkpt lat="45.34535" lon="6.7124">
        <ele>2046.303711</ele>
        <time>2010-10-07T13:30:21Z</time>
      </trkpt>
      <trkpt lat="45.34528" lon="6.71239">
        <ele>2048.706787</ele>
        <time>2010-10-07T13:30:29Z</time>
      </trkpt>
      <trkpt lat="45.34532" lon="6.71239">
        <ele>2048.226074</ele>
        <time>2010-10-07T13:30:37Z</time>
      </trkpt>
      <trkpt lat="45.34534" lon="6.71231">
        <ele>2047.745605</ele>
        <time>2010-10-07T13:30:41Z</time>
      </trkpt>
      <trkpt lat="45.34538" lon="6.71224">
        <ele>2047.745605</ele>
        <time>2010-10-07T13:30:45Z</time>
      </trkpt>
      <trkpt lat="45.34543" lon="6.71215">
        <ele>2047.264893</ele>
        <time>2010-10-07T13:30:52Z</time>
      </trkpt>
      <trkpt lat="45.34545" lon="6.71208">
        <ele>2046.78418</ele>
        <time>2010-10-07T13:30:57Z</time>
      </trkpt>
      <trkpt lat="45.34547" lon="6.71202">
        <ele>2045.822998</ele>
        <time>2010-10-07T13:31:02Z</time>
      </trkpt>
      <trkpt lat="45.34549" lon="6.71196">
        <ele>2042.938721</ele>
        <time>2010-10-07T13:31:07Z</time>
      </trkpt>
      <trkpt lat="45.3455" lon="6.71194">
        <ele>2042.458252</ele>
        <time>2010-10-07T13:31:08Z</time>
      </trkpt>
      <trkpt lat="45.34551" lon="6.71187">
        <ele>2041.496826</ele>
        <time>2010-10-07T13:31:12Z</time>
      </trkpt>
      <trkpt lat="45.34551" lon="6.71179">
        <ele>2041.016113</ele>
        <time>2010-10-07T13:31:18Z</time>
      </trkpt>
      <trkpt lat="45.34552" lon="6.71171">
        <ele>2041.016113</ele>
        <time>2010-10-07T13:31:24Z</time>
      </trkpt>
      <trkpt lat="45.34548" lon="6.71162">
        <ele>2040.5354</ele>
        <time>2010-10-07T13:31:30Z</time>
      </trkpt>
      <trkpt lat="45.34545" lon="6.71159">
        <ele>2039.574219</ele>
        <time>2010-10-07T13:31:33Z</time>
      </trkpt>
      <trkpt lat="45.34544" lon="6.71155">
        <ele>2038.613037</ele>
        <time>2010-10-07T13:31:37Z</time>
      </trkpt>
      <trkpt lat="45.34543" lon="6.71147">
        <ele>2037.170898</ele>
        <time>2010-10-07T13:31:42Z</time>
      </trkpt>
      <trkpt lat="45.34544" lon="6.71137">
        <ele>2036.209717</ele>
        <time>2010-10-07T13:31:49Z</time>
      </trkpt>
      <trkpt lat="45.34545" lon="6.71134">
        <ele>2035.729004</ele>
        <time>2010-10-07T13:31:51Z</time>
      </trkpt>
      <trkpt lat="45.34544" lon="6.71131">
        <ele>2035.248291</ele>
        <time>2010-10-07T13:31:53Z</time>
      </trkpt>
      <trkpt lat="45.34542" lon="6.71124">
        <ele>2033.325684</ele>
        <time>2010-10-07T13:31:59Z</time>
      </trkpt>
      <trkpt lat="45.34542" lon="6.71117">
        <ele>2032.364502</ele>
        <time>2010-10-07T13:32:04Z</time>
      </trkpt>
      <trkpt lat="45.34541" lon="6.7111">
        <ele>2031.403076</ele>
        <time>2010-10-07T13:32:09Z</time>
      </trkpt>
      <trkpt lat="45.34541" lon="6.71104">
        <ele>2029.480469</ele>
        <time>2010-10-07T13:32:14Z</time>
      </trkpt>
      <trkpt lat="45.3454" lon="6.71101">
        <ele>2028.519287</ele>
        <time>2010-10-07T13:32:19Z</time>
      </trkpt>
      <trkpt lat="45.34539" lon="6.71101">
        <ele>2027.077148</ele>
        <time>2010-10-07T13:32:27Z</time>
      </trkpt>
      <trkpt lat="45.34535" lon="6.71097">
        <ele>2025.63501</ele>
        <time>2010-10-07T13:32:32Z</time>
      </trkpt>
      <trkpt lat="45.34531" lon="6.71094">
        <ele>2027.557617</ele>
        <time>2010-10-07T13:32:36Z</time>
      </trkpt>
      <trkpt lat="45.34529" lon="6.71091">
        <ele>2031.403076</ele>
        <time>2010-10-07T13:32:42Z</time>
      </trkpt>
      <trkpt lat="45.34529" lon="6.71091">
        <ele>2031.403076</ele>
        <time>2010-10-07T13:32:43Z</time>
      </trkpt>
      <trkpt lat="45.3453" lon="6.71087">
        <ele>2030.441895</ele>
        <time>2010-10-07T13:32:47Z</time>
      </trkpt>
      <trkpt lat="45.34536" lon="6.71091">
        <ele>2024.193115</ele>
        <time>2010-10-07T13:32:55Z</time>
      </trkpt>
      <trkpt lat="45.3454" lon="6.71088">
        <ele>2022.751221</ele>
        <time>2010-10-07T13:33:00Z</time>
      </trkpt>
      <trkpt lat="45.34546" lon="6.71086">
        <ele>2019.386719</ele>
        <time>2010-10-07T13:33:07Z</time>
      </trkpt>
      <trkpt lat="45.34552" lon="6.71082">
        <ele>2016.983398</ele>
        <time>2010-10-07T13:33:14Z</time>
      </trkpt>
      <trkpt lat="45.34554" lon="6.7108">
        <ele>2016.983398</ele>
        <time>2010-10-07T13:33:18Z</time>
      </trkpt>
      <trkpt lat="45.34552" lon="6.71075">
        <ele>2016.983398</ele>
        <time>2010-10-07T13:33:22Z</time>
      </trkpt>
      <trkpt lat="45.3455" lon="6.71072">
        <ele>2015.541504</ele>
        <time>2010-10-07T13:33:25Z</time>
      </trkpt>
      <trkpt lat="45.34546" lon="6.71069">
        <ele>2014.580078</ele>
        <time>2010-10-07T13:33:31Z</time>
      </trkpt>
      <trkpt lat="45.34544" lon="6.71063">
        <ele>2012.657471</ele>
        <time>2010-10-07T13:33:37Z</time>
      </trkpt>
      <trkpt lat="45.34549" lon="6.71061">
        <ele>2010.253906</ele>
        <time>2010-10-07T13:33:43Z</time>
      </trkpt>
      <trkpt lat="45.3455" lon="6.71063">
        <ele>2008.812012</ele>
        <time>2010-10-07T13:33:49Z</time>
      </trkpt>
      <trkpt lat="45.34553" lon="6.7106">
        <ele>2008.812012</ele>
        <time>2010-10-07T13:33:55Z</time>
      </trkpt>
      <trkpt lat="45.34552" lon="6.71054">
        <ele>2010.253906</ele>
        <time>2010-10-07T13:33:59Z</time>
      </trkpt>
      <trkpt lat="45.34549" lon="6.7105">
        <ele>2010.734619</ele>
        <time>2010-10-07T13:34:03Z</time>
      </trkpt>
      <trkpt lat="45.34548" lon="6.71048">
        <ele>2010.734619</ele>
        <time>2010-10-07T13:34:05Z</time>
      </trkpt>
      <trkpt lat="45.34544" lon="6.71042">
        <ele>2011.696045</ele>
        <time>2010-10-07T13:34:10Z</time>
      </trkpt>
      <trkpt lat="45.34542" lon="6.7104">
        <ele>2012.176758</ele>
        <time>2010-10-07T13:34:12Z</time>
      </trkpt>
      <trkpt lat="45.34538" lon="6.71042">
        <ele>2005.44751</ele>
        <time>2010-10-07T13:34:18Z</time>
      </trkpt>
      <trkpt lat="45.34534" lon="6.71039">
        <ele>2001.602295</ele>
        <time>2010-10-07T13:34:24Z</time>
      </trkpt>
      <trkpt lat="45.34528" lon="6.71038">
        <ele>1998.237549</ele>
        <time>2010-10-07T13:34:30Z</time>
      </trkpt>
      <trkpt lat="45.34524" lon="6.71036">
        <ele>1997.276367</ele>
        <time>2010-10-07T13:34:34Z</time>
      </trkpt>
      <trkpt lat="45.34519" lon="6.7103">
        <ele>1993.911621</ele>
        <time>2010-10-07T13:34:41Z</time>
      </trkpt>
      <trkpt lat="45.34513" lon="6.71027">
        <ele>1993.911621</ele>
        <time>2010-10-07T13:34:47Z</time>
      </trkpt>
      <trkpt lat="45.34507" lon="6.71021">
        <ele>1993.911621</ele>
        <time>2010-10-07T13:34:53Z</time>
      </trkpt>
      <trkpt lat="45.34499" lon="6.71013">
        <ele>1994.39209</ele>
        <time>2010-10-07T13:35:01Z</time>
      </trkpt>
      <trkpt lat="45.34493" lon="6.71003">
        <ele>1993.911621</ele>
        <time>2010-10-07T13:35:08Z</time>
      </trkpt>
      <trkpt lat="45.34493" lon="6.71002">
        <ele>1992.469727</ele>
        <time>2010-10-07T13:35:10Z</time>
      </trkpt>
      <trkpt lat="45.34489" lon="6.70996">
        <ele>1991.027588</ele>
        <time>2010-10-07T13:35:15Z</time>
      </trkpt>
      <trkpt lat="45.34493" lon="6.70996">
        <ele>1988.143799</ele>
        <time>2010-10-07T13:35:18Z</time>
      </trkpt>
      <trkpt lat="45.34499" lon="6.70996">
        <ele>1985.740479</ele>
        <time>2010-10-07T13:35:23Z</time>
      </trkpt>
      <trkpt lat="45.34505" lon="6.70996">
        <ele>1982.856445</ele>
        <time>2010-10-07T13:35:28Z</time>
      </trkpt>
      <trkpt lat="45.3451" lon="6.70991">
        <ele>1981.414551</ele>
        <time>2010-10-07T13:35:33Z</time>
      </trkpt>
      <trkpt lat="45.34515" lon="6.70986">
        <ele>1981.414551</ele>
        <time>2010-10-07T13:35:38Z</time>
      </trkpt>
      <trkpt lat="45.34524" lon="6.70981">
        <ele>1980.453369</ele>
        <time>2010-10-07T13:35:45Z</time>
      </trkpt>
      <trkpt lat="45.34529" lon="6.70979">
        <ele>1979.491699</ele>
        <time>2010-10-07T13:35:49Z</time>
      </trkpt>
      <trkpt lat="45.3454" lon="6.70983">
        <ele>1971.320557</ele>
        <time>2010-10-07T13:35:56Z</time>
      </trkpt>
      <trkpt lat="45.34544" lon="6.7098">
        <ele>1970.840088</ele>
        <time>2010-10-07T13:36:01Z</time>
      </trkpt>
      <trkpt lat="45.34539" lon="6.70973">
        <ele>1970.359375</ele>
        <time>2010-10-07T13:36:07Z</time>
      </trkpt>
      <trkpt lat="45.34534" lon="6.70964">
        <ele>1969.878662</ele>
        <time>2010-10-07T13:36:14Z</time>
      </trkpt>
      <trkpt lat="45.34535" lon="6.70956">
        <ele>1969.878662</ele>
        <time>2010-10-07T13:36:18Z</time>
      </trkpt>
      <trkpt lat="45.34535" lon="6.70948">
        <ele>1969.398193</ele>
        <time>2010-10-07T13:36:24Z</time>
      </trkpt>
      <trkpt lat="45.34535" lon="6.70947">
        <ele>1968.91748</ele>
        <time>2010-10-07T13:36:25Z</time>
      </trkpt>
      <trkpt lat="45.34528" lon="6.70945">
        <ele>1966.994873</ele>
        <time>2010-10-07T13:36:33Z</time>
      </trkpt>
      <trkpt lat="45.34525" lon="6.70943">
        <ele>1965.072266</ele>
        <time>2010-10-07T13:36:36Z</time>
      </trkpt>
      <trkpt lat="45.3452" lon="6.70938">
        <ele>1962.187988</ele>
        <time>2010-10-07T13:36:42Z</time>
      </trkpt>
      <trkpt lat="45.34519" lon="6.70937">
        <ele>1961.70752</ele>
        <time>2010-10-07T13:36:43Z</time>
      </trkpt>
      <trkpt lat="45.34512" lon="6.70936">
        <ele>1961.70752</ele>
        <time>2010-10-07T13:36:49Z</time>
      </trkpt>
      <trkpt lat="45.34502" lon="6.70938">
        <ele>1961.70752</ele>
        <time>2010-10-07T13:36:57Z</time>
      </trkpt>
      <trkpt lat="45.34497" lon="6.70937">
        <ele>1965.072266</ele>
        <time>2010-10-07T13:37:02Z</time>
      </trkpt>
      <trkpt lat="45.34495" lon="6.70938">
        <ele>1963.149414</ele>
        <time>2010-10-07T13:37:06Z</time>
      </trkpt>
      <trkpt lat="45.34491" lon="6.70938">
        <ele>1958.342773</ele>
        <time>2010-10-07T13:37:14Z</time>
      </trkpt>
      <trkpt lat="45.34489" lon="6.70936">
        <ele>1958.823486</ele>
        <time>2010-10-07T13:37:16Z</time>
      </trkpt>
      <trkpt lat="45.34485" lon="6.7093">
        <ele>1957.862305</ele>
        <time>2010-10-07T13:37:22Z</time>
      </trkpt>
      <trkpt lat="45.34482" lon="6.70924">
        <ele>1957.381592</ele>
        <time>2010-10-07T13:37:26Z</time>
      </trkpt>
      <trkpt lat="45.34477" lon="6.70919">
        <ele>1958.342773</ele>
        <time>2010-10-07T13:37:30Z</time>
      </trkpt>
      <trkpt lat="45.34472" lon="6.70911">
        <ele>1958.342773</ele>
        <time>2010-10-07T13:37:37Z</time>
      </trkpt>
      <trkpt lat="45.34472" lon="6.70909">
        <ele>1958.342773</ele>
        <time>2010-10-07T13:37:38Z</time>
      </trkpt>
      <trkpt lat="45.3447" lon="6.70903">
        <ele>1956.420166</ele>
        <time>2010-10-07T13:37:42Z</time>
      </trkpt>
      <trkpt lat="45.34465" lon="6.70896">
        <ele>1954.497559</ele>
        <time>2010-10-07T13:37:49Z</time>
      </trkpt>
      <trkpt lat="45.34463" lon="6.70894">
        <ele>1953.536377</ele>
        <time>2010-10-07T13:37:51Z</time>
      </trkpt>
      <trkpt lat="45.3446" lon="6.70887">
        <ele>1951.61377</ele>
        <time>2010-10-07T13:37:57Z</time>
      </trkpt>
      <trkpt lat="45.34457" lon="6.70882">
        <ele>1950.171875</ele>
        <time>2010-10-07T13:38:01Z</time>
      </trkpt>
      <trkpt lat="45.34454" lon="6.70874">
        <ele>1949.210449</ele>
        <time>2010-10-07T13:38:06Z</time>
      </trkpt>
      <trkpt lat="45.34449" lon="6.7086">
        <ele>1946.326416</ele>
        <time>2010-10-07T13:38:14Z</time>
      </trkpt>
      <trkpt lat="45.34447" lon="6.70848">
        <ele>1945.845703</ele>
        <time>2010-10-07T13:38:20Z</time>
      </trkpt>
      <trkpt lat="45.34449" lon="6.70839">
        <ele>1946.806885</ele>
        <time>2010-10-07T13:38:26Z</time>
      </trkpt>
      <trkpt lat="45.34452" lon="6.70833">
        <ele>1947.287598</ele>
        <time>2010-10-07T13:38:30Z</time>
      </trkpt>
      <trkpt lat="45.34449" lon="6.70828">
        <ele>1945.845703</ele>
        <time>2010-10-07T13:38:36Z</time>
      </trkpt>
      <trkpt lat="45.34448" lon="6.70821">
        <ele>1944.884277</ele>
        <time>2010-10-07T13:38:41Z</time>
      </trkpt>
      <trkpt lat="45.34448" lon="6.70816">
        <ele>1942.96167</ele>
        <time>2010-10-07T13:38:44Z</time>
      </trkpt>
      <trkpt lat="45.34444" lon="6.70809">
        <ele>1942.481201</ele>
        <time>2010-10-07T13:38:49Z</time>
      </trkpt>
      <trkpt lat="45.34443" lon="6.70801">
        <ele>1941.519775</ele>
        <time>2010-10-07T13:38:54Z</time>
      </trkpt>
      <trkpt lat="45.34443" lon="6.70789">
        <ele>1940.55835</ele>
        <time>2010-10-07T13:39:00Z</time>
      </trkpt>
      <trkpt lat="45.34444" lon="6.70776">
        <ele>1939.597168</ele>
        <time>2010-10-07T13:39:07Z</time>
      </trkpt>
      <trkpt lat="45.34444" lon="6.70772">
        <ele>1939.597168</ele>
        <time>2010-10-07T13:39:09Z</time>
      </trkpt>
      <trkpt lat="45.34447" lon="6.70764">
        <ele>1938.155273</ele>
        <time>2010-10-07T13:39:14Z</time>
      </trkpt>
      <trkpt lat="45.34451" lon="6.7075">
        <ele>1936.713135</ele>
        <time>2010-10-07T13:39:22Z</time>
      </trkpt>
      <trkpt lat="45.34454" lon="6.70738">
        <ele>1934.790771</ele>
        <time>2010-10-07T13:39:29Z</time>
      </trkpt>
      <trkpt lat="45.34455" lon="6.70737">
        <ele>1934.790771</ele>
        <time>2010-10-07T13:39:30Z</time>
      </trkpt>
      <trkpt lat="45.34457" lon="6.70724">
        <ele>1932.86792</ele>
        <time>2010-10-07T13:39:37Z</time>
      </trkpt>
      <trkpt lat="45.34459" lon="6.70715">
        <ele>1931.906494</ele>
        <time>2010-10-07T13:39:42Z</time>
      </trkpt>
      <trkpt lat="45.34457" lon="6.70704">
        <ele>1930.945312</ele>
        <time>2010-10-07T13:39:49Z</time>
      </trkpt>
      <trkpt lat="45.34456" lon="6.70699">
        <ele>1929.983887</ele>
        <time>2010-10-07T13:39:55Z</time>
      </trkpt>
      <trkpt lat="45.34456" lon="6.70697">
        <ele>1929.983887</ele>
        <time>2010-10-07T13:39:56Z</time>
      </trkpt>
      <trkpt lat="45.34461" lon="6.70695">
        <ele>1928.061279</ele>
        <time>2010-10-07T13:40:02Z</time>
      </trkpt>
      <trkpt lat="45.3446" lon="6.70687">
        <ele>1926.619385</ele>
        <time>2010-10-07T13:40:08Z</time>
      </trkpt>
      <trkpt lat="45.34463" lon="6.70689">
        <ele>1925.657959</ele>
        <time>2010-10-07T13:40:11Z</time>
      </trkpt>
      <trkpt lat="45.34468" lon="6.70689">
        <ele>1924.216064</ele>
        <time>2010-10-07T13:40:16Z</time>
      </trkpt>
      <trkpt lat="45.34471" lon="6.70683">
        <ele>1922.77417</ele>
        <time>2010-10-07T13:40:22Z</time>
      </trkpt>
      <trkpt lat="45.34474" lon="6.70684">
        <ele>1921.812744</ele>
        <time>2010-10-07T13:40:26Z</time>
      </trkpt>
      <trkpt lat="45.34478" lon="6.70686">
        <ele>1920.37085</ele>
        <time>2010-10-07T13:40:32Z</time>
      </trkpt>
      <trkpt lat="45.34483" lon="6.70686">
        <ele>1917.967529</ele>
        <time>2010-10-07T13:40:37Z</time>
      </trkpt>
      <trkpt lat="45.34488" lon="6.7069">
        <ele>1916.044922</ele>
        <time>2010-10-07T13:40:42Z</time>
      </trkpt>
      <trkpt lat="45.34491" lon="6.70695">
        <ele>1914.602783</ele>
        <time>2010-10-07T13:40:48Z</time>
      </trkpt>
      <trkpt lat="45.34492" lon="6.70697">
        <ele>1914.602783</ele>
        <time>2010-10-07T13:40:50Z</time>
      </trkpt>
      <trkpt lat="45.34498" lon="6.70701">
        <ele>1914.12207</ele>
        <time>2010-10-07T13:40:57Z</time>
      </trkpt>
      <trkpt lat="45.34503" lon="6.70704">
        <ele>1912.680176</ele>
        <time>2010-10-07T13:41:03Z</time>
      </trkpt>
      <trkpt lat="45.34508" lon="6.70706">
        <ele>1912.199463</ele>
        <time>2010-10-07T13:41:08Z</time>
      </trkpt>
      <trkpt lat="45.34513" lon="6.70705">
        <ele>1910.276855</ele>
        <time>2010-10-07T13:41:14Z</time>
      </trkpt>
      <trkpt lat="45.34516" lon="6.70703">
        <ele>1909.796143</ele>
        <time>2010-10-07T13:41:17Z</time>
      </trkpt>
      <trkpt lat="45.34516" lon="6.70695">
        <ele>1908.354248</ele>
        <time>2010-10-07T13:41:23Z</time>
      </trkpt>
      <trkpt lat="45.34517" lon="6.70688">
        <ele>1907.393066</ele>
        <time>2010-10-07T13:41:28Z</time>
      </trkpt>
      <trkpt lat="45.34516" lon="6.70684">
        <ele>1906.912354</ele>
        <time>2010-10-07T13:41:31Z</time>
      </trkpt>
      <trkpt lat="45.34513" lon="6.70677">
        <ele>1906.431641</ele>
        <time>2010-10-07T13:41:37Z</time>
      </trkpt>
      <trkpt lat="45.34512" lon="6.70675">
        <ele>1905.950928</ele>
        <time>2010-10-07T13:41:39Z</time>
      </trkpt>
      <trkpt lat="45.34512" lon="6.70669">
        <ele>1904.028564</ele>
        <time>2010-10-07T13:41:45Z</time>
      </trkpt>
      <trkpt lat="45.3451" lon="6.70662">
        <ele>1902.105713</ele>
        <time>2010-10-07T13:41:50Z</time>
      </trkpt>
      <trkpt lat="45.34508" lon="6.70656">
        <ele>1900.663818</ele>
        <time>2010-10-07T13:41:56Z</time>
      </trkpt>
      <trkpt lat="45.34507" lon="6.70649">
        <ele>1899.22168</ele>
        <time>2010-10-07T13:42:02Z</time>
      </trkpt>
      <trkpt lat="45.34506" lon="6.70642">
        <ele>1898.260254</ele>
        <time>2010-10-07T13:42:07Z</time>
      </trkpt>
      <trkpt lat="45.34505" lon="6.70639">
        <ele>1897.779785</ele>
        <time>2010-10-07T13:42:09Z</time>
      </trkpt>
      <trkpt lat="45.34503" lon="6.70631">
        <ele>1896.337891</ele>
        <time>2010-10-07T13:42:16Z</time>
      </trkpt>
      <trkpt lat="45.345" lon="6.70623">
        <ele>1895.857178</ele>
        <time>2010-10-07T13:42:21Z</time>
      </trkpt>
      <trkpt lat="45.34497" lon="6.70614">
        <ele>1892.973145</ele>
        <time>2010-10-07T13:42:27Z</time>
      </trkpt>
      <trkpt lat="45.34495" lon="6.7061">
        <ele>1891.53125</ele>
        <time>2010-10-07T13:42:30Z</time>
      </trkpt>
      <trkpt lat="45.34489" lon="6.70603">
        <ele>1889.12793</ele>
        <time>2010-10-07T13:42:36Z</time>
      </trkpt>
      <trkpt lat="45.34483" lon="6.70591">
        <ele>1889.12793</ele>
        <time>2010-10-07T13:42:43Z</time>
      </trkpt>
      <trkpt lat="45.34483" lon="6.70582">
        <ele>1893.453857</ele>
        <time>2010-10-07T13:42:47Z</time>
      </trkpt>
      <trkpt lat="45.3448" lon="6.70572">
        <ele>1891.050537</ele>
        <time>2010-10-07T13:42:54Z</time>
      </trkpt>
      <trkpt lat="45.34481" lon="6.70569">
        <ele>1889.12793</ele>
        <time>2010-10-07T13:42:57Z</time>
      </trkpt>
      <trkpt lat="45.34481" lon="6.70561">
        <ele>1884.802246</ele>
        <time>2010-10-07T13:43:04Z</time>
      </trkpt>
      <trkpt lat="45.34482" lon="6.70554">
        <ele>1882.87915</ele>
        <time>2010-10-07T13:43:09Z</time>
      </trkpt>
      <trkpt lat="45.34483" lon="6.7055">
        <ele>1882.87915</ele>
        <time>2010-10-07T13:43:12Z</time>
      </trkpt>
      <trkpt lat="45.34488" lon="6.70548">
        <ele>1880.476074</ele>
        <time>2010-10-07T13:43:18Z</time>
      </trkpt>
      <trkpt lat="45.34491" lon="6.70555">
        <ele>1879.033936</ele>
        <time>2010-10-07T13:43:23Z</time>
      </trkpt>
      <trkpt lat="45.34493" lon="6.70556">
        <ele>1878.072754</ele>
        <time>2010-10-07T13:43:26Z</time>
      </trkpt>
      <trkpt lat="45.34499" lon="6.70561">
        <ele>1876.150146</ele>
        <time>2010-10-07T13:43:32Z</time>
      </trkpt>
      <trkpt lat="45.34503" lon="6.70558">
        <ele>1874.708252</ele>
        <time>2010-10-07T13:43:38Z</time>
      </trkpt>
      <trkpt lat="45.34504" lon="6.7056">
        <ele>1873.746826</ele>
        <time>2010-10-07T13:43:42Z</time>
      </trkpt>
      <trkpt lat="45.34507" lon="6.70555">
        <ele>1872.785645</ele>
        <time>2010-10-07T13:43:48Z</time>
      </trkpt>
      <trkpt lat="45.34506" lon="6.70547">
        <ele>1872.304932</ele>
        <time>2010-10-07T13:43:54Z</time>
      </trkpt>
      <trkpt lat="45.34509" lon="6.70547">
        <ele>1870.382324</ele>
        <time>2010-10-07T13:43:59Z</time>
      </trkpt>
      <trkpt lat="45.34514" lon="6.7054">
        <ele>1869.421143</ele>
        <time>2010-10-07T13:44:09Z</time>
      </trkpt>
      <trkpt lat="45.34518" lon="6.70543">
        <ele>1866.056152</ele>
        <time>2010-10-07T13:44:14Z</time>
      </trkpt>
      <trkpt lat="45.34519" lon="6.70541">
        <ele>1866.536865</ele>
        <time>2010-10-07T13:44:17Z</time>
      </trkpt>
      <trkpt lat="45.34519" lon="6.70536">
        <ele>1866.056152</ele>
        <time>2010-10-07T13:44:22Z</time>
      </trkpt>
      <trkpt lat="45.3452" lon="6.70535">
        <ele>1865.575684</ele>
        <time>2010-10-07T13:44:23Z</time>
      </trkpt>
      <trkpt lat="45.34526" lon="6.70535">
        <ele>1863.172363</ele>
        <time>2010-10-07T13:44:28Z</time>
      </trkpt>
      <trkpt lat="45.34534" lon="6.70538">
        <ele>1859.327148</ele>
        <time>2010-10-07T13:44:34Z</time>
      </trkpt>
      <trkpt lat="45.34543" lon="6.70535">
        <ele>1855.962402</ele>
        <time>2010-10-07T13:44:41Z</time>
      </trkpt>
      <trkpt lat="45.34549" lon="6.70534">
        <ele>1855.001221</ele>
        <time>2010-10-07T13:44:47Z</time>
      </trkpt>
      <trkpt lat="45.3455" lon="6.70533">
        <ele>1855.001221</ele>
        <time>2010-10-07T13:44:49Z</time>
      </trkpt>
      <trkpt lat="45.34549" lon="6.70527">
        <ele>1855.001221</ele>
        <time>2010-10-07T13:44:55Z</time>
      </trkpt>
      <trkpt lat="45.3455" lon="6.70518">
        <ele>1854.040039</ele>
        <time>2010-10-07T13:45:01Z</time>
      </trkpt>
      <trkpt lat="45.34556" lon="6.70517">
        <ele>1851.155762</ele>
        <time>2010-10-07T13:45:06Z</time>
      </trkpt>
      <trkpt lat="45.34557" lon="6.70516">
        <ele>1851.636475</ele>
        <time>2010-10-07T13:45:08Z</time>
      </trkpt>
      <trkpt lat="45.34563" lon="6.7052">
        <ele>1849.713867</ele>
        <time>2010-10-07T13:45:12Z</time>
      </trkpt>
      <trkpt lat="45.34572" lon="6.70529">
        <ele>1842.984619</ele>
        <time>2010-10-07T13:45:19Z</time>
      </trkpt>
      <trkpt lat="45.34574" lon="6.70531">
        <ele>1843.465332</ele>
        <time>2010-10-07T13:45:24Z</time>
      </trkpt>
      <trkpt lat="45.34573" lon="6.70523">
        <ele>1843.465332</ele>
        <time>2010-10-07T13:45:30Z</time>
      </trkpt>
      <trkpt lat="45.34573" lon="6.70518">
        <ele>1843.465332</ele>
        <time>2010-10-07T13:45:33Z</time>
      </trkpt>
      <trkpt lat="45.34573" lon="6.7051">
        <ele>1843.465332</ele>
        <time>2010-10-07T13:45:37Z</time>
      </trkpt>
      <trkpt lat="45.34572" lon="6.70503">
        <ele>1846.349365</ele>
        <time>2010-10-07T13:45:43Z</time>
      </trkpt>
      <trkpt lat="45.34575" lon="6.70497">
        <ele>1846.349365</ele>
        <time>2010-10-07T13:45:50Z</time>
      </trkpt>
      <trkpt lat="45.34576" lon="6.70497">
        <ele>1846.349365</ele>
        <time>2010-10-07T13:45:51Z</time>
      </trkpt>
      <trkpt lat="45.34585" lon="6.705">
        <ele>1840.10083</ele>
        <time>2010-10-07T13:45:57Z</time>
      </trkpt>
      <trkpt lat="45.34587" lon="6.70494">
        <ele>1836.255615</ele>
        <time>2010-10-07T13:46:02Z</time>
      </trkpt>
      <trkpt lat="45.34587" lon="6.70494">
        <ele>1834.332764</ele>
        <time>2010-10-07T13:46:04Z</time>
      </trkpt>
      <trkpt lat="45.34594" lon="6.70501">
        <ele>1834.332764</ele>
        <time>2010-10-07T13:46:10Z</time>
      </trkpt>
      <trkpt lat="45.34597" lon="6.70503">
        <ele>1833.852051</ele>
        <time>2010-10-07T13:46:13Z</time>
      </trkpt>
      <trkpt lat="45.34602" lon="6.70501">
        <ele>1830.487549</ele>
        <time>2010-10-07T13:46:18Z</time>
      </trkpt>
      <trkpt lat="45.34606" lon="6.70499">
        <ele>1827.603516</ele>
        <time>2010-10-07T13:46:22Z</time>
      </trkpt>
      <trkpt lat="45.3461" lon="6.70497">
        <ele>1825.200195</ele>
        <time>2010-10-07T13:46:24Z</time>
      </trkpt>
      <trkpt lat="45.34612" lon="6.70492">
        <ele>1824.239014</ele>
        <time>2010-10-07T13:46:29Z</time>
      </trkpt>
      <trkpt lat="45.34612" lon="6.70488">
        <ele>1823.277832</ele>
        <time>2010-10-07T13:46:32Z</time>
      </trkpt>
      <trkpt lat="45.34607" lon="6.70478">
        <ele>1824.719727</ele>
        <time>2010-10-07T13:46:38Z</time>
      </trkpt>
      <trkpt lat="45.34607" lon="6.70475">
        <ele>1824.239014</ele>
        <time>2010-10-07T13:46:40Z</time>
      </trkpt>
      <trkpt lat="45.34611" lon="6.70473">
        <ele>1822.797119</ele>
        <time>2010-10-07T13:46:44Z</time>
      </trkpt>
      <trkpt lat="45.34613" lon="6.70475">
        <ele>1822.797119</ele>
        <time>2010-10-07T13:46:47Z</time>
      </trkpt>
      <trkpt lat="45.34617" lon="6.70473">
        <ele>1822.797119</ele>
        <time>2010-10-07T13:46:53Z</time>
      </trkpt>
      <trkpt lat="45.34623" lon="6.70474">
        <ele>1821.35498</ele>
        <time>2010-10-07T13:47:00Z</time>
      </trkpt>
      <trkpt lat="45.34628" lon="6.70474">
        <ele>1819.912842</ele>
        <time>2010-10-07T13:47:04Z</time>
      </trkpt>
      <trkpt lat="45.34629" lon="6.70474">
        <ele>1819.432373</ele>
        <time>2010-10-07T13:47:05Z</time>
      </trkpt>
      <trkpt lat="45.34634" lon="6.70475">
        <ele>1817.509521</ele>
        <time>2010-10-07T13:47:09Z</time>
      </trkpt>
      <trkpt lat="45.34637" lon="6.70476">
        <ele>1815.106445</ele>
        <time>2010-10-07T13:47:10Z</time>
      </trkpt>
      <trkpt lat="45.3464" lon="6.70479">
        <ele>1819.912842</ele>
        <time>2010-10-07T13:47:16Z</time>
      </trkpt>
      <trkpt lat="45.34644" lon="6.7048">
        <ele>1821.35498</ele>
        <time>2010-10-07T13:47:21Z</time>
      </trkpt>
      <trkpt lat="45.34646" lon="6.70482">
        <ele>1821.835693</ele>
        <time>2010-10-07T13:47:25Z</time>
      </trkpt>
      <trkpt lat="45.34648" lon="6.70486">
        <ele>1822.797119</ele>
        <time>2010-10-07T13:47:29Z</time>
      </trkpt>
      <trkpt lat="45.3465" lon="6.70488">
        <ele>1821.835693</ele>
        <time>2010-10-07T13:47:31Z</time>
      </trkpt>
      <trkpt lat="45.34655" lon="6.70493">
        <ele>1819.912842</ele>
        <time>2010-10-07T13:47:34Z</time>
      </trkpt>
      <trkpt lat="45.3466" lon="6.70498">
        <ele>1816.067627</ele>
        <time>2010-10-07T13:47:39Z</time>
      </trkpt>
      <trkpt lat="45.34665" lon="6.705">
        <ele>1813.664307</ele>
        <time>2010-10-07T13:47:45Z</time>
      </trkpt>
      <trkpt lat="45.34668" lon="6.70496">
        <ele>1812.222412</ele>
        <time>2010-10-07T13:47:48Z</time>
      </trkpt>
      <trkpt lat="45.34676" lon="6.70488">
        <ele>1809.819092</ele>
        <time>2010-10-07T13:47:55Z</time>
      </trkpt>
      <trkpt lat="45.34679" lon="6.70482">
        <ele>1808.85791</ele>
        <time>2010-10-07T13:48:00Z</time>
      </trkpt>
      <trkpt lat="45.34683" lon="6.70475">
        <ele>1807.416016</ele>
        <time>2010-10-07T13:48:05Z</time>
      </trkpt>
      <trkpt lat="45.34682" lon="6.70462">
        <ele>1805.493408</ele>
        <time>2010-10-07T13:48:13Z</time>
      </trkpt>
      <trkpt lat="45.3468" lon="6.70455">
        <ele>1804.531982</ele>
        <time>2010-10-07T13:48:17Z</time>
      </trkpt>
      <trkpt lat="45.34677" lon="6.70443">
        <ele>1803.089844</ele>
        <time>2010-10-07T13:48:24Z</time>
      </trkpt>
      <trkpt lat="45.34684" lon="6.70443">
        <ele>1802.609131</ele>
        <time>2010-10-07T13:48:25Z</time>
      </trkpt>
      <trkpt lat="45.34683" lon="6.70435">
        <ele>1801.647949</ele>
        <time>2010-10-07T13:48:31Z</time>
      </trkpt>
      <trkpt lat="45.34682" lon="6.70428">
        <ele>1800.686523</ele>
        <time>2010-10-07T13:48:35Z</time>
      </trkpt>
      <trkpt lat="45.34687" lon="6.70425">
        <ele>1799.244629</ele>
        <time>2010-10-07T13:48:39Z</time>
      </trkpt>
      <trkpt lat="45.34691" lon="6.70419">
        <ele>1797.322021</ele>
        <time>2010-10-07T13:48:44Z</time>
      </trkpt>
      <trkpt lat="45.34701" lon="6.70408">
        <ele>1792.515625</ele>
        <time>2010-10-07T13:48:58Z</time>
      </trkpt>
      <trkpt lat="45.34704" lon="6.7041">
        <ele>1792.515625</ele>
        <time>2010-10-07T13:49:05Z</time>
      </trkpt>
      <trkpt lat="45.34705" lon="6.70397">
        <ele>1787.70874</ele>
        <time>2010-10-07T13:49:15Z</time>
      </trkpt>
      <trkpt lat="45.34703" lon="6.70392">
        <ele>1787.228027</ele>
        <time>2010-10-07T13:49:19Z</time>
      </trkpt>
      <trkpt lat="45.34703" lon="6.70388">
        <ele>1785.786133</ele>
        <time>2010-10-07T13:49:23Z</time>
      </trkpt>
      <trkpt lat="45.34793" lon="6.70395">
        <ele>1782.421631</ele>
        <time>2010-10-07T13:49:27Z</time>
      </trkpt>
      <trkpt lat="45.34788" lon="6.70393">
        <ele>1780.979736</ele>
        <time>2010-10-07T13:49:28Z</time>
      </trkpt>
      <trkpt lat="45.3478" lon="6.70386">
        <ele>1778.095703</ele>
        <time>2010-10-07T13:49:32Z</time>
      </trkpt>
      <trkpt lat="45.34778" lon="6.70383">
        <ele>1776.173096</ele>
        <time>2010-10-07T13:49:34Z</time>
      </trkpt>
      <trkpt lat="45.34776" lon="6.70373">
        <ele>1774.250488</ele>
        <time>2010-10-07T13:49:40Z</time>
      </trkpt>
      <trkpt lat="45.3477" lon="6.70367">
        <ele>1774.250488</ele>
        <time>2010-10-07T13:49:44Z</time>
      </trkpt>
      <trkpt lat="45.34732" lon="6.70357">
        <ele>1774.731201</ele>
        <time>2010-10-07T13:49:48Z</time>
      </trkpt>
      <trkpt lat="45.34714" lon="6.7035">
        <ele>1773.769775</ele>
        <time>2010-10-07T13:49:52Z</time>
      </trkpt>
      <trkpt lat="45.3471" lon="6.70344">
        <ele>1773.289307</ele>
        <time>2010-10-07T13:49:56Z</time>
      </trkpt>
      <trkpt lat="45.34709" lon="6.70342">
        <ele>1772.808594</ele>
        <time>2010-10-07T13:49:57Z</time>
      </trkpt>
      <trkpt lat="45.34705" lon="6.70335">
        <ele>1770.885742</ele>
        <time>2010-10-07T13:50:01Z</time>
      </trkpt>
      <trkpt lat="45.34703" lon="6.70332">
        <ele>1770.405029</ele>
        <time>2010-10-07T13:50:03Z</time>
      </trkpt>
      <trkpt lat="45.34699" lon="6.70327">
        <ele>1769.924316</ele>
        <time>2010-10-07T13:50:06Z</time>
      </trkpt>
      <trkpt lat="45.34674" lon="6.70314">
        <ele>1774.250488</ele>
        <time>2010-10-07T13:50:13Z</time>
      </trkpt>
      <trkpt lat="45.34665" lon="6.70308">
        <ele>1772.327881</ele>
        <time>2010-10-07T13:50:17Z</time>
      </trkpt>
      <trkpt lat="45.34664" lon="6.70304">
        <ele>1768.482422</ele>
        <time>2010-10-07T13:50:20Z</time>
      </trkpt>
      <trkpt lat="45.34658" lon="6.70298">
        <ele>1766.079102</ele>
        <time>2010-10-07T13:50:25Z</time>
      </trkpt>
      <trkpt lat="45.34657" lon="6.70293">
        <ele>1764.637207</ele>
        <time>2010-10-07T13:50:29Z</time>
      </trkpt>
      <trkpt lat="45.34653" lon="6.70286">
        <ele>1762.233887</ele>
        <time>2010-10-07T13:50:36Z</time>
      </trkpt>
      <trkpt lat="45.34654" lon="6.70281">
        <ele>1760.791992</ele>
        <time>2010-10-07T13:50:40Z</time>
      </trkpt>
      <trkpt lat="45.34656" lon="6.70273">
        <ele>1757.908203</ele>
        <time>2010-10-07T13:50:46Z</time>
      </trkpt>
      <trkpt lat="45.34654" lon="6.70267">
        <ele>1756.946777</ele>
        <time>2010-10-07T13:50:50Z</time>
      </trkpt>
      <trkpt lat="45.34653" lon="6.70258">
        <ele>1755.504639</ele>
        <time>2010-10-07T13:50:56Z</time>
      </trkpt>
      <trkpt lat="45.34651" lon="6.70254">
        <ele>1753.101318</ele>
        <time>2010-10-07T13:50:59Z</time>
      </trkpt>
      <trkpt lat="45.34649" lon="6.70249">
        <ele>1751.659424</ele>
        <time>2010-10-07T13:51:02Z</time>
      </trkpt>
      <trkpt lat="45.34647" lon="6.70243">
        <ele>1749.256104</ele>
        <time>2010-10-07T13:51:06Z</time>
      </trkpt>
      <trkpt lat="45.34646" lon="6.7023">
        <ele>1746.852783</ele>
        <time>2010-10-07T13:51:14Z</time>
      </trkpt>
      <trkpt lat="45.34646" lon="6.70228">
        <ele>1743.968994</ele>
        <time>2010-10-07T13:51:20Z</time>
      </trkpt>
      <trkpt lat="45.34645" lon="6.70225">
        <ele>1745.891602</ele>
        <time>2010-10-07T13:51:24Z</time>
      </trkpt>
      <trkpt lat="45.34644" lon="6.70222">
        <ele>1745.410889</ele>
        <time>2010-10-07T13:51:26Z</time>
      </trkpt>
      <trkpt lat="45.34641" lon="6.70214">
        <ele>1745.410889</ele>
        <time>2010-10-07T13:51:30Z</time>
      </trkpt>
      <trkpt lat="45.34637" lon="6.70203">
        <ele>1743.488281</ele>
        <time>2010-10-07T13:51:37Z</time>
      </trkpt>
      <trkpt lat="45.34633" lon="6.70194">
        <ele>1739.642822</ele>
        <time>2010-10-07T13:51:44Z</time>
      </trkpt>
      <trkpt lat="45.34624" lon="6.70184">
        <ele>1739.642822</ele>
        <time>2010-10-07T13:51:51Z</time>
      </trkpt>
      <trkpt lat="45.34614" lon="6.70177">
        <ele>1739.642822</ele>
        <time>2010-10-07T13:51:58Z</time>
      </trkpt>
      <trkpt lat="45.34606" lon="6.70168">
        <ele>1733.875</ele>
        <time>2010-10-07T13:52:06Z</time>
      </trkpt>
      <trkpt lat="45.34598" lon="6.70159">
        <ele>1730.510498</ele>
        <time>2010-10-07T13:52:14Z</time>
      </trkpt>
      <trkpt lat="45.34595" lon="6.70157">
        <ele>1728.587891</ele>
        <time>2010-10-07T13:52:17Z</time>
      </trkpt>
      <trkpt lat="45.3459" lon="6.7015">
        <ele>1723.300537</ele>
        <time>2010-10-07T13:52:24Z</time>
      </trkpt>
      <trkpt lat="45.34583" lon="6.70143">
        <ele>1722.339111</ele>
        <time>2010-10-07T13:52:30Z</time>
      </trkpt>
      <trkpt lat="45.34574" lon="6.70136">
        <ele>1722.819824</ele>
        <time>2010-10-07T13:52:37Z</time>
      </trkpt>
      <trkpt lat="45.34573" lon="6.70135">
        <ele>1722.819824</ele>
        <time>2010-10-07T13:52:38Z</time>
      </trkpt>
      <trkpt lat="45.34566" lon="6.70125">
        <ele>1724.261963</ele>
        <time>2010-10-07T13:52:45Z</time>
      </trkpt>
      <trkpt lat="45.34555" lon="6.70116">
        <ele>1725.703857</ele>
        <time>2010-10-07T13:52:53Z</time>
      </trkpt>
      <trkpt lat="45.34544" lon="6.70109">
        <ele>1727.145996</ele>
        <time>2010-10-07T13:53:00Z</time>
      </trkpt>
      <trkpt lat="45.34536" lon="6.70106">
        <ele>1728.107178</ele>
        <time>2010-10-07T13:53:05Z</time>
      </trkpt>
      <trkpt lat="45.34531" lon="6.70099">
        <ele>1728.107178</ele>
        <time>2010-10-07T13:53:10Z</time>
      </trkpt>
      <trkpt lat="45.34523" lon="6.70095">
        <ele>1730.510498</ele>
        <time>2010-10-07T13:53:16Z</time>
      </trkpt>
      <trkpt lat="45.34522" lon="6.70094">
        <ele>1730.510498</ele>
        <time>2010-10-07T13:53:17Z</time>
      </trkpt>
      <trkpt lat="45.34521" lon="6.70091">
        <ele>1728.587891</ele>
        <time>2010-10-07T13:53:20Z</time>
      </trkpt>
      <trkpt lat="45.34522" lon="6.70088">
        <ele>1727.626465</ele>
        <time>2010-10-07T13:53:22Z</time>
      </trkpt>
      <trkpt lat="45.34528" lon="6.70077">
        <ele>1723.300537</ele>
        <time>2010-10-07T13:53:29Z</time>
      </trkpt>
      <trkpt lat="45.3453" lon="6.70068">
        <ele>1721.858398</ele>
        <time>2010-10-07T13:53:35Z</time>
      </trkpt>
      <trkpt lat="45.34531" lon="6.70061">
        <ele>1720.416504</ele>
        <time>2010-10-07T13:53:40Z</time>
      </trkpt>
      <trkpt lat="45.34531" lon="6.70057">
        <ele>1719.935791</ele>
        <time>2010-10-07T13:53:43Z</time>
      </trkpt>
      <trkpt lat="45.34538" lon="6.70054">
        <ele>1717.052002</ele>
        <time>2010-10-07T13:53:51Z</time>
      </trkpt>
      <trkpt lat="45.34538" lon="6.70054">
        <ele>1716.090576</ele>
        <time>2010-10-07T13:53:53Z</time>
      </trkpt>
    </trkseg>
  </trk>
</gpx>